<?xml version='1.0' encoding='UTF-8'?><gpx version="1.1" creator="JPX - https://github.com/jenetics/jpx" xmlns="http://www.topografix.com/GPX/1/1"><trk><trkseg><trkpt lat="40.9637928" lon="14.2441247"><ele>39.0</ele><time>2026-04-22T07:46:58.125Z</time></trkpt><trkpt lat="40.963832" lon="14.2442272"><ele>39.0</ele><time>2026-04-22T07:47:00.163Z</time></trkpt><trkpt lat="40.9638398" lon="14.2443607"><ele>39.0</ele><time>2026-04-22T07:47:02.144Z</time></trkpt><trkpt lat="40.9638132" lon="14.2444659"><ele>39.0</ele><time>2026-04-22T07:47:03.112Z</time></trkpt><trkpt lat="40.9637791" lon="14.2445874"><ele>39.0</ele><time>2026-04-22T07:47:04.136Z</time></trkpt><trkpt lat="40.9637438" lon="14.2447029"><ele>39.0</ele><time>2026-04-22T07:47:05.133Z</time></trkpt><trkpt lat="40.9636984" lon="14.244832"><ele>39.0</ele><time>2026-04-22T07:47:06.185Z</time></trkpt><trkpt lat="40.9636582" lon="14.2449539"><ele>39.0</ele><time>2026-04-22T07:47:07.172Z</time></trkpt><trkpt lat="40.9636196" lon="14.2450805"><ele>39.0</ele><time>2026-04-22T07:47:08.182Z</time></trkpt><trkpt lat="40.9635828" lon="14.2451935"><ele>39.0</ele><time>2026-04-22T07:47:09.132Z</time></trkpt><trkpt lat="40.9635434" lon="14.2453019"><ele>39.0</ele><time>2026-04-22T07:47:10.167Z</time></trkpt><trkpt lat="40.9635105" lon="14.2454003"><ele>39.0</ele><time>2026-04-22T07:47:11.18Z</time></trkpt><trkpt lat="40.9634761" lon="14.2455028"><ele>39.0</ele><time>2026-04-22T07:47:12.184Z</time></trkpt><trkpt lat="40.9634427" lon="14.2456055"><ele>39.0</ele><time>2026-04-22T07:47:13.208Z</time></trkpt><trkpt lat="40.9634117" lon="14.2457039"><ele>39.0</ele><time>2026-04-22T07:47:14.187Z</time></trkpt><trkpt lat="40.9633777" lon="14.2458078"><ele>39.0</ele><time>2026-04-22T07:47:15.181Z</time></trkpt><trkpt lat="40.9633455" lon="14.2459076"><ele>39.0</ele><time>2026-04-22T07:47:16.168Z</time></trkpt><trkpt lat="40.9633153" lon="14.2459987"><ele>39.0</ele><time>2026-04-22T07:47:17.191Z</time></trkpt><trkpt lat="40.963272" lon="14.246145"><ele>39.0</ele><time>2026-04-22T07:47:19.163Z</time></trkpt><trkpt lat="40.9632676" lon="14.2462606"><ele>39.0</ele><time>2026-04-22T07:47:21.178Z</time></trkpt><trkpt lat="40.9633467" lon="14.2462639"><ele>39.0</ele><time>2026-04-22T07:47:23.152Z</time></trkpt><trkpt lat="40.9634108" lon="14.2462592"><ele>39.0</ele><time>2026-04-22T07:47:24.152Z</time></trkpt><trkpt lat="40.9634969" lon="14.2462567"><ele>39.0</ele><time>2026-04-22T07:47:25.142Z</time></trkpt><trkpt lat="40.9635831" lon="14.2462562"><ele>39.0</ele><time>2026-04-22T07:47:26.203Z</time></trkpt><trkpt lat="40.9636474" lon="14.2462511"><ele>39.0</ele><time>2026-04-22T07:47:27.162Z</time></trkpt><trkpt lat="40.9637195" lon="14.2462484"><ele>39.0</ele><time>2026-04-22T07:47:28.2Z</time></trkpt><trkpt lat="40.9637928" lon="14.2462527"><ele>39.0</ele><time>2026-04-22T07:47:29.165Z</time></trkpt><trkpt lat="40.9638651" lon="14.2462577"><ele>39.0</ele><time>2026-04-22T07:47:30.179Z</time></trkpt><trkpt lat="40.9639409" lon="14.2462598"><ele>39.0</ele><time>2026-04-22T07:47:31.163Z</time></trkpt><trkpt lat="40.9640105" lon="14.2462676"><ele>39.0</ele><time>2026-04-22T07:47:32.162Z</time></trkpt><trkpt lat="40.9640766" lon="14.2462742"><ele>39.0</ele><time>2026-04-22T07:47:33.165Z</time></trkpt><trkpt lat="40.9641443" lon="14.2462747"><ele>39.0</ele><time>2026-04-22T07:47:34.161Z</time></trkpt><trkpt lat="40.9642102" lon="14.2462734"><ele>39.0</ele><time>2026-04-22T07:47:35.183Z</time></trkpt><trkpt lat="40.9643298" lon="14.2462815"><ele>39.0</ele><time>2026-04-22T07:47:37.185Z</time></trkpt><trkpt lat="40.9644514" lon="14.2462961"><ele>39.0</ele><time>2026-04-22T07:47:39.158Z</time></trkpt><trkpt lat="40.9645624" lon="14.2463185"><ele>38.8</ele><time>2026-04-22T07:47:41.16Z</time></trkpt><trkpt lat="40.9646837" lon="14.246319"><ele>38.599999999999994</ele><time>2026-04-22T07:47:43.161Z</time></trkpt><trkpt lat="40.9647712" lon="14.2463311"><ele>38.4</ele><time>2026-04-22T07:47:45.162Z</time></trkpt><trkpt lat="40.9648632" lon="14.2463294"><ele>38.199999999999996</ele><time>2026-04-22T07:47:47.18Z</time></trkpt><trkpt lat="40.9649828" lon="14.2463202"><ele>38.0</ele><time>2026-04-22T07:47:49.224Z</time></trkpt><trkpt lat="40.9650526" lon="14.246328"><ele>38.0</ele><time>2026-04-22T07:47:50.172Z</time></trkpt><trkpt lat="40.9651375" lon="14.2463245"><ele>38.0</ele><time>2026-04-22T07:47:51.186Z</time></trkpt><trkpt lat="40.9652356" lon="14.2463304"><ele>38.0</ele><time>2026-04-22T07:47:52.18Z</time></trkpt><trkpt lat="40.9653239" lon="14.24634"><ele>38.0</ele><time>2026-04-22T07:47:53.172Z</time></trkpt><trkpt lat="40.9654173" lon="14.246351"><ele>38.0</ele><time>2026-04-22T07:47:54.229Z</time></trkpt><trkpt lat="40.9654892" lon="14.2463535"><ele>38.0</ele><time>2026-04-22T07:47:55.178Z</time></trkpt><trkpt lat="40.965556" lon="14.2463547"><ele>38.0</ele><time>2026-04-22T07:47:56.196Z</time></trkpt><trkpt lat="40.9656616" lon="14.2463734"><ele>38.0</ele><time>2026-04-22T07:47:58.193Z</time></trkpt><trkpt lat="40.9657493" lon="14.2463795"><ele>38.0</ele><time>2026-04-22T07:48:00.168Z</time></trkpt><trkpt lat="40.9658121" lon="14.2463884"><ele>38.0</ele><time>2026-04-22T07:48:02.192Z</time></trkpt><trkpt lat="40.9658585" lon="14.2464473"><ele>38.0</ele><time>2026-04-22T07:48:04.167Z</time></trkpt><trkpt lat="40.9658708" lon="14.2466954"><ele>37.8</ele><time>2026-04-22T07:48:07.16Z</time></trkpt><trkpt lat="40.9658721" lon="14.2468241"><ele>37.599999999999994</ele><time>2026-04-22T07:48:08.204Z</time></trkpt><trkpt lat="40.9658698" lon="14.2469484"><ele>37.400000000000006</ele><time>2026-04-22T07:48:09.195Z</time></trkpt><trkpt lat="40.9658694" lon="14.2470853"><ele>37.2</ele><time>2026-04-22T07:48:10.188Z</time></trkpt><trkpt lat="40.9658678" lon="14.2472241"><ele>37.0</ele><time>2026-04-22T07:48:11.185Z</time></trkpt><trkpt lat="40.9658633" lon="14.2473543"><ele>37.0</ele><time>2026-04-22T07:48:12.177Z</time></trkpt><trkpt lat="40.9658632" lon="14.2474759"><ele>37.0</ele><time>2026-04-22T07:48:13.175Z</time></trkpt><trkpt lat="40.9658606" lon="14.2475985"><ele>37.0</ele><time>2026-04-22T07:48:14.179Z</time></trkpt><trkpt lat="40.9658534" lon="14.24771"><ele>37.0</ele><time>2026-04-22T07:48:15.196Z</time></trkpt><trkpt lat="40.9658536" lon="14.2478106"><ele>37.0</ele><time>2026-04-22T07:48:16.201Z</time></trkpt><trkpt lat="40.9658541" lon="14.2479226"><ele>37.0</ele><time>2026-04-22T07:48:17.185Z</time></trkpt><trkpt lat="40.9658548" lon="14.2480417"><ele>37.2</ele><time>2026-04-22T07:48:18.223Z</time></trkpt><trkpt lat="40.9658474" lon="14.2481514"><ele>37.400000000000006</ele><time>2026-04-22T07:48:19.187Z</time></trkpt><trkpt lat="40.9658513" lon="14.2482646"><ele>37.599999999999994</ele><time>2026-04-22T07:48:20.205Z</time></trkpt><trkpt lat="40.9658516" lon="14.2483638"><ele>37.8</ele><time>2026-04-22T07:48:21.214Z</time></trkpt><trkpt lat="40.9658627" lon="14.2485169"><ele>38.0</ele><time>2026-04-22T07:48:23.181Z</time></trkpt><trkpt lat="40.9658956" lon="14.2486958"><ele>37.5</ele><time>2026-04-22T07:48:25.298Z</time></trkpt><trkpt lat="40.9659113" lon="14.2489408"><ele>37.0</ele><time>2026-04-22T07:48:27.171Z</time></trkpt><trkpt lat="40.9659175" lon="14.2490894"><ele>36.5</ele><time>2026-04-22T07:48:28.173Z</time></trkpt><trkpt lat="40.9659167" lon="14.2492301"><ele>36.0</ele><time>2026-04-22T07:48:29.142Z</time></trkpt><trkpt lat="40.9659176" lon="14.2493827"><ele>36.0</ele><time>2026-04-22T07:48:30.178Z</time></trkpt><trkpt lat="40.9659103" lon="14.2495018"><ele>36.0</ele><time>2026-04-22T07:48:31.178Z</time></trkpt><trkpt lat="40.9659149" lon="14.2496093"><ele>36.0</ele><time>2026-04-22T07:48:32.158Z</time></trkpt><trkpt lat="40.9659217" lon="14.2497003"><ele>36.0</ele><time>2026-04-22T07:48:33.153Z</time></trkpt><trkpt lat="40.9659294" lon="14.2498157"><ele>36.0</ele><time>2026-04-22T07:48:35.177Z</time></trkpt><trkpt lat="40.9659619" lon="14.2498894"><ele>36.0</ele><time>2026-04-22T07:48:39.166Z</time></trkpt><trkpt lat="40.9660236" lon="14.249909"><ele>36.333333333333336</ele><time>2026-04-22T07:48:40.195Z</time></trkpt><trkpt lat="40.9661392" lon="14.2498872"><ele>36.666666666666664</ele><time>2026-04-22T07:48:42.188Z</time></trkpt><trkpt lat="40.9662226" lon="14.2498858"><ele>37.0</ele><time>2026-04-22T07:48:43.174Z</time></trkpt><trkpt lat="40.9662922" lon="14.2499007"><ele>37.33333333333333</ele><time>2026-04-22T07:48:44.163Z</time></trkpt><trkpt lat="40.9663671" lon="14.249916"><ele>37.666666666666664</ele><time>2026-04-22T07:48:45.167Z</time></trkpt><trkpt lat="40.9664501" lon="14.2499047"><ele>38.0</ele><time>2026-04-22T07:48:46.185Z</time></trkpt><trkpt lat="40.9665314" lon="14.2498768"><ele>38.0</ele><time>2026-04-22T07:48:47.198Z</time></trkpt><trkpt lat="40.9666009" lon="14.2498557"><ele>38.0</ele><time>2026-04-22T07:48:48.156Z</time></trkpt><trkpt lat="40.966678" lon="14.2498389"><ele>38.0</ele><time>2026-04-22T07:48:49.161Z</time></trkpt><trkpt lat="40.9667661" lon="14.2498392"><ele>38.0</ele><time>2026-04-22T07:48:50.162Z</time></trkpt><trkpt lat="40.9668505" lon="14.2498457"><ele>38.0</ele><time>2026-04-22T07:48:51.184Z</time></trkpt><trkpt lat="40.9669349" lon="14.249848"><ele>38.0</ele><time>2026-04-22T07:48:52.156Z</time></trkpt><trkpt lat="40.9670294" lon="14.2498544"><ele>37.199999999999996</ele><time>2026-04-22T07:48:53.195Z</time></trkpt><trkpt lat="40.9671204" lon="14.2498615"><ele>36.4</ele><time>2026-04-22T07:48:54.173Z</time></trkpt><trkpt lat="40.9672158" lon="14.2498679"><ele>35.599999999999994</ele><time>2026-04-22T07:48:55.176Z</time></trkpt><trkpt lat="40.9673054" lon="14.2498686"><ele>34.8</ele><time>2026-04-22T07:48:56.148Z</time></trkpt><trkpt lat="40.9674061" lon="14.2498785"><ele>34.0</ele><time>2026-04-22T07:48:57.17Z</time></trkpt><trkpt lat="40.9674872" lon="14.2498867"><ele>33.5</ele><time>2026-04-22T07:48:58.125Z</time></trkpt><trkpt lat="40.9675843" lon="14.2498911"><ele>33.0</ele><time>2026-04-22T07:48:59.384Z</time></trkpt><trkpt lat="40.9677154" lon="14.2499063"><ele>32.5</ele><time>2026-04-22T07:49:01.22Z</time></trkpt><trkpt lat="40.9677813" lon="14.2499127"><ele>32.0</ele><time>2026-04-22T07:49:02.164Z</time></trkpt><trkpt lat="40.9678536" lon="14.2499168"><ele>31.500000000000004</ele><time>2026-04-22T07:49:03.156Z</time></trkpt><trkpt lat="40.9679268" lon="14.2499212"><ele>31.0</ele><time>2026-04-22T07:49:04.183Z</time></trkpt><trkpt lat="40.9679961" lon="14.2499253"><ele>31.000000000000004</ele><time>2026-04-22T07:49:05.169Z</time></trkpt><trkpt lat="40.9680638" lon="14.249927"><ele>31.0</ele><time>2026-04-22T07:49:06.183Z</time></trkpt><trkpt lat="40.9681342" lon="14.2499279"><ele>31.0</ele><time>2026-04-22T07:49:07.189Z</time></trkpt><trkpt lat="40.9682063" lon="14.249929"><ele>31.0</ele><time>2026-04-22T07:49:08.197Z</time></trkpt><trkpt lat="40.9682719" lon="14.2499326"><ele>31.000000000000004</ele><time>2026-04-22T07:49:09.186Z</time></trkpt><trkpt lat="40.9683864" lon="14.2499388"><ele>31.0</ele><time>2026-04-22T07:49:11.175Z</time></trkpt><trkpt lat="40.968451" lon="14.2499413"><ele>31.6</ele><time>2026-04-22T07:49:12.193Z</time></trkpt><trkpt lat="40.9685637" lon="14.2499383"><ele>32.2</ele><time>2026-04-22T07:49:14.197Z</time></trkpt><trkpt lat="40.9686711" lon="14.2499215"><ele>32.8</ele><time>2026-04-22T07:49:16.201Z</time></trkpt><trkpt lat="40.9687747" lon="14.2498953"><ele>33.4</ele><time>2026-04-22T07:49:18.17Z</time></trkpt><trkpt lat="40.9688817" lon="14.2498654"><ele>34.0</ele><time>2026-04-22T07:49:20.162Z</time></trkpt><trkpt lat="40.9689992" lon="14.2498486"><ele>34.0</ele><time>2026-04-22T07:49:22.167Z</time></trkpt><trkpt lat="40.9691027" lon="14.249827"><ele>34.0</ele><time>2026-04-22T07:49:24.188Z</time></trkpt><trkpt lat="40.9692089" lon="14.2498054"><ele>34.0</ele><time>2026-04-22T07:49:26.161Z</time></trkpt><trkpt lat="40.9693144" lon="14.2497987"><ele>34.0</ele><time>2026-04-22T07:49:28.175Z</time></trkpt><trkpt lat="40.9694416" lon="14.2497952"><ele>34.0</ele><time>2026-04-22T07:49:30.216Z</time></trkpt><trkpt lat="40.9695069" lon="14.2497964"><ele>33.66666666666667</ele><time>2026-04-22T07:49:31.165Z</time></trkpt><trkpt lat="40.9695796" lon="14.249798"><ele>33.333333333333336</ele><time>2026-04-22T07:49:32.17Z</time></trkpt><trkpt lat="40.9696501" lon="14.2498026"><ele>33.0</ele><time>2026-04-22T07:49:33.154Z</time></trkpt><trkpt lat="40.9697214" lon="14.2498095"><ele>32.666666666666664</ele><time>2026-04-22T07:49:34.159Z</time></trkpt><trkpt lat="40.9697857" lon="14.2498137"><ele>32.33333333333333</ele><time>2026-04-22T07:49:35.179Z</time></trkpt><trkpt lat="40.969886" lon="14.2498075"><ele>32.0</ele><time>2026-04-22T07:49:37.176Z</time></trkpt><trkpt lat="40.9699603" lon="14.2498104"><ele>31.8</ele><time>2026-04-22T07:49:39.177Z</time></trkpt><trkpt lat="40.9700547" lon="14.2498156"><ele>31.6</ele><time>2026-04-22T07:49:41.201Z</time></trkpt><trkpt lat="40.9701603" lon="14.2498178"><ele>31.400000000000002</ele><time>2026-04-22T07:49:43.187Z</time></trkpt><trkpt lat="40.9702857" lon="14.2498217"><ele>31.200000000000003</ele><time>2026-04-22T07:49:45.195Z</time></trkpt><trkpt lat="40.9703498" lon="14.2498242"><ele>31.0</ele><time>2026-04-22T07:49:46.197Z</time></trkpt><trkpt lat="40.9704588" lon="14.2498271"><ele>31.000000000000004</ele><time>2026-04-22T07:49:48.185Z</time></trkpt><trkpt lat="40.9705576" lon="14.2498365"><ele>31.0</ele><time>2026-04-22T07:49:50.173Z</time></trkpt><trkpt lat="40.9706503" lon="14.2498308"><ele>31.0</ele><time>2026-04-22T07:49:52.211Z</time></trkpt><trkpt lat="40.970736" lon="14.2498381"><ele>31.0</ele><time>2026-04-22T07:49:54.18Z</time></trkpt><trkpt lat="40.9707996" lon="14.2498379"><ele>31.000000000000004</ele><time>2026-04-22T07:49:59.187Z</time></trkpt><trkpt lat="40.9708632" lon="14.2498407"><ele>31.0</ele><time>2026-04-22T07:50:03.204Z</time></trkpt><trkpt lat="40.9709266" lon="14.2498517"><ele>30.833333333333336</ele><time>2026-04-22T07:50:09.206Z</time></trkpt><trkpt lat="40.9709899" lon="14.2499106"><ele>30.666666666666668</ele><time>2026-04-22T07:50:15.192Z</time></trkpt><trkpt lat="40.9710873" lon="14.2499605"><ele>30.5</ele><time>2026-04-22T07:50:17.19Z</time></trkpt><trkpt lat="40.9711944" lon="14.2498969"><ele>30.333333333333336</ele><time>2026-04-22T07:50:19.206Z</time></trkpt><trkpt lat="40.9712511" lon="14.2498529"><ele>30.166666666666668</ele><time>2026-04-22T07:50:20.187Z</time></trkpt><trkpt lat="40.9713294" lon="14.2498149"><ele>30.0</ele><time>2026-04-22T07:50:21.206Z</time></trkpt><trkpt lat="40.9714065" lon="14.2497922"><ele>30.0</ele><time>2026-04-22T07:50:22.184Z</time></trkpt><trkpt lat="40.9714999" lon="14.2497835"><ele>30.0</ele><time>2026-04-22T07:50:23.2Z</time></trkpt><trkpt lat="40.9715892" lon="14.2497783"><ele>30.0</ele><time>2026-04-22T07:50:24.174Z</time></trkpt><trkpt lat="40.9716859" lon="14.2497727"><ele>30.0</ele><time>2026-04-22T07:50:25.166Z</time></trkpt><trkpt lat="40.9717828" lon="14.2497685"><ele>30.0</ele><time>2026-04-22T07:50:26.163Z</time></trkpt><trkpt lat="40.9718878" lon="14.2497709"><ele>29.8</ele><time>2026-04-22T07:50:27.175Z</time></trkpt><trkpt lat="40.9719936" lon="14.2497734"><ele>29.6</ele><time>2026-04-22T07:50:28.177Z</time></trkpt><trkpt lat="40.9720957" lon="14.2497718"><ele>29.4</ele><time>2026-04-22T07:50:29.177Z</time></trkpt><trkpt lat="40.972197" lon="14.2497757"><ele>29.2</ele><time>2026-04-22T07:50:30.173Z</time></trkpt><trkpt lat="40.9722987" lon="14.2497783"><ele>29.0</ele><time>2026-04-22T07:50:31.187Z</time></trkpt><trkpt lat="40.9724017" lon="14.2497866"><ele>29.0</ele><time>2026-04-22T07:50:32.191Z</time></trkpt><trkpt lat="40.9725001" lon="14.2497888"><ele>29.0</ele><time>2026-04-22T07:50:33.198Z</time></trkpt><trkpt lat="40.9725955" lon="14.2497896"><ele>29.0</ele><time>2026-04-22T07:50:34.167Z</time></trkpt><trkpt lat="40.9726979" lon="14.2497903"><ele>29.0</ele><time>2026-04-22T07:50:35.312Z</time></trkpt><trkpt lat="40.9728629" lon="14.249791"><ele>29.000000000000004</ele><time>2026-04-22T07:50:37.2Z</time></trkpt><trkpt lat="40.9729516" lon="14.2497856"><ele>29.0</ele><time>2026-04-22T07:50:38.187Z</time></trkpt><trkpt lat="40.9730338" lon="14.2497776"><ele>29.000000000000004</ele><time>2026-04-22T07:50:39.188Z</time></trkpt><trkpt lat="40.9731052" lon="14.2497684"><ele>29.000000000000004</ele><time>2026-04-22T07:50:40.183Z</time></trkpt><trkpt lat="40.9731695" lon="14.2497615"><ele>29.0</ele><time>2026-04-22T07:50:41.174Z</time></trkpt><trkpt lat="40.973236" lon="14.249762"><ele>29.000000000000004</ele><time>2026-04-22T07:50:42.173Z</time></trkpt><trkpt lat="40.9733044" lon="14.249767"><ele>29.000000000000004</ele><time>2026-04-22T07:50:43.177Z</time></trkpt><trkpt lat="40.9733723" lon="14.2497718"><ele>28.999999999999996</ele><time>2026-04-22T07:50:44.166Z</time></trkpt><trkpt lat="40.9734804" lon="14.2497749"><ele>29.0</ele><time>2026-04-22T07:50:46.176Z</time></trkpt><trkpt lat="40.9735541" lon="14.2497813"><ele>29.0</ele><time>2026-04-22T07:50:48.215Z</time></trkpt><trkpt lat="40.9736131" lon="14.2498187"><ele>29.0</ele><time>2026-04-22T07:50:50.19Z</time></trkpt><trkpt lat="40.9736685" lon="14.249892"><ele>28.999999999999996</ele><time>2026-04-22T07:50:52.179Z</time></trkpt><trkpt lat="40.9737183" lon="14.2500065"><ele>29.0</ele><time>2026-04-22T07:50:54.182Z</time></trkpt><trkpt lat="40.9737275" lon="14.2500996"><ele>28.999999999999996</ele><time>2026-04-22T07:50:55.176Z</time></trkpt><trkpt lat="40.973716" lon="14.2502079"><ele>29.0</ele><time>2026-04-22T07:50:56.181Z</time></trkpt><trkpt lat="40.9736981" lon="14.2503174"><ele>29.0</ele><time>2026-04-22T07:50:57.19Z</time></trkpt><trkpt lat="40.9736817" lon="14.2504268"><ele>29.0</ele><time>2026-04-22T07:50:58.223Z</time></trkpt><trkpt lat="40.9736662" lon="14.2505262"><ele>28.999999999999996</ele><time>2026-04-22T07:50:59.186Z</time></trkpt><trkpt lat="40.9736465" lon="14.2506305"><ele>29.0</ele><time>2026-04-22T07:51:00.208Z</time></trkpt><trkpt lat="40.9736264" lon="14.250754"><ele>28.75</ele><time>2026-04-22T07:51:01.284Z</time></trkpt><trkpt lat="40.9736117" lon="14.2508549"><ele>28.5</ele><time>2026-04-22T07:51:02.19Z</time></trkpt><trkpt lat="40.9735882" lon="14.2509887"><ele>28.25</ele><time>2026-04-22T07:51:03.33Z</time></trkpt><trkpt lat="40.9735461" lon="14.2512459"><ele>28.0</ele><time>2026-04-22T07:51:05.215Z</time></trkpt><trkpt lat="40.9735216" lon="14.251382"><ele>27.75</ele><time>2026-04-22T07:51:06.206Z</time></trkpt><trkpt lat="40.973495" lon="14.2515293"><ele>27.5</ele><time>2026-04-22T07:51:07.3Z</time></trkpt><trkpt lat="40.9734572" lon="14.251773"><ele>27.25</ele><time>2026-04-22T07:51:09.14Z</time></trkpt><trkpt lat="40.9734383" lon="14.2519063"><ele>27.0</ele><time>2026-04-22T07:51:10.189Z</time></trkpt><trkpt lat="40.97342" lon="14.2520329"><ele>27.0</ele><time>2026-04-22T07:51:11.208Z</time></trkpt><trkpt lat="40.9733988" lon="14.2521598"><ele>27.000000000000004</ele><time>2026-04-22T07:51:12.236Z</time></trkpt><trkpt lat="40.9733804" lon="14.2522767"><ele>27.000000000000004</ele><time>2026-04-22T07:51:13.169Z</time></trkpt><trkpt lat="40.9733627" lon="14.2524111"><ele>27.0</ele><time>2026-04-22T07:51:14.189Z</time></trkpt><trkpt lat="40.9733449" lon="14.2525485"><ele>27.0</ele><time>2026-04-22T07:51:15.18Z</time></trkpt><trkpt lat="40.9733223" lon="14.2526873"><ele>27.400000000000002</ele><time>2026-04-22T07:51:16.189Z</time></trkpt><trkpt lat="40.9732976" lon="14.2528249"><ele>27.800000000000004</ele><time>2026-04-22T07:51:17.182Z</time></trkpt><trkpt lat="40.9732695" lon="14.252962"><ele>28.2</ele><time>2026-04-22T07:51:18.186Z</time></trkpt><trkpt lat="40.973237" lon="14.2530917"><ele>28.6</ele><time>2026-04-22T07:51:19.174Z</time></trkpt><trkpt lat="40.9731944" lon="14.2532093"><ele>29.0</ele><time>2026-04-22T07:51:20.172Z</time></trkpt><trkpt lat="40.9731473" lon="14.2533173"><ele>29.0</ele><time>2026-04-22T07:51:21.174Z</time></trkpt><trkpt lat="40.9731062" lon="14.2534175"><ele>29.0</ele><time>2026-04-22T07:51:22.2Z</time></trkpt><trkpt lat="40.9731032" lon="14.2535846"><ele>29.0</ele><time>2026-04-22T07:51:24.205Z</time></trkpt><trkpt lat="40.9731303" lon="14.2536625"><ele>29.0</ele><time>2026-04-22T07:51:25.196Z</time></trkpt><trkpt lat="40.9731924" lon="14.2538045"><ele>29.0</ele><time>2026-04-22T07:51:27.175Z</time></trkpt><trkpt lat="40.9732" lon="14.2539074"><ele>29.2</ele><time>2026-04-22T07:51:28.168Z</time></trkpt><trkpt lat="40.9732016" lon="14.2540291"><ele>29.4</ele><time>2026-04-22T07:51:29.18Z</time></trkpt><trkpt lat="40.9732057" lon="14.2541588"><ele>29.6</ele><time>2026-04-22T07:51:30.282Z</time></trkpt><trkpt lat="40.9732104" lon="14.2542638"><ele>29.8</ele><time>2026-04-22T07:51:31.182Z</time></trkpt><trkpt lat="40.9732158" lon="14.2543841"><ele>30.0</ele><time>2026-04-22T07:51:32.198Z</time></trkpt><trkpt lat="40.9732208" lon="14.2545176"><ele>30.0</ele><time>2026-04-22T07:51:33.287Z</time></trkpt><trkpt lat="40.9732487" lon="14.2547545"><ele>30.0</ele><time>2026-04-22T07:51:35.188Z</time></trkpt><trkpt lat="40.9732679" lon="14.2548848"><ele>30.0</ele><time>2026-04-22T07:51:36.195Z</time></trkpt><trkpt lat="40.9732808" lon="14.2550103"><ele>30.0</ele><time>2026-04-22T07:51:37.167Z</time></trkpt><trkpt lat="40.9732963" lon="14.2551367"><ele>30.0</ele><time>2026-04-22T07:51:38.182Z</time></trkpt><trkpt lat="40.9733157" lon="14.2552659"><ele>30.0</ele><time>2026-04-22T07:51:39.207Z</time></trkpt><trkpt lat="40.9733406" lon="14.2553961"><ele>30.0</ele><time>2026-04-22T07:51:40.179Z</time></trkpt><trkpt lat="40.973365" lon="14.2555357"><ele>30.0</ele><time>2026-04-22T07:51:41.229Z</time></trkpt><trkpt lat="40.9733829" lon="14.2556511"><ele>30.0</ele><time>2026-04-22T07:51:42.177Z</time></trkpt><trkpt lat="40.9734006" lon="14.2557667"><ele>30.0</ele><time>2026-04-22T07:51:43.174Z</time></trkpt><trkpt lat="40.9734229" lon="14.255883"><ele>30.0</ele><time>2026-04-22T07:51:44.231Z</time></trkpt><trkpt lat="40.9734383" lon="14.2559708"><ele>30.0</ele><time>2026-04-22T07:51:45.177Z</time></trkpt><trkpt lat="40.9734543" lon="14.256054"><ele>30.0</ele><time>2026-04-22T07:51:46.193Z</time></trkpt><trkpt lat="40.9734936" lon="14.2561899"><ele>30.0</ele><time>2026-04-22T07:51:48.175Z</time></trkpt><trkpt lat="40.973599" lon="14.2562738"><ele>30.0</ele><time>2026-04-22T07:51:50.201Z</time></trkpt><trkpt lat="40.9736847" lon="14.2562859"><ele>30.0</ele><time>2026-04-22T07:51:51.193Z</time></trkpt><trkpt lat="40.9737904" lon="14.2562839"><ele>30.0</ele><time>2026-04-22T07:51:52.193Z</time></trkpt><trkpt lat="40.9739087" lon="14.2562821"><ele>30.0</ele><time>2026-04-22T07:51:53.216Z</time></trkpt><trkpt lat="40.9740293" lon="14.2562806"><ele>30.0</ele><time>2026-04-22T07:51:54.189Z</time></trkpt><trkpt lat="40.9741575" lon="14.2562887"><ele>29.333333333333336</ele><time>2026-04-22T07:51:55.178Z</time></trkpt><trkpt lat="40.9742982" lon="14.2563002"><ele>28.666666666666668</ele><time>2026-04-22T07:51:56.15Z</time></trkpt><trkpt lat="40.974458" lon="14.2563132"><ele>28.0</ele><time>2026-04-22T07:51:57.183Z</time></trkpt><trkpt lat="40.9746129" lon="14.2563218"><ele>28.0</ele><time>2026-04-22T07:51:58.173Z</time></trkpt><trkpt lat="40.9747767" lon="14.2563246"><ele>28.0</ele><time>2026-04-22T07:51:59.189Z</time></trkpt><trkpt lat="40.9749357" lon="14.2563289"><ele>28.0</ele><time>2026-04-22T07:52:00.159Z</time></trkpt><trkpt lat="40.9751055" lon="14.2563292"><ele>27.333333333333336</ele><time>2026-04-22T07:52:01.184Z</time></trkpt><trkpt lat="40.9752708" lon="14.2563322"><ele>26.666666666666664</ele><time>2026-04-22T07:52:02.185Z</time></trkpt><trkpt lat="40.9754447" lon="14.2563339"><ele>26.0</ele><time>2026-04-22T07:52:03.187Z</time></trkpt><trkpt lat="40.9756211" lon="14.2563338"><ele>26.0</ele><time>2026-04-22T07:52:04.183Z</time></trkpt><trkpt lat="40.9758031" lon="14.2563323"><ele>26.0</ele><time>2026-04-22T07:52:05.184Z</time></trkpt><trkpt lat="40.9759863" lon="14.2563312"><ele>26.0</ele><time>2026-04-22T07:52:06.187Z</time></trkpt><trkpt lat="40.9761704" lon="14.2563299"><ele>26.0</ele><time>2026-04-22T07:52:07.207Z</time></trkpt><trkpt lat="40.9763487" lon="14.2563301"><ele>26.0</ele><time>2026-04-22T07:52:08.184Z</time></trkpt><trkpt lat="40.9765342" lon="14.2563285"><ele>26.0</ele><time>2026-04-22T07:52:09.191Z</time></trkpt><trkpt lat="40.9767176" lon="14.2563261"><ele>26.0</ele><time>2026-04-22T07:52:10.183Z</time></trkpt><trkpt lat="40.9769051" lon="14.2563233"><ele>26.0</ele><time>2026-04-22T07:52:11.201Z</time></trkpt><trkpt lat="40.9770768" lon="14.2563186"><ele>26.0</ele><time>2026-04-22T07:52:12.166Z</time></trkpt><trkpt lat="40.9772557" lon="14.2563151"><ele>26.0</ele><time>2026-04-22T07:52:13.201Z</time></trkpt><trkpt lat="40.9774258" lon="14.2563127"><ele>26.0</ele><time>2026-04-22T07:52:14.196Z</time></trkpt><trkpt lat="40.9775926" lon="14.2563125"><ele>26.0</ele><time>2026-04-22T07:52:15.183Z</time></trkpt><trkpt lat="40.9777648" lon="14.2563121"><ele>25.333333333333332</ele><time>2026-04-22T07:52:16.213Z</time></trkpt><trkpt lat="40.9779265" lon="14.2563116"><ele>24.666666666666664</ele><time>2026-04-22T07:52:17.193Z</time></trkpt><trkpt lat="40.9780873" lon="14.256311"><ele>24.0</ele><time>2026-04-22T07:52:18.18Z</time></trkpt><trkpt lat="40.9782525" lon="14.2563113"><ele>23.666666666666668</ele><time>2026-04-22T07:52:19.19Z</time></trkpt><trkpt lat="40.9784151" lon="14.2563093"><ele>23.333333333333336</ele><time>2026-04-22T07:52:20.187Z</time></trkpt><trkpt lat="40.9785803" lon="14.2563074"><ele>23.0</ele><time>2026-04-22T07:52:21.194Z</time></trkpt><trkpt lat="40.9787408" lon="14.2563053"><ele>23.0</ele><time>2026-04-22T07:52:22.18Z</time></trkpt><trkpt lat="40.9789034" lon="14.2563022"><ele>23.0</ele><time>2026-04-22T07:52:23.18Z</time></trkpt><trkpt lat="40.9790657" lon="14.2562984"><ele>23.0</ele><time>2026-04-22T07:52:24.183Z</time></trkpt><trkpt lat="40.9792294" lon="14.2562953"><ele>23.666666666666668</ele><time>2026-04-22T07:52:25.19Z</time></trkpt><trkpt lat="40.9793937" lon="14.256294"><ele>24.333333333333336</ele><time>2026-04-22T07:52:26.217Z</time></trkpt><trkpt lat="40.9795432" lon="14.2562938"><ele>25.0</ele><time>2026-04-22T07:52:27.205Z</time></trkpt><trkpt lat="40.9796837" lon="14.256292"><ele>25.0</ele><time>2026-04-22T07:52:28.184Z</time></trkpt><trkpt lat="40.9798253" lon="14.2562889"><ele>25.0</ele><time>2026-04-22T07:52:29.214Z</time></trkpt><trkpt lat="40.9799579" lon="14.2562869"><ele>25.0</ele><time>2026-04-22T07:52:30.219Z</time></trkpt><trkpt lat="40.9800831" lon="14.2562854"><ele>25.0</ele><time>2026-04-22T07:52:31.198Z</time></trkpt><trkpt lat="40.980204" lon="14.2562807"><ele>24.5</ele><time>2026-04-22T07:52:32.179Z</time></trkpt><trkpt lat="40.9803338" lon="14.2562748"><ele>24.0</ele><time>2026-04-22T07:52:33.197Z</time></trkpt><trkpt lat="40.9804592" lon="14.2562752"><ele>23.5</ele><time>2026-04-22T07:52:34.176Z</time></trkpt><trkpt lat="40.9805894" lon="14.2562743"><ele>23.0</ele><time>2026-04-22T07:52:35.165Z</time></trkpt><trkpt lat="40.9807317" lon="14.2562762"><ele>23.0</ele><time>2026-04-22T07:52:36.185Z</time></trkpt><trkpt lat="40.9808738" lon="14.2562795"><ele>23.0</ele><time>2026-04-22T07:52:37.164Z</time></trkpt><trkpt lat="40.9810223" lon="14.2562821"><ele>23.0</ele><time>2026-04-22T07:52:38.163Z</time></trkpt><trkpt lat="40.9811757" lon="14.2562794"><ele>23.0</ele><time>2026-04-22T07:52:39.174Z</time></trkpt><trkpt lat="40.9813362" lon="14.2562732"><ele>23.0</ele><time>2026-04-22T07:52:40.198Z</time></trkpt><trkpt lat="40.981491" lon="14.256272"><ele>23.0</ele><time>2026-04-22T07:52:41.175Z</time></trkpt><trkpt lat="40.981653" lon="14.2562705"><ele>23.0</ele><time>2026-04-22T07:52:42.18Z</time></trkpt><trkpt lat="40.9818106" lon="14.2562687"><ele>23.25</ele><time>2026-04-22T07:52:43.172Z</time></trkpt><trkpt lat="40.9819519" lon="14.2562692"><ele>23.5</ele><time>2026-04-22T07:52:44.179Z</time></trkpt><trkpt lat="40.9820737" lon="14.2562683"><ele>23.75</ele><time>2026-04-22T07:52:45.183Z</time></trkpt><trkpt lat="40.9821796" lon="14.2562647"><ele>24.0</ele><time>2026-04-22T07:52:46.181Z</time></trkpt><trkpt lat="40.9822737" lon="14.256259"><ele>24.0</ele><time>2026-04-22T07:52:47.182Z</time></trkpt><trkpt lat="40.9823665" lon="14.25625"><ele>24.0</ele><time>2026-04-22T07:52:48.204Z</time></trkpt><trkpt lat="40.9824566" lon="14.2562267"><ele>24.0</ele><time>2026-04-22T07:52:49.183Z</time></trkpt><trkpt lat="40.9825492" lon="14.2561746"><ele>24.0</ele><time>2026-04-22T07:52:50.184Z</time></trkpt><trkpt lat="40.9826424" lon="14.2561048"><ele>24.0</ele><time>2026-04-22T07:52:51.16Z</time></trkpt><trkpt lat="40.9827453" lon="14.2560202"><ele>24.2</ele><time>2026-04-22T07:52:52.198Z</time></trkpt><trkpt lat="40.9828432" lon="14.2559303"><ele>24.4</ele><time>2026-04-22T07:52:53.188Z</time></trkpt><trkpt lat="40.9829326" lon="14.2558445"><ele>24.6</ele><time>2026-04-22T07:52:54.172Z</time></trkpt><trkpt lat="40.9830094" lon="14.2557782"><ele>24.8</ele><time>2026-04-22T07:52:55.175Z</time></trkpt><trkpt lat="40.9830898" lon="14.2557405"><ele>25.0</ele><time>2026-04-22T07:52:56.196Z</time></trkpt><trkpt lat="40.9831671" lon="14.2557395"><ele>25.0</ele><time>2026-04-22T07:52:57.178Z</time></trkpt><trkpt lat="40.9832414" lon="14.2557636"><ele>25.0</ele><time>2026-04-22T07:52:58.178Z</time></trkpt><trkpt lat="40.9833235" lon="14.2558151"><ele>25.0</ele><time>2026-04-22T07:52:59.204Z</time></trkpt><trkpt lat="40.9834131" lon="14.2558814"><ele>25.0</ele><time>2026-04-22T07:53:00.185Z</time></trkpt><trkpt lat="40.9835051" lon="14.2559605"><ele>25.0</ele><time>2026-04-22T07:53:01.161Z</time></trkpt><trkpt lat="40.98361" lon="14.2560359"><ele>24.8</ele><time>2026-04-22T07:53:02.178Z</time></trkpt><trkpt lat="40.9837047" lon="14.2561035"><ele>24.6</ele><time>2026-04-22T07:53:03.164Z</time></trkpt><trkpt lat="40.9837952" lon="14.2561603"><ele>24.4</ele><time>2026-04-22T07:53:04.178Z</time></trkpt><trkpt lat="40.983878" lon="14.2562011"><ele>24.2</ele><time>2026-04-22T07:53:05.162Z</time></trkpt><trkpt lat="40.9839577" lon="14.2562234"><ele>24.0</ele><time>2026-04-22T07:53:06.16Z</time></trkpt><trkpt lat="40.9840362" lon="14.2562356"><ele>24.0</ele><time>2026-04-22T07:53:07.173Z</time></trkpt><trkpt lat="40.9841105" lon="14.2562456"><ele>24.0</ele><time>2026-04-22T07:53:08.18Z</time></trkpt><trkpt lat="40.9841819" lon="14.2562586"><ele>24.0</ele><time>2026-04-22T07:53:09.188Z</time></trkpt><trkpt lat="40.9842593" lon="14.2562666"><ele>24.0</ele><time>2026-04-22T07:53:10.179Z</time></trkpt><trkpt lat="40.9843425" lon="14.2562704"><ele>24.0</ele><time>2026-04-22T07:53:11.181Z</time></trkpt><trkpt lat="40.9844347" lon="14.2562744"><ele>24.0</ele><time>2026-04-22T07:53:12.154Z</time></trkpt><trkpt lat="40.9845384" lon="14.2562781"><ele>24.25</ele><time>2026-04-22T07:53:13.183Z</time></trkpt><trkpt lat="40.9846404" lon="14.2562875"><ele>24.5</ele><time>2026-04-22T07:53:14.174Z</time></trkpt><trkpt lat="40.984751" lon="14.2562966"><ele>24.75</ele><time>2026-04-22T07:53:15.158Z</time></trkpt><trkpt lat="40.984871" lon="14.2562971"><ele>25.0</ele><time>2026-04-22T07:53:16.183Z</time></trkpt><trkpt lat="40.984993" lon="14.2562872"><ele>24.75</ele><time>2026-04-22T07:53:17.156Z</time></trkpt><trkpt lat="40.985125" lon="14.2562782"><ele>24.5</ele><time>2026-04-22T07:53:18.191Z</time></trkpt><trkpt lat="40.9852502" lon="14.2562713"><ele>24.25</ele><time>2026-04-22T07:53:19.166Z</time></trkpt><trkpt lat="40.985381" lon="14.256262"><ele>24.0</ele><time>2026-04-22T07:53:20.187Z</time></trkpt><trkpt lat="40.9855083" lon="14.2562504"><ele>24.0</ele><time>2026-04-22T07:53:21.176Z</time></trkpt><trkpt lat="40.9856379" lon="14.2562385"><ele>24.0</ele><time>2026-04-22T07:53:22.175Z</time></trkpt><trkpt lat="40.9857706" lon="14.2562269"><ele>24.0</ele><time>2026-04-22T07:53:23.193Z</time></trkpt><trkpt lat="40.9859054" lon="14.2562187"><ele>24.0</ele><time>2026-04-22T07:53:24.231Z</time></trkpt><trkpt lat="40.9860269" lon="14.2562156"><ele>24.0</ele><time>2026-04-22T07:53:25.167Z</time></trkpt><trkpt lat="40.9861614" lon="14.2562127"><ele>24.0</ele><time>2026-04-22T07:53:26.211Z</time></trkpt><trkpt lat="40.9862865" lon="14.2562113"><ele>24.0</ele><time>2026-04-22T07:53:27.178Z</time></trkpt><trkpt lat="40.9864157" lon="14.2562118"><ele>24.0</ele><time>2026-04-22T07:53:28.188Z</time></trkpt><trkpt lat="40.9865403" lon="14.2562123"><ele>24.0</ele><time>2026-04-22T07:53:29.169Z</time></trkpt><trkpt lat="40.9866747" lon="14.2562151"><ele>24.0</ele><time>2026-04-22T07:53:30.18Z</time></trkpt><trkpt lat="40.986821" lon="14.2562223"><ele>24.0</ele><time>2026-04-22T07:53:31.188Z</time></trkpt><trkpt lat="40.9869788" lon="14.2562251"><ele>24.0</ele><time>2026-04-22T07:53:32.176Z</time></trkpt><trkpt lat="40.9871633" lon="14.2562274"><ele>23.333333333333332</ele><time>2026-04-22T07:53:33.211Z</time></trkpt><trkpt lat="40.9873437" lon="14.2562269"><ele>22.666666666666664</ele><time>2026-04-22T07:53:34.166Z</time></trkpt><trkpt lat="40.9875434" lon="14.2562259"><ele>22.0</ele><time>2026-04-22T07:53:35.201Z</time></trkpt><trkpt lat="40.9877355" lon="14.2562283"><ele>22.0</ele><time>2026-04-22T07:53:36.174Z</time></trkpt><trkpt lat="40.9879371" lon="14.2562279"><ele>22.0</ele><time>2026-04-22T07:53:37.177Z</time></trkpt><trkpt lat="40.9881369" lon="14.2562268"><ele>22.0</ele><time>2026-04-22T07:53:38.163Z</time></trkpt><trkpt lat="40.9883353" lon="14.2562242"><ele>21.666666666666664</ele><time>2026-04-22T07:53:39.223Z</time></trkpt><trkpt lat="40.9885071" lon="14.2562209"><ele>21.333333333333332</ele><time>2026-04-22T07:53:40.193Z</time></trkpt><trkpt lat="40.9886576" lon="14.2562225"><ele>21.0</ele><time>2026-04-22T07:53:41.164Z</time></trkpt><trkpt lat="40.9887954" lon="14.2562242"><ele>21.0</ele><time>2026-04-22T07:53:42.179Z</time></trkpt><trkpt lat="40.9889162" lon="14.2562237"><ele>21.0</ele><time>2026-04-22T07:53:43.17Z</time></trkpt><trkpt lat="40.989031" lon="14.2562255"><ele>21.0</ele><time>2026-04-22T07:53:44.19Z</time></trkpt><trkpt lat="40.9891395" lon="14.2562275"><ele>21.0</ele><time>2026-04-22T07:53:45.21Z</time></trkpt><trkpt lat="40.9892282" lon="14.2562294"><ele>21.0</ele><time>2026-04-22T07:53:46.182Z</time></trkpt><trkpt lat="40.9893079" lon="14.256229"><ele>21.0</ele><time>2026-04-22T07:53:47.204Z</time></trkpt><trkpt lat="40.9894225" lon="14.2562392"><ele>21.0</ele><time>2026-04-22T07:53:49.166Z</time></trkpt><trkpt lat="40.9894925" lon="14.2562885"><ele>21.0</ele><time>2026-04-22T07:53:51.202Z</time></trkpt><trkpt lat="40.9895252" lon="14.2564175"><ele>21.0</ele><time>2026-04-22T07:53:53.193Z</time></trkpt><trkpt lat="40.9895058" lon="14.2565107"><ele>21.0</ele><time>2026-04-22T07:53:54.198Z</time></trkpt><trkpt lat="40.989476" lon="14.2566048"><ele>21.0</ele><time>2026-04-22T07:53:55.177Z</time></trkpt><trkpt lat="40.9894517" lon="14.2567027"><ele>21.0</ele><time>2026-04-22T07:53:56.221Z</time></trkpt><trkpt lat="40.9894407" lon="14.2567949"><ele>21.0</ele><time>2026-04-22T07:53:57.213Z</time></trkpt><trkpt lat="40.9894373" lon="14.256888"><ele>21.0</ele><time>2026-04-22T07:53:58.2Z</time></trkpt><trkpt lat="40.9894488" lon="14.2569795"><ele>21.0</ele><time>2026-04-22T07:53:59.212Z</time></trkpt><trkpt lat="40.9895198" lon="14.2571105"><ele>21.0</ele><time>2026-04-22T07:54:01.243Z</time></trkpt><trkpt lat="40.9895525" lon="14.2571848"><ele>21.0</ele><time>2026-04-22T07:54:02.17Z</time></trkpt><trkpt lat="40.9895892" lon="14.2572666"><ele>21.166666666666668</ele><time>2026-04-22T07:54:03.159Z</time></trkpt><trkpt lat="40.9896356" lon="14.2573534"><ele>21.333333333333332</ele><time>2026-04-22T07:54:04.199Z</time></trkpt><trkpt lat="40.9896773" lon="14.2574261"><ele>21.5</ele><time>2026-04-22T07:54:05.2Z</time></trkpt><trkpt lat="40.9897186" lon="14.2575114"><ele>21.666666666666664</ele><time>2026-04-22T07:54:06.177Z</time></trkpt><trkpt lat="40.989773" lon="14.2576165"><ele>21.833333333333332</ele><time>2026-04-22T07:54:07.193Z</time></trkpt><trkpt lat="40.9898329" lon="14.2577393"><ele>22.0</ele><time>2026-04-22T07:54:08.169Z</time></trkpt><trkpt lat="40.9898938" lon="14.257878"><ele>22.0</ele><time>2026-04-22T07:54:09.171Z</time></trkpt><trkpt lat="40.9899615" lon="14.2580377"><ele>22.0</ele><time>2026-04-22T07:54:10.19Z</time></trkpt><trkpt lat="40.9900381" lon="14.2582085"><ele>22.0</ele><time>2026-04-22T07:54:11.172Z</time></trkpt><trkpt lat="40.9901404" lon="14.2584338"><ele>21.333333333333332</ele><time>2026-04-22T07:54:12.338Z</time></trkpt><trkpt lat="40.9902213" lon="14.2586062"><ele>20.666666666666668</ele><time>2026-04-22T07:54:13.189Z</time></trkpt><trkpt lat="40.9903124" lon="14.2588069"><ele>20.0</ele><time>2026-04-22T07:54:14.188Z</time></trkpt><trkpt lat="40.9904037" lon="14.2590103"><ele>19.666666666666668</ele><time>2026-04-22T07:54:15.187Z</time></trkpt><trkpt lat="40.9904954" lon="14.2592106"><ele>19.333333333333332</ele><time>2026-04-22T07:54:16.184Z</time></trkpt><trkpt lat="40.9905911" lon="14.2594077"><ele>19.0</ele><time>2026-04-22T07:54:17.218Z</time></trkpt><trkpt lat="40.9906689" lon="14.2595693"><ele>19.0</ele><time>2026-04-22T07:54:18.192Z</time></trkpt><trkpt lat="40.9907371" lon="14.2597166"><ele>19.0</ele><time>2026-04-22T07:54:19.231Z</time></trkpt><trkpt lat="40.9907906" lon="14.2598369"><ele>19.0</ele><time>2026-04-22T07:54:20.179Z</time></trkpt><trkpt lat="40.9908448" lon="14.2599553"><ele>19.0</ele><time>2026-04-22T07:54:21.2Z</time></trkpt><trkpt lat="40.9908948" lon="14.2600585"><ele>19.0</ele><time>2026-04-22T07:54:22.192Z</time></trkpt><trkpt lat="40.9909434" lon="14.2601502"><ele>19.0</ele><time>2026-04-22T07:54:23.185Z</time></trkpt><trkpt lat="40.9909887" lon="14.2602452"><ele>19.0</ele><time>2026-04-22T07:54:24.21Z</time></trkpt><trkpt lat="40.9910299" lon="14.2603309"><ele>19.0</ele><time>2026-04-22T07:54:25.178Z</time></trkpt><trkpt lat="40.9910832" lon="14.2604091"><ele>19.0</ele><time>2026-04-22T07:54:26.195Z</time></trkpt><trkpt lat="40.9911562" lon="14.260477"><ele>19.0</ele><time>2026-04-22T07:54:27.231Z</time></trkpt><trkpt lat="40.991236" lon="14.2605317"><ele>19.0</ele><time>2026-04-22T07:54:28.158Z</time></trkpt><trkpt lat="40.9913329" lon="14.2605946"><ele>18.666666666666664</ele><time>2026-04-22T07:54:29.205Z</time></trkpt><trkpt lat="40.9914283" lon="14.2606548"><ele>18.333333333333332</ele><time>2026-04-22T07:54:30.174Z</time></trkpt><trkpt lat="40.9915225" lon="14.2607063"><ele>18.0</ele><time>2026-04-22T07:54:31.177Z</time></trkpt><trkpt lat="40.991604" lon="14.2607455"><ele>17.666666666666668</ele><time>2026-04-22T07:54:32.19Z</time></trkpt><trkpt lat="40.991666" lon="14.2607718"><ele>17.333333333333336</ele><time>2026-04-22T07:54:33.142Z</time></trkpt><trkpt lat="40.9917299" lon="14.2607927"><ele>17.0</ele><time>2026-04-22T07:54:34.213Z</time></trkpt><trkpt lat="40.9918083" lon="14.2608059"><ele>17.0</ele><time>2026-04-22T07:54:36.151Z</time></trkpt><trkpt lat="40.9918751" lon="14.2607539"><ele>17.0</ele><time>2026-04-22T07:54:38.197Z</time></trkpt><trkpt lat="40.9919102" lon="14.2606103"><ele>17.0</ele><time>2026-04-22T07:54:40.188Z</time></trkpt><trkpt lat="40.9919459" lon="14.2605161"><ele>17.0</ele><time>2026-04-22T07:54:42.186Z</time></trkpt><trkpt lat="40.9920577" lon="14.2605083"><ele>17.0</ele><time>2026-04-22T07:54:44.163Z</time></trkpt><trkpt lat="40.9921519" lon="14.2605338"><ele>17.333333333333336</ele><time>2026-04-22T07:54:45.169Z</time></trkpt><trkpt lat="40.9922701" lon="14.2605608"><ele>17.666666666666668</ele><time>2026-04-22T07:54:46.28Z</time></trkpt><trkpt lat="40.9925104" lon="14.2606008"><ele>18.0</ele><time>2026-04-22T07:54:48.221Z</time></trkpt><trkpt lat="40.992647" lon="14.2606116"><ele>17.666666666666668</ele><time>2026-04-22T07:54:49.159Z</time></trkpt><trkpt lat="40.9927996" lon="14.2606191"><ele>17.333333333333336</ele><time>2026-04-22T07:54:50.185Z</time></trkpt><trkpt lat="40.9929553" lon="14.2606274"><ele>17.0</ele><time>2026-04-22T07:54:51.196Z</time></trkpt><trkpt lat="40.9931152" lon="14.2606343"><ele>17.0</ele><time>2026-04-22T07:54:52.177Z</time></trkpt><trkpt lat="40.9933011" lon="14.2606406"><ele>17.0</ele><time>2026-04-22T07:54:53.278Z</time></trkpt><trkpt lat="40.9934512" lon="14.2606458"><ele>17.0</ele><time>2026-04-22T07:54:54.192Z</time></trkpt><trkpt lat="40.9936372" lon="14.2606537"><ele>18.0</ele><time>2026-04-22T07:54:55.312Z</time></trkpt><trkpt lat="40.9939467" lon="14.2606616"><ele>19.0</ele><time>2026-04-22T07:54:57.185Z</time></trkpt><trkpt lat="40.9941062" lon="14.2606688"><ele>19.0</ele><time>2026-04-22T07:54:58.16Z</time></trkpt><trkpt lat="40.9942742" lon="14.2606797"><ele>19.0</ele><time>2026-04-22T07:54:59.183Z</time></trkpt><trkpt lat="40.994444" lon="14.2607061"><ele>19.0</ele><time>2026-04-22T07:55:00.209Z</time></trkpt><trkpt lat="40.9946058" lon="14.2607507"><ele>19.0</ele><time>2026-04-22T07:55:01.165Z</time></trkpt><trkpt lat="40.9947792" lon="14.2608051"><ele>19.0</ele><time>2026-04-22T07:55:02.178Z</time></trkpt><trkpt lat="40.9949592" lon="14.2608578"><ele>19.0</ele><time>2026-04-22T07:55:03.2Z</time></trkpt><trkpt lat="40.9951288" lon="14.2609087"><ele>19.0</ele><time>2026-04-22T07:55:04.198Z</time></trkpt><trkpt lat="40.9952922" lon="14.2609647"><ele>19.0</ele><time>2026-04-22T07:55:05.185Z</time></trkpt><trkpt lat="40.9954527" lon="14.2610201"><ele>19.0</ele><time>2026-04-22T07:55:06.184Z</time></trkpt><trkpt lat="40.9956075" lon="14.2610639"><ele>19.0</ele><time>2026-04-22T07:55:07.182Z</time></trkpt><trkpt lat="40.9957554" lon="14.2611104"><ele>19.0</ele><time>2026-04-22T07:55:08.199Z</time></trkpt><trkpt lat="40.9958896" lon="14.2611491"><ele>19.0</ele><time>2026-04-22T07:55:09.182Z</time></trkpt><trkpt lat="40.9960323" lon="14.2611706"><ele>19.0</ele><time>2026-04-22T07:55:10.21Z</time></trkpt><trkpt lat="40.9961786" lon="14.261183"><ele>18.333333333333332</ele><time>2026-04-22T07:55:11.206Z</time></trkpt><trkpt lat="40.9963364" lon="14.2611915"><ele>17.666666666666668</ele><time>2026-04-22T07:55:12.202Z</time></trkpt><trkpt lat="40.9964969" lon="14.2612026"><ele>17.0</ele><time>2026-04-22T07:55:13.184Z</time></trkpt><trkpt lat="40.9966702" lon="14.2612084"><ele>17.0</ele><time>2026-04-22T07:55:14.198Z</time></trkpt><trkpt lat="40.9968494" lon="14.2612096"><ele>17.0</ele><time>2026-04-22T07:55:15.197Z</time></trkpt><trkpt lat="40.9970203" lon="14.2612182"><ele>17.0</ele><time>2026-04-22T07:55:16.182Z</time></trkpt><trkpt lat="40.9971832" lon="14.2612248"><ele>17.0</ele><time>2026-04-22T07:55:17.187Z</time></trkpt><trkpt lat="40.9973399" lon="14.2612318"><ele>17.0</ele><time>2026-04-22T07:55:18.168Z</time></trkpt><trkpt lat="40.99751" lon="14.2612542"><ele>17.0</ele><time>2026-04-22T07:55:19.189Z</time></trkpt><trkpt lat="40.997686" lon="14.2612891"><ele>17.0</ele><time>2026-04-22T07:55:20.183Z</time></trkpt><trkpt lat="40.9978674" lon="14.2613314"><ele>17.0</ele><time>2026-04-22T07:55:21.174Z</time></trkpt><trkpt lat="40.9980614" lon="14.2613755"><ele>17.0</ele><time>2026-04-22T07:55:22.189Z</time></trkpt><trkpt lat="40.9982397" lon="14.261414"><ele>17.333333333333336</ele><time>2026-04-22T07:55:23.187Z</time></trkpt><trkpt lat="40.9983955" lon="14.2614491"><ele>17.666666666666668</ele><time>2026-04-22T07:55:24.18Z</time></trkpt><trkpt lat="40.9985399" lon="14.2614808"><ele>18.0</ele><time>2026-04-22T07:55:25.188Z</time></trkpt><trkpt lat="40.9986968" lon="14.2614954"><ele>18.0</ele><time>2026-04-22T07:55:26.212Z</time></trkpt><trkpt lat="40.9988614" lon="14.2614885"><ele>18.0</ele><time>2026-04-22T07:55:27.204Z</time></trkpt><trkpt lat="40.9990311" lon="14.2614602"><ele>18.0</ele><time>2026-04-22T07:55:28.176Z</time></trkpt><trkpt lat="40.9992121" lon="14.2614152"><ele>18.666666666666668</ele><time>2026-04-22T07:55:29.193Z</time></trkpt><trkpt lat="40.9993831" lon="14.2613776"><ele>19.333333333333336</ele><time>2026-04-22T07:55:30.193Z</time></trkpt><trkpt lat="40.9995407" lon="14.2613485"><ele>20.0</ele><time>2026-04-22T07:55:31.2Z</time></trkpt><trkpt lat="40.9996901" lon="14.2613139"><ele>20.0</ele><time>2026-04-22T07:55:32.213Z</time></trkpt><trkpt lat="40.9998228" lon="14.2612793"><ele>20.0</ele><time>2026-04-22T07:55:33.215Z</time></trkpt><trkpt lat="40.9999388" lon="14.2612517"><ele>20.0</ele><time>2026-04-22T07:55:34.217Z</time></trkpt><trkpt lat="41.0000442" lon="14.2612282"><ele>20.0</ele><time>2026-04-22T07:55:35.172Z</time></trkpt><trkpt lat="41.0001419" lon="14.2612044"><ele>20.0</ele><time>2026-04-22T07:55:36.235Z</time></trkpt><trkpt lat="41.0002166" lon="14.2611824"><ele>20.0</ele><time>2026-04-22T07:55:37.19Z</time></trkpt><trkpt lat="41.0003223" lon="14.2611576"><ele>20.0</ele><time>2026-04-22T07:55:39.207Z</time></trkpt><trkpt lat="41.0004383" lon="14.2611284"><ele>20.0</ele><time>2026-04-22T07:55:41.189Z</time></trkpt><trkpt lat="41.0005306" lon="14.2611116"><ele>20.0</ele><time>2026-04-22T07:55:42.188Z</time></trkpt><trkpt lat="41.0006416" lon="14.2611011"><ele>20.0</ele><time>2026-04-22T07:55:43.188Z</time></trkpt><trkpt lat="41.0007618" lon="14.2610895"><ele>20.0</ele><time>2026-04-22T07:55:44.186Z</time></trkpt><trkpt lat="41.0009854" lon="14.2610544"><ele>20.0</ele><time>2026-04-22T07:55:45.935Z</time></trkpt><trkpt lat="41.0011125" lon="14.2610391"><ele>19.25</ele><time>2026-04-22T07:55:46.934Z</time></trkpt><trkpt lat="41.0012284" lon="14.2610228"><ele>18.5</ele><time>2026-04-22T07:55:47.934Z</time></trkpt><trkpt lat="41.0013327" lon="14.2610141"><ele>17.75</ele><time>2026-04-22T07:55:48.934Z</time></trkpt><trkpt lat="41.0014513" lon="14.2610032"><ele>17.0</ele><time>2026-04-22T07:55:50.203Z</time></trkpt><trkpt lat="41.0015789" lon="14.2609856"><ele>17.0</ele><time>2026-04-22T07:55:51.196Z</time></trkpt><trkpt lat="41.0017182" lon="14.2609671"><ele>17.0</ele><time>2026-04-22T07:55:52.196Z</time></trkpt><trkpt lat="41.0018687" lon="14.260941"><ele>17.0</ele><time>2026-04-22T07:55:53.212Z</time></trkpt><trkpt lat="41.0020142" lon="14.2609193"><ele>17.0</ele><time>2026-04-22T07:55:54.195Z</time></trkpt><trkpt lat="41.0021711" lon="14.2609058"><ele>17.0</ele><time>2026-04-22T07:55:55.218Z</time></trkpt><trkpt lat="41.0023279" lon="14.2608998"><ele>17.0</ele><time>2026-04-22T07:55:56.199Z</time></trkpt><trkpt lat="41.0024991" lon="14.2608946"><ele>17.0</ele><time>2026-04-22T07:55:57.221Z</time></trkpt><trkpt lat="41.0026654" lon="14.2608927"><ele>17.0</ele><time>2026-04-22T07:55:58.193Z</time></trkpt><trkpt lat="41.0028372" lon="14.2608961"><ele>17.0</ele><time>2026-04-22T07:55:59.205Z</time></trkpt><trkpt lat="41.0030088" lon="14.2608969"><ele>17.0</ele><time>2026-04-22T07:56:00.21Z</time></trkpt><trkpt lat="41.0031788" lon="14.2608971"><ele>18.0</ele><time>2026-04-22T07:56:01.182Z</time></trkpt><trkpt lat="41.0033566" lon="14.2608971"><ele>19.0</ele><time>2026-04-22T07:56:02.18Z</time></trkpt><trkpt lat="41.0035325" lon="14.2608986"><ele>20.0</ele><time>2026-04-22T07:56:03.175Z</time></trkpt><trkpt lat="41.0037169" lon="14.2608984"><ele>20.0</ele><time>2026-04-22T07:56:04.216Z</time></trkpt><trkpt lat="41.0038901" lon="14.2608977"><ele>20.0</ele><time>2026-04-22T07:56:05.189Z</time></trkpt><trkpt lat="41.0040668" lon="14.2608991"><ele>20.0</ele><time>2026-04-22T07:56:06.183Z</time></trkpt><trkpt lat="41.0042662" lon="14.2609081"><ele>19.0</ele><time>2026-04-22T07:56:07.303Z</time></trkpt><trkpt lat="41.0045824" lon="14.2609494"><ele>18.0</ele><time>2026-04-22T07:56:09.21Z</time></trkpt><trkpt lat="41.0047354" lon="14.2609835"><ele>18.0</ele><time>2026-04-22T07:56:10.208Z</time></trkpt><trkpt lat="41.0048825" lon="14.2610226"><ele>18.0</ele><time>2026-04-22T07:56:11.189Z</time></trkpt><trkpt lat="41.0050216" lon="14.2610756"><ele>18.0</ele><time>2026-04-22T07:56:12.165Z</time></trkpt><trkpt lat="41.0051645" lon="14.2611417"><ele>18.0</ele><time>2026-04-22T07:56:13.196Z</time></trkpt><trkpt lat="41.0053012" lon="14.2612088"><ele>18.0</ele><time>2026-04-22T07:56:14.191Z</time></trkpt><trkpt lat="41.0054298" lon="14.261273"><ele>18.0</ele><time>2026-04-22T07:56:15.185Z</time></trkpt><trkpt lat="41.005553" lon="14.2613325"><ele>18.0</ele><time>2026-04-22T07:56:16.185Z</time></trkpt><trkpt lat="41.0056779" lon="14.2613927"><ele>18.0</ele><time>2026-04-22T07:56:17.227Z</time></trkpt><trkpt lat="41.0057918" lon="14.2614529"><ele>18.0</ele><time>2026-04-22T07:56:18.187Z</time></trkpt><trkpt lat="41.0059153" lon="14.2615227"><ele>18.0</ele><time>2026-04-22T07:56:19.175Z</time></trkpt><trkpt lat="41.0060444" lon="14.2615928"><ele>18.0</ele><time>2026-04-22T07:56:20.189Z</time></trkpt><trkpt lat="41.0061701" lon="14.2616591"><ele>18.0</ele><time>2026-04-22T07:56:21.178Z</time></trkpt><trkpt lat="41.0062972" lon="14.2617248"><ele>18.0</ele><time>2026-04-22T07:56:22.193Z</time></trkpt><trkpt lat="41.0064179" lon="14.2617862"><ele>18.0</ele><time>2026-04-22T07:56:23.209Z</time></trkpt><trkpt lat="41.0065299" lon="14.2618421"><ele>18.0</ele><time>2026-04-22T07:56:24.199Z</time></trkpt><trkpt lat="41.0066288" lon="14.261892"><ele>18.0</ele><time>2026-04-22T07:56:25.174Z</time></trkpt><trkpt lat="41.0067288" lon="14.2619321"><ele>17.75</ele><time>2026-04-22T07:56:26.182Z</time></trkpt><trkpt lat="41.0068314" lon="14.2619603"><ele>17.5</ele><time>2026-04-22T07:56:27.18Z</time></trkpt><trkpt lat="41.006948" lon="14.2619777"><ele>17.25</ele><time>2026-04-22T07:56:28.225Z</time></trkpt><trkpt lat="41.0070685" lon="14.2619882"><ele>17.0</ele><time>2026-04-22T07:56:29.183Z</time></trkpt><trkpt lat="41.0071966" lon="14.2619994"><ele>17.0</ele><time>2026-04-22T07:56:30.221Z</time></trkpt><trkpt lat="41.0073183" lon="14.2620102"><ele>17.0</ele><time>2026-04-22T07:56:31.184Z</time></trkpt><trkpt lat="41.0074472" lon="14.2620248"><ele>17.0</ele><time>2026-04-22T07:56:32.181Z</time></trkpt><trkpt lat="41.0075781" lon="14.2620417"><ele>17.0</ele><time>2026-04-22T07:56:33.214Z</time></trkpt><trkpt lat="41.0077004" lon="14.2620576"><ele>17.4</ele><time>2026-04-22T07:56:34.186Z</time></trkpt><trkpt lat="41.0078232" lon="14.2620727"><ele>17.799999999999997</ele><time>2026-04-22T07:56:35.192Z</time></trkpt><trkpt lat="41.0079359" lon="14.2620829"><ele>18.2</ele><time>2026-04-22T07:56:36.194Z</time></trkpt><trkpt lat="41.0080329" lon="14.2620923"><ele>18.599999999999998</ele><time>2026-04-22T07:56:37.181Z</time></trkpt><trkpt lat="41.0081196" lon="14.2621005"><ele>19.0</ele><time>2026-04-22T07:56:38.196Z</time></trkpt><trkpt lat="41.0081954" lon="14.2621073"><ele>19.0</ele><time>2026-04-22T07:56:39.188Z</time></trkpt><trkpt lat="41.008267" lon="14.2621178"><ele>19.0</ele><time>2026-04-22T07:56:40.211Z</time></trkpt><trkpt lat="41.0083909" lon="14.2621121"><ele>19.0</ele><time>2026-04-22T07:56:42.167Z</time></trkpt><trkpt lat="41.0084504" lon="14.2620739"><ele>19.0</ele><time>2026-04-22T07:56:43.187Z</time></trkpt><trkpt lat="41.0084955" lon="14.2620031"><ele>19.0</ele><time>2026-04-22T07:56:44.179Z</time></trkpt><trkpt lat="41.0085322" lon="14.2618953"><ele>19.0</ele><time>2026-04-22T07:56:45.309Z</time></trkpt><trkpt lat="41.0086358" lon="14.2617151"><ele>19.0</ele><time>2026-04-22T07:56:47.185Z</time></trkpt><trkpt lat="41.0086872" lon="14.261643"><ele>19.0</ele><time>2026-04-22T07:56:48.16Z</time></trkpt><trkpt lat="41.0087615" lon="14.2615598"><ele>19.0</ele><time>2026-04-22T07:56:49.124Z</time></trkpt><trkpt lat="41.0088551" lon="14.2614677"><ele>19.0</ele><time>2026-04-22T07:56:50.108Z</time></trkpt><trkpt lat="41.0089447" lon="14.2613911"><ele>19.0</ele><time>2026-04-22T07:56:51.125Z</time></trkpt><trkpt lat="41.0090369" lon="14.2612959"><ele>19.0</ele><time>2026-04-22T07:56:52.176Z</time></trkpt><trkpt lat="41.009131" lon="14.2612026"><ele>19.0</ele><time>2026-04-22T07:56:53.165Z</time></trkpt><trkpt lat="41.009207" lon="14.2611228"><ele>19.0</ele><time>2026-04-22T07:56:54.164Z</time></trkpt><trkpt lat="41.0092706" lon="14.2610714"><ele>19.0</ele><time>2026-04-22T07:56:55.176Z</time></trkpt><trkpt lat="41.0093696" lon="14.2610079"><ele>19.0</ele><time>2026-04-22T07:56:57.204Z</time></trkpt><trkpt lat="41.009435" lon="14.260992"><ele>18.8</ele><time>2026-04-22T07:56:58.166Z</time></trkpt><trkpt lat="41.0095293" lon="14.2609888"><ele>18.599999999999998</ele><time>2026-04-22T07:56:59.171Z</time></trkpt><trkpt lat="41.0096313" lon="14.26099"><ele>18.4</ele><time>2026-04-22T07:57:00.177Z</time></trkpt><trkpt lat="41.0097413" lon="14.2609933"><ele>18.2</ele><time>2026-04-22T07:57:01.189Z</time></trkpt><trkpt lat="41.0098648" lon="14.2609931"><ele>18.0</ele><time>2026-04-22T07:57:02.191Z</time></trkpt><trkpt lat="41.0100003" lon="14.2609922"><ele>17.666666666666668</ele><time>2026-04-22T07:57:03.187Z</time></trkpt><trkpt lat="41.0101486" lon="14.2609908"><ele>17.333333333333336</ele><time>2026-04-22T07:57:04.207Z</time></trkpt><trkpt lat="41.0102928" lon="14.2609897"><ele>17.0</ele><time>2026-04-22T07:57:05.191Z</time></trkpt><trkpt lat="41.0104657" lon="14.260981"><ele>17.0</ele><time>2026-04-22T07:57:06.293Z</time></trkpt><trkpt lat="41.010786" lon="14.2609619"><ele>17.0</ele><time>2026-04-22T07:57:08.188Z</time></trkpt><trkpt lat="41.0109789" lon="14.2609482"><ele>17.5</ele><time>2026-04-22T07:57:09.307Z</time></trkpt><trkpt lat="41.0112902" lon="14.2609414"><ele>18.0</ele><time>2026-04-22T07:57:11.143Z</time></trkpt><trkpt lat="41.0114662" lon="14.2609468"><ele>18.0</ele><time>2026-04-22T07:57:12.181Z</time></trkpt><trkpt lat="41.0116493" lon="14.2609498"><ele>18.0</ele><time>2026-04-22T07:57:13.187Z</time></trkpt><trkpt lat="41.0118237" lon="14.2609635"><ele>18.0</ele><time>2026-04-22T07:57:14.18Z</time></trkpt><trkpt lat="41.012009" lon="14.2609787"><ele>18.0</ele><time>2026-04-22T07:57:15.216Z</time></trkpt><trkpt lat="41.0121632" lon="14.2610113"><ele>18.0</ele><time>2026-04-22T07:57:16.189Z</time></trkpt><trkpt lat="41.0123064" lon="14.2610641"><ele>18.0</ele><time>2026-04-22T07:57:17.194Z</time></trkpt><trkpt lat="41.0124433" lon="14.26115"><ele>17.0</ele><time>2026-04-22T07:57:18.184Z</time></trkpt><trkpt lat="41.0125746" lon="14.2612472"><ele>16.0</ele><time>2026-04-22T07:57:19.181Z</time></trkpt><trkpt lat="41.0126943" lon="14.2613358"><ele>15.0</ele><time>2026-04-22T07:57:20.177Z</time></trkpt><trkpt lat="41.0128046" lon="14.2614149"><ele>14.0</ele><time>2026-04-22T07:57:21.164Z</time></trkpt><trkpt lat="41.0129039" lon="14.2615075"><ele>14.0</ele><time>2026-04-22T07:57:22.18Z</time></trkpt><trkpt lat="41.012992" lon="14.2616245"><ele>14.0</ele><time>2026-04-22T07:57:23.169Z</time></trkpt><trkpt lat="41.0130844" lon="14.2617807"><ele>14.0</ele><time>2026-04-22T07:57:24.203Z</time></trkpt><trkpt lat="41.0131638" lon="14.2619548"><ele>14.0</ele><time>2026-04-22T07:57:25.164Z</time></trkpt><trkpt lat="41.0132505" lon="14.2621639"><ele>15.333333333333334</ele><time>2026-04-22T07:57:26.193Z</time></trkpt><trkpt lat="41.0133347" lon="14.2623607"><ele>16.666666666666668</ele><time>2026-04-22T07:57:27.201Z</time></trkpt><trkpt lat="41.0134211" lon="14.2625547"><ele>18.0</ele><time>2026-04-22T07:57:28.2Z</time></trkpt><trkpt lat="41.013504" lon="14.2627436"><ele>18.0</ele><time>2026-04-22T07:57:29.171Z</time></trkpt><trkpt lat="41.0135835" lon="14.2629314"><ele>18.0</ele><time>2026-04-22T07:57:30.172Z</time></trkpt><trkpt lat="41.013656" lon="14.2631013"><ele>18.0</ele><time>2026-04-22T07:57:31.176Z</time></trkpt><trkpt lat="41.0137238" lon="14.2632591"><ele>18.0</ele><time>2026-04-22T07:57:32.189Z</time></trkpt><trkpt lat="41.0137904" lon="14.2634081"><ele>18.5</ele><time>2026-04-22T07:57:33.172Z</time></trkpt><trkpt lat="41.0138595" lon="14.2635659"><ele>19.0</ele><time>2026-04-22T07:57:34.183Z</time></trkpt><trkpt lat="41.0139233" lon="14.2637203"><ele>19.5</ele><time>2026-04-22T07:57:35.191Z</time></trkpt><trkpt lat="41.0139919" lon="14.2638736"><ele>20.0</ele><time>2026-04-22T07:57:36.213Z</time></trkpt><trkpt lat="41.014056" lon="14.2640175"><ele>19.25</ele><time>2026-04-22T07:57:37.175Z</time></trkpt><trkpt lat="41.014119" lon="14.2641634"><ele>18.5</ele><time>2026-04-22T07:57:38.2Z</time></trkpt><trkpt lat="41.0141776" lon="14.2642921"><ele>17.75</ele><time>2026-04-22T07:57:39.225Z</time></trkpt><trkpt lat="41.0142269" lon="14.2644103"><ele>17.0</ele><time>2026-04-22T07:57:40.181Z</time></trkpt><trkpt lat="41.014284" lon="14.2645432"><ele>17.0</ele><time>2026-04-22T07:57:41.225Z</time></trkpt><trkpt lat="41.014336" lon="14.2646676"><ele>17.0</ele><time>2026-04-22T07:57:42.186Z</time></trkpt><trkpt lat="41.014382" lon="14.2647922"><ele>17.0</ele><time>2026-04-22T07:57:43.198Z</time></trkpt><trkpt lat="41.0144102" lon="14.2649139"><ele>17.0</ele><time>2026-04-22T07:57:44.197Z</time></trkpt><trkpt lat="41.0144235" lon="14.2650411"><ele>17.0</ele><time>2026-04-22T07:57:45.195Z</time></trkpt><trkpt lat="41.0144247" lon="14.2651684"><ele>17.2</ele><time>2026-04-22T07:57:46.213Z</time></trkpt><trkpt lat="41.0144316" lon="14.2652901"><ele>17.4</ele><time>2026-04-22T07:57:47.192Z</time></trkpt><trkpt lat="41.0144389" lon="14.2654073"><ele>17.6</ele><time>2026-04-22T07:57:48.182Z</time></trkpt><trkpt lat="41.0144349" lon="14.2655276"><ele>17.8</ele><time>2026-04-22T07:57:49.181Z</time></trkpt><trkpt lat="41.0144296" lon="14.2656533"><ele>18.0</ele><time>2026-04-22T07:57:50.163Z</time></trkpt><trkpt lat="41.0144316" lon="14.2657919"><ele>18.4</ele><time>2026-04-22T07:57:51.185Z</time></trkpt><trkpt lat="41.0144321" lon="14.2659167"><ele>18.8</ele><time>2026-04-22T07:57:52.161Z</time></trkpt><trkpt lat="41.0144381" lon="14.2660312"><ele>19.2</ele><time>2026-04-22T07:57:53.24Z</time></trkpt><trkpt lat="41.0144538" lon="14.2661173"><ele>19.6</ele><time>2026-04-22T07:57:54.198Z</time></trkpt><trkpt lat="41.0145437" lon="14.2662427"><ele>20.0</ele><time>2026-04-22T07:57:56.198Z</time></trkpt><trkpt lat="41.0146113" lon="14.2662827"><ele>20.0</ele><time>2026-04-22T07:57:57.185Z</time></trkpt><trkpt lat="41.0146906" lon="14.2662842"><ele>20.0</ele><time>2026-04-22T07:57:58.178Z</time></trkpt><trkpt lat="41.0147809" lon="14.2662727"><ele>20.0</ele><time>2026-04-22T07:57:59.185Z</time></trkpt><trkpt lat="41.0148833" lon="14.2662635"><ele>20.0</ele><time>2026-04-22T07:58:00.207Z</time></trkpt><trkpt lat="41.0149773" lon="14.2662622"><ele>20.0</ele><time>2026-04-22T07:58:01.174Z</time></trkpt><trkpt lat="41.0150669" lon="14.2662568"><ele>20.166666666666668</ele><time>2026-04-22T07:58:02.164Z</time></trkpt><trkpt lat="41.0151521" lon="14.2662476"><ele>20.333333333333336</ele><time>2026-04-22T07:58:03.193Z</time></trkpt><trkpt lat="41.0152417" lon="14.2662327"><ele>20.5</ele><time>2026-04-22T07:58:04.306Z</time></trkpt><trkpt lat="41.0153222" lon="14.2662313"><ele>20.666666666666668</ele><time>2026-04-22T07:58:05.211Z</time></trkpt><trkpt lat="41.0153944" lon="14.2662299"><ele>20.833333333333332</ele><time>2026-04-22T07:58:06.196Z</time></trkpt><trkpt lat="41.0154899" lon="14.2662308"><ele>21.0</ele><time>2026-04-22T07:58:07.207Z</time></trkpt><trkpt lat="41.0155708" lon="14.2662265"><ele>21.0</ele><time>2026-04-22T07:58:08.177Z</time></trkpt><trkpt lat="41.0156464" lon="14.2662322"><ele>21.0</ele><time>2026-04-22T07:58:09.202Z</time></trkpt><trkpt lat="41.0157186" lon="14.2662768"><ele>21.0</ele><time>2026-04-22T07:58:10.206Z</time></trkpt><trkpt lat="41.0157734" lon="14.2663551"><ele>21.0</ele><time>2026-04-22T07:58:11.191Z</time></trkpt><trkpt lat="41.015812" lon="14.2664532"><ele>21.0</ele><time>2026-04-22T07:58:12.213Z</time></trkpt><trkpt lat="41.0158339" lon="14.2665696"><ele>21.0</ele><time>2026-04-22T07:58:13.195Z</time></trkpt><trkpt lat="41.0158451" lon="14.2666988"><ele>20.6</ele><time>2026-04-22T07:58:14.202Z</time></trkpt><trkpt lat="41.0158599" lon="14.2668183"><ele>20.200000000000003</ele><time>2026-04-22T07:58:15.183Z</time></trkpt><trkpt lat="41.0158747" lon="14.2669578"><ele>19.799999999999997</ele><time>2026-04-22T07:58:16.214Z</time></trkpt><trkpt lat="41.0158936" lon="14.2671079"><ele>19.4</ele><time>2026-04-22T07:58:17.222Z</time></trkpt><trkpt lat="41.0159115" lon="14.2672574"><ele>19.0</ele><time>2026-04-22T07:58:18.223Z</time></trkpt><trkpt lat="41.0159271" lon="14.2673961"><ele>19.0</ele><time>2026-04-22T07:58:19.182Z</time></trkpt><trkpt lat="41.0159423" lon="14.2675368"><ele>19.0</ele><time>2026-04-22T07:58:20.187Z</time></trkpt><trkpt lat="41.0159597" lon="14.2676718"><ele>19.0</ele><time>2026-04-22T07:58:21.237Z</time></trkpt><trkpt lat="41.0159767" lon="14.2677803"><ele>19.0</ele><time>2026-04-22T07:58:22.176Z</time></trkpt><trkpt lat="41.0160071" lon="14.2678784"><ele>19.0</ele><time>2026-04-22T07:58:23.185Z</time></trkpt><trkpt lat="41.016055" lon="14.2679526"><ele>19.0</ele><time>2026-04-22T07:58:24.183Z</time></trkpt><trkpt lat="41.0161182" lon="14.2680136"><ele>19.0</ele><time>2026-04-22T07:58:25.202Z</time></trkpt><trkpt lat="41.0161863" lon="14.2680595"><ele>19.0</ele><time>2026-04-22T07:58:26.201Z</time></trkpt><trkpt lat="41.0162636" lon="14.2681019"><ele>19.0</ele><time>2026-04-22T07:58:27.25Z</time></trkpt><trkpt lat="41.0163441" lon="14.2681319"><ele>19.0</ele><time>2026-04-22T07:58:28.209Z</time></trkpt><trkpt lat="41.0164294" lon="14.2681576"><ele>19.0</ele><time>2026-04-22T07:58:29.175Z</time></trkpt><trkpt lat="41.0165194" lon="14.2681886"><ele>19.0</ele><time>2026-04-22T07:58:30.196Z</time></trkpt><trkpt lat="41.0166085" lon="14.2682176"><ele>18.8</ele><time>2026-04-22T07:58:31.206Z</time></trkpt><trkpt lat="41.0167016" lon="14.2682389"><ele>18.599999999999998</ele><time>2026-04-22T07:58:32.205Z</time></trkpt><trkpt lat="41.016807" lon="14.2682517"><ele>18.4</ele><time>2026-04-22T07:58:33.311Z</time></trkpt><trkpt lat="41.0168965" lon="14.2682534"><ele>18.2</ele><time>2026-04-22T07:58:34.223Z</time></trkpt><trkpt lat="41.0169918" lon="14.2682538"><ele>18.0</ele><time>2026-04-22T07:58:35.22Z</time></trkpt><trkpt lat="41.0170745" lon="14.268248"><ele>18.0</ele><time>2026-04-22T07:58:36.197Z</time></trkpt><trkpt lat="41.0171562" lon="14.2682318"><ele>18.0</ele><time>2026-04-22T07:58:37.206Z</time></trkpt><trkpt lat="41.017236" lon="14.2682063"><ele>18.0</ele><time>2026-04-22T07:58:38.195Z</time></trkpt><trkpt lat="41.0173227" lon="14.2681751"><ele>18.0</ele><time>2026-04-22T07:58:39.187Z</time></trkpt><trkpt lat="41.0174135" lon="14.2681306"><ele>18.0</ele><time>2026-04-22T07:58:40.196Z</time></trkpt><trkpt lat="41.0175055" lon="14.2680726"><ele>18.2</ele><time>2026-04-22T07:58:41.194Z</time></trkpt><trkpt lat="41.0175985" lon="14.2680042"><ele>18.4</ele><time>2026-04-22T07:58:42.184Z</time></trkpt><trkpt lat="41.017696" lon="14.2679272"><ele>18.599999999999998</ele><time>2026-04-22T07:58:43.189Z</time></trkpt><trkpt lat="41.0177921" lon="14.2678419"><ele>18.8</ele><time>2026-04-22T07:58:44.207Z</time></trkpt><trkpt lat="41.0178839" lon="14.2677579"><ele>19.0</ele><time>2026-04-22T07:58:45.165Z</time></trkpt><trkpt lat="41.0179805" lon="14.2676784"><ele>19.0</ele><time>2026-04-22T07:58:46.168Z</time></trkpt><trkpt lat="41.0180715" lon="14.2675977"><ele>19.0</ele><time>2026-04-22T07:58:47.158Z</time></trkpt><trkpt lat="41.0181645" lon="14.2675048"><ele>19.0</ele><time>2026-04-22T07:58:48.162Z</time></trkpt><trkpt lat="41.0182514" lon="14.2673984"><ele>19.0</ele><time>2026-04-22T07:58:49.134Z</time></trkpt><trkpt lat="41.0183343" lon="14.2672789"><ele>19.0</ele><time>2026-04-22T07:58:50.174Z</time></trkpt><trkpt lat="41.0184019" lon="14.2671628"><ele>19.0</ele><time>2026-04-22T07:58:51.159Z</time></trkpt><trkpt lat="41.018456" lon="14.2670544"><ele>19.0</ele><time>2026-04-22T07:58:52.189Z</time></trkpt><trkpt lat="41.0184976" lon="14.2669565"><ele>19.0</ele><time>2026-04-22T07:58:53.234Z</time></trkpt><trkpt lat="41.0185466" lon="14.2668387"><ele>19.0</ele><time>2026-04-22T07:58:55.19Z</time></trkpt><trkpt lat="41.0186399" lon="14.2668375"><ele>19.0</ele><time>2026-04-22T07:58:58.303Z</time></trkpt><trkpt lat="41.018723" lon="14.26696"><ele>19.0</ele><time>2026-04-22T07:59:00.226Z</time></trkpt><trkpt lat="41.0187867" lon="14.2670477"><ele>19.0</ele><time>2026-04-22T07:59:01.294Z</time></trkpt><trkpt lat="41.018845" lon="14.26712"><ele>19.0</ele><time>2026-04-22T07:59:02.202Z</time></trkpt><trkpt lat="41.0189071" lon="14.267207"><ele>19.0</ele><time>2026-04-22T07:59:03.197Z</time></trkpt><trkpt lat="41.0189803" lon="14.2673086"><ele>19.0</ele><time>2026-04-22T07:59:04.199Z</time></trkpt><trkpt lat="41.0190575" lon="14.2674165"><ele>19.0</ele><time>2026-04-22T07:59:05.187Z</time></trkpt><trkpt lat="41.0191333" lon="14.2675229"><ele>19.0</ele><time>2026-04-22T07:59:06.199Z</time></trkpt><trkpt lat="41.0192107" lon="14.267632"><ele>19.0</ele><time>2026-04-22T07:59:07.186Z</time></trkpt><trkpt lat="41.0192936" lon="14.2677483"><ele>19.0</ele><time>2026-04-22T07:59:08.233Z</time></trkpt><trkpt lat="41.0193773" lon="14.2678568"><ele>19.0</ele><time>2026-04-22T07:59:09.209Z</time></trkpt><trkpt lat="41.019454" lon="14.2679576"><ele>19.0</ele><time>2026-04-22T07:59:10.192Z</time></trkpt><trkpt lat="41.0195243" lon="14.2680511"><ele>19.0</ele><time>2026-04-22T07:59:11.18Z</time></trkpt><trkpt lat="41.0195865" lon="14.2681353"><ele>19.0</ele><time>2026-04-22T07:59:12.199Z</time></trkpt><trkpt lat="41.0196488" lon="14.2682138"><ele>19.666666666666664</ele><time>2026-04-22T07:59:13.197Z</time></trkpt><trkpt lat="41.0197107" lon="14.2682934"><ele>20.333333333333332</ele><time>2026-04-22T07:59:14.19Z</time></trkpt><trkpt lat="41.019763" lon="14.2683654"><ele>21.0</ele><time>2026-04-22T07:59:15.185Z</time></trkpt><trkpt lat="41.0198077" lon="14.2684304"><ele>21.666666666666668</ele><time>2026-04-22T07:59:16.19Z</time></trkpt><trkpt lat="41.0198459" lon="14.2685026"><ele>22.333333333333336</ele><time>2026-04-22T07:59:17.203Z</time></trkpt><trkpt lat="41.0198698" lon="14.2685926"><ele>23.0</ele><time>2026-04-22T07:59:18.185Z</time></trkpt><trkpt lat="41.0198945" lon="14.268731"><ele>23.666666666666668</ele><time>2026-04-22T07:59:19.28Z</time></trkpt><trkpt lat="41.0198837" lon="14.2690261"><ele>24.333333333333336</ele><time>2026-04-22T07:59:21.186Z</time></trkpt><trkpt lat="41.0198817" lon="14.2691887"><ele>25.0</ele><time>2026-04-22T07:59:22.206Z</time></trkpt><trkpt lat="41.019888" lon="14.2693717"><ele>25.0</ele><time>2026-04-22T07:59:23.207Z</time></trkpt><trkpt lat="41.0199004" lon="14.2695758"><ele>25.0</ele><time>2026-04-22T07:59:24.289Z</time></trkpt><trkpt lat="41.0199221" lon="14.2699174"><ele>25.0</ele><time>2026-04-22T07:59:26.223Z</time></trkpt><trkpt lat="41.0199393" lon="14.2700602"><ele>24.25</ele><time>2026-04-22T07:59:27.202Z</time></trkpt><trkpt lat="41.0199795" lon="14.270173"><ele>23.5</ele><time>2026-04-22T07:59:28.183Z</time></trkpt><trkpt lat="41.0200455" lon="14.2702965"><ele>22.75</ele><time>2026-04-22T07:59:29.231Z</time></trkpt><trkpt lat="41.0201299" lon="14.2704031"><ele>22.0</ele><time>2026-04-22T07:59:30.193Z</time></trkpt><trkpt lat="41.0202212" lon="14.2705261"><ele>21.666666666666664</ele><time>2026-04-22T07:59:31.219Z</time></trkpt><trkpt lat="41.0203118" lon="14.2706658"><ele>21.333333333333332</ele><time>2026-04-22T07:59:32.192Z</time></trkpt><trkpt lat="41.0204191" lon="14.2708191"><ele>21.0</ele><time>2026-04-22T07:59:33.187Z</time></trkpt><trkpt lat="41.0205307" lon="14.2709755"><ele>21.0</ele><time>2026-04-22T07:59:34.178Z</time></trkpt><trkpt lat="41.0206504" lon="14.2711432"><ele>21.0</ele><time>2026-04-22T07:59:35.213Z</time></trkpt><trkpt lat="41.0207711" lon="14.2713034"><ele>21.0</ele><time>2026-04-22T07:59:36.201Z</time></trkpt><trkpt lat="41.0208855" lon="14.2714638"><ele>20.666666666666668</ele><time>2026-04-22T07:59:37.172Z</time></trkpt><trkpt lat="41.0210079" lon="14.2716322"><ele>20.333333333333336</ele><time>2026-04-22T07:59:38.164Z</time></trkpt><trkpt lat="41.0211334" lon="14.2718074"><ele>20.0</ele><time>2026-04-22T07:59:39.185Z</time></trkpt><trkpt lat="41.0212613" lon="14.2719839"><ele>20.0</ele><time>2026-04-22T07:59:40.222Z</time></trkpt><trkpt lat="41.0213793" lon="14.2721427"><ele>20.0</ele><time>2026-04-22T07:59:41.188Z</time></trkpt><trkpt lat="41.0214976" lon="14.2723023"><ele>20.0</ele><time>2026-04-22T07:59:42.193Z</time></trkpt><trkpt lat="41.0216143" lon="14.2724595"><ele>20.0</ele><time>2026-04-22T07:59:43.208Z</time></trkpt><trkpt lat="41.0217216" lon="14.2726054"><ele>20.0</ele><time>2026-04-22T07:59:44.218Z</time></trkpt><trkpt lat="41.0218168" lon="14.2727386"><ele>20.0</ele><time>2026-04-22T07:59:45.191Z</time></trkpt><trkpt lat="41.0219148" lon="14.2728744"><ele>20.0</ele><time>2026-04-22T07:59:46.182Z</time></trkpt><trkpt lat="41.0220171" lon="14.2730169"><ele>20.0</ele><time>2026-04-22T07:59:47.199Z</time></trkpt><trkpt lat="41.0221147" lon="14.273158"><ele>20.0</ele><time>2026-04-22T07:59:48.193Z</time></trkpt><trkpt lat="41.0222128" lon="14.2732975"><ele>20.0</ele><time>2026-04-22T07:59:49.219Z</time></trkpt><trkpt lat="41.0222956" lon="14.2734141"><ele>20.0</ele><time>2026-04-22T07:59:50.199Z</time></trkpt><trkpt lat="41.0223717" lon="14.2735118"><ele>20.0</ele><time>2026-04-22T07:59:51.207Z</time></trkpt><trkpt lat="41.0224463" lon="14.273584"><ele>20.0</ele><time>2026-04-22T07:59:52.192Z</time></trkpt><trkpt lat="41.0225353" lon="14.2736245"><ele>20.0</ele><time>2026-04-22T07:59:53.179Z</time></trkpt><trkpt lat="41.0226432" lon="14.2736419"><ele>20.0</ele><time>2026-04-22T07:59:54.17Z</time></trkpt><trkpt lat="41.0227712" lon="14.2736417"><ele>20.0</ele><time>2026-04-22T07:59:55.187Z</time></trkpt><trkpt lat="41.0229115" lon="14.2736365"><ele>20.0</ele><time>2026-04-22T07:59:56.186Z</time></trkpt><trkpt lat="41.0230551" lon="14.2736341"><ele>20.0</ele><time>2026-04-22T07:59:57.206Z</time></trkpt><trkpt lat="41.0231997" lon="14.2736349"><ele>20.0</ele><time>2026-04-22T07:59:58.221Z</time></trkpt><trkpt lat="41.0233418" lon="14.2736341"><ele>20.0</ele><time>2026-04-22T07:59:59.184Z</time></trkpt><trkpt lat="41.0234959" lon="14.2736299"><ele>20.5</ele><time>2026-04-22T08:00:00.202Z</time></trkpt><trkpt lat="41.0236457" lon="14.273627"><ele>21.0</ele><time>2026-04-22T08:00:01.187Z</time></trkpt><trkpt lat="41.0237818" lon="14.2736263"><ele>21.5</ele><time>2026-04-22T08:00:02.197Z</time></trkpt><trkpt lat="41.0238986" lon="14.2736216"><ele>22.0</ele><time>2026-04-22T08:00:03.207Z</time></trkpt><trkpt lat="41.0239973" lon="14.2736191"><ele>22.0</ele><time>2026-04-22T08:00:04.199Z</time></trkpt><trkpt lat="41.0240963" lon="14.2736176"><ele>22.0</ele><time>2026-04-22T08:00:05.301Z</time></trkpt><trkpt lat="41.0242283" lon="14.2736588"><ele>22.0</ele><time>2026-04-22T08:00:07.203Z</time></trkpt><trkpt lat="41.0242961" lon="14.2737496"><ele>22.0</ele><time>2026-04-22T08:00:09.207Z</time></trkpt><trkpt lat="41.0243333" lon="14.2739063"><ele>21.833333333333332</ele><time>2026-04-22T08:00:11.21Z</time></trkpt><trkpt lat="41.0243287" lon="14.274006"><ele>21.666666666666664</ele><time>2026-04-22T08:00:12.2Z</time></trkpt><trkpt lat="41.0243171" lon="14.2740963"><ele>21.5</ele><time>2026-04-22T08:00:13.201Z</time></trkpt><trkpt lat="41.0243101" lon="14.2741871"><ele>21.333333333333332</ele><time>2026-04-22T08:00:14.226Z</time></trkpt><trkpt lat="41.0243088" lon="14.2743385"><ele>21.166666666666668</ele><time>2026-04-22T08:00:16.201Z</time></trkpt><trkpt lat="41.0243086" lon="14.2744382"><ele>21.0</ele><time>2026-04-22T08:00:18.345Z</time></trkpt><trkpt lat="41.0243202" lon="14.274526"><ele>21.0</ele><time>2026-04-22T08:00:37.196Z</time></trkpt><trkpt lat="41.0244526" lon="14.2745488"><ele>21.0</ele><time>2026-04-22T08:00:39.202Z</time></trkpt><trkpt lat="41.0245451" lon="14.2745498"><ele>21.0</ele><time>2026-04-22T08:00:40.21Z</time></trkpt><trkpt lat="41.0246412" lon="14.2745551"><ele>21.0</ele><time>2026-04-22T08:00:41.177Z</time></trkpt><trkpt lat="41.024762" lon="14.2745462"><ele>21.0</ele><time>2026-04-22T08:00:42.192Z</time></trkpt><trkpt lat="41.0248913" lon="14.2745403"><ele>21.0</ele><time>2026-04-22T08:00:43.184Z</time></trkpt><trkpt lat="41.0250227" lon="14.2745365"><ele>21.0</ele><time>2026-04-22T08:00:44.209Z</time></trkpt><trkpt lat="41.0251598" lon="14.2745299"><ele>21.0</ele><time>2026-04-22T08:00:45.213Z</time></trkpt><trkpt lat="41.0252985" lon="14.27452"><ele>21.0</ele><time>2026-04-22T08:00:46.215Z</time></trkpt><trkpt lat="41.0254483" lon="14.2745083"><ele>21.0</ele><time>2026-04-22T08:00:47.212Z</time></trkpt><trkpt lat="41.0256032" lon="14.2745009"><ele>21.0</ele><time>2026-04-22T08:00:48.2Z</time></trkpt><trkpt lat="41.025765" lon="14.2744967"><ele>21.0</ele><time>2026-04-22T08:00:49.205Z</time></trkpt><trkpt lat="41.0259253" lon="14.2744948"><ele>21.333333333333332</ele><time>2026-04-22T08:00:50.194Z</time></trkpt><trkpt lat="41.026083" lon="14.2744938"><ele>21.666666666666664</ele><time>2026-04-22T08:00:51.188Z</time></trkpt><trkpt lat="41.0262505" lon="14.2744898"><ele>22.0</ele><time>2026-04-22T08:00:52.233Z</time></trkpt><trkpt lat="41.0264085" lon="14.2744842"><ele>22.0</ele><time>2026-04-22T08:00:53.207Z</time></trkpt><trkpt lat="41.0265767" lon="14.2744814"><ele>22.0</ele><time>2026-04-22T08:00:54.228Z</time></trkpt><trkpt lat="41.0267361" lon="14.2744793"><ele>22.0</ele><time>2026-04-22T08:00:55.189Z</time></trkpt><trkpt lat="41.0268977" lon="14.2744761"><ele>22.333333333333332</ele><time>2026-04-22T08:00:56.19Z</time></trkpt><trkpt lat="41.0270557" lon="14.274469"><ele>22.666666666666668</ele><time>2026-04-22T08:00:57.187Z</time></trkpt><trkpt lat="41.0272225" lon="14.274459"><ele>23.0</ele><time>2026-04-22T08:00:58.255Z</time></trkpt><trkpt lat="41.027364" lon="14.2744523"><ele>23.0</ele><time>2026-04-22T08:00:59.191Z</time></trkpt><trkpt lat="41.0275172" lon="14.2744499"><ele>23.0</ele><time>2026-04-22T08:01:00.214Z</time></trkpt><trkpt lat="41.0276608" lon="14.2744439"><ele>23.0</ele><time>2026-04-22T08:01:01.198Z</time></trkpt><trkpt lat="41.0278029" lon="14.2744421"><ele>23.0</ele><time>2026-04-22T08:01:02.211Z</time></trkpt><trkpt lat="41.0279349" lon="14.2744445"><ele>23.0</ele><time>2026-04-22T08:01:03.179Z</time></trkpt><trkpt lat="41.0280664" lon="14.2744471"><ele>23.0</ele><time>2026-04-22T08:01:04.174Z</time></trkpt><trkpt lat="41.0282075" lon="14.2744506"><ele>23.0</ele><time>2026-04-22T08:01:05.201Z</time></trkpt><trkpt lat="41.0283469" lon="14.2744505"><ele>23.0</ele><time>2026-04-22T08:01:06.185Z</time></trkpt><trkpt lat="41.0285092" lon="14.2744515"><ele>22.75</ele><time>2026-04-22T08:01:07.293Z</time></trkpt><trkpt lat="41.0286448" lon="14.2744495"><ele>22.5</ele><time>2026-04-22T08:01:08.204Z</time></trkpt><trkpt lat="41.0287933" lon="14.2744491"><ele>22.25</ele><time>2026-04-22T08:01:09.2Z</time></trkpt><trkpt lat="41.028931" lon="14.2744486"><ele>22.0</ele><time>2026-04-22T08:01:10.167Z</time></trkpt><trkpt lat="41.0290822" lon="14.2744501"><ele>21.75</ele><time>2026-04-22T08:01:11.23Z</time></trkpt><trkpt lat="41.0292308" lon="14.2744486"><ele>21.5</ele><time>2026-04-22T08:01:12.283Z</time></trkpt><trkpt lat="41.0293607" lon="14.2744484"><ele>21.25</ele><time>2026-04-22T08:01:13.222Z</time></trkpt><trkpt lat="41.0294933" lon="14.2744502"><ele>21.0</ele><time>2026-04-22T08:01:14.185Z</time></trkpt><trkpt lat="41.0296448" lon="14.274455"><ele>21.0</ele><time>2026-04-22T08:01:15.297Z</time></trkpt><trkpt lat="41.0298975" lon="14.2744569"><ele>21.0</ele><time>2026-04-22T08:01:17.181Z</time></trkpt><trkpt lat="41.030031" lon="14.2744579"><ele>21.0</ele><time>2026-04-22T08:01:18.181Z</time></trkpt><trkpt lat="41.0301838" lon="14.2744594"><ele>21.0</ele><time>2026-04-22T08:01:19.337Z</time></trkpt><trkpt lat="41.0303998" lon="14.2744579"><ele>21.0</ele><time>2026-04-22T08:01:21.202Z</time></trkpt><trkpt lat="41.0304973" lon="14.2744602"><ele>21.0</ele><time>2026-04-22T08:01:22.186Z</time></trkpt><trkpt lat="41.0305976" lon="14.274464"><ele>21.0</ele><time>2026-04-22T08:01:23.17Z</time></trkpt><trkpt lat="41.0307042" lon="14.2744664"><ele>21.0</ele><time>2026-04-22T08:01:24.187Z</time></trkpt><trkpt lat="41.0308117" lon="14.2744748"><ele>21.0</ele><time>2026-04-22T08:01:25.19Z</time></trkpt><trkpt lat="41.0309287" lon="14.2744752"><ele>21.0</ele><time>2026-04-22T08:01:26.3Z</time></trkpt><trkpt lat="41.0311344" lon="14.2744707"><ele>21.0</ele><time>2026-04-22T08:01:28.191Z</time></trkpt><trkpt lat="41.0312424" lon="14.274475"><ele>21.0</ele><time>2026-04-22T08:01:29.185Z</time></trkpt><trkpt lat="41.0313512" lon="14.2744805"><ele>21.0</ele><time>2026-04-22T08:01:30.183Z</time></trkpt><trkpt lat="41.0314657" lon="14.2744801"><ele>21.0</ele><time>2026-04-22T08:01:31.195Z</time></trkpt><trkpt lat="41.0315872" lon="14.2744827"><ele>21.0</ele><time>2026-04-22T08:01:32.194Z</time></trkpt><trkpt lat="41.0317167" lon="14.2744833"><ele>21.333333333333332</ele><time>2026-04-22T08:01:33.192Z</time></trkpt><trkpt lat="41.0318786" lon="14.2744852"><ele>21.666666666666664</ele><time>2026-04-22T08:01:34.372Z</time></trkpt><trkpt lat="41.0321224" lon="14.2744879"><ele>22.0</ele><time>2026-04-22T08:01:36.194Z</time></trkpt><trkpt lat="41.0322451" lon="14.2744876"><ele>22.0</ele><time>2026-04-22T08:01:37.204Z</time></trkpt><trkpt lat="41.0323511" lon="14.2744864"><ele>22.0</ele><time>2026-04-22T08:01:38.194Z</time></trkpt><trkpt lat="41.0324283" lon="14.2744862"><ele>22.0</ele><time>2026-04-22T08:01:39.204Z</time></trkpt><trkpt lat="41.032512" lon="14.2744836"><ele>22.0</ele><time>2026-04-22T08:01:41.222Z</time></trkpt><trkpt lat="41.0325994" lon="14.2744853"><ele>22.0</ele><time>2026-04-22T08:01:47.198Z</time></trkpt><trkpt lat="41.0327375" lon="14.2744954"><ele>21.833333333333332</ele><time>2026-04-22T08:01:49.201Z</time></trkpt><trkpt lat="41.0328193" lon="14.2744944"><ele>21.666666666666664</ele><time>2026-04-22T08:01:50.17Z</time></trkpt><trkpt lat="41.0329191" lon="14.2744937"><ele>21.5</ele><time>2026-04-22T08:01:51.226Z</time></trkpt><trkpt lat="41.0330114" lon="14.2744933"><ele>21.333333333333332</ele><time>2026-04-22T08:01:52.18Z</time></trkpt><trkpt lat="41.0331054" lon="14.2744976"><ele>21.166666666666668</ele><time>2026-04-22T08:01:53.2Z</time></trkpt><trkpt lat="41.0331794" lon="14.2745011"><ele>21.0</ele><time>2026-04-22T08:01:54.151Z</time></trkpt><trkpt lat="41.0332667" lon="14.2745102"><ele>20.8</ele><time>2026-04-22T08:01:55.242Z</time></trkpt><trkpt lat="41.0333665" lon="14.274511"><ele>20.6</ele><time>2026-04-22T08:01:56.193Z</time></trkpt><trkpt lat="41.0334724" lon="14.2745078"><ele>20.4</ele><time>2026-04-22T08:01:57.208Z</time></trkpt><trkpt lat="41.0335787" lon="14.2745111"><ele>20.2</ele><time>2026-04-22T08:01:58.185Z</time></trkpt><trkpt lat="41.0336947" lon="14.2745136"><ele>20.0</ele><time>2026-04-22T08:01:59.172Z</time></trkpt><trkpt lat="41.0338215" lon="14.2745124"><ele>20.0</ele><time>2026-04-22T08:02:00.195Z</time></trkpt><trkpt lat="41.0339402" lon="14.2745077"><ele>20.0</ele><time>2026-04-22T08:02:01.216Z</time></trkpt><trkpt lat="41.0340528" lon="14.2745057"><ele>20.0</ele><time>2026-04-22T08:02:02.166Z</time></trkpt><trkpt lat="41.0341572" lon="14.2745097"><ele>20.0</ele><time>2026-04-22T08:02:03.199Z</time></trkpt><trkpt lat="41.0342491" lon="14.2745122"><ele>20.0</ele><time>2026-04-22T08:02:04.177Z</time></trkpt><trkpt lat="41.0343331" lon="14.274511"><ele>20.166666666666668</ele><time>2026-04-22T08:02:05.195Z</time></trkpt><trkpt lat="41.0344036" lon="14.2745143"><ele>20.333333333333336</ele><time>2026-04-22T08:02:06.175Z</time></trkpt><trkpt lat="41.0344718" lon="14.274518"><ele>20.5</ele><time>2026-04-22T08:02:07.177Z</time></trkpt><trkpt lat="41.0345832" lon="14.2745218"><ele>20.666666666666668</ele><time>2026-04-22T08:02:09.203Z</time></trkpt><trkpt lat="41.0346415" lon="14.2744741"><ele>20.833333333333332</ele><time>2026-04-22T08:02:12.281Z</time></trkpt><trkpt lat="41.0345372" lon="14.2744449"><ele>21.0</ele><time>2026-04-22T08:02:15.184Z</time></trkpt><trkpt lat="41.0344637" lon="14.2744725"><ele>21.0</ele><time>2026-04-22T08:02:16.205Z</time></trkpt><trkpt lat="41.0343733" lon="14.2744958"><ele>21.0</ele><time>2026-04-22T08:02:17.179Z</time></trkpt><trkpt lat="41.0342583" lon="14.2744984"><ele>21.0</ele><time>2026-04-22T08:02:18.179Z</time></trkpt><trkpt lat="41.0341245" lon="14.2744904"><ele>21.0</ele><time>2026-04-22T08:02:19.202Z</time></trkpt><trkpt lat="41.0339892" lon="14.274482"><ele>20.75</ele><time>2026-04-22T08:02:20.219Z</time></trkpt><trkpt lat="41.0338575" lon="14.2744836"><ele>20.5</ele><time>2026-04-22T08:02:21.179Z</time></trkpt><trkpt lat="41.0337018" lon="14.2744902"><ele>20.25</ele><time>2026-04-22T08:02:22.269Z</time></trkpt><trkpt lat="41.0335585" lon="14.2744891"><ele>20.0</ele><time>2026-04-22T08:02:23.281Z</time></trkpt><trkpt lat="41.033415" lon="14.2744854"><ele>20.25</ele><time>2026-04-22T08:02:24.247Z</time></trkpt><trkpt lat="41.0332649" lon="14.2744836"><ele>20.5</ele><time>2026-04-22T08:02:25.255Z</time></trkpt><trkpt lat="41.0331223" lon="14.274481"><ele>20.75</ele><time>2026-04-22T08:02:26.24Z</time></trkpt><trkpt lat="41.0330006" lon="14.2744777"><ele>21.0</ele><time>2026-04-22T08:02:27.276Z</time></trkpt><trkpt lat="41.0329043" lon="14.2744759"><ele>21.0</ele><time>2026-04-22T08:02:28.247Z</time></trkpt><trkpt lat="41.0328155" lon="14.2744749"><ele>21.0</ele><time>2026-04-22T08:02:29.242Z</time></trkpt><trkpt lat="41.0327403" lon="14.2744748"><ele>21.0</ele><time>2026-04-22T08:02:30.268Z</time></trkpt><trkpt lat="41.0326409" lon="14.2744768"><ele>21.0</ele><time>2026-04-22T08:02:32.269Z</time></trkpt><trkpt lat="41.0325611" lon="14.2745366"><ele>21.0</ele><time>2026-04-22T08:02:35.221Z</time></trkpt><trkpt lat="41.032537" lon="14.2746525"><ele>21.0</ele><time>2026-04-22T08:02:37.252Z</time></trkpt><trkpt lat="41.0325269" lon="14.2747927"><ele>21.166666666666668</ele><time>2026-04-22T08:02:39.231Z</time></trkpt><trkpt lat="41.0325195" lon="14.2748843"><ele>21.333333333333332</ele><time>2026-04-22T08:02:40.257Z</time></trkpt><trkpt lat="41.032512" lon="14.2749815"><ele>21.5</ele><time>2026-04-22T08:02:41.249Z</time></trkpt><trkpt lat="41.0325053" lon="14.2750667"><ele>21.666666666666664</ele><time>2026-04-22T08:02:42.256Z</time></trkpt><trkpt lat="41.0324971" lon="14.2752255"><ele>21.833333333333332</ele><time>2026-04-22T08:02:44.26Z</time></trkpt><trkpt lat="41.03249" lon="14.2753724"><ele>22.0</ele><time>2026-04-22T08:02:46.279Z</time></trkpt><trkpt lat="41.0325106" lon="14.2755185"><ele>22.0</ele><time>2026-04-22T08:02:48.296Z</time></trkpt><trkpt lat="41.0325217" lon="14.2756692"><ele>22.0</ele><time>2026-04-22T08:02:50.245Z</time></trkpt><trkpt lat="41.0325723" lon="14.2758843"><ele>22.0</ele><time>2026-04-22T08:02:53.272Z</time></trkpt><trkpt lat="41.0326212" lon="14.2760236"><ele>22.0</ele><time>2026-04-22T08:02:55.246Z</time></trkpt><trkpt lat="41.0326632" lon="14.2761364"><ele>22.0</ele><time>2026-04-22T08:02:57.26Z</time></trkpt><trkpt lat="41.0327265" lon="14.2762542"><ele>22.0</ele><time>2026-04-22T08:02:59.267Z</time></trkpt><trkpt lat="41.0328072" lon="14.2763477"><ele>22.0</ele><time>2026-04-22T08:03:01.262Z</time></trkpt><trkpt lat="41.0329013" lon="14.276425"><ele>22.0</ele><time>2026-04-22T08:03:03.277Z</time></trkpt><trkpt lat="41.0329979" lon="14.2765248"><ele>22.0</ele><time>2026-04-22T08:03:05.254Z</time></trkpt><trkpt lat="41.0330506" lon="14.2765848"><ele>22.0</ele><time>2026-04-22T08:03:06.25Z</time></trkpt><trkpt lat="41.0331371" lon="14.2766962"><ele>22.0</ele><time>2026-04-22T08:03:08.265Z</time></trkpt><trkpt lat="41.0332243" lon="14.2768172"><ele>22.0</ele><time>2026-04-22T08:03:10.251Z</time></trkpt><trkpt lat="41.0332614" lon="14.2768953"><ele>22.0</ele><time>2026-04-22T08:03:11.267Z</time></trkpt><trkpt lat="41.0332931" lon="14.276983"><ele>22.0</ele><time>2026-04-22T08:03:12.274Z</time></trkpt><trkpt lat="41.0333205" lon="14.2770791"><ele>22.166666666666664</ele><time>2026-04-22T08:03:13.276Z</time></trkpt><trkpt lat="41.0333427" lon="14.2771746"><ele>22.333333333333332</ele><time>2026-04-22T08:03:14.274Z</time></trkpt><trkpt lat="41.0333593" lon="14.2772626"><ele>22.5</ele><time>2026-04-22T08:03:15.195Z</time></trkpt><trkpt lat="41.0333735" lon="14.2773594"><ele>22.666666666666668</ele><time>2026-04-22T08:03:16.188Z</time></trkpt><trkpt lat="41.0333845" lon="14.2774487"><ele>22.833333333333336</ele><time>2026-04-22T08:03:17.186Z</time></trkpt><trkpt lat="41.0333977" lon="14.277595"><ele>23.0</ele><time>2026-04-22T08:03:19.21Z</time></trkpt><trkpt lat="41.0334079" lon="14.2777234"><ele>23.166666666666668</ele><time>2026-04-22T08:03:21.191Z</time></trkpt><trkpt lat="41.0334075" lon="14.2778318"><ele>23.333333333333336</ele><time>2026-04-22T08:03:23.226Z</time></trkpt><trkpt lat="41.0334033" lon="14.2779312"><ele>23.5</ele><time>2026-04-22T08:03:25.17Z</time></trkpt><trkpt lat="41.0334179" lon="14.278102"><ele>23.666666666666668</ele><time>2026-04-22T08:03:27.186Z</time></trkpt><trkpt lat="41.0334257" lon="14.2781989"><ele>23.833333333333332</ele><time>2026-04-22T08:03:28.193Z</time></trkpt><trkpt lat="41.0334286" lon="14.2782896"><ele>24.0</ele><time>2026-04-22T08:03:29.192Z</time></trkpt><trkpt lat="41.0334345" lon="14.2783839"><ele>23.999999999999996</ele><time>2026-04-22T08:03:30.218Z</time></trkpt><trkpt lat="41.0334421" lon="14.2784767"><ele>24.0</ele><time>2026-04-22T08:03:31.19Z</time></trkpt><trkpt lat="41.0334455" lon="14.2785688"><ele>24.0</ele><time>2026-04-22T08:03:32.194Z</time></trkpt><trkpt lat="41.0334461" lon="14.2786598"><ele>24.0</ele><time>2026-04-22T08:03:33.215Z</time></trkpt><trkpt lat="41.0334453" lon="14.2787574"><ele>24.0</ele><time>2026-04-22T08:03:34.216Z</time></trkpt><trkpt lat="41.0334458" lon="14.2788558"><ele>23.999999999999996</ele><time>2026-04-22T08:03:35.218Z</time></trkpt><trkpt lat="41.0334485" lon="14.2789518"><ele>24.0</ele><time>2026-04-22T08:03:36.213Z</time></trkpt><trkpt lat="41.0334523" lon="14.2790417"><ele>24.166666666666668</ele><time>2026-04-22T08:03:37.217Z</time></trkpt><trkpt lat="41.0334577" lon="14.2791378"><ele>24.333333333333336</ele><time>2026-04-22T08:03:38.193Z</time></trkpt><trkpt lat="41.0334621" lon="14.2792384"><ele>24.5</ele><time>2026-04-22T08:03:39.203Z</time></trkpt><trkpt lat="41.0334669" lon="14.2793505"><ele>24.666666666666668</ele><time>2026-04-22T08:03:40.215Z</time></trkpt><trkpt lat="41.0334687" lon="14.2794659"><ele>24.833333333333336</ele><time>2026-04-22T08:03:41.202Z</time></trkpt><trkpt lat="41.0334725" lon="14.2795708"><ele>25.0</ele><time>2026-04-22T08:03:42.218Z</time></trkpt><trkpt lat="41.033477" lon="14.2796947"><ele>25.166666666666668</ele><time>2026-04-22T08:03:43.299Z</time></trkpt><trkpt lat="41.0334837" lon="14.2798043"><ele>25.333333333333336</ele><time>2026-04-22T08:03:44.197Z</time></trkpt><trkpt lat="41.033485" lon="14.2799237"><ele>25.5</ele><time>2026-04-22T08:03:45.199Z</time></trkpt><trkpt lat="41.0334869" lon="14.2800348"><ele>25.666666666666664</ele><time>2026-04-22T08:03:46.169Z</time></trkpt><trkpt lat="41.0334876" lon="14.2801459"><ele>25.833333333333332</ele><time>2026-04-22T08:03:47.212Z</time></trkpt><trkpt lat="41.033489" lon="14.2802561"><ele>26.0</ele><time>2026-04-22T08:03:48.166Z</time></trkpt><trkpt lat="41.0334884" lon="14.2803771"><ele>26.0</ele><time>2026-04-22T08:03:49.184Z</time></trkpt><trkpt lat="41.0334852" lon="14.2805035"><ele>26.0</ele><time>2026-04-22T08:03:50.178Z</time></trkpt><trkpt lat="41.0334814" lon="14.2806285"><ele>26.0</ele><time>2026-04-22T08:03:51.204Z</time></trkpt><trkpt lat="41.0334712" lon="14.2807673"><ele>26.0</ele><time>2026-04-22T08:03:52.194Z</time></trkpt><trkpt lat="41.0334662" lon="14.280915"><ele>26.0</ele><time>2026-04-22T08:03:53.209Z</time></trkpt><trkpt lat="41.0334668" lon="14.2810622"><ele>26.25</ele><time>2026-04-22T08:03:54.201Z</time></trkpt><trkpt lat="41.0334568" lon="14.2812264"><ele>26.5</ele><time>2026-04-22T08:03:55.194Z</time></trkpt><trkpt lat="41.0334477" lon="14.2813794"><ele>26.75</ele><time>2026-04-22T08:03:56.183Z</time></trkpt><trkpt lat="41.0334356" lon="14.2815679"><ele>27.0</ele><time>2026-04-22T08:03:57.327Z</time></trkpt><trkpt lat="41.0334305" lon="14.2819365"><ele>27.0</ele><time>2026-04-22T08:03:59.238Z</time></trkpt><trkpt lat="41.0334245" lon="14.28211"><ele>27.0</ele><time>2026-04-22T08:04:00.204Z</time></trkpt><trkpt lat="41.0334187" lon="14.28227"><ele>27.0</ele><time>2026-04-22T08:04:01.215Z</time></trkpt><trkpt lat="41.0334111" lon="14.2824163"><ele>27.0</ele><time>2026-04-22T08:04:02.221Z</time></trkpt><trkpt lat="41.0334062" lon="14.2825395"><ele>27.0</ele><time>2026-04-22T08:04:03.212Z</time></trkpt><trkpt lat="41.0334019" lon="14.2826411"><ele>27.0</ele><time>2026-04-22T08:04:04.187Z</time></trkpt><trkpt lat="41.0333962" lon="14.2827337"><ele>27.0</ele><time>2026-04-22T08:04:05.306Z</time></trkpt><trkpt lat="41.0333878" lon="14.2828248"><ele>27.0</ele><time>2026-04-22T08:04:07.177Z</time></trkpt><trkpt lat="41.0334349" lon="14.2829285"><ele>27.0</ele><time>2026-04-22T08:04:13.205Z</time></trkpt><trkpt lat="41.0335036" lon="14.2829358"><ele>27.0</ele><time>2026-04-22T08:04:14.345Z</time></trkpt><trkpt lat="41.0336619" lon="14.2829197"><ele>27.0</ele><time>2026-04-22T08:04:16.24Z</time></trkpt><trkpt lat="41.0337573" lon="14.282911"><ele>27.000000000000004</ele><time>2026-04-22T08:04:17.241Z</time></trkpt><trkpt lat="41.0338641" lon="14.2829165"><ele>27.000000000000004</ele><time>2026-04-22T08:04:18.208Z</time></trkpt><trkpt lat="41.033971" lon="14.2829123"><ele>27.0</ele><time>2026-04-22T08:04:19.19Z</time></trkpt><trkpt lat="41.0340656" lon="14.2829085"><ele>27.0</ele><time>2026-04-22T08:04:20.219Z</time></trkpt><trkpt lat="41.0341428" lon="14.2829101"><ele>27.0</ele><time>2026-04-22T08:04:21.186Z</time></trkpt><trkpt lat="41.0342211" lon="14.2829054"><ele>27.000000000000004</ele><time>2026-04-22T08:04:22.207Z</time></trkpt><trkpt lat="41.0343129" lon="14.2828913"><ele>27.000000000000004</ele><time>2026-04-22T08:04:23.228Z</time></trkpt><trkpt lat="41.0344112" lon="14.2828742"><ele>27.0</ele><time>2026-04-22T08:04:24.211Z</time></trkpt><trkpt lat="41.034518" lon="14.2828822"><ele>27.0</ele><time>2026-04-22T08:04:25.181Z</time></trkpt><trkpt lat="41.0346363" lon="14.2828997"><ele>27.0</ele><time>2026-04-22T08:04:26.181Z</time></trkpt><trkpt lat="41.0347654" lon="14.2829039"><ele>27.0</ele><time>2026-04-22T08:04:27.189Z</time></trkpt><trkpt lat="41.0348907" lon="14.2828972"><ele>27.0</ele><time>2026-04-22T08:04:28.187Z</time></trkpt><trkpt lat="41.0350221" lon="14.2828913"><ele>27.0</ele><time>2026-04-22T08:04:29.214Z</time></trkpt><trkpt lat="41.0351406" lon="14.2828958"><ele>27.25</ele><time>2026-04-22T08:04:30.209Z</time></trkpt><trkpt lat="41.0352597" lon="14.2829023"><ele>27.5</ele><time>2026-04-22T08:04:31.193Z</time></trkpt><trkpt lat="41.0353754" lon="14.2829078"><ele>27.75</ele><time>2026-04-22T08:04:32.192Z</time></trkpt><trkpt lat="41.0354897" lon="14.2829021"><ele>28.0</ele><time>2026-04-22T08:04:33.22Z</time></trkpt><trkpt lat="41.0356048" lon="14.2828999"><ele>28.0</ele><time>2026-04-22T08:04:34.175Z</time></trkpt><trkpt lat="41.0357286" lon="14.2828982"><ele>28.0</ele><time>2026-04-22T08:04:35.203Z</time></trkpt><trkpt lat="41.0358541" lon="14.282901"><ele>28.0</ele><time>2026-04-22T08:04:36.257Z</time></trkpt><trkpt lat="41.0359716" lon="14.2829008"><ele>28.0</ele><time>2026-04-22T08:04:37.286Z</time></trkpt><trkpt lat="41.0360657" lon="14.2829079"><ele>27.833333333333336</ele><time>2026-04-22T08:04:38.253Z</time></trkpt><trkpt lat="41.0361543" lon="14.2829246"><ele>27.666666666666668</ele><time>2026-04-22T08:04:39.257Z</time></trkpt><trkpt lat="41.0362346" lon="14.2829484"><ele>27.5</ele><time>2026-04-22T08:04:40.249Z</time></trkpt><trkpt lat="41.0363053" lon="14.2829783"><ele>27.333333333333336</ele><time>2026-04-22T08:04:41.25Z</time></trkpt><trkpt lat="41.0363733" lon="14.2830048"><ele>27.166666666666668</ele><time>2026-04-22T08:04:42.244Z</time></trkpt><trkpt lat="41.0364412" lon="14.2830293"><ele>27.0</ele><time>2026-04-22T08:04:43.24Z</time></trkpt><trkpt lat="41.036511" lon="14.283057"><ele>27.0</ele><time>2026-04-22T08:04:44.232Z</time></trkpt><trkpt lat="41.0365831" lon="14.2830825"><ele>27.0</ele><time>2026-04-22T08:04:45.249Z</time></trkpt><trkpt lat="41.0366449" lon="14.2830996"><ele>27.0</ele><time>2026-04-22T08:04:46.237Z</time></trkpt><trkpt lat="41.0367133" lon="14.2831125"><ele>27.0</ele><time>2026-04-22T08:04:47.249Z</time></trkpt><trkpt lat="41.0367796" lon="14.2831335"><ele>27.0</ele><time>2026-04-22T08:04:48.268Z</time></trkpt><trkpt lat="41.0368497" lon="14.2831672"><ele>27.0</ele><time>2026-04-22T08:04:49.322Z</time></trkpt><trkpt lat="41.0369145" lon="14.2832284"><ele>27.0</ele><time>2026-04-22T08:04:50.268Z</time></trkpt><trkpt lat="41.0369818" lon="14.2833053"><ele>27.200000000000003</ele><time>2026-04-22T08:04:51.256Z</time></trkpt><trkpt lat="41.0370442" lon="14.2834022"><ele>27.400000000000002</ele><time>2026-04-22T08:04:52.279Z</time></trkpt><trkpt lat="41.0370774" lon="14.2834994"><ele>27.599999999999998</ele><time>2026-04-22T08:04:53.231Z</time></trkpt><trkpt lat="41.0370972" lon="14.2836296"><ele>27.799999999999997</ele><time>2026-04-22T08:04:54.265Z</time></trkpt><trkpt lat="41.0371058" lon="14.2837592"><ele>28.0</ele><time>2026-04-22T08:04:55.244Z</time></trkpt><trkpt lat="41.0371091" lon="14.2838871"><ele>28.799999999999997</ele><time>2026-04-22T08:04:56.245Z</time></trkpt><trkpt lat="41.0371104" lon="14.2840289"><ele>29.599999999999998</ele><time>2026-04-22T08:04:57.234Z</time></trkpt><trkpt lat="41.0371148" lon="14.2841643"><ele>30.400000000000002</ele><time>2026-04-22T08:04:58.234Z</time></trkpt><trkpt lat="41.0371198" lon="14.2843075"><ele>31.200000000000003</ele><time>2026-04-22T08:04:59.235Z</time></trkpt><trkpt lat="41.0371253" lon="14.2844387"><ele>32.0</ele><time>2026-04-22T08:05:00.255Z</time></trkpt><trkpt lat="41.0371276" lon="14.2845562"><ele>31.999999999999996</ele><time>2026-04-22T08:05:01.213Z</time></trkpt><trkpt lat="41.0371336" lon="14.2846866"><ele>32.0</ele><time>2026-04-22T08:05:02.242Z</time></trkpt><trkpt lat="41.0371336" lon="14.284794"><ele>32.0</ele><time>2026-04-22T08:05:03.205Z</time></trkpt><trkpt lat="41.037128" lon="14.2849006"><ele>32.0</ele><time>2026-04-22T08:05:04.259Z</time></trkpt><trkpt lat="41.0371264" lon="14.2849932"><ele>31.999999999999996</ele><time>2026-04-22T08:05:05.254Z</time></trkpt><trkpt lat="41.0371326" lon="14.2851049"><ele>32.0</ele><time>2026-04-22T08:05:06.294Z</time></trkpt><trkpt lat="41.0371373" lon="14.2851928"><ele>31.8</ele><time>2026-04-22T08:05:07.289Z</time></trkpt><trkpt lat="41.0371404" lon="14.2852805"><ele>31.6</ele><time>2026-04-22T08:05:08.374Z</time></trkpt><trkpt lat="41.037129" lon="14.285414"><ele>31.400000000000002</ele><time>2026-04-22T08:05:10.265Z</time></trkpt><trkpt lat="41.0371338" lon="14.2855503"><ele>31.200000000000003</ele><time>2026-04-22T08:05:12.252Z</time></trkpt><trkpt lat="41.0371431" lon="14.2856396"><ele>31.0</ele><time>2026-04-22T08:05:13.245Z</time></trkpt><trkpt lat="41.0371313" lon="14.2858152"><ele>31.0</ele><time>2026-04-22T08:05:15.262Z</time></trkpt><trkpt lat="41.0371335" lon="14.2859708"><ele>31.0</ele><time>2026-04-22T08:05:17.259Z</time></trkpt><trkpt lat="41.0371323" lon="14.2860948"><ele>31.0</ele><time>2026-04-22T08:05:19.245Z</time></trkpt><trkpt lat="41.0371912" lon="14.286152"><ele>31.0</ele><time>2026-04-22T08:05:21.247Z</time></trkpt><trkpt lat="41.0373234" lon="14.2861805"><ele>31.0</ele><time>2026-04-22T08:05:23.235Z</time></trkpt><trkpt lat="41.0374153" lon="14.2861925"><ele>31.200000000000003</ele><time>2026-04-22T08:05:24.257Z</time></trkpt><trkpt lat="41.0375033" lon="14.2862073"><ele>31.400000000000002</ele><time>2026-04-22T08:05:25.273Z</time></trkpt><trkpt lat="41.0375962" lon="14.2862188"><ele>31.6</ele><time>2026-04-22T08:05:26.279Z</time></trkpt><trkpt lat="41.037684" lon="14.2862329"><ele>31.8</ele><time>2026-04-22T08:05:27.242Z</time></trkpt><trkpt lat="41.0377718" lon="14.2862519"><ele>32.0</ele><time>2026-04-22T08:05:28.213Z</time></trkpt><trkpt lat="41.0378828" lon="14.2862686"><ele>32.0</ele><time>2026-04-22T08:05:29.256Z</time></trkpt><trkpt lat="41.0379823" lon="14.2862765"><ele>32.0</ele><time>2026-04-22T08:05:30.245Z</time></trkpt><trkpt lat="41.0380781" lon="14.286288"><ele>32.0</ele><time>2026-04-22T08:05:31.228Z</time></trkpt><trkpt lat="41.038174" lon="14.2862969"><ele>32.0</ele><time>2026-04-22T08:05:32.216Z</time></trkpt><trkpt lat="41.0382678" lon="14.2863139"><ele>32.0</ele><time>2026-04-22T08:05:33.254Z</time></trkpt><trkpt lat="41.0383541" lon="14.2863159"><ele>31.833333333333332</ele><time>2026-04-22T08:05:34.344Z</time></trkpt><trkpt lat="41.0384659" lon="14.2863466"><ele>31.666666666666664</ele><time>2026-04-22T08:05:36.265Z</time></trkpt><trkpt lat="41.0385291" lon="14.2863761"><ele>31.5</ele><time>2026-04-22T08:05:38.226Z</time></trkpt><trkpt lat="41.0385677" lon="14.28645"><ele>31.333333333333336</ele><time>2026-04-22T08:05:40.258Z</time></trkpt><trkpt lat="41.0385579" lon="14.2865665"><ele>31.166666666666668</ele><time>2026-04-22T08:05:41.286Z</time></trkpt><trkpt lat="41.0385448" lon="14.2866859"><ele>31.0</ele><time>2026-04-22T08:05:42.244Z</time></trkpt><trkpt lat="41.0385369" lon="14.286813"><ele>31.0</ele><time>2026-04-22T08:05:43.226Z</time></trkpt><trkpt lat="41.0385329" lon="14.2869432"><ele>31.0</ele><time>2026-04-22T08:05:44.242Z</time></trkpt><trkpt lat="41.0385174" lon="14.287069"><ele>31.0</ele><time>2026-04-22T08:05:45.246Z</time></trkpt><trkpt lat="41.0385021" lon="14.2872057"><ele>31.0</ele><time>2026-04-22T08:05:46.341Z</time></trkpt><trkpt lat="41.0384815" lon="14.287452"><ele>31.0</ele><time>2026-04-22T08:05:48.207Z</time></trkpt><trkpt lat="41.0384719" lon="14.2875983"><ele>31.0</ele><time>2026-04-22T08:05:49.17Z</time></trkpt><trkpt lat="41.0384638" lon="14.2877637"><ele>31.0</ele><time>2026-04-22T08:05:50.19Z</time></trkpt><trkpt lat="41.0384607" lon="14.2879296"><ele>31.0</ele><time>2026-04-22T08:05:51.197Z</time></trkpt><trkpt lat="41.0384587" lon="14.2880731"><ele>31.200000000000003</ele><time>2026-04-22T08:05:52.194Z</time></trkpt><trkpt lat="41.0384625" lon="14.2882004"><ele>31.400000000000002</ele><time>2026-04-22T08:05:53.229Z</time></trkpt><trkpt lat="41.0384813" lon="14.2883096"><ele>31.6</ele><time>2026-04-22T08:05:54.173Z</time></trkpt><trkpt lat="41.0385055" lon="14.2884165"><ele>31.8</ele><time>2026-04-22T08:05:55.181Z</time></trkpt><trkpt lat="41.0385341" lon="14.2885542"><ele>32.0</ele><time>2026-04-22T08:05:56.227Z</time></trkpt><trkpt lat="41.0385648" lon="14.2886966"><ele>32.0</ele><time>2026-04-22T08:05:57.215Z</time></trkpt><trkpt lat="41.0386054" lon="14.2888307"><ele>32.0</ele><time>2026-04-22T08:05:58.212Z</time></trkpt><trkpt lat="41.0386629" lon="14.2889356"><ele>32.0</ele><time>2026-04-22T08:05:59.165Z</time></trkpt><trkpt lat="41.0387576" lon="14.28903"><ele>32.0</ele><time>2026-04-22T08:06:00.21Z</time></trkpt><trkpt lat="41.0388771" lon="14.2891022"><ele>31.666666666666664</ele><time>2026-04-22T08:06:01.186Z</time></trkpt><trkpt lat="41.0390391" lon="14.2891815"><ele>31.333333333333336</ele><time>2026-04-22T08:06:02.322Z</time></trkpt><trkpt lat="41.0391672" lon="14.2892477"><ele>31.0</ele><time>2026-04-22T08:06:03.237Z</time></trkpt><trkpt lat="41.0393066" lon="14.2893276"><ele>30.333333333333336</ele><time>2026-04-22T08:06:04.2Z</time></trkpt><trkpt lat="41.0394594" lon="14.2894107"><ele>29.666666666666664</ele><time>2026-04-22T08:06:05.243Z</time></trkpt><trkpt lat="41.0396032" lon="14.2894888"><ele>29.0</ele><time>2026-04-22T08:06:06.185Z</time></trkpt><trkpt lat="41.0397598" lon="14.289576"><ele>29.0</ele><time>2026-04-22T08:06:07.213Z</time></trkpt><trkpt lat="41.0399007" lon="14.2896565"><ele>29.0</ele><time>2026-04-22T08:06:08.169Z</time></trkpt><trkpt lat="41.0400543" lon="14.2897395"><ele>29.0</ele><time>2026-04-22T08:06:09.19Z</time></trkpt><trkpt lat="41.0402121" lon="14.2898285"><ele>29.333333333333332</ele><time>2026-04-22T08:06:10.285Z</time></trkpt><trkpt lat="41.0403453" lon="14.289903"><ele>29.666666666666664</ele><time>2026-04-22T08:06:11.219Z</time></trkpt><trkpt lat="41.0404854" lon="14.2899742"><ele>30.0</ele><time>2026-04-22T08:06:12.216Z</time></trkpt><trkpt lat="41.0406432" lon="14.2900441"><ele>29.666666666666664</ele><time>2026-04-22T08:06:13.331Z</time></trkpt><trkpt lat="41.040889" lon="14.2901203"><ele>29.333333333333332</ele><time>2026-04-22T08:06:15.179Z</time></trkpt><trkpt lat="41.0410122" lon="14.2901686"><ele>29.0</ele><time>2026-04-22T08:06:16.202Z</time></trkpt><trkpt lat="41.0411231" lon="14.2902205"><ele>29.0</ele><time>2026-04-22T08:06:17.183Z</time></trkpt><trkpt lat="41.0412278" lon="14.2902593"><ele>29.0</ele><time>2026-04-22T08:06:18.17Z</time></trkpt><trkpt lat="41.0413384" lon="14.290282"><ele>29.0</ele><time>2026-04-22T08:06:19.21Z</time></trkpt><trkpt lat="41.0414373" lon="14.2902859"><ele>29.0</ele><time>2026-04-22T08:06:20.19Z</time></trkpt><trkpt lat="41.0415244" lon="14.2902833"><ele>29.0</ele><time>2026-04-22T08:06:21.182Z</time></trkpt><trkpt lat="41.0415978" lon="14.2902932"><ele>29.166666666666664</ele><time>2026-04-22T08:06:22.2Z</time></trkpt><trkpt lat="41.0416783" lon="14.2902931"><ele>29.333333333333332</ele><time>2026-04-22T08:06:24.192Z</time></trkpt><trkpt lat="41.04175" lon="14.2902774"><ele>29.5</ele><time>2026-04-22T08:06:26.197Z</time></trkpt><trkpt lat="41.0418148" lon="14.2902699"><ele>29.666666666666664</ele><time>2026-04-22T08:06:28.166Z</time></trkpt><trkpt lat="41.041927" lon="14.2902698"><ele>29.833333333333332</ele><time>2026-04-22T08:06:30.398Z</time></trkpt><trkpt lat="41.0420381" lon="14.2902608"><ele>30.0</ele><time>2026-04-22T08:06:32.28Z</time></trkpt><trkpt lat="41.0421058" lon="14.2902589"><ele>30.0</ele><time>2026-04-22T08:06:33.282Z</time></trkpt><trkpt lat="41.042191" lon="14.290281"><ele>30.0</ele><time>2026-04-22T08:06:34.25Z</time></trkpt><trkpt lat="41.0422757" lon="14.2902905"><ele>30.0</ele><time>2026-04-22T08:06:35.229Z</time></trkpt><trkpt lat="41.0423726" lon="14.2902916"><ele>30.0</ele><time>2026-04-22T08:06:36.291Z</time></trkpt><trkpt lat="41.0424503" lon="14.2902939"><ele>30.0</ele><time>2026-04-22T08:06:37.24Z</time></trkpt><trkpt lat="41.0425472" lon="14.2902956"><ele>30.0</ele><time>2026-04-22T08:06:39.245Z</time></trkpt><trkpt lat="41.0426172" lon="14.2902832"><ele>30.0</ele><time>2026-04-22T08:06:42.282Z</time></trkpt><trkpt lat="41.0427853" lon="14.2902654"><ele>30.0</ele><time>2026-04-22T08:06:44.237Z</time></trkpt><trkpt lat="41.0429119" lon="14.2902993"><ele>30.0</ele><time>2026-04-22T08:06:45.367Z</time></trkpt><trkpt lat="41.0430798" lon="14.290349"><ele>30.0</ele><time>2026-04-22T08:06:47.225Z</time></trkpt><trkpt lat="41.0431644" lon="14.2903646"><ele>30.0</ele><time>2026-04-22T08:06:48.193Z</time></trkpt><trkpt lat="41.0432678" lon="14.2903847"><ele>30.0</ele><time>2026-04-22T08:06:49.201Z</time></trkpt><trkpt lat="41.0433658" lon="14.2904038"><ele>30.0</ele><time>2026-04-22T08:06:50.179Z</time></trkpt><trkpt lat="41.0434521" lon="14.2904235"><ele>30.0</ele><time>2026-04-22T08:06:51.189Z</time></trkpt><trkpt lat="41.0435497" lon="14.2904518"><ele>29.75</ele><time>2026-04-22T08:06:52.214Z</time></trkpt><trkpt lat="41.0436511" lon="14.2904952"><ele>29.5</ele><time>2026-04-22T08:06:53.189Z</time></trkpt><trkpt lat="41.0437641" lon="14.29057"><ele>29.25</ele><time>2026-04-22T08:06:54.232Z</time></trkpt><trkpt lat="41.0438779" lon="14.2906627"><ele>29.0</ele><time>2026-04-22T08:06:55.19Z</time></trkpt><trkpt lat="41.0439994" lon="14.2907524"><ele>29.0</ele><time>2026-04-22T08:06:56.201Z</time></trkpt><trkpt lat="41.0441193" lon="14.2908286"><ele>29.0</ele><time>2026-04-22T08:06:57.206Z</time></trkpt><trkpt lat="41.0442268" lon="14.2909002"><ele>29.0</ele><time>2026-04-22T08:06:58.192Z</time></trkpt><trkpt lat="41.0443292" lon="14.2909713"><ele>29.0</ele><time>2026-04-22T08:06:59.21Z</time></trkpt><trkpt lat="41.04443" lon="14.2910418"><ele>28.75</ele><time>2026-04-22T08:07:00.181Z</time></trkpt><trkpt lat="41.0445457" lon="14.2911002"><ele>28.5</ele><time>2026-04-22T08:07:01.216Z</time></trkpt><trkpt lat="41.0446656" lon="14.2911383"><ele>28.25</ele><time>2026-04-22T08:07:02.169Z</time></trkpt><trkpt lat="41.0448129" lon="14.2911646"><ele>28.0</ele><time>2026-04-22T08:07:03.174Z</time></trkpt><trkpt lat="41.0449772" lon="14.2911812"><ele>28.0</ele><time>2026-04-22T08:07:04.215Z</time></trkpt><trkpt lat="41.0451428" lon="14.291189"><ele>28.0</ele><time>2026-04-22T08:07:05.274Z</time></trkpt><trkpt lat="41.0452799" lon="14.2911992"><ele>28.0</ele><time>2026-04-22T08:07:06.186Z</time></trkpt><trkpt lat="41.0454302" lon="14.2912036"><ele>28.0</ele><time>2026-04-22T08:07:07.201Z</time></trkpt><trkpt lat="41.045584" lon="14.291201"><ele>28.0</ele><time>2026-04-22T08:07:08.213Z</time></trkpt><trkpt lat="41.0457341" lon="14.2911945"><ele>28.0</ele><time>2026-04-22T08:07:09.174Z</time></trkpt><trkpt lat="41.0458986" lon="14.2911912"><ele>28.333333333333336</ele><time>2026-04-22T08:07:10.205Z</time></trkpt><trkpt lat="41.0460673" lon="14.2911862"><ele>28.666666666666664</ele><time>2026-04-22T08:07:11.205Z</time></trkpt><trkpt lat="41.0462419" lon="14.2911806"><ele>29.0</ele><time>2026-04-22T08:07:12.215Z</time></trkpt><trkpt lat="41.046409" lon="14.2911738"><ele>29.0</ele><time>2026-04-22T08:07:13.196Z</time></trkpt><trkpt lat="41.0465797" lon="14.2911631"><ele>29.0</ele><time>2026-04-22T08:07:14.199Z</time></trkpt><trkpt lat="41.0467465" lon="14.291153"><ele>29.0</ele><time>2026-04-22T08:07:15.19Z</time></trkpt><trkpt lat="41.046911" lon="14.2911453"><ele>29.0</ele><time>2026-04-22T08:07:16.193Z</time></trkpt><trkpt lat="41.0470636" lon="14.2911384"><ele>29.0</ele><time>2026-04-22T08:07:17.19Z</time></trkpt><trkpt lat="41.0472132" lon="14.2911373"><ele>29.0</ele><time>2026-04-22T08:07:18.18Z</time></trkpt><trkpt lat="41.0473646" lon="14.2911359"><ele>29.0</ele><time>2026-04-22T08:07:19.187Z</time></trkpt><trkpt lat="41.0475171" lon="14.2911367"><ele>29.0</ele><time>2026-04-22T08:07:20.222Z</time></trkpt><trkpt lat="41.0476696" lon="14.2911369"><ele>29.0</ele><time>2026-04-22T08:07:21.281Z</time></trkpt><trkpt lat="41.0478006" lon="14.2911385"><ele>29.0</ele><time>2026-04-22T08:07:22.191Z</time></trkpt><trkpt lat="41.0479433" lon="14.291137"><ele>29.0</ele><time>2026-04-22T08:07:23.199Z</time></trkpt><trkpt lat="41.0480812" lon="14.2911387"><ele>29.0</ele><time>2026-04-22T08:07:24.192Z</time></trkpt><trkpt lat="41.0482146" lon="14.2911411"><ele>29.0</ele><time>2026-04-22T08:07:25.2Z</time></trkpt><trkpt lat="41.0483374" lon="14.2911407"><ele>29.0</ele><time>2026-04-22T08:07:26.189Z</time></trkpt><trkpt lat="41.0484588" lon="14.2911441"><ele>29.2</ele><time>2026-04-22T08:07:27.239Z</time></trkpt><trkpt lat="41.0485618" lon="14.2911496"><ele>29.4</ele><time>2026-04-22T08:07:28.21Z</time></trkpt><trkpt lat="41.0486622" lon="14.2911531"><ele>29.6</ele><time>2026-04-22T08:07:29.197Z</time></trkpt><trkpt lat="41.0487647" lon="14.2911531"><ele>29.8</ele><time>2026-04-22T08:07:30.199Z</time></trkpt><trkpt lat="41.0488691" lon="14.2911537"><ele>30.0</ele><time>2026-04-22T08:07:31.191Z</time></trkpt><trkpt lat="41.0489614" lon="14.2911529"><ele>30.0</ele><time>2026-04-22T08:07:32.184Z</time></trkpt><trkpt lat="41.0490497" lon="14.2911577"><ele>30.0</ele><time>2026-04-22T08:07:33.217Z</time></trkpt><trkpt lat="41.0491382" lon="14.2911488"><ele>30.0</ele><time>2026-04-22T08:07:34.173Z</time></trkpt><trkpt lat="41.0492282" lon="14.2911493"><ele>30.0</ele><time>2026-04-22T08:07:35.202Z</time></trkpt><trkpt lat="41.0493155" lon="14.2911546"><ele>30.0</ele><time>2026-04-22T08:07:36.183Z</time></trkpt><trkpt lat="41.0493983" lon="14.2911549"><ele>30.0</ele><time>2026-04-22T08:07:37.188Z</time></trkpt><trkpt lat="41.0494746" lon="14.2911536"><ele>30.333333333333332</ele><time>2026-04-22T08:07:38.197Z</time></trkpt><trkpt lat="41.0495445" lon="14.2911466"><ele>30.666666666666664</ele><time>2026-04-22T08:07:39.195Z</time></trkpt><trkpt lat="41.0496398" lon="14.2911564"><ele>31.0</ele><time>2026-04-22T08:07:41.204Z</time></trkpt><trkpt lat="41.0497038" lon="14.2911992"><ele>31.333333333333332</ele><time>2026-04-22T08:07:44.205Z</time></trkpt><trkpt lat="41.0497613" lon="14.2912887"><ele>31.666666666666664</ele><time>2026-04-22T08:07:46.267Z</time></trkpt><trkpt lat="41.0497865" lon="14.2914337"><ele>32.0</ele><time>2026-04-22T08:07:48.23Z</time></trkpt><trkpt lat="41.0497987" lon="14.2915942"><ele>31.999999999999996</ele><time>2026-04-22T08:07:50.241Z</time></trkpt><trkpt lat="41.0498004" lon="14.2916836"><ele>32.0</ele><time>2026-04-22T08:07:51.306Z</time></trkpt><trkpt lat="41.0498025" lon="14.2917674"><ele>32.0</ele><time>2026-04-22T08:07:52.281Z</time></trkpt><trkpt lat="41.0498045" lon="14.2919168"><ele>32.0</ele><time>2026-04-22T08:07:54.221Z</time></trkpt><trkpt lat="41.049805" lon="14.2920824"><ele>31.999999999999996</ele><time>2026-04-22T08:07:56.281Z</time></trkpt><trkpt lat="41.0498091" lon="14.2921703"><ele>32.0</ele><time>2026-04-22T08:07:57.294Z</time></trkpt><trkpt lat="41.0498111" lon="14.2923375"><ele>32.0</ele><time>2026-04-22T08:07:59.254Z</time></trkpt><trkpt lat="41.0498147" lon="14.2924291"><ele>32.0</ele><time>2026-04-22T08:08:00.292Z</time></trkpt><trkpt lat="41.049821" lon="14.2926701"><ele>32.0</ele><time>2026-04-22T08:08:03.226Z</time></trkpt><trkpt lat="41.0498161" lon="14.2927828"><ele>32.0</ele><time>2026-04-22T08:08:04.365Z</time></trkpt><trkpt lat="41.0498183" lon="14.2929559"><ele>31.999999999999996</ele><time>2026-04-22T08:08:06.265Z</time></trkpt><trkpt lat="41.0498194" lon="14.2931313"><ele>32.0</ele><time>2026-04-22T08:08:08.249Z</time></trkpt><trkpt lat="41.0498213" lon="14.2932222"><ele>32.0</ele><time>2026-04-22T08:08:09.228Z</time></trkpt><trkpt lat="41.0498223" lon="14.2933126"><ele>32.0</ele><time>2026-04-22T08:08:10.23Z</time></trkpt><trkpt lat="41.0498217" lon="14.2934061"><ele>31.999999999999996</ele><time>2026-04-22T08:08:11.232Z</time></trkpt><trkpt lat="41.049824" lon="14.2935024"><ele>32.0</ele><time>2026-04-22T08:08:12.247Z</time></trkpt><trkpt lat="41.049824" lon="14.2935993"><ele>31.999999999999996</ele><time>2026-04-22T08:08:13.289Z</time></trkpt><trkpt lat="41.0498217" lon="14.2936951"><ele>32.0</ele><time>2026-04-22T08:08:14.287Z</time></trkpt><trkpt lat="41.0498175" lon="14.2937907"><ele>32.0</ele><time>2026-04-22T08:08:15.301Z</time></trkpt><trkpt lat="41.0498158" lon="14.2938826"><ele>32.0</ele><time>2026-04-22T08:08:16.284Z</time></trkpt><trkpt lat="41.0498192" lon="14.2939754"><ele>31.999999999999996</ele><time>2026-04-22T08:08:17.273Z</time></trkpt><trkpt lat="41.0498261" lon="14.2941306"><ele>32.0</ele><time>2026-04-22T08:08:19.258Z</time></trkpt><trkpt lat="41.0498374" lon="14.2942937"><ele>32.0</ele><time>2026-04-22T08:08:21.262Z</time></trkpt><trkpt lat="41.0499322" lon="14.2944047"><ele>32.0</ele><time>2026-04-22T08:08:23.244Z</time></trkpt><trkpt lat="41.0500124" lon="14.2944235"><ele>32.0</ele><time>2026-04-22T08:08:24.242Z</time></trkpt><trkpt lat="41.0500988" lon="14.2944498"><ele>32.0</ele><time>2026-04-22T08:08:25.264Z</time></trkpt><trkpt lat="41.0501857" lon="14.2944803"><ele>32.0</ele><time>2026-04-22T08:08:26.247Z</time></trkpt><trkpt lat="41.0502965" lon="14.2945277"><ele>32.25</ele><time>2026-04-22T08:08:27.412Z</time></trkpt><trkpt lat="41.0504702" lon="14.2946274"><ele>32.5</ele><time>2026-04-22T08:08:29.272Z</time></trkpt><trkpt lat="41.0505609" lon="14.2946909"><ele>32.75</ele><time>2026-04-22T08:08:30.271Z</time></trkpt><trkpt lat="41.0506494" lon="14.2947599"><ele>33.0</ele><time>2026-04-22T08:08:31.259Z</time></trkpt><trkpt lat="41.0507439" lon="14.2948378"><ele>33.0</ele><time>2026-04-22T08:08:32.29Z</time></trkpt><trkpt lat="41.0508376" lon="14.2949236"><ele>33.0</ele><time>2026-04-22T08:08:33.259Z</time></trkpt><trkpt lat="41.0509327" lon="14.2950218"><ele>33.0</ele><time>2026-04-22T08:08:34.254Z</time></trkpt><trkpt lat="41.0510252" lon="14.2951307"><ele>33.0</ele><time>2026-04-22T08:08:35.289Z</time></trkpt><trkpt lat="41.0510981" lon="14.2952233"><ele>33.0</ele><time>2026-04-22T08:08:36.259Z</time></trkpt><trkpt lat="41.0511756" lon="14.2953223"><ele>33.0</ele><time>2026-04-22T08:08:37.289Z</time></trkpt><trkpt lat="41.0512491" lon="14.295415"><ele>33.0</ele><time>2026-04-22T08:08:38.297Z</time></trkpt><trkpt lat="41.0513221" lon="14.2955065"><ele>33.0</ele><time>2026-04-22T08:08:39.241Z</time></trkpt><trkpt lat="41.0513998" lon="14.2956072"><ele>33.0</ele><time>2026-04-22T08:08:40.262Z</time></trkpt><trkpt lat="41.0514804" lon="14.2957001"><ele>33.0</ele><time>2026-04-22T08:08:41.258Z</time></trkpt><trkpt lat="41.0515666" lon="14.2957876"><ele>33.0</ele><time>2026-04-22T08:08:42.281Z</time></trkpt><trkpt lat="41.0516515" lon="14.2958667"><ele>33.0</ele><time>2026-04-22T08:08:43.273Z</time></trkpt><trkpt lat="41.0517417" lon="14.2959471"><ele>33.0</ele><time>2026-04-22T08:08:44.274Z</time></trkpt><trkpt lat="41.0518329" lon="14.296027"><ele>33.0</ele><time>2026-04-22T08:08:45.276Z</time></trkpt><trkpt lat="41.0519304" lon="14.2961069"><ele>33.199999999999996</ele><time>2026-04-22T08:08:46.315Z</time></trkpt><trkpt lat="41.0520193" lon="14.2961769"><ele>33.4</ele><time>2026-04-22T08:08:47.292Z</time></trkpt><trkpt lat="41.0521091" lon="14.29624"><ele>33.599999999999994</ele><time>2026-04-22T08:08:48.308Z</time></trkpt><trkpt lat="41.052205" lon="14.2963005"><ele>33.8</ele><time>2026-04-22T08:08:49.289Z</time></trkpt><trkpt lat="41.0523069" lon="14.2963621"><ele>34.0</ele><time>2026-04-22T08:08:50.309Z</time></trkpt><trkpt lat="41.052405" lon="14.2964175"><ele>34.5</ele><time>2026-04-22T08:08:51.263Z</time></trkpt><trkpt lat="41.0525196" lon="14.2964797"><ele>35.0</ele><time>2026-04-22T08:08:52.31Z</time></trkpt><trkpt lat="41.0526419" lon="14.2965428"><ele>35.5</ele><time>2026-04-22T08:08:53.278Z</time></trkpt><trkpt lat="41.0527708" lon="14.2966086"><ele>36.0</ele><time>2026-04-22T08:08:54.289Z</time></trkpt><trkpt lat="41.0528877" lon="14.2966709"><ele>36.0</ele><time>2026-04-22T08:08:55.304Z</time></trkpt><trkpt lat="41.0530088" lon="14.2967376"><ele>36.0</ele><time>2026-04-22T08:08:56.314Z</time></trkpt><trkpt lat="41.0531338" lon="14.2968052"><ele>36.0</ele><time>2026-04-22T08:08:57.305Z</time></trkpt><trkpt lat="41.0532826" lon="14.2968837"><ele>36.0</ele><time>2026-04-22T08:08:58.315Z</time></trkpt><trkpt lat="41.0534203" lon="14.2969536"><ele>36.0</ele><time>2026-04-22T08:08:59.287Z</time></trkpt><trkpt lat="41.053578" lon="14.2970363"><ele>36.0</ele><time>2026-04-22T08:09:00.28Z</time></trkpt><trkpt lat="41.0537458" lon="14.2971311"><ele>36.0</ele><time>2026-04-22T08:09:01.254Z</time></trkpt><trkpt lat="41.053938" lon="14.2972429"><ele>36.0</ele><time>2026-04-22T08:09:02.324Z</time></trkpt><trkpt lat="41.0541012" lon="14.2973393"><ele>36.0</ele><time>2026-04-22T08:09:03.273Z</time></trkpt><trkpt lat="41.054281" lon="14.2974421"><ele>36.0</ele><time>2026-04-22T08:09:04.318Z</time></trkpt><trkpt lat="41.0544502" lon="14.2975368"><ele>36.0</ele><time>2026-04-22T08:09:05.278Z</time></trkpt><trkpt lat="41.0546309" lon="14.2976362"><ele>36.0</ele><time>2026-04-22T08:09:06.293Z</time></trkpt><trkpt lat="41.0548089" lon="14.297734"><ele>36.0</ele><time>2026-04-22T08:09:07.281Z</time></trkpt><trkpt lat="41.0549998" lon="14.2978388"><ele>36.0</ele><time>2026-04-22T08:09:08.327Z</time></trkpt><trkpt lat="41.0551828" lon="14.2979409"><ele>36.0</ele><time>2026-04-22T08:09:09.327Z</time></trkpt><trkpt lat="41.0553536" lon="14.2980353"><ele>36.0</ele><time>2026-04-22T08:09:10.279Z</time></trkpt><trkpt lat="41.0555334" lon="14.2981332"><ele>37.0</ele><time>2026-04-22T08:09:11.29Z</time></trkpt><trkpt lat="41.0557055" lon="14.298226"><ele>38.0</ele><time>2026-04-22T08:09:12.261Z</time></trkpt><trkpt lat="41.0558832" lon="14.2983264"><ele>39.0</ele><time>2026-04-22T08:09:13.283Z</time></trkpt><trkpt lat="41.0560479" lon="14.2984192"><ele>39.666666666666664</ele><time>2026-04-22T08:09:14.255Z</time></trkpt><trkpt lat="41.0562195" lon="14.2985119"><ele>40.33333333333333</ele><time>2026-04-22T08:09:15.285Z</time></trkpt><trkpt lat="41.0563835" lon="14.2986002"><ele>41.0</ele><time>2026-04-22T08:09:16.268Z</time></trkpt><trkpt lat="41.0565522" lon="14.2986935"><ele>41.0</ele><time>2026-04-22T08:09:17.292Z</time></trkpt><trkpt lat="41.0567123" lon="14.2987835"><ele>41.0</ele><time>2026-04-22T08:09:18.276Z</time></trkpt><trkpt lat="41.0568711" lon="14.2988714"><ele>41.0</ele><time>2026-04-22T08:09:19.247Z</time></trkpt><trkpt lat="41.0570407" lon="14.2989622"><ele>41.0</ele><time>2026-04-22T08:09:20.284Z</time></trkpt><trkpt lat="41.0572115" lon="14.299051"><ele>41.0</ele><time>2026-04-22T08:09:21.331Z</time></trkpt><trkpt lat="41.0573699" lon="14.2991247"><ele>41.0</ele><time>2026-04-22T08:09:22.291Z</time></trkpt><trkpt lat="41.0575405" lon="14.2991977"><ele>40.666666666666664</ele><time>2026-04-22T08:09:23.324Z</time></trkpt><trkpt lat="41.0577041" lon="14.2992603"><ele>40.333333333333336</ele><time>2026-04-22T08:09:24.311Z</time></trkpt><trkpt lat="41.0578726" lon="14.2993168"><ele>40.0</ele><time>2026-04-22T08:09:25.345Z</time></trkpt><trkpt lat="41.0580269" lon="14.299362"><ele>40.0</ele><time>2026-04-22T08:09:26.308Z</time></trkpt><trkpt lat="41.0581828" lon="14.2993979"><ele>40.0</ele><time>2026-04-22T08:09:27.281Z</time></trkpt><trkpt lat="41.0583483" lon="14.2994207"><ele>40.0</ele><time>2026-04-22T08:09:28.32Z</time></trkpt><trkpt lat="41.0585027" lon="14.2994336"><ele>40.333333333333336</ele><time>2026-04-22T08:09:29.283Z</time></trkpt><trkpt lat="41.0586744" lon="14.2994486"><ele>40.666666666666664</ele><time>2026-04-22T08:09:30.318Z</time></trkpt><trkpt lat="41.0588424" lon="14.2994617"><ele>41.0</ele><time>2026-04-22T08:09:31.298Z</time></trkpt><trkpt lat="41.0590256" lon="14.2994703"><ele>41.666666666666664</ele><time>2026-04-22T08:09:32.342Z</time></trkpt><trkpt lat="41.0591913" lon="14.2994735"><ele>42.333333333333336</ele><time>2026-04-22T08:09:33.284Z</time></trkpt><trkpt lat="41.0593674" lon="14.2994727"><ele>43.0</ele><time>2026-04-22T08:09:34.299Z</time></trkpt><trkpt lat="41.0595418" lon="14.2994708"><ele>43.0</ele><time>2026-04-22T08:09:35.299Z</time></trkpt><trkpt lat="41.0597226" lon="14.2994683"><ele>43.0</ele><time>2026-04-22T08:09:36.334Z</time></trkpt><trkpt lat="41.0598942" lon="14.2994659"><ele>43.0</ele><time>2026-04-22T08:09:37.314Z</time></trkpt><trkpt lat="41.0600661" lon="14.2994642"><ele>42.66666666666667</ele><time>2026-04-22T08:09:38.304Z</time></trkpt><trkpt lat="41.0602516" lon="14.2994636"><ele>42.333333333333336</ele><time>2026-04-22T08:09:39.369Z</time></trkpt><trkpt lat="41.0604158" lon="14.2994641"><ele>42.0</ele><time>2026-04-22T08:09:40.308Z</time></trkpt><trkpt lat="41.0605889" lon="14.2994608"><ele>42.0</ele><time>2026-04-22T08:09:41.295Z</time></trkpt><trkpt lat="41.0607855" lon="14.2994587"><ele>42.0</ele><time>2026-04-22T08:09:42.427Z</time></trkpt><trkpt lat="41.0609399" lon="14.2994581"><ele>42.0</ele><time>2026-04-22T08:09:43.335Z</time></trkpt><trkpt lat="41.0611015" lon="14.2994598"><ele>42.0</ele><time>2026-04-22T08:09:44.299Z</time></trkpt><trkpt lat="41.0612694" lon="14.2994608"><ele>42.0</ele><time>2026-04-22T08:09:45.332Z</time></trkpt><trkpt lat="41.0614314" lon="14.2994596"><ele>42.0</ele><time>2026-04-22T08:09:46.377Z</time></trkpt><trkpt lat="41.0615713" lon="14.299458"><ele>42.5</ele><time>2026-04-22T08:09:47.324Z</time></trkpt><trkpt lat="41.0617078" lon="14.299455"><ele>43.0</ele><time>2026-04-22T08:09:48.324Z</time></trkpt><trkpt lat="41.0618262" lon="14.2994513"><ele>43.5</ele><time>2026-04-22T08:09:49.274Z</time></trkpt><trkpt lat="41.0619455" lon="14.2994476"><ele>44.0</ele><time>2026-04-22T08:09:50.321Z</time></trkpt><trkpt lat="41.0620461" lon="14.2994554"><ele>44.0</ele><time>2026-04-22T08:09:51.306Z</time></trkpt><trkpt lat="41.0621385" lon="14.2994782"><ele>44.0</ele><time>2026-04-22T08:09:52.331Z</time></trkpt><trkpt lat="41.0622167" lon="14.2995196"><ele>44.0</ele><time>2026-04-22T08:09:53.313Z</time></trkpt><trkpt lat="41.0622885" lon="14.2995843"><ele>44.0</ele><time>2026-04-22T08:09:54.318Z</time></trkpt><trkpt lat="41.0623466" lon="14.2996809"><ele>44.0</ele><time>2026-04-22T08:09:55.355Z</time></trkpt><trkpt lat="41.0624114" lon="14.2997795"><ele>44.6</ele><time>2026-04-22T08:09:56.334Z</time></trkpt><trkpt lat="41.0624807" lon="14.2998715"><ele>45.2</ele><time>2026-04-22T08:09:57.294Z</time></trkpt><trkpt lat="41.0625366" lon="14.2999735"><ele>45.800000000000004</ele><time>2026-04-22T08:09:58.302Z</time></trkpt><trkpt lat="41.0625606" lon="14.300097"><ele>46.400000000000006</ele><time>2026-04-22T08:09:59.278Z</time></trkpt><trkpt lat="41.0625714" lon="14.3002449"><ele>47.0</ele><time>2026-04-22T08:10:00.29Z</time></trkpt><trkpt lat="41.0625724" lon="14.3003991"><ele>47.0</ele><time>2026-04-22T08:10:01.275Z</time></trkpt><trkpt lat="41.0625752" lon="14.3005771"><ele>47.0</ele><time>2026-04-22T08:10:02.274Z</time></trkpt><trkpt lat="41.0625775" lon="14.3007594"><ele>47.0</ele><time>2026-04-22T08:10:03.286Z</time></trkpt><trkpt lat="41.0625741" lon="14.3009468"><ele>47.0</ele><time>2026-04-22T08:10:04.302Z</time></trkpt><trkpt lat="41.0625732" lon="14.3011302"><ele>47.0</ele><time>2026-04-22T08:10:05.294Z</time></trkpt><trkpt lat="41.0625742" lon="14.3013237"><ele>47.0</ele><time>2026-04-22T08:10:06.307Z</time></trkpt><trkpt lat="41.0625776" lon="14.3015203"><ele>47.0</ele><time>2026-04-22T08:10:07.336Z</time></trkpt><trkpt lat="41.0625805" lon="14.3016929"><ele>47.0</ele><time>2026-04-22T08:10:08.27Z</time></trkpt><trkpt lat="41.0625806" lon="14.301872"><ele>47.25</ele><time>2026-04-22T08:10:09.266Z</time></trkpt><trkpt lat="41.062581" lon="14.3020475"><ele>47.5</ele><time>2026-04-22T08:10:10.264Z</time></trkpt><trkpt lat="41.0625907" lon="14.3022346"><ele>47.75</ele><time>2026-04-22T08:10:11.303Z</time></trkpt><trkpt lat="41.0625993" lon="14.302401"><ele>48.0</ele><time>2026-04-22T08:10:12.249Z</time></trkpt><trkpt lat="41.0626199" lon="14.3025734"><ele>48.0</ele><time>2026-04-22T08:10:13.249Z</time></trkpt><trkpt lat="41.0626513" lon="14.3027477"><ele>48.0</ele><time>2026-04-22T08:10:14.282Z</time></trkpt><trkpt lat="41.0626903" lon="14.3029098"><ele>48.0</ele><time>2026-04-22T08:10:15.275Z</time></trkpt><trkpt lat="41.0627397" lon="14.3030706"><ele>48.0</ele><time>2026-04-22T08:10:16.263Z</time></trkpt><trkpt lat="41.0628156" lon="14.3032717"><ele>48.66666666666667</ele><time>2026-04-22T08:10:17.495Z</time></trkpt><trkpt lat="41.0629644" lon="14.3035557"><ele>49.333333333333336</ele><time>2026-04-22T08:10:19.3Z</time></trkpt><trkpt lat="41.063063" lon="14.3037099"><ele>50.0</ele><time>2026-04-22T08:10:20.318Z</time></trkpt><trkpt lat="41.0631655" lon="14.3038618"><ele>50.0</ele><time>2026-04-22T08:10:21.3Z</time></trkpt><trkpt lat="41.0632721" lon="14.3040126"><ele>50.0</ele><time>2026-04-22T08:10:22.301Z</time></trkpt><trkpt lat="41.0633819" lon="14.3041644"><ele>50.0</ele><time>2026-04-22T08:10:23.29Z</time></trkpt><trkpt lat="41.0634984" lon="14.3043196"><ele>50.0</ele><time>2026-04-22T08:10:24.301Z</time></trkpt><trkpt lat="41.0636188" lon="14.3044793"><ele>50.0</ele><time>2026-04-22T08:10:25.321Z</time></trkpt><trkpt lat="41.0637507" lon="14.3046557"><ele>50.0</ele><time>2026-04-22T08:10:26.502Z</time></trkpt><trkpt lat="41.0639367" lon="14.3049057"><ele>50.5</ele><time>2026-04-22T08:10:28.311Z</time></trkpt><trkpt lat="41.0640352" lon="14.305039"><ele>51.0</ele><time>2026-04-22T08:10:29.29Z</time></trkpt><trkpt lat="41.0641308" lon="14.3051741"><ele>51.5</ele><time>2026-04-22T08:10:30.288Z</time></trkpt><trkpt lat="41.0642261" lon="14.3053023"><ele>52.0</ele><time>2026-04-22T08:10:31.289Z</time></trkpt><trkpt lat="41.0643207" lon="14.3054282"><ele>52.5</ele><time>2026-04-22T08:10:32.303Z</time></trkpt><trkpt lat="41.064409" lon="14.3055462"><ele>53.0</ele><time>2026-04-22T08:10:33.305Z</time></trkpt><trkpt lat="41.0644991" lon="14.305668"><ele>53.5</ele><time>2026-04-22T08:10:34.423Z</time></trkpt><trkpt lat="41.0646373" lon="14.305847"><ele>54.0</ele><time>2026-04-22T08:10:36.289Z</time></trkpt><trkpt lat="41.0647099" lon="14.3059381"><ele>54.0</ele><time>2026-04-22T08:10:37.315Z</time></trkpt><trkpt lat="41.0647821" lon="14.3060213"><ele>54.0</ele><time>2026-04-22T08:10:38.324Z</time></trkpt><trkpt lat="41.0648516" lon="14.3060976"><ele>54.0</ele><time>2026-04-22T08:10:39.329Z</time></trkpt><trkpt lat="41.0649247" lon="14.3061807"><ele>54.0</ele><time>2026-04-22T08:10:40.426Z</time></trkpt><trkpt lat="41.064981" lon="14.3062381"><ele>54.0</ele><time>2026-04-22T08:10:41.328Z</time></trkpt><trkpt lat="41.0650468" lon="14.3062962"><ele>54.0</ele><time>2026-04-22T08:10:42.322Z</time></trkpt><trkpt lat="41.0651178" lon="14.3063539"><ele>54.0</ele><time>2026-04-22T08:10:43.32Z</time></trkpt><trkpt lat="41.0651876" lon="14.3064089"><ele>54.0</ele><time>2026-04-22T08:10:44.298Z</time></trkpt><trkpt lat="41.065251" lon="14.3064641"><ele>54.0</ele><time>2026-04-22T08:10:45.299Z</time></trkpt><trkpt lat="41.0653232" lon="14.306545"><ele>54.0</ele><time>2026-04-22T08:10:47.3Z</time></trkpt><trkpt lat="41.0653817" lon="14.3066279"><ele>54.0</ele><time>2026-04-22T08:10:49.48Z</time></trkpt><trkpt lat="41.0654334" lon="14.3067233"><ele>54.0</ele><time>2026-04-22T08:10:52.286Z</time></trkpt><trkpt lat="41.0654493" lon="14.3068138"><ele>54.0</ele><time>2026-04-22T08:10:54.304Z</time></trkpt><trkpt lat="41.0654113" lon="14.3069165"><ele>54.00000000000001</ele><time>2026-04-22T08:10:56.291Z</time></trkpt><trkpt lat="41.0654034" lon="14.3070346"><ele>54.00000000000001</ele><time>2026-04-22T08:10:58.3Z</time></trkpt><trkpt lat="41.0654638" lon="14.3072048"><ele>54.0</ele><time>2026-04-22T08:11:00.449Z</time></trkpt><trkpt lat="41.0655173" lon="14.307361"><ele>54.0</ele><time>2026-04-22T08:11:02.383Z</time></trkpt><trkpt lat="41.0655428" lon="14.3074378"><ele>54.2</ele><time>2026-04-22T08:11:03.315Z</time></trkpt><trkpt lat="41.0655915" lon="14.3075668"><ele>54.400000000000006</ele><time>2026-04-22T08:11:05.262Z</time></trkpt><trkpt lat="41.0656383" lon="14.307679"><ele>54.6</ele><time>2026-04-22T08:11:07.224Z</time></trkpt><trkpt lat="41.065661" lon="14.3077635"><ele>54.8</ele><time>2026-04-22T08:11:09.223Z</time></trkpt><trkpt lat="41.0657164" lon="14.3078647"><ele>55.0</ele><time>2026-04-22T08:11:12.174Z</time></trkpt><trkpt lat="41.06579" lon="14.3079541"><ele>55.0</ele><time>2026-04-22T08:11:14.236Z</time></trkpt><trkpt lat="41.0658891" lon="14.3079708"><ele>55.0</ele><time>2026-04-22T08:11:16.241Z</time></trkpt><trkpt lat="41.0659537" lon="14.307932"><ele>55.0</ele><time>2026-04-22T08:11:17.272Z</time></trkpt><trkpt lat="41.0661044" lon="14.3078437"><ele>55.0</ele><time>2026-04-22T08:11:19.186Z</time></trkpt><trkpt lat="41.066179" lon="14.3078172"><ele>55.0</ele><time>2026-04-22T08:11:20.178Z</time></trkpt><trkpt lat="41.0662607" lon="14.3077979"><ele>54.99999999999999</ele><time>2026-04-22T08:11:21.23Z</time></trkpt><trkpt lat="41.0663324" lon="14.3077891"><ele>55.0</ele><time>2026-04-22T08:11:22.213Z</time></trkpt><trkpt lat="41.066402" lon="14.3077844"><ele>55.0</ele><time>2026-04-22T08:11:23.185Z</time></trkpt><trkpt lat="41.0664804" lon="14.3077836"><ele>55.0</ele><time>2026-04-22T08:11:24.256Z</time></trkpt><trkpt lat="41.0665539" lon="14.3077794"><ele>54.99999999999999</ele><time>2026-04-22T08:11:25.214Z</time></trkpt><trkpt lat="41.066628" lon="14.3077863"><ele>55.0</ele><time>2026-04-22T08:11:26.179Z</time></trkpt><trkpt lat="41.0667132" lon="14.3077879"><ele>55.4</ele><time>2026-04-22T08:11:27.215Z</time></trkpt><trkpt lat="41.0667972" lon="14.3077867"><ele>55.8</ele><time>2026-04-22T08:11:28.211Z</time></trkpt><trkpt lat="41.0668662" lon="14.3077845"><ele>56.2</ele><time>2026-04-22T08:11:29.186Z</time></trkpt><trkpt lat="41.0669861" lon="14.3077809"><ele>56.6</ele><time>2026-04-22T08:11:31.195Z</time></trkpt><trkpt lat="41.0670785" lon="14.3077727"><ele>57.0</ele><time>2026-04-22T08:11:33.186Z</time></trkpt><trkpt lat="41.0671745" lon="14.3077643"><ele>57.0</ele><time>2026-04-22T08:11:35.224Z</time></trkpt><trkpt lat="41.0672779" lon="14.3077529"><ele>57.0</ele><time>2026-04-22T08:11:37.187Z</time></trkpt><trkpt lat="41.0673578" lon="14.307782"><ele>57.0</ele><time>2026-04-22T08:11:39.193Z</time></trkpt><trkpt lat="41.0673974" lon="14.3078921"><ele>57.0</ele><time>2026-04-22T08:11:41.2Z</time></trkpt><trkpt lat="41.0674036" lon="14.3080488"><ele>57.0</ele><time>2026-04-22T08:11:43.174Z</time></trkpt><trkpt lat="41.0674033" lon="14.3081442"><ele>56.833333333333336</ele><time>2026-04-22T08:11:44.19Z</time></trkpt><trkpt lat="41.067404" lon="14.308248"><ele>56.66666666666667</ele><time>2026-04-22T08:11:45.178Z</time></trkpt><trkpt lat="41.0674071" lon="14.3083575"><ele>56.5</ele><time>2026-04-22T08:11:46.182Z</time></trkpt><trkpt lat="41.0674098" lon="14.3084692"><ele>56.333333333333336</ele><time>2026-04-22T08:11:47.18Z</time></trkpt><trkpt lat="41.0674098" lon="14.3085857"><ele>56.16666666666667</ele><time>2026-04-22T08:11:48.205Z</time></trkpt><trkpt lat="41.0674082" lon="14.3087038"><ele>56.0</ele><time>2026-04-22T08:11:49.207Z</time></trkpt><trkpt lat="41.0674077" lon="14.3088197"><ele>56.0</ele><time>2026-04-22T08:11:50.17Z</time></trkpt><trkpt lat="41.0674093" lon="14.3089432"><ele>55.99999999999999</ele><time>2026-04-22T08:11:51.185Z</time></trkpt><trkpt lat="41.0674116" lon="14.30907"><ele>55.99999999999999</ele><time>2026-04-22T08:11:52.195Z</time></trkpt><trkpt lat="41.067412" lon="14.3092026"><ele>56.0</ele><time>2026-04-22T08:11:53.205Z</time></trkpt><trkpt lat="41.067409" lon="14.3093353"><ele>56.0</ele><time>2026-04-22T08:11:54.218Z</time></trkpt><trkpt lat="41.0674082" lon="14.3094653"><ele>56.0</ele><time>2026-04-22T08:11:55.204Z</time></trkpt><trkpt lat="41.0674096" lon="14.3095962"><ele>55.99999999999999</ele><time>2026-04-22T08:11:56.212Z</time></trkpt><trkpt lat="41.067413" lon="14.3097297"><ele>55.99999999999999</ele><time>2026-04-22T08:11:57.178Z</time></trkpt><trkpt lat="41.0674163" lon="14.3098743"><ele>56.0</ele><time>2026-04-22T08:11:58.202Z</time></trkpt><trkpt lat="41.0674156" lon="14.3100068"><ele>56.0</ele><time>2026-04-22T08:11:59.219Z</time></trkpt><trkpt lat="41.0674128" lon="14.3101247"><ele>56.199999999999996</ele><time>2026-04-22T08:12:00.185Z</time></trkpt><trkpt lat="41.067411" lon="14.3102494"><ele>56.39999999999999</ele><time>2026-04-22T08:12:01.232Z</time></trkpt><trkpt lat="41.0674111" lon="14.3103711"><ele>56.6</ele><time>2026-04-22T08:12:02.199Z</time></trkpt><trkpt lat="41.0674124" lon="14.3105008"><ele>56.8</ele><time>2026-04-22T08:12:03.2Z</time></trkpt><trkpt lat="41.0674145" lon="14.3106337"><ele>57.0</ele><time>2026-04-22T08:12:04.202Z</time></trkpt><trkpt lat="41.0674132" lon="14.310765"><ele>57.333333333333336</ele><time>2026-04-22T08:12:05.209Z</time></trkpt><trkpt lat="41.0674104" lon="14.3108968"><ele>57.66666666666667</ele><time>2026-04-22T08:12:06.299Z</time></trkpt><trkpt lat="41.0674077" lon="14.3109859"><ele>58.0</ele><time>2026-04-22T08:12:07.203Z</time></trkpt><trkpt lat="41.0674037" lon="14.3110959"><ele>58.333333333333336</ele><time>2026-04-22T08:12:09.207Z</time></trkpt><trkpt lat="41.0674099" lon="14.3111945"><ele>58.66666666666667</ele><time>2026-04-22T08:12:13.219Z</time></trkpt><trkpt lat="41.0674519" lon="14.3113052"><ele>59.0</ele><time>2026-04-22T08:12:16.273Z</time></trkpt><trkpt lat="41.0675685" lon="14.3113587"><ele>59.00000000000001</ele><time>2026-04-22T08:12:18.212Z</time></trkpt><trkpt lat="41.0676437" lon="14.3113646"><ele>59.0</ele><time>2026-04-22T08:12:19.224Z</time></trkpt><trkpt lat="41.0677222" lon="14.3113682"><ele>59.0</ele><time>2026-04-22T08:12:20.239Z</time></trkpt><trkpt lat="41.0677982" lon="14.3113751"><ele>59.0</ele><time>2026-04-22T08:12:21.198Z</time></trkpt><trkpt lat="41.067881" lon="14.3113847"><ele>59.00000000000001</ele><time>2026-04-22T08:12:22.196Z</time></trkpt><trkpt lat="41.0679813" lon="14.3113942"><ele>59.0</ele><time>2026-04-22T08:12:23.313Z</time></trkpt><trkpt lat="41.0680673" lon="14.3114003"><ele>59.0</ele><time>2026-04-22T08:12:24.228Z</time></trkpt><trkpt lat="41.0681603" lon="14.3114086"><ele>59.00000000000001</ele><time>2026-04-22T08:12:25.186Z</time></trkpt><trkpt lat="41.0682658" lon="14.3114228"><ele>59.00000000000001</ele><time>2026-04-22T08:12:26.237Z</time></trkpt><trkpt lat="41.0683633" lon="14.3114342"><ele>59.0</ele><time>2026-04-22T08:12:27.18Z</time></trkpt><trkpt lat="41.0684665" lon="14.3114441"><ele>59.0</ele><time>2026-04-22T08:12:28.21Z</time></trkpt><trkpt lat="41.0685777" lon="14.3114507"><ele>59.0</ele><time>2026-04-22T08:12:29.224Z</time></trkpt><trkpt lat="41.0686853" lon="14.3114618"><ele>59.00000000000001</ele><time>2026-04-22T08:12:30.222Z</time></trkpt><trkpt lat="41.0687961" lon="14.31147"><ele>59.00000000000001</ele><time>2026-04-22T08:12:31.224Z</time></trkpt><trkpt lat="41.0689059" lon="14.3114778"><ele>59.0</ele><time>2026-04-22T08:12:32.233Z</time></trkpt><trkpt lat="41.0690168" lon="14.3114898"><ele>59.0</ele><time>2026-04-22T08:12:33.213Z</time></trkpt><trkpt lat="41.0691273" lon="14.3115025"><ele>59.2</ele><time>2026-04-22T08:12:34.195Z</time></trkpt><trkpt lat="41.069245" lon="14.3115133"><ele>59.400000000000006</ele><time>2026-04-22T08:12:35.212Z</time></trkpt><trkpt lat="41.0693597" lon="14.3115254"><ele>59.6</ele><time>2026-04-22T08:12:36.207Z</time></trkpt><trkpt lat="41.0694716" lon="14.3115377"><ele>59.8</ele><time>2026-04-22T08:12:37.209Z</time></trkpt><trkpt lat="41.0695725" lon="14.3115475"><ele>60.0</ele><time>2026-04-22T08:12:38.198Z</time></trkpt><trkpt lat="41.0696655" lon="14.3115535"><ele>60.0</ele><time>2026-04-22T08:12:39.18Z</time></trkpt><trkpt lat="41.0697596" lon="14.3115585"><ele>60.0</ele><time>2026-04-22T08:12:40.206Z</time></trkpt><trkpt lat="41.0698541" lon="14.3115692"><ele>60.0</ele><time>2026-04-22T08:12:41.204Z</time></trkpt><trkpt lat="41.0699526" lon="14.3115683"><ele>60.0</ele><time>2026-04-22T08:12:42.219Z</time></trkpt><trkpt lat="41.0700505" lon="14.3115565"><ele>60.0</ele><time>2026-04-22T08:12:43.227Z</time></trkpt><trkpt lat="41.0701484" lon="14.3115345"><ele>59.6</ele><time>2026-04-22T08:12:44.238Z</time></trkpt><trkpt lat="41.0702423" lon="14.3115112"><ele>59.2</ele><time>2026-04-22T08:12:45.242Z</time></trkpt><trkpt lat="41.0703291" lon="14.3114923"><ele>58.8</ele><time>2026-04-22T08:12:46.195Z</time></trkpt><trkpt lat="41.0704254" lon="14.311481"><ele>58.4</ele><time>2026-04-22T08:12:47.223Z</time></trkpt><trkpt lat="41.0705308" lon="14.311475"><ele>58.0</ele><time>2026-04-22T08:12:48.234Z</time></trkpt><trkpt lat="41.0706399" lon="14.3114678"><ele>58.0</ele><time>2026-04-22T08:12:49.228Z</time></trkpt><trkpt lat="41.0708486" lon="14.311456"><ele>58.0</ele><time>2026-04-22T08:12:51.178Z</time></trkpt><trkpt lat="41.0709522" lon="14.3114595"><ele>58.0</ele><time>2026-04-22T08:12:52.2Z</time></trkpt><trkpt lat="41.0710504" lon="14.31146"><ele>58.0</ele><time>2026-04-22T08:12:53.212Z</time></trkpt><trkpt lat="41.0711418" lon="14.3114584"><ele>57.99999999999999</ele><time>2026-04-22T08:12:54.188Z</time></trkpt><trkpt lat="41.0712347" lon="14.3114607"><ele>58.0</ele><time>2026-04-22T08:12:55.213Z</time></trkpt><trkpt lat="41.0713207" lon="14.3114636"><ele>58.0</ele><time>2026-04-22T08:12:56.208Z</time></trkpt><trkpt lat="41.071408" lon="14.3114649"><ele>58.0</ele><time>2026-04-22T08:12:57.236Z</time></trkpt><trkpt lat="41.0714811" lon="14.3114636"><ele>57.99999999999999</ele><time>2026-04-22T08:12:58.199Z</time></trkpt><trkpt lat="41.0715584" lon="14.3114589"><ele>58.0</ele><time>2026-04-22T08:12:59.225Z</time></trkpt><trkpt lat="41.0716292" lon="14.311455"><ele>57.85714285714286</ele><time>2026-04-22T08:13:00.205Z</time></trkpt><trkpt lat="41.0717026" lon="14.3114564"><ele>57.714285714285715</ele><time>2026-04-22T08:13:01.252Z</time></trkpt><trkpt lat="41.0717676" lon="14.3114595"><ele>57.57142857142857</ele><time>2026-04-22T08:13:02.208Z</time></trkpt><trkpt lat="41.071836" lon="14.3114558"><ele>57.42857142857143</ele><time>2026-04-22T08:13:03.201Z</time></trkpt><trkpt lat="41.0719055" lon="14.3114488"><ele>57.28571428571428</ele><time>2026-04-22T08:13:04.208Z</time></trkpt><trkpt lat="41.0719733" lon="14.3114423"><ele>57.14285714285714</ele><time>2026-04-22T08:13:05.181Z</time></trkpt><trkpt lat="41.0720487" lon="14.3114349"><ele>57.0</ele><time>2026-04-22T08:13:06.186Z</time></trkpt><trkpt lat="41.072135" lon="14.3114361"><ele>57.0</ele><time>2026-04-22T08:13:07.209Z</time></trkpt><trkpt lat="41.0722225" lon="14.3114379"><ele>57.0</ele><time>2026-04-22T08:13:08.198Z</time></trkpt><trkpt lat="41.0723166" lon="14.3114467"><ele>57.0</ele><time>2026-04-22T08:13:09.214Z</time></trkpt><trkpt lat="41.0724147" lon="14.3114499"><ele>57.0</ele><time>2026-04-22T08:13:10.311Z</time></trkpt><trkpt lat="41.0725759" lon="14.3114547"><ele>57.0</ele><time>2026-04-22T08:13:12.2Z</time></trkpt><trkpt lat="41.0726417" lon="14.3114502"><ele>57.6</ele><time>2026-04-22T08:13:13.222Z</time></trkpt><trkpt lat="41.0727588" lon="14.3114488"><ele>58.2</ele><time>2026-04-22T08:13:15.317Z</time></trkpt><trkpt lat="41.0728349" lon="14.3114558"><ele>58.8</ele><time>2026-04-22T08:13:17.229Z</time></trkpt><trkpt lat="41.0729244" lon="14.3114754"><ele>59.4</ele><time>2026-04-22T08:13:19.214Z</time></trkpt><trkpt lat="41.0730074" lon="14.3115293"><ele>60.0</ele><time>2026-04-22T08:13:21.192Z</time></trkpt><trkpt lat="41.0731052" lon="14.3115589"><ele>60.0</ele><time>2026-04-22T08:13:23.18Z</time></trkpt><trkpt lat="41.0731876" lon="14.3115593"><ele>60.0</ele><time>2026-04-22T08:13:25.195Z</time></trkpt><trkpt lat="41.0732804" lon="14.31156"><ele>60.0</ele><time>2026-04-22T08:13:27.195Z</time></trkpt><trkpt lat="41.0733739" lon="14.3115643"><ele>60.0</ele><time>2026-04-22T08:13:29.198Z</time></trkpt><trkpt lat="41.0734812" lon="14.3115807"><ele>60.0</ele><time>2026-04-22T08:13:31.212Z</time></trkpt><trkpt lat="41.0736025" lon="14.3115842"><ele>59.8</ele><time>2026-04-22T08:13:33.177Z</time></trkpt><trkpt lat="41.0737076" lon="14.311642"><ele>59.6</ele><time>2026-04-22T08:13:35.202Z</time></trkpt><trkpt lat="41.0738016" lon="14.3117081"><ele>59.400000000000006</ele><time>2026-04-22T08:13:37.204Z</time></trkpt><trkpt lat="41.0739128" lon="14.3117814"><ele>59.2</ele><time>2026-04-22T08:13:39.161Z</time></trkpt><trkpt lat="41.0739748" lon="14.3118075"><ele>59.0</ele><time>2026-04-22T08:13:40.199Z</time></trkpt><trkpt lat="41.0740847" lon="14.3118204"><ele>58.800000000000004</ele><time>2026-04-22T08:13:42.293Z</time></trkpt><trkpt lat="41.0742244" lon="14.3118431"><ele>58.60000000000001</ele><time>2026-04-22T08:13:45.263Z</time></trkpt><trkpt lat="41.0742896" lon="14.3118349"><ele>58.4</ele><time>2026-04-22T08:13:46.281Z</time></trkpt><trkpt lat="41.074407" lon="14.3118241"><ele>58.2</ele><time>2026-04-22T08:13:48.263Z</time></trkpt><trkpt lat="41.0745107" lon="14.3118229"><ele>58.0</ele><time>2026-04-22T08:13:50.263Z</time></trkpt><trkpt lat="41.0745744" lon="14.3118285"><ele>58.0</ele><time>2026-04-22T08:13:51.254Z</time></trkpt><trkpt lat="41.0746801" lon="14.311832"><ele>58.0</ele><time>2026-04-22T08:13:53.264Z</time></trkpt><trkpt lat="41.0747681" lon="14.3118471"><ele>58.0</ele><time>2026-04-22T08:13:55.279Z</time></trkpt><trkpt lat="41.074861" lon="14.3118566"><ele>58.0</ele><time>2026-04-22T08:13:57.274Z</time></trkpt><trkpt lat="41.074959" lon="14.3118595"><ele>58.0</ele><time>2026-04-22T08:13:59.262Z</time></trkpt><trkpt lat="41.0750644" lon="14.311858"><ele>58.0</ele><time>2026-04-22T08:14:01.261Z</time></trkpt><trkpt lat="41.0751495" lon="14.3118598"><ele>58.0</ele><time>2026-04-22T08:14:03.233Z</time></trkpt><trkpt lat="41.0752356" lon="14.3118554"><ele>58.0</ele><time>2026-04-22T08:14:05.264Z</time></trkpt><trkpt lat="41.07534" lon="14.3118542"><ele>58.0</ele><time>2026-04-22T08:14:07.231Z</time></trkpt><trkpt lat="41.0754698" lon="14.3118546"><ele>58.0</ele><time>2026-04-22T08:14:09.287Z</time></trkpt><trkpt lat="41.0755382" lon="14.3118585"><ele>57.99999999999999</ele><time>2026-04-22T08:14:10.27Z</time></trkpt><trkpt lat="41.0756047" lon="14.3118614"><ele>58.0</ele><time>2026-04-22T08:14:11.259Z</time></trkpt><trkpt lat="41.0756789" lon="14.3118601"><ele>58.0</ele><time>2026-04-22T08:14:12.37Z</time></trkpt><trkpt lat="41.0758056" lon="14.31187"><ele>58.0</ele><time>2026-04-22T08:14:14.26Z</time></trkpt><trkpt lat="41.0758742" lon="14.3118723"><ele>57.99999999999999</ele><time>2026-04-22T08:14:15.234Z</time></trkpt><trkpt lat="41.0759432" lon="14.3118725"><ele>58.0</ele><time>2026-04-22T08:14:16.225Z</time></trkpt><trkpt lat="41.0760154" lon="14.3118725"><ele>58.14285714285715</ele><time>2026-04-22T08:14:17.284Z</time></trkpt><trkpt lat="41.0760806" lon="14.3118774"><ele>58.28571428571429</ele><time>2026-04-22T08:14:18.261Z</time></trkpt><trkpt lat="41.0761482" lon="14.31188"><ele>58.42857142857143</ele><time>2026-04-22T08:14:19.261Z</time></trkpt><trkpt lat="41.0762154" lon="14.3118809"><ele>58.57142857142858</ele><time>2026-04-22T08:14:20.276Z</time></trkpt><trkpt lat="41.0762798" lon="14.311882"><ele>58.71428571428572</ele><time>2026-04-22T08:14:21.247Z</time></trkpt><trkpt lat="41.0763442" lon="14.311881"><ele>58.857142857142854</ele><time>2026-04-22T08:14:22.257Z</time></trkpt><trkpt lat="41.0764115" lon="14.3118842"><ele>59.0</ele><time>2026-04-22T08:14:23.288Z</time></trkpt><trkpt lat="41.0764842" lon="14.3119043"><ele>59.00000000000001</ele><time>2026-04-22T08:14:24.264Z</time></trkpt><trkpt lat="41.0765673" lon="14.3119379"><ele>59.0</ele><time>2026-04-22T08:14:25.308Z</time></trkpt><trkpt lat="41.0766744" lon="14.3120091"><ele>59.0</ele><time>2026-04-22T08:14:27.275Z</time></trkpt><trkpt lat="41.0767426" lon="14.312001"><ele>59.0</ele><time>2026-04-22T08:14:28.265Z</time></trkpt><trkpt lat="41.076806" lon="14.3119772"><ele>59.00000000000001</ele><time>2026-04-22T08:14:29.235Z</time></trkpt><trkpt lat="41.0768826" lon="14.3119563"><ele>59.0</ele><time>2026-04-22T08:14:30.287Z</time></trkpt><trkpt lat="41.0769519" lon="14.3119468"><ele>58.833333333333336</ele><time>2026-04-22T08:14:31.211Z</time></trkpt><trkpt lat="41.0770234" lon="14.3119323"><ele>58.66666666666667</ele><time>2026-04-22T08:14:32.235Z</time></trkpt><trkpt lat="41.0771331" lon="14.3119078"><ele>58.5</ele><time>2026-04-22T08:14:34.26Z</time></trkpt><trkpt lat="41.0772103" lon="14.311894"><ele>58.33333333333333</ele><time>2026-04-22T08:14:36.254Z</time></trkpt><trkpt lat="41.0772739" lon="14.311882"><ele>58.166666666666664</ele><time>2026-04-22T08:14:39.239Z</time></trkpt><trkpt lat="41.0773516" lon="14.3119195"><ele>58.0</ele><time>2026-04-22T08:14:43.401Z</time></trkpt><trkpt lat="41.0773791" lon="14.3120313"><ele>57.99999999999999</ele><time>2026-04-22T08:14:45.284Z</time></trkpt><trkpt lat="41.0773911" lon="14.3121603"><ele>58.0</ele><time>2026-04-22T08:14:47.294Z</time></trkpt><trkpt lat="41.0774295" lon="14.3122496"><ele>58.0</ele><time>2026-04-22T08:14:49.272Z</time></trkpt><trkpt lat="41.0774571" lon="14.3123409"><ele>58.0</ele><time>2026-04-22T08:14:51.238Z</time></trkpt><trkpt lat="41.0774829" lon="14.3124307"><ele>57.99999999999999</ele><time>2026-04-22T08:14:53.275Z</time></trkpt><trkpt lat="41.0775285" lon="14.3125237"><ele>58.0</ele><time>2026-04-22T08:14:55.287Z</time></trkpt><trkpt lat="41.0775676" lon="14.3126042"><ele>58.4</ele><time>2026-04-22T08:14:57.253Z</time></trkpt><trkpt lat="41.0776201" lon="14.3126945"><ele>58.8</ele><time>2026-04-22T08:14:59.256Z</time></trkpt><trkpt lat="41.0776668" lon="14.3127822"><ele>59.2</ele><time>2026-04-22T08:15:01.259Z</time></trkpt><trkpt lat="41.077736" lon="14.3128538"><ele>59.6</ele><time>2026-04-22T08:15:04.271Z</time></trkpt><trkpt lat="41.0778546" lon="14.3128557"><ele>60.0</ele><time>2026-04-22T08:15:07.277Z</time></trkpt><trkpt lat="41.0779346" lon="14.3128425"><ele>60.0</ele><time>2026-04-22T08:15:09.29Z</time></trkpt><trkpt lat="41.0780182" lon="14.3128415"><ele>60.0</ele><time>2026-04-22T08:15:11.265Z</time></trkpt><trkpt lat="41.0781211" lon="14.312838"><ele>60.0</ele><time>2026-04-22T08:15:13.261Z</time></trkpt><trkpt lat="41.0782189" lon="14.312846"><ele>60.0</ele><time>2026-04-22T08:15:15.241Z</time></trkpt><trkpt lat="41.0783287" lon="14.3128484"><ele>60.0</ele><time>2026-04-22T08:15:17.26Z</time></trkpt><trkpt lat="41.0784217" lon="14.3128519"><ele>60.0</ele><time>2026-04-22T08:15:19.219Z</time></trkpt><trkpt lat="41.0785052" lon="14.3128561"><ele>60.0</ele><time>2026-04-22T08:15:21.371Z</time></trkpt><trkpt lat="41.0785905" lon="14.3128356"><ele>60.0</ele><time>2026-04-22T08:15:23.39Z</time></trkpt><trkpt lat="41.0786657" lon="14.3127785"><ele>60.0</ele><time>2026-04-22T08:15:25.285Z</time></trkpt><trkpt lat="41.0787127" lon="14.3126724"><ele>60.0</ele><time>2026-04-22T08:15:27.296Z</time></trkpt><trkpt lat="41.0787402" lon="14.31255"><ele>60.0</ele><time>2026-04-22T08:15:29.385Z</time></trkpt><trkpt lat="41.0787708" lon="14.3124191"><ele>60.0</ele><time>2026-04-22T08:15:31.236Z</time></trkpt><trkpt lat="41.0787854" lon="14.3122954"><ele>60.0</ele><time>2026-04-22T08:15:33.25Z</time></trkpt><trkpt lat="41.078783" lon="14.3121685"><ele>60.0</ele><time>2026-04-22T08:15:35.25Z</time></trkpt><trkpt lat="41.0787842" lon="14.3120538"><ele>60.0</ele><time>2026-04-22T08:15:37.247Z</time></trkpt><trkpt lat="41.0787893" lon="14.3119245"><ele>60.0</ele><time>2026-04-22T08:15:39.243Z</time></trkpt><trkpt lat="41.0787961" lon="14.3117956"><ele>59.833333333333336</ele><time>2026-04-22T08:15:41.24Z</time></trkpt><trkpt lat="41.0788065" lon="14.3116977"><ele>59.66666666666667</ele><time>2026-04-22T08:15:43.253Z</time></trkpt><trkpt lat="41.078808" lon="14.3116019"><ele>59.5</ele><time>2026-04-22T08:15:45.262Z</time></trkpt><trkpt lat="41.0788818" lon="14.3115445"><ele>59.333333333333336</ele><time>2026-04-22T08:15:49.269Z</time></trkpt><trkpt lat="41.0789962" lon="14.3115463"><ele>59.16666666666667</ele><time>2026-04-22T08:15:51.247Z</time></trkpt><trkpt lat="41.0790859" lon="14.3115453"><ele>59.0</ele><time>2026-04-22T08:15:53.248Z</time></trkpt><trkpt lat="41.0791954" lon="14.3115503"><ele>59.00000000000001</ele><time>2026-04-22T08:15:55.25Z</time></trkpt><trkpt lat="41.0793199" lon="14.3115631"><ele>59.0</ele><time>2026-04-22T08:15:57.249Z</time></trkpt><trkpt lat="41.0793912" lon="14.3115618"><ele>59.0</ele><time>2026-04-22T08:15:58.245Z</time></trkpt><trkpt lat="41.0794601" lon="14.3115724"><ele>59.0</ele><time>2026-04-22T08:15:59.229Z</time></trkpt><trkpt lat="41.0795362" lon="14.3115875"><ele>59.00000000000001</ele><time>2026-04-22T08:16:00.275Z</time></trkpt><trkpt lat="41.0796169" lon="14.3115955"><ele>59.0</ele><time>2026-04-22T08:16:01.265Z</time></trkpt><trkpt lat="41.079695" lon="14.3115978"><ele>59.0</ele><time>2026-04-22T08:16:02.236Z</time></trkpt><trkpt lat="41.0797711" lon="14.3116023"><ele>59.0</ele><time>2026-04-22T08:16:03.233Z</time></trkpt><trkpt lat="41.0798395" lon="14.3116062"><ele>59.0</ele><time>2026-04-22T08:16:04.221Z</time></trkpt><trkpt lat="41.079909" lon="14.3116136"><ele>59.0</ele><time>2026-04-22T08:16:05.252Z</time></trkpt><trkpt lat="41.0799759" lon="14.3116182"><ele>59.0</ele><time>2026-04-22T08:16:06.249Z</time></trkpt><trkpt lat="41.0800422" lon="14.3116259"><ele>59.0</ele><time>2026-04-22T08:16:07.24Z</time></trkpt><trkpt lat="41.0801144" lon="14.3116316"><ele>59.0</ele><time>2026-04-22T08:16:08.283Z</time></trkpt><trkpt lat="41.0801826" lon="14.3116429"><ele>58.857142857142854</ele><time>2026-04-22T08:16:09.248Z</time></trkpt><trkpt lat="41.0802536" lon="14.3116492"><ele>58.71428571428572</ele><time>2026-04-22T08:16:10.262Z</time></trkpt><trkpt lat="41.0803204" lon="14.3116622"><ele>58.57142857142858</ele><time>2026-04-22T08:16:11.274Z</time></trkpt><trkpt lat="41.0803907" lon="14.3116683"><ele>58.42857142857143</ele><time>2026-04-22T08:16:12.263Z</time></trkpt><trkpt lat="41.0804623" lon="14.3116781"><ele>58.28571428571429</ele><time>2026-04-22T08:16:13.255Z</time></trkpt><trkpt lat="41.0805355" lon="14.3116852"><ele>58.14285714285715</ele><time>2026-04-22T08:16:14.266Z</time></trkpt><trkpt lat="41.0806044" lon="14.3116893"><ele>58.00000000000001</ele><time>2026-04-22T08:16:15.246Z</time></trkpt><trkpt lat="41.080678" lon="14.311702"><ele>57.99999999999999</ele><time>2026-04-22T08:16:16.258Z</time></trkpt><trkpt lat="41.0807501" lon="14.3117169"><ele>58.0</ele><time>2026-04-22T08:16:17.233Z</time></trkpt><trkpt lat="41.0808292" lon="14.3117265"><ele>58.0</ele><time>2026-04-22T08:16:18.254Z</time></trkpt><trkpt lat="41.0809087" lon="14.3117365"><ele>58.0</ele><time>2026-04-22T08:16:19.248Z</time></trkpt><trkpt lat="41.0809875" lon="14.3117444"><ele>57.99999999999999</ele><time>2026-04-22T08:16:20.262Z</time></trkpt><trkpt lat="41.0810687" lon="14.3117558"><ele>58.0</ele><time>2026-04-22T08:16:21.269Z</time></trkpt><trkpt lat="41.0811484" lon="14.3117674"><ele>58.166666666666664</ele><time>2026-04-22T08:16:22.257Z</time></trkpt><trkpt lat="41.0812273" lon="14.311778"><ele>58.33333333333333</ele><time>2026-04-22T08:16:23.284Z</time></trkpt><trkpt lat="41.0812905" lon="14.3117833"><ele>58.5</ele><time>2026-04-22T08:16:24.263Z</time></trkpt><trkpt lat="41.0814086" lon="14.3118011"><ele>58.66666666666667</ele><time>2026-04-22T08:16:26.275Z</time></trkpt><trkpt lat="41.0814844" lon="14.3118096"><ele>58.833333333333336</ele><time>2026-04-22T08:16:29.33Z</time></trkpt><trkpt lat="41.0815473" lon="14.3117941"><ele>59.0</ele><time>2026-04-22T08:16:36.285Z</time></trkpt><trkpt lat="41.0815926" lon="14.3117039"><ele>59.0</ele><time>2026-04-22T08:16:38.276Z</time></trkpt><trkpt lat="41.0816003" lon="14.3115552"><ele>59.00000000000001</ele><time>2026-04-22T08:16:40.319Z</time></trkpt><trkpt lat="41.0816055" lon="14.3114038"><ele>59.00000000000001</ele><time>2026-04-22T08:16:42.303Z</time></trkpt><trkpt lat="41.0816057" lon="14.3112593"><ele>59.0</ele><time>2026-04-22T08:16:44.327Z</time></trkpt><trkpt lat="41.0815987" lon="14.3111238"><ele>59.0</ele><time>2026-04-22T08:16:46.303Z</time></trkpt><trkpt lat="41.081597" lon="14.3109974"><ele>59.0</ele><time>2026-04-22T08:16:48.307Z</time></trkpt><trkpt lat="41.0816563" lon="14.3108926"><ele>59.00000000000001</ele><time>2026-04-22T08:16:50.298Z</time></trkpt><trkpt lat="41.0817157" lon="14.3108608"><ele>59.00000000000001</ele><time>2026-04-22T08:16:51.282Z</time></trkpt><trkpt lat="41.0817913" lon="14.3108352"><ele>59.0</ele><time>2026-04-22T08:16:52.257Z</time></trkpt><trkpt lat="41.0818981" lon="14.3108227"><ele>59.0</ele><time>2026-04-22T08:16:53.276Z</time></trkpt><trkpt lat="41.0820214" lon="14.3108339"><ele>59.0</ele><time>2026-04-22T08:16:54.277Z</time></trkpt><trkpt lat="41.0821622" lon="14.3108568"><ele>59.0</ele><time>2026-04-22T08:16:55.31Z</time></trkpt><trkpt lat="41.082296" lon="14.3108668"><ele>59.0</ele><time>2026-04-22T08:16:56.296Z</time></trkpt><trkpt lat="41.0824337" lon="14.3108721"><ele>59.0</ele><time>2026-04-22T08:16:57.309Z</time></trkpt><trkpt lat="41.0825903" lon="14.3108657"><ele>59.333333333333336</ele><time>2026-04-22T08:16:58.366Z</time></trkpt><trkpt lat="41.0827421" lon="14.3108719"><ele>59.66666666666667</ele><time>2026-04-22T08:16:59.294Z</time></trkpt><trkpt lat="41.0828958" lon="14.3108857"><ele>60.0</ele><time>2026-04-22T08:17:00.3Z</time></trkpt><trkpt lat="41.0830473" lon="14.3108992"><ele>60.0</ele><time>2026-04-22T08:17:01.299Z</time></trkpt><trkpt lat="41.0831971" lon="14.3109015"><ele>60.0</ele><time>2026-04-22T08:17:02.298Z</time></trkpt><trkpt lat="41.0833445" lon="14.3108983"><ele>60.0</ele><time>2026-04-22T08:17:03.312Z</time></trkpt><trkpt lat="41.0834849" lon="14.3108923"><ele>60.0</ele><time>2026-04-22T08:17:04.295Z</time></trkpt><trkpt lat="41.0836294" lon="14.3108865"><ele>61.33333333333333</ele><time>2026-04-22T08:17:05.313Z</time></trkpt><trkpt lat="41.083762" lon="14.3108781"><ele>62.666666666666664</ele><time>2026-04-22T08:17:06.314Z</time></trkpt><trkpt lat="41.083904" lon="14.3108626"><ele>64.0</ele><time>2026-04-22T08:17:07.42Z</time></trkpt><trkpt lat="41.0841367" lon="14.3108456"><ele>64.25</ele><time>2026-04-22T08:17:09.289Z</time></trkpt><trkpt lat="41.0842657" lon="14.3108446"><ele>64.5</ele><time>2026-04-22T08:17:10.296Z</time></trkpt><trkpt lat="41.0843924" lon="14.3108442"><ele>64.75</ele><time>2026-04-22T08:17:11.293Z</time></trkpt><trkpt lat="41.0845243" lon="14.3108463"><ele>65.0</ele><time>2026-04-22T08:17:12.308Z</time></trkpt><trkpt lat="41.0846456" lon="14.3108516"><ele>65.0</ele><time>2026-04-22T08:17:13.321Z</time></trkpt><trkpt lat="41.08476" lon="14.3108562"><ele>65.0</ele><time>2026-04-22T08:17:14.315Z</time></trkpt><trkpt lat="41.084861" lon="14.310867"><ele>65.0</ele><time>2026-04-22T08:17:15.26Z</time></trkpt><trkpt lat="41.0849614" lon="14.3108745"><ele>65.0</ele><time>2026-04-22T08:17:16.281Z</time></trkpt><trkpt lat="41.0850493" lon="14.3108837"><ele>65.0</ele><time>2026-04-22T08:17:17.297Z</time></trkpt><trkpt lat="41.0851292" lon="14.3109019"><ele>65.0</ele><time>2026-04-22T08:17:18.302Z</time></trkpt><trkpt lat="41.0851986" lon="14.3109331"><ele>65.0</ele><time>2026-04-22T08:17:19.282Z</time></trkpt><trkpt lat="41.0852702" lon="14.310993"><ele>65.0</ele><time>2026-04-22T08:17:20.298Z</time></trkpt><trkpt lat="41.0853392" lon="14.3110635"><ele>65.0</ele><time>2026-04-22T08:17:21.279Z</time></trkpt><trkpt lat="41.0854213" lon="14.3111558"><ele>65.0</ele><time>2026-04-22T08:17:22.298Z</time></trkpt><trkpt lat="41.0855153" lon="14.3112525"><ele>65.0</ele><time>2026-04-22T08:17:23.333Z</time></trkpt><trkpt lat="41.0856185" lon="14.3113434"><ele>65.0</ele><time>2026-04-22T08:17:24.317Z</time></trkpt><trkpt lat="41.0857328" lon="14.3114336"><ele>65.0</ele><time>2026-04-22T08:17:25.321Z</time></trkpt><trkpt lat="41.0858523" lon="14.3115286"><ele>65.0</ele><time>2026-04-22T08:17:26.303Z</time></trkpt><trkpt lat="41.0859818" lon="14.3116339"><ele>66.66666666666667</ele><time>2026-04-22T08:17:27.276Z</time></trkpt><trkpt lat="41.0861253" lon="14.3117491"><ele>68.33333333333333</ele><time>2026-04-22T08:17:28.316Z</time></trkpt><trkpt lat="41.0862719" lon="14.3118637"><ele>70.0</ele><time>2026-04-22T08:17:29.31Z</time></trkpt><trkpt lat="41.0864221" lon="14.3119806"><ele>70.0</ele><time>2026-04-22T08:17:30.306Z</time></trkpt><trkpt lat="41.0865683" lon="14.3120896"><ele>70.0</ele><time>2026-04-22T08:17:31.248Z</time></trkpt><trkpt lat="41.0867298" lon="14.3122153"><ele>70.0</ele><time>2026-04-22T08:17:32.293Z</time></trkpt><trkpt lat="41.0868774" lon="14.3123294"><ele>70.0</ele><time>2026-04-22T08:17:33.304Z</time></trkpt><trkpt lat="41.0870173" lon="14.3124348"><ele>70.0</ele><time>2026-04-22T08:17:34.328Z</time></trkpt><trkpt lat="41.0871385" lon="14.3125323"><ele>70.0</ele><time>2026-04-22T08:17:35.285Z</time></trkpt><trkpt lat="41.087266" lon="14.3126368"><ele>70.0</ele><time>2026-04-22T08:17:36.292Z</time></trkpt><trkpt lat="41.0873916" lon="14.3127382"><ele>70.0</ele><time>2026-04-22T08:17:37.279Z</time></trkpt><trkpt lat="41.0875186" lon="14.3128372"><ele>70.0</ele><time>2026-04-22T08:17:38.275Z</time></trkpt><trkpt lat="41.0876434" lon="14.3129349"><ele>70.0</ele><time>2026-04-22T08:17:39.275Z</time></trkpt><trkpt lat="41.0877714" lon="14.3130367"><ele>70.66666666666666</ele><time>2026-04-22T08:17:40.306Z</time></trkpt><trkpt lat="41.0878972" lon="14.3131355"><ele>71.33333333333333</ele><time>2026-04-22T08:17:41.332Z</time></trkpt><trkpt lat="41.0881264" lon="14.3133167"><ele>72.0</ele><time>2026-04-22T08:17:43.195Z</time></trkpt><trkpt lat="41.0882553" lon="14.3134131"><ele>73.0</ele><time>2026-04-22T08:17:44.23Z</time></trkpt><trkpt lat="41.0883787" lon="14.3135064"><ele>74.0</ele><time>2026-04-22T08:17:45.207Z</time></trkpt><trkpt lat="41.088507" lon="14.3136018"><ele>75.0</ele><time>2026-04-22T08:17:46.205Z</time></trkpt><trkpt lat="41.0886432" lon="14.3137071"><ele>76.0</ele><time>2026-04-22T08:17:47.243Z</time></trkpt><trkpt lat="41.088773" lon="14.313807"><ele>75.33333333333333</ele><time>2026-04-22T08:17:48.216Z</time></trkpt><trkpt lat="41.0889116" lon="14.3139114"><ele>74.66666666666667</ele><time>2026-04-22T08:17:49.251Z</time></trkpt><trkpt lat="41.0890378" lon="14.3140109"><ele>74.0</ele><time>2026-04-22T08:17:50.204Z</time></trkpt><trkpt lat="41.0891717" lon="14.3141138"><ele>75.33333333333334</ele><time>2026-04-22T08:17:51.212Z</time></trkpt><trkpt lat="41.0893101" lon="14.3142241"><ele>76.66666666666667</ele><time>2026-04-22T08:17:52.252Z</time></trkpt><trkpt lat="41.0894373" lon="14.3143226"><ele>78.0</ele><time>2026-04-22T08:17:53.215Z</time></trkpt><trkpt lat="41.0895678" lon="14.3144241"><ele>78.0</ele><time>2026-04-22T08:17:54.239Z</time></trkpt><trkpt lat="41.0896786" lon="14.3145118"><ele>78.0</ele><time>2026-04-22T08:17:55.219Z</time></trkpt><trkpt lat="41.0897836" lon="14.3145971"><ele>78.0</ele><time>2026-04-22T08:17:56.221Z</time></trkpt><trkpt lat="41.0898823" lon="14.314671"><ele>78.0</ele><time>2026-04-22T08:17:57.196Z</time></trkpt><trkpt lat="41.0899833" lon="14.3147527"><ele>78.75</ele><time>2026-04-22T08:17:58.197Z</time></trkpt><trkpt lat="41.0900878" lon="14.3148374"><ele>79.5</ele><time>2026-04-22T08:17:59.238Z</time></trkpt><trkpt lat="41.0901811" lon="14.3149128"><ele>80.25</ele><time>2026-04-22T08:18:00.195Z</time></trkpt><trkpt lat="41.09028" lon="14.3149945"><ele>81.0</ele><time>2026-04-22T08:18:01.236Z</time></trkpt><trkpt lat="41.0903666" lon="14.3150745"><ele>81.0</ele><time>2026-04-22T08:18:02.198Z</time></trkpt><trkpt lat="41.0904515" lon="14.3151612"><ele>81.0</ele><time>2026-04-22T08:18:03.209Z</time></trkpt><trkpt lat="41.09054" lon="14.3152533"><ele>81.0</ele><time>2026-04-22T08:18:04.218Z</time></trkpt><trkpt lat="41.0906287" lon="14.3153567"><ele>81.0</ele><time>2026-04-22T08:18:05.203Z</time></trkpt><trkpt lat="41.0907281" lon="14.3154904"><ele>83.0</ele><time>2026-04-22T08:18:06.336Z</time></trkpt><trkpt lat="41.0909" lon="14.3157179"><ele>85.0</ele><time>2026-04-22T08:18:08.196Z</time></trkpt><trkpt lat="41.0909967" lon="14.3158431"><ele>87.0</ele><time>2026-04-22T08:18:09.255Z</time></trkpt><trkpt lat="41.091081" lon="14.3159555"><ele>87.0</ele><time>2026-04-22T08:18:10.217Z</time></trkpt><trkpt lat="41.0911698" lon="14.3160716"><ele>87.0</ele><time>2026-04-22T08:18:11.217Z</time></trkpt><trkpt lat="41.0912589" lon="14.3161923"><ele>87.0</ele><time>2026-04-22T08:18:12.251Z</time></trkpt><trkpt lat="41.0913427" lon="14.3163045"><ele>87.0</ele><time>2026-04-22T08:18:13.231Z</time></trkpt><trkpt lat="41.0914209" lon="14.3164069"><ele>87.33333333333333</ele><time>2026-04-22T08:18:14.225Z</time></trkpt><trkpt lat="41.0914877" lon="14.3164966"><ele>87.66666666666667</ele><time>2026-04-22T08:18:15.208Z</time></trkpt><trkpt lat="41.0915471" lon="14.3165834"><ele>88.0</ele><time>2026-04-22T08:18:16.208Z</time></trkpt><trkpt lat="41.0915868" lon="14.3166579"><ele>88.33333333333334</ele><time>2026-04-22T08:18:17.204Z</time></trkpt><trkpt lat="41.0916447" lon="14.3167665"><ele>88.66666666666667</ele><time>2026-04-22T08:18:19.325Z</time></trkpt><trkpt lat="41.0917096" lon="14.3168281"><ele>89.0</ele><time>2026-04-22T08:18:27.188Z</time></trkpt><trkpt lat="41.0918482" lon="14.3167883"><ele>90.0</ele><time>2026-04-22T08:18:29.193Z</time></trkpt><trkpt lat="41.0919418" lon="14.3167539"><ele>91.0</ele><time>2026-04-22T08:18:30.177Z</time></trkpt><trkpt lat="41.0920537" lon="14.3167123"><ele>92.0</ele><time>2026-04-22T08:18:31.203Z</time></trkpt><trkpt lat="41.0921775" lon="14.3166684"><ele>93.0</ele><time>2026-04-22T08:18:32.184Z</time></trkpt><trkpt lat="41.0923132" lon="14.3166322"><ele>94.0</ele><time>2026-04-22T08:18:33.193Z</time></trkpt><trkpt lat="41.0924637" lon="14.3166191"><ele>95.0</ele><time>2026-04-22T08:18:34.274Z</time></trkpt><trkpt lat="41.0927005" lon="14.3166265"><ele>96.0</ele><time>2026-04-22T08:18:36.224Z</time></trkpt><trkpt lat="41.0928111" lon="14.3166449"><ele>96.0</ele><time>2026-04-22T08:18:37.208Z</time></trkpt><trkpt lat="41.0929191" lon="14.3166687"><ele>96.0</ele><time>2026-04-22T08:18:38.204Z</time></trkpt><trkpt lat="41.0930206" lon="14.3167007"><ele>96.0</ele><time>2026-04-22T08:18:39.177Z</time></trkpt><trkpt lat="41.0931281" lon="14.3167484"><ele>96.0</ele><time>2026-04-22T08:18:40.213Z</time></trkpt><trkpt lat="41.0932315" lon="14.3167915"><ele>96.0</ele><time>2026-04-22T08:18:41.191Z</time></trkpt><trkpt lat="41.0933373" lon="14.3168513"><ele>96.8</ele><time>2026-04-22T08:18:42.207Z</time></trkpt><trkpt lat="41.0934322" lon="14.3169055"><ele>97.6</ele><time>2026-04-22T08:18:43.199Z</time></trkpt><trkpt lat="41.0935307" lon="14.3169737"><ele>98.4</ele><time>2026-04-22T08:18:44.163Z</time></trkpt><trkpt lat="41.093636" lon="14.3170452"><ele>99.2</ele><time>2026-04-22T08:18:45.2Z</time></trkpt><trkpt lat="41.0937392" lon="14.3171086"><ele>100.0</ele><time>2026-04-22T08:18:46.196Z</time></trkpt><trkpt lat="41.0938424" lon="14.3171701"><ele>100.0</ele><time>2026-04-22T08:18:47.196Z</time></trkpt><trkpt lat="41.0939481" lon="14.317235"><ele>100.0</ele><time>2026-04-22T08:18:48.239Z</time></trkpt><trkpt lat="41.0940386" lon="14.3172968"><ele>100.0</ele><time>2026-04-22T08:18:49.173Z</time></trkpt><trkpt lat="41.0941438" lon="14.3173595"><ele>100.0</ele><time>2026-04-22T08:18:50.175Z</time></trkpt><trkpt lat="41.0942424" lon="14.3174312"><ele>100.0</ele><time>2026-04-22T08:18:51.186Z</time></trkpt><trkpt lat="41.0943352" lon="14.3175138"><ele>101.0</ele><time>2026-04-22T08:18:52.193Z</time></trkpt><trkpt lat="41.0944227" lon="14.3176135"><ele>102.0</ele><time>2026-04-22T08:18:53.256Z</time></trkpt><trkpt lat="41.0944907" lon="14.317697"><ele>103.0</ele><time>2026-04-22T08:18:54.2Z</time></trkpt><trkpt lat="41.0945592" lon="14.3177609"><ele>104.0</ele><time>2026-04-22T08:18:55.193Z</time></trkpt><trkpt lat="41.0946322" lon="14.3178084"><ele>105.0</ele><time>2026-04-22T08:18:56.157Z</time></trkpt><trkpt lat="41.0947218" lon="14.3178414"><ele>105.0</ele><time>2026-04-22T08:18:57.178Z</time></trkpt><trkpt lat="41.0948159" lon="14.3178672"><ele>105.0</ele><time>2026-04-22T08:18:58.152Z</time></trkpt><trkpt lat="41.0949253" lon="14.3178995"><ele>105.0</ele><time>2026-04-22T08:18:59.193Z</time></trkpt><trkpt lat="41.0950283" lon="14.3179321"><ele>105.0</ele><time>2026-04-22T08:19:00.173Z</time></trkpt><trkpt lat="41.0951301" lon="14.3179624"><ele>105.0</ele><time>2026-04-22T08:19:01.147Z</time></trkpt><trkpt lat="41.0952287" lon="14.3179884"><ele>105.16666666666667</ele><time>2026-04-22T08:19:02.187Z</time></trkpt><trkpt lat="41.0953156" lon="14.3180132"><ele>105.33333333333334</ele><time>2026-04-22T08:19:03.175Z</time></trkpt><trkpt lat="41.0953997" lon="14.3180432"><ele>105.5</ele><time>2026-04-22T08:19:04.15Z</time></trkpt><trkpt lat="41.0954754" lon="14.3180648"><ele>105.66666666666667</ele><time>2026-04-22T08:19:05.177Z</time></trkpt><trkpt lat="41.0955535" lon="14.3180812"><ele>105.83333333333334</ele><time>2026-04-22T08:19:07.161Z</time></trkpt><trkpt lat="41.0956207" lon="14.3180991"><ele>106.0</ele><time>2026-04-22T08:19:11.189Z</time></trkpt><trkpt lat="41.0956946" lon="14.3181563"><ele>106.16666666666667</ele><time>2026-04-22T08:19:17.193Z</time></trkpt><trkpt lat="41.095785" lon="14.3182548"><ele>106.33333333333334</ele><time>2026-04-22T08:19:19.246Z</time></trkpt><trkpt lat="41.0958708" lon="14.3182394"><ele>106.5</ele><time>2026-04-22T08:19:21.228Z</time></trkpt><trkpt lat="41.0959275" lon="14.3181926"><ele>106.66666666666666</ele><time>2026-04-22T08:19:22.243Z</time></trkpt><trkpt lat="41.0959871" lon="14.3181531"><ele>106.83333333333333</ele><time>2026-04-22T08:19:23.242Z</time></trkpt><trkpt lat="41.0960567" lon="14.3181291"><ele>107.0</ele><time>2026-04-22T08:19:24.184Z</time></trkpt><trkpt lat="41.0961178" lon="14.3180762"><ele>106.75</ele><time>2026-04-22T08:19:25.212Z</time></trkpt><trkpt lat="41.096181" lon="14.3179844"><ele>106.5</ele><time>2026-04-22T08:19:26.198Z</time></trkpt><trkpt lat="41.0962518" lon="14.3178657"><ele>106.25</ele><time>2026-04-22T08:19:27.313Z</time></trkpt><trkpt lat="41.0964141" lon="14.3176908"><ele>106.0</ele><time>2026-04-22T08:19:29.214Z</time></trkpt><trkpt lat="41.0965097" lon="14.3175958"><ele>107.0</ele><time>2026-04-22T08:19:30.187Z</time></trkpt><trkpt lat="41.0966084" lon="14.3174971"><ele>108.0</ele><time>2026-04-22T08:19:31.192Z</time></trkpt><trkpt lat="41.0967028" lon="14.3174107"><ele>109.0</ele><time>2026-04-22T08:19:32.196Z</time></trkpt><trkpt lat="41.0968059" lon="14.3173132"><ele>110.0</ele><time>2026-04-22T08:19:33.204Z</time></trkpt><trkpt lat="41.0969078" lon="14.3172187"><ele>110.0</ele><time>2026-04-22T08:19:34.201Z</time></trkpt><trkpt lat="41.0970045" lon="14.3171308"><ele>110.0</ele><time>2026-04-22T08:19:35.183Z</time></trkpt><trkpt lat="41.0971043" lon="14.3170354"><ele>110.0</ele><time>2026-04-22T08:19:36.194Z</time></trkpt><trkpt lat="41.0972115" lon="14.3169411"><ele>110.0</ele><time>2026-04-22T08:19:37.175Z</time></trkpt><trkpt lat="41.0973137" lon="14.3168375"><ele>110.0</ele><time>2026-04-22T08:19:38.18Z</time></trkpt><trkpt lat="41.097402" lon="14.3167571"><ele>110.0</ele><time>2026-04-22T08:19:39.169Z</time></trkpt><trkpt lat="41.0974948" lon="14.3166704"><ele>110.0</ele><time>2026-04-22T08:19:40.185Z</time></trkpt><trkpt lat="41.0975997" lon="14.3165768"><ele>110.0</ele><time>2026-04-22T08:19:41.202Z</time></trkpt><trkpt lat="41.0976941" lon="14.3164871"><ele>110.6</ele><time>2026-04-22T08:19:42.189Z</time></trkpt><trkpt lat="41.0977902" lon="14.3163948"><ele>111.2</ele><time>2026-04-22T08:19:43.19Z</time></trkpt><trkpt lat="41.0978755" lon="14.3163121"><ele>111.80000000000001</ele><time>2026-04-22T08:19:44.166Z</time></trkpt><trkpt lat="41.0979625" lon="14.3162292"><ele>112.4</ele><time>2026-04-22T08:19:45.194Z</time></trkpt><trkpt lat="41.0980436" lon="14.3161546"><ele>113.0</ele><time>2026-04-22T08:19:46.192Z</time></trkpt><trkpt lat="41.098117" lon="14.3160904"><ele>112.99999999999999</ele><time>2026-04-22T08:19:47.186Z</time></trkpt><trkpt lat="41.0981858" lon="14.3160311"><ele>113.0</ele><time>2026-04-22T08:19:48.196Z</time></trkpt><trkpt lat="41.0982379" lon="14.3159839"><ele>113.0</ele><time>2026-04-22T08:19:49.196Z</time></trkpt><trkpt lat="41.0983173" lon="14.3159523"><ele>113.0</ele><time>2026-04-22T08:19:51.182Z</time></trkpt><trkpt lat="41.0984046" lon="14.3159912"><ele>112.99999999999999</ele><time>2026-04-22T08:19:53.184Z</time></trkpt><trkpt lat="41.0984683" lon="14.3160209"><ele>113.0</ele><time>2026-04-22T08:19:55.223Z</time></trkpt><trkpt lat="41.0985449" lon="14.3159635"><ele>113.83333333333333</ele><time>2026-04-22T08:19:58.188Z</time></trkpt><trkpt lat="41.098599" lon="14.3159131"><ele>114.66666666666666</ele><time>2026-04-22T08:20:02.187Z</time></trkpt><trkpt lat="41.0986425" lon="14.3158911"><ele>115.5</ele><time>2026-04-22T08:23:07.153Z</time></trkpt><trkpt lat="41.0987313" lon="14.3158487"><ele>116.33333333333334</ele><time>2026-04-22T08:23:10.16Z</time></trkpt><trkpt lat="41.098867" lon="14.3158686"><ele>117.16666666666667</ele><time>2026-04-22T08:23:12.2Z</time></trkpt><trkpt lat="41.0989424" lon="14.3158881"><ele>118.0</ele><time>2026-04-22T08:23:13.193Z</time></trkpt><trkpt lat="41.0990095" lon="14.3159004"><ele>118.00000000000001</ele><time>2026-04-22T08:23:14.166Z</time></trkpt><trkpt lat="41.0990768" lon="14.3159064"><ele>118.0</ele><time>2026-04-22T08:23:15.151Z</time></trkpt><trkpt lat="41.0991755" lon="14.3159138"><ele>118.0</ele><time>2026-04-22T08:23:17.16Z</time></trkpt><trkpt lat="41.09924" lon="14.3159143"><ele>118.0</ele><time>2026-04-22T08:23:19.167Z</time></trkpt><trkpt lat="41.0993199" lon="14.3158959"><ele>118.00000000000001</ele><time>2026-04-22T08:23:21.151Z</time></trkpt><trkpt lat="41.0993928" lon="14.3159085"><ele>118.0</ele><time>2026-04-22T08:23:23.172Z</time></trkpt><trkpt lat="41.0994679" lon="14.3159416"><ele>119.0</ele><time>2026-04-22T08:23:25.165Z</time></trkpt><trkpt lat="41.0995824" lon="14.3159822"><ele>120.00000000000001</ele><time>2026-04-22T08:23:27.223Z</time></trkpt><trkpt lat="41.0996477" lon="14.3159876"><ele>121.00000000000001</ele><time>2026-04-22T08:23:28.161Z</time></trkpt><trkpt lat="41.0997396" lon="14.315992"><ele>122.0</ele><time>2026-04-22T08:23:30.136Z</time></trkpt><trkpt lat="41.0998275" lon="14.3159514"><ele>123.0</ele><time>2026-04-22T08:23:33.149Z</time></trkpt><trkpt lat="41.0999385" lon="14.315773"><ele>124.33333333333333</ele><time>2026-04-22T08:23:36.137Z</time></trkpt><trkpt lat="41.0999761" lon="14.3156888"><ele>125.66666666666666</ele><time>2026-04-22T08:23:37.151Z</time></trkpt><trkpt lat="41.1000193" lon="14.3155994"><ele>127.0</ele><time>2026-04-22T08:23:38.163Z</time></trkpt><trkpt lat="41.1000588" lon="14.3155093"><ele>128.33333333333331</ele><time>2026-04-22T08:23:39.146Z</time></trkpt><trkpt lat="41.1000999" lon="14.3154206"><ele>129.66666666666666</ele><time>2026-04-22T08:23:40.153Z</time></trkpt><trkpt lat="41.100142" lon="14.315332"><ele>131.0</ele><time>2026-04-22T08:23:41.197Z</time></trkpt><trkpt lat="41.1001834" lon="14.3152497"><ele>131.0</ele><time>2026-04-22T08:23:42.179Z</time></trkpt><trkpt lat="41.1002255" lon="14.3151668"><ele>131.0</ele><time>2026-04-22T08:23:43.144Z</time></trkpt><trkpt lat="41.1002707" lon="14.3150755"><ele>131.0</ele><time>2026-04-22T08:23:44.154Z</time></trkpt><trkpt lat="41.1003166" lon="14.3149769"><ele>131.0</ele><time>2026-04-22T08:23:45.161Z</time></trkpt><trkpt lat="41.1003628" lon="14.3148741"><ele>131.0</ele><time>2026-04-22T08:23:46.144Z</time></trkpt><trkpt lat="41.1004171" lon="14.3147639"><ele>131.0</ele><time>2026-04-22T08:23:47.17Z</time></trkpt><trkpt lat="41.1004736" lon="14.3146459"><ele>130.6</ele><time>2026-04-22T08:23:48.228Z</time></trkpt><trkpt lat="41.1005226" lon="14.3145456"><ele>130.2</ele><time>2026-04-22T08:23:49.167Z</time></trkpt><trkpt lat="41.1005732" lon="14.3144425"><ele>129.8</ele><time>2026-04-22T08:23:50.228Z</time></trkpt><trkpt lat="41.1006139" lon="14.3143532"><ele>129.4</ele><time>2026-04-22T08:23:51.2Z</time></trkpt><trkpt lat="41.1006565" lon="14.3142673"><ele>129.0</ele><time>2026-04-22T08:23:52.245Z</time></trkpt><trkpt lat="41.1007196" lon="14.314132"><ele>131.0</ele><time>2026-04-22T08:23:54.198Z</time></trkpt><trkpt lat="41.1008535" lon="14.3140186"><ele>133.0</ele><time>2026-04-22T08:23:59.194Z</time></trkpt><trkpt lat="41.1008713" lon="14.3141128"><ele>135.0</ele><time>2026-04-22T08:24:01.169Z</time></trkpt><trkpt lat="41.1008609" lon="14.314205"><ele>137.0</ele><time>2026-04-22T08:24:02.167Z</time></trkpt><trkpt lat="41.1008446" lon="14.3143166"><ele>139.0</ele><time>2026-04-22T08:24:03.164Z</time></trkpt><trkpt lat="41.100834" lon="14.3144201"><ele>139.0</ele><time>2026-04-22T08:24:04.198Z</time></trkpt><trkpt lat="41.1008211" lon="14.3145251"><ele>139.0</ele><time>2026-04-22T08:24:05.178Z</time></trkpt><trkpt lat="41.1008059" lon="14.3146322"><ele>139.0</ele><time>2026-04-22T08:24:06.16Z</time></trkpt><trkpt lat="41.1007884" lon="14.3147737"><ele>139.0</ele><time>2026-04-22T08:24:07.422Z</time></trkpt><trkpt lat="41.1007711" lon="14.3149712"><ele>139.0</ele><time>2026-04-22T08:24:09.211Z</time></trkpt><trkpt lat="41.1007621" lon="14.3150742"><ele>138.4</ele><time>2026-04-22T08:24:10.208Z</time></trkpt><trkpt lat="41.1007522" lon="14.3151801"><ele>137.8</ele><time>2026-04-22T08:24:11.218Z</time></trkpt><trkpt lat="41.1007418" lon="14.3152854"><ele>137.2</ele><time>2026-04-22T08:24:12.3Z</time></trkpt><trkpt lat="41.1007242" lon="14.315463"><ele>136.6</ele><time>2026-04-22T08:24:14.218Z</time></trkpt><trkpt lat="41.1007158" lon="14.3155528"><ele>136.0</ele><time>2026-04-22T08:24:15.214Z</time></trkpt><trkpt lat="41.1006979" lon="14.3157321"><ele>135.99999999999997</ele><time>2026-04-22T08:24:17.23Z</time></trkpt><trkpt lat="41.1006905" lon="14.3158177"><ele>136.0</ele><time>2026-04-22T08:24:18.204Z</time></trkpt><trkpt lat="41.1006813" lon="14.3159028"><ele>136.0</ele><time>2026-04-22T08:24:19.185Z</time></trkpt><trkpt lat="41.1006713" lon="14.3159988"><ele>136.0</ele><time>2026-04-22T08:24:20.189Z</time></trkpt><trkpt lat="41.1006573" lon="14.3160935"><ele>136.0</ele><time>2026-04-22T08:24:21.207Z</time></trkpt><trkpt lat="41.1006455" lon="14.3161905"><ele>135.99999999999997</ele><time>2026-04-22T08:24:22.222Z</time></trkpt><trkpt lat="41.1006351" lon="14.3162837"><ele>136.0</ele><time>2026-04-22T08:24:23.191Z</time></trkpt><trkpt lat="41.1006227" lon="14.3163742"><ele>135.83333333333334</ele><time>2026-04-22T08:24:24.183Z</time></trkpt><trkpt lat="41.1006131" lon="14.3164708"><ele>135.66666666666669</ele><time>2026-04-22T08:24:25.169Z</time></trkpt><trkpt lat="41.1006031" lon="14.3165669"><ele>135.5</ele><time>2026-04-22T08:24:26.226Z</time></trkpt><trkpt lat="41.1005928" lon="14.3166518"><ele>135.33333333333334</ele><time>2026-04-22T08:24:27.197Z</time></trkpt><trkpt lat="41.1005837" lon="14.3167397"><ele>135.16666666666666</ele><time>2026-04-22T08:24:28.203Z</time></trkpt><trkpt lat="41.1005658" lon="14.3169021"><ele>135.0</ele><time>2026-04-22T08:24:30.233Z</time></trkpt><trkpt lat="41.1005549" lon="14.3170294"><ele>135.0</ele><time>2026-04-22T08:24:32.214Z</time></trkpt><trkpt lat="41.100537" lon="14.3171692"><ele>135.0</ele><time>2026-04-22T08:24:34.204Z</time></trkpt><trkpt lat="41.1005272" lon="14.3173049"><ele>137.0</ele><time>2026-04-22T08:24:36.186Z</time></trkpt></trkseg><trkseg><trkpt lat="41.1005491" lon="14.3174886"><ele>137.0</ele><time>2026-04-22T08:37:51.246Z</time></trkpt><trkpt lat="41.1005752" lon="14.3173696"><ele>137.0</ele><time>2026-04-22T08:37:55.235Z</time></trkpt><trkpt lat="41.100572" lon="14.3172764"><ele>137.0</ele><time>2026-04-22T08:37:57.231Z</time></trkpt><trkpt lat="41.1005738" lon="14.3171479"><ele>137.0</ele><time>2026-04-22T08:37:59.234Z</time></trkpt><trkpt lat="41.1005809" lon="14.3170208"><ele>137.0</ele><time>2026-04-22T08:38:01.215Z</time></trkpt><trkpt lat="41.1006001" lon="14.3168618"><ele>136.83333333333331</ele><time>2026-04-22T08:38:03.236Z</time></trkpt><trkpt lat="41.1006228" lon="14.3167035"><ele>136.66666666666666</ele><time>2026-04-22T08:38:05.212Z</time></trkpt><trkpt lat="41.1006325" lon="14.3166133"><ele>136.5</ele><time>2026-04-22T08:38:06.245Z</time></trkpt><trkpt lat="41.1006451" lon="14.3165294"><ele>136.33333333333334</ele><time>2026-04-22T08:38:07.233Z</time></trkpt><trkpt lat="41.1006541" lon="14.3164323"><ele>136.16666666666669</ele><time>2026-04-22T08:38:08.338Z</time></trkpt><trkpt lat="41.1006655" lon="14.3162754"><ele>136.0</ele><time>2026-04-22T08:38:10.254Z</time></trkpt><trkpt lat="41.1006851" lon="14.3161256"><ele>136.0</ele><time>2026-04-22T08:38:12.24Z</time></trkpt><trkpt lat="41.1006953" lon="14.3159688"><ele>136.0</ele><time>2026-04-22T08:38:14.222Z</time></trkpt><trkpt lat="41.1007062" lon="14.3158042"><ele>136.0</ele><time>2026-04-22T08:38:16.23Z</time></trkpt><trkpt lat="41.1007149" lon="14.3157147"><ele>136.0</ele><time>2026-04-22T08:38:17.209Z</time></trkpt><trkpt lat="41.1007246" lon="14.3156128"><ele>136.0</ele><time>2026-04-22T08:38:18.236Z</time></trkpt><trkpt lat="41.1007345" lon="14.3155024"><ele>137.4</ele><time>2026-04-22T08:38:19.339Z</time></trkpt><trkpt lat="41.1007496" lon="14.3152795"><ele>138.8</ele><time>2026-04-22T08:38:21.222Z</time></trkpt><trkpt lat="41.1007598" lon="14.315158"><ele>140.20000000000002</ele><time>2026-04-22T08:38:22.225Z</time></trkpt><trkpt lat="41.1007719" lon="14.3150349"><ele>141.6</ele><time>2026-04-22T08:38:23.221Z</time></trkpt><trkpt lat="41.1007848" lon="14.3149149"><ele>143.0</ele><time>2026-04-22T08:38:24.229Z</time></trkpt><trkpt lat="41.1007964" lon="14.3148009"><ele>142.33333333333331</ele><time>2026-04-22T08:38:25.236Z</time></trkpt><trkpt lat="41.1008079" lon="14.31469"><ele>141.66666666666666</ele><time>2026-04-22T08:38:26.256Z</time></trkpt><trkpt lat="41.1008183" lon="14.3145875"><ele>141.0</ele><time>2026-04-22T08:38:27.244Z</time></trkpt><trkpt lat="41.1008268" lon="14.3144884"><ele>140.33333333333334</ele><time>2026-04-22T08:38:28.208Z</time></trkpt><trkpt lat="41.1008346" lon="14.3143856"><ele>139.66666666666669</ele><time>2026-04-22T08:38:29.255Z</time></trkpt><trkpt lat="41.1008408" lon="14.3142962"><ele>139.0</ele><time>2026-04-22T08:38:30.216Z</time></trkpt><trkpt lat="41.1008503" lon="14.3142062"><ele>139.0</ele><time>2026-04-22T08:38:31.23Z</time></trkpt><trkpt lat="41.100867" lon="14.3140721"><ele>139.0</ele><time>2026-04-22T08:38:33.21Z</time></trkpt><trkpt lat="41.1008542" lon="14.3139738"><ele>139.0</ele><time>2026-04-22T08:38:36.335Z</time></trkpt><trkpt lat="41.1007722" lon="14.3140156"><ele>139.0</ele><time>2026-04-22T08:38:41.236Z</time></trkpt><trkpt lat="41.100726" lon="14.3141002"><ele>139.0</ele><time>2026-04-22T08:38:43.241Z</time></trkpt><trkpt lat="41.1006726" lon="14.3142089"><ele>139.0</ele><time>2026-04-22T08:38:45.227Z</time></trkpt><trkpt lat="41.1006278" lon="14.3143481"><ele>137.66666666666669</ele><time>2026-04-22T08:38:47.219Z</time></trkpt><trkpt lat="41.1005971" lon="14.3144231"><ele>136.33333333333334</ele><time>2026-04-22T08:38:48.212Z</time></trkpt><trkpt lat="41.1005606" lon="14.3145009"><ele>135.0</ele><time>2026-04-22T08:38:49.218Z</time></trkpt><trkpt lat="41.1005199" lon="14.3145682"><ele>133.66666666666666</ele><time>2026-04-22T08:38:50.244Z</time></trkpt><trkpt lat="41.1004645" lon="14.3146822"><ele>132.33333333333331</ele><time>2026-04-22T08:38:52.217Z</time></trkpt><trkpt lat="41.1004091" lon="14.3147969"><ele>131.0</ele><time>2026-04-22T08:38:54.22Z</time></trkpt><trkpt lat="41.1003389" lon="14.3149322"><ele>131.0</ele><time>2026-04-22T08:38:56.209Z</time></trkpt><trkpt lat="41.1003056" lon="14.3150057"><ele>131.0</ele><time>2026-04-22T08:38:57.211Z</time></trkpt><trkpt lat="41.1002413" lon="14.3151531"><ele>131.0</ele><time>2026-04-22T08:38:59.206Z</time></trkpt><trkpt lat="41.1001731" lon="14.3153031"><ele>131.0</ele><time>2026-04-22T08:39:01.23Z</time></trkpt><trkpt lat="41.100133" lon="14.3153751"><ele>131.0</ele><time>2026-04-22T08:39:02.226Z</time></trkpt><trkpt lat="41.1000926" lon="14.3154437"><ele>131.0</ele><time>2026-04-22T08:39:03.201Z</time></trkpt><trkpt lat="41.1000534" lon="14.3155158"><ele>131.0</ele><time>2026-04-22T08:39:04.205Z</time></trkpt><trkpt lat="41.1000193" lon="14.3155867"><ele>131.0</ele><time>2026-04-22T08:39:05.174Z</time></trkpt><trkpt lat="41.0999568" lon="14.3157192"><ele>131.0</ele><time>2026-04-22T08:39:07.222Z</time></trkpt><trkpt lat="41.0999064" lon="14.3158272"><ele>131.0</ele><time>2026-04-22T08:39:09.216Z</time></trkpt><trkpt lat="41.0998692" lon="14.3159465"><ele>131.0</ele><time>2026-04-22T08:39:11.202Z</time></trkpt><trkpt lat="41.0998497" lon="14.3160855"><ele>130.16666666666666</ele><time>2026-04-22T08:39:13.195Z</time></trkpt><trkpt lat="41.0998318" lon="14.3162595"><ele>129.33333333333331</ele><time>2026-04-22T08:39:15.27Z</time></trkpt><trkpt lat="41.0998201" lon="14.3163498"><ele>128.5</ele><time>2026-04-22T08:39:16.223Z</time></trkpt><trkpt lat="41.0998118" lon="14.316445"><ele>127.66666666666666</ele><time>2026-04-22T08:39:17.225Z</time></trkpt><trkpt lat="41.0998007" lon="14.3165444"><ele>126.83333333333333</ele><time>2026-04-22T08:39:18.246Z</time></trkpt><trkpt lat="41.0997877" lon="14.3166629"><ele>126.0</ele><time>2026-04-22T08:39:19.356Z</time></trkpt><trkpt lat="41.0997602" lon="14.3168704"><ele>126.0</ele><time>2026-04-22T08:39:21.246Z</time></trkpt><trkpt lat="41.0997418" lon="14.3169859"><ele>126.0</ele><time>2026-04-22T08:39:22.236Z</time></trkpt><trkpt lat="41.0997277" lon="14.3171035"><ele>126.0</ele><time>2026-04-22T08:39:23.227Z</time></trkpt><trkpt lat="41.0997122" lon="14.3172239"><ele>126.0</ele><time>2026-04-22T08:39:24.197Z</time></trkpt><trkpt lat="41.0996969" lon="14.3173515"><ele>126.0</ele><time>2026-04-22T08:39:25.208Z</time></trkpt><trkpt lat="41.0996817" lon="14.3174794"><ele>125.8</ele><time>2026-04-22T08:39:26.204Z</time></trkpt><trkpt lat="41.0996652" lon="14.3176123"><ele>125.6</ele><time>2026-04-22T08:39:27.255Z</time></trkpt><trkpt lat="41.0996503" lon="14.317736"><ele>125.4</ele><time>2026-04-22T08:39:28.208Z</time></trkpt><trkpt lat="41.0996345" lon="14.3178625"><ele>125.2</ele><time>2026-04-22T08:39:29.175Z</time></trkpt><trkpt lat="41.0996194" lon="14.3179989"><ele>125.0</ele><time>2026-04-22T08:39:30.217Z</time></trkpt><trkpt lat="41.0996039" lon="14.3181265"><ele>125.33333333333333</ele><time>2026-04-22T08:39:31.203Z</time></trkpt><trkpt lat="41.0995881" lon="14.3182502"><ele>125.66666666666666</ele><time>2026-04-22T08:39:32.22Z</time></trkpt><trkpt lat="41.0995752" lon="14.3183585"><ele>126.0</ele><time>2026-04-22T08:39:33.185Z</time></trkpt><trkpt lat="41.0995614" lon="14.3184698"><ele>126.33333333333334</ele><time>2026-04-22T08:39:34.205Z</time></trkpt><trkpt lat="41.0995469" lon="14.3185788"><ele>126.66666666666667</ele><time>2026-04-22T08:39:35.206Z</time></trkpt><trkpt lat="41.0995329" lon="14.3186891"><ele>127.0</ele><time>2026-04-22T08:39:36.236Z</time></trkpt><trkpt lat="41.0995207" lon="14.3187911"><ele>127.00000000000001</ele><time>2026-04-22T08:39:37.211Z</time></trkpt><trkpt lat="41.0995063" lon="14.3188947"><ele>127.0</ele><time>2026-04-22T08:39:38.21Z</time></trkpt><trkpt lat="41.0994936" lon="14.319009"><ele>127.0</ele><time>2026-04-22T08:39:39.237Z</time></trkpt><trkpt lat="41.0994793" lon="14.3191185"><ele>127.0</ele><time>2026-04-22T08:39:40.183Z</time></trkpt><trkpt lat="41.0994628" lon="14.3192346"><ele>127.00000000000001</ele><time>2026-04-22T08:39:41.198Z</time></trkpt><trkpt lat="41.0994471" lon="14.3193543"><ele>127.0</ele><time>2026-04-22T08:39:42.23Z</time></trkpt><trkpt lat="41.0994362" lon="14.3194743"><ele>126.6</ele><time>2026-04-22T08:39:43.214Z</time></trkpt><trkpt lat="41.0994228" lon="14.3195973"><ele>126.19999999999999</ele><time>2026-04-22T08:39:44.22Z</time></trkpt><trkpt lat="41.0994071" lon="14.3197227"><ele>125.8</ele><time>2026-04-22T08:39:45.243Z</time></trkpt><trkpt lat="41.0993913" lon="14.3198422"><ele>125.4</ele><time>2026-04-22T08:39:46.235Z</time></trkpt><trkpt lat="41.0993769" lon="14.3199596"><ele>125.0</ele><time>2026-04-22T08:39:47.243Z</time></trkpt><trkpt lat="41.0993629" lon="14.320071"><ele>125.0</ele><time>2026-04-22T08:39:48.233Z</time></trkpt><trkpt lat="41.0993537" lon="14.3201913"><ele>125.0</ele><time>2026-04-22T08:39:49.327Z</time></trkpt><trkpt lat="41.0993849" lon="14.3204054"><ele>125.0</ele><time>2026-04-22T08:39:51.232Z</time></trkpt><trkpt lat="41.0994204" lon="14.3205117"><ele>125.0</ele><time>2026-04-22T08:39:52.233Z</time></trkpt><trkpt lat="41.0994697" lon="14.320617"><ele>125.0</ele><time>2026-04-22T08:39:53.231Z</time></trkpt><trkpt lat="41.0995278" lon="14.3207324"><ele>124.99999999999999</ele><time>2026-04-22T08:39:54.23Z</time></trkpt><trkpt lat="41.0995822" lon="14.3208458"><ele>125.0</ele><time>2026-04-22T08:39:55.23Z</time></trkpt><trkpt lat="41.0996279" lon="14.3209423"><ele>125.0</ele><time>2026-04-22T08:39:56.232Z</time></trkpt><trkpt lat="41.0996688" lon="14.3210246"><ele>125.0</ele><time>2026-04-22T08:39:57.227Z</time></trkpt><trkpt lat="41.0997186" lon="14.3211357"><ele>124.99999999999999</ele><time>2026-04-22T08:39:59.206Z</time></trkpt><trkpt lat="41.0997437" lon="14.3212403"><ele>125.0</ele><time>2026-04-22T08:40:01.308Z</time></trkpt><trkpt lat="41.099766" lon="14.3213446"><ele>125.33333333333333</ele><time>2026-04-22T08:40:03.243Z</time></trkpt><trkpt lat="41.0998034" lon="14.3214188"><ele>125.66666666666666</ele><time>2026-04-22T08:40:04.278Z</time></trkpt><trkpt lat="41.0998538" lon="14.3215013"><ele>126.0</ele><time>2026-04-22T08:40:05.248Z</time></trkpt><trkpt lat="41.0999008" lon="14.3215966"><ele>126.33333333333334</ele><time>2026-04-22T08:40:06.235Z</time></trkpt><trkpt lat="41.0999483" lon="14.3217044"><ele>126.66666666666667</ele><time>2026-04-22T08:40:07.226Z</time></trkpt><trkpt lat="41.1000002" lon="14.3218369"><ele>127.0</ele><time>2026-04-22T08:40:08.32Z</time></trkpt><trkpt lat="41.1000945" lon="14.3220872"><ele>128.5</ele><time>2026-04-22T08:40:10.249Z</time></trkpt><trkpt lat="41.1001459" lon="14.3222218"><ele>130.0</ele><time>2026-04-22T08:40:11.239Z</time></trkpt><trkpt lat="41.1001941" lon="14.3223482"><ele>131.5</ele><time>2026-04-22T08:40:12.224Z</time></trkpt><trkpt lat="41.1002467" lon="14.3224855"><ele>133.0</ele><time>2026-04-22T08:40:13.215Z</time></trkpt><trkpt lat="41.1003012" lon="14.3226285"><ele>133.25</ele><time>2026-04-22T08:40:14.235Z</time></trkpt><trkpt lat="41.1003568" lon="14.3227732"><ele>133.5</ele><time>2026-04-22T08:40:15.23Z</time></trkpt><trkpt lat="41.1004134" lon="14.3229243"><ele>133.75</ele><time>2026-04-22T08:40:16.245Z</time></trkpt><trkpt lat="41.1004712" lon="14.3230734"><ele>134.0</ele><time>2026-04-22T08:40:17.232Z</time></trkpt><trkpt lat="41.1005258" lon="14.3232034"><ele>134.4</ele><time>2026-04-22T08:40:18.229Z</time></trkpt><trkpt lat="41.1005766" lon="14.323328"><ele>134.8</ele><time>2026-04-22T08:40:19.221Z</time></trkpt><trkpt lat="41.1006228" lon="14.32346"><ele>135.2</ele><time>2026-04-22T08:40:20.223Z</time></trkpt><trkpt lat="41.1006703" lon="14.3235915"><ele>135.6</ele><time>2026-04-22T08:40:21.24Z</time></trkpt><trkpt lat="41.100719" lon="14.3237077"><ele>136.0</ele><time>2026-04-22T08:40:22.225Z</time></trkpt><trkpt lat="41.1007707" lon="14.3238059"><ele>137.0</ele><time>2026-04-22T08:40:23.228Z</time></trkpt><trkpt lat="41.1008235" lon="14.3238853"><ele>138.0</ele><time>2026-04-22T08:40:24.214Z</time></trkpt><trkpt lat="41.1009263" lon="14.3239409"><ele>139.0</ele><time>2026-04-22T08:40:25.974Z</time></trkpt><trkpt lat="41.1010071" lon="14.3239629"><ele>140.0</ele><time>2026-04-22T08:40:26.974Z</time></trkpt><trkpt lat="41.1010885" lon="14.3239613"><ele>141.0</ele><time>2026-04-22T08:40:27.974Z</time></trkpt><trkpt lat="41.1011576" lon="14.3239323"><ele>142.0</ele><time>2026-04-22T08:40:28.975Z</time></trkpt><trkpt lat="41.1012241" lon="14.3238803"><ele>142.0</ele><time>2026-04-22T08:40:30.213Z</time></trkpt><trkpt lat="41.1012813" lon="14.3238055"><ele>142.0</ele><time>2026-04-22T08:40:31.206Z</time></trkpt><trkpt lat="41.1013194" lon="14.3236975"><ele>142.0</ele><time>2026-04-22T08:40:32.247Z</time></trkpt><trkpt lat="41.1013381" lon="14.3235736"><ele>142.0</ele><time>2026-04-22T08:40:33.225Z</time></trkpt><trkpt lat="41.1013455" lon="14.3234389"><ele>142.0</ele><time>2026-04-22T08:40:34.202Z</time></trkpt><trkpt lat="41.1013535" lon="14.3232895"><ele>142.0</ele><time>2026-04-22T08:40:35.239Z</time></trkpt><trkpt lat="41.1013588" lon="14.3231478"><ele>142.0</ele><time>2026-04-22T08:40:36.216Z</time></trkpt><trkpt lat="41.1013673" lon="14.3230124"><ele>142.0</ele><time>2026-04-22T08:40:37.224Z</time></trkpt><trkpt lat="41.1013775" lon="14.322909"><ele>142.0</ele><time>2026-04-22T08:40:38.232Z</time></trkpt><trkpt lat="41.1013906" lon="14.322806"><ele>142.0</ele><time>2026-04-22T08:40:40.217Z</time></trkpt><trkpt lat="41.1014471" lon="14.3227636"><ele>142.0</ele><time>2026-04-22T08:40:42.371Z</time></trkpt><trkpt lat="41.101547" lon="14.3228664"><ele>144.2</ele><time>2026-04-22T08:40:45.448Z</time></trkpt><trkpt lat="41.1016532" lon="14.3230124"><ele>146.39999999999998</ele><time>2026-04-22T08:40:47.258Z</time></trkpt><trkpt lat="41.101712" lon="14.323102"><ele>148.60000000000002</ele><time>2026-04-22T08:40:48.259Z</time></trkpt><trkpt lat="41.1017754" lon="14.3231926"><ele>150.8</ele><time>2026-04-22T08:40:49.313Z</time></trkpt><trkpt lat="41.1018249" lon="14.32326"><ele>153.0</ele><time>2026-04-22T08:40:50.234Z</time></trkpt><trkpt lat="41.1018745" lon="14.323335"><ele>153.0</ele><time>2026-04-22T08:40:51.233Z</time></trkpt><trkpt lat="41.1019162" lon="14.3234166"><ele>153.0</ele><time>2026-04-22T08:40:52.212Z</time></trkpt><trkpt lat="41.101956" lon="14.323505"><ele>153.0</ele><time>2026-04-22T08:40:53.238Z</time></trkpt><trkpt lat="41.1020007" lon="14.3235882"><ele>153.0</ele><time>2026-04-22T08:40:54.215Z</time></trkpt><trkpt lat="41.1020503" lon="14.3236783"><ele>153.0</ele><time>2026-04-22T08:40:55.233Z</time></trkpt><trkpt lat="41.1020941" lon="14.3237561"><ele>153.0</ele><time>2026-04-22T08:40:56.234Z</time></trkpt><trkpt lat="41.1021521" lon="14.3238418"><ele>152.4</ele><time>2026-04-22T08:40:57.236Z</time></trkpt><trkpt lat="41.1022246" lon="14.3239349"><ele>151.8</ele><time>2026-04-22T08:40:58.35Z</time></trkpt><trkpt lat="41.1022885" lon="14.3240187"><ele>151.2</ele><time>2026-04-22T08:40:59.263Z</time></trkpt><trkpt lat="41.1023559" lon="14.3241029"><ele>150.6</ele><time>2026-04-22T08:41:00.22Z</time></trkpt><trkpt lat="41.1024294" lon="14.3241893"><ele>150.0</ele><time>2026-04-22T08:41:01.222Z</time></trkpt><trkpt lat="41.1025041" lon="14.3242744"><ele>153.0</ele><time>2026-04-22T08:41:02.212Z</time></trkpt><trkpt lat="41.1025821" lon="14.3243589"><ele>156.0</ele><time>2026-04-22T08:41:03.219Z</time></trkpt><trkpt lat="41.102661" lon="14.3244392"><ele>159.0</ele><time>2026-04-22T08:41:04.183Z</time></trkpt><trkpt lat="41.1027498" lon="14.3245262"><ele>162.0</ele><time>2026-04-22T08:41:05.228Z</time></trkpt><trkpt lat="41.1028371" lon="14.3246171"><ele>165.0</ele><time>2026-04-22T08:41:06.207Z</time></trkpt><trkpt lat="41.1029351" lon="14.3247162"><ele>164.4</ele><time>2026-04-22T08:41:07.232Z</time></trkpt><trkpt lat="41.103025" lon="14.3248031"><ele>163.8</ele><time>2026-04-22T08:41:08.181Z</time></trkpt><trkpt lat="41.1031323" lon="14.3249034"><ele>163.2</ele><time>2026-04-22T08:41:09.302Z</time></trkpt><trkpt lat="41.1032148" lon="14.3249827"><ele>162.6</ele><time>2026-04-22T08:41:10.205Z</time></trkpt><trkpt lat="41.1032986" lon="14.3250635"><ele>162.0</ele><time>2026-04-22T08:41:11.191Z</time></trkpt><trkpt lat="41.1033782" lon="14.3251449"><ele>164.66666666666666</ele><time>2026-04-22T08:41:12.172Z</time></trkpt><trkpt lat="41.1034487" lon="14.3252248"><ele>167.33333333333334</ele><time>2026-04-22T08:41:13.197Z</time></trkpt><trkpt lat="41.1035093" lon="14.3253074"><ele>170.0</ele><time>2026-04-22T08:41:14.19Z</time></trkpt><trkpt lat="41.103567" lon="14.3254033"><ele>172.66666666666669</ele><time>2026-04-22T08:41:15.218Z</time></trkpt><trkpt lat="41.1035934" lon="14.3254837"><ele>175.33333333333334</ele><time>2026-04-22T08:41:16.203Z</time></trkpt><trkpt lat="41.1036196" lon="14.3255741"><ele>178.0</ele><time>2026-04-22T08:41:17.18Z</time></trkpt><trkpt lat="41.1036479" lon="14.3256533"><ele>177.99999999999997</ele><time>2026-04-22T08:41:18.18Z</time></trkpt><trkpt lat="41.103682" lon="14.3257298"><ele>178.0</ele><time>2026-04-22T08:41:19.19Z</time></trkpt><trkpt lat="41.1037213" lon="14.3258011"><ele>178.0</ele><time>2026-04-22T08:41:20.212Z</time></trkpt><trkpt lat="41.1037641" lon="14.3258769"><ele>178.0</ele><time>2026-04-22T08:41:21.228Z</time></trkpt><trkpt lat="41.1038048" lon="14.325945"><ele>178.0</ele><time>2026-04-22T08:41:22.186Z</time></trkpt><trkpt lat="41.1038573" lon="14.3260145"><ele>177.99999999999997</ele><time>2026-04-22T08:41:23.199Z</time></trkpt><trkpt lat="41.1039134" lon="14.3260815"><ele>178.0</ele><time>2026-04-22T08:41:24.22Z</time></trkpt><trkpt lat="41.1039696" lon="14.3261556"><ele>178.0</ele><time>2026-04-22T08:41:25.197Z</time></trkpt><trkpt lat="41.1040361" lon="14.3262447"><ele>178.0</ele><time>2026-04-22T08:41:26.212Z</time></trkpt><trkpt lat="41.1040926" lon="14.3263236"><ele>178.0</ele><time>2026-04-22T08:41:27.176Z</time></trkpt><trkpt lat="41.1041457" lon="14.3263931"><ele>178.0</ele><time>2026-04-22T08:41:28.191Z</time></trkpt><trkpt lat="41.1042161" lon="14.3264729"><ele>178.0</ele><time>2026-04-22T08:41:30.292Z</time></trkpt><trkpt lat="41.1042771" lon="14.3265213"><ele>178.0</ele><time>2026-04-22T08:41:38.225Z</time></trkpt><trkpt lat="41.1041832" lon="14.3264988"><ele>178.0</ele><time>2026-04-22T08:45:24.377Z</time></trkpt><trkpt lat="41.1041256" lon="14.3264121"><ele>178.0</ele><time>2026-04-22T08:45:26.289Z</time></trkpt><trkpt lat="41.1040521" lon="14.326308"><ele>178.0</ele><time>2026-04-22T08:45:28.273Z</time></trkpt><trkpt lat="41.1039987" lon="14.3262423"><ele>178.0</ele><time>2026-04-22T08:45:29.276Z</time></trkpt><trkpt lat="41.1039385" lon="14.3261787"><ele>178.0</ele><time>2026-04-22T08:45:30.249Z</time></trkpt><trkpt lat="41.1038784" lon="14.3261171"><ele>178.0</ele><time>2026-04-22T08:45:31.263Z</time></trkpt><trkpt lat="41.103819" lon="14.3260473"><ele>178.0</ele><time>2026-04-22T08:45:32.269Z</time></trkpt><trkpt lat="41.1037594" lon="14.3259748"><ele>178.0</ele><time>2026-04-22T08:45:33.258Z</time></trkpt><trkpt lat="41.1037059" lon="14.3258929"><ele>178.0</ele><time>2026-04-22T08:45:34.283Z</time></trkpt><trkpt lat="41.1036623" lon="14.3258081"><ele>178.0</ele><time>2026-04-22T08:45:35.285Z</time></trkpt><trkpt lat="41.1036211" lon="14.3257263"><ele>178.0</ele><time>2026-04-22T08:45:36.271Z</time></trkpt><trkpt lat="41.103579" lon="14.3256201"><ele>178.0</ele><time>2026-04-22T08:45:37.365Z</time></trkpt><trkpt lat="41.1035516" lon="14.3255296"><ele>179.0</ele><time>2026-04-22T08:45:38.277Z</time></trkpt><trkpt lat="41.1035327" lon="14.325433"><ele>180.0</ele><time>2026-04-22T08:45:39.286Z</time></trkpt><trkpt lat="41.1035063" lon="14.3253498"><ele>181.0</ele><time>2026-04-22T08:45:40.267Z</time></trkpt><trkpt lat="41.10346" lon="14.3252639"><ele>182.0</ele><time>2026-04-22T08:45:41.286Z</time></trkpt><trkpt lat="41.1033995" lon="14.3251868"><ele>183.0</ele><time>2026-04-22T08:45:42.263Z</time></trkpt><trkpt lat="41.1033273" lon="14.3251173"><ele>184.0</ele><time>2026-04-22T08:45:43.246Z</time></trkpt><trkpt lat="41.1032478" lon="14.325047"><ele>180.2</ele><time>2026-04-22T08:45:44.268Z</time></trkpt><trkpt lat="41.1031695" lon="14.3249739"><ele>176.39999999999998</ele><time>2026-04-22T08:45:45.28Z</time></trkpt><trkpt lat="41.1030904" lon="14.3249012"><ele>172.6</ele><time>2026-04-22T08:45:46.285Z</time></trkpt><trkpt lat="41.1030126" lon="14.3248291"><ele>168.8</ele><time>2026-04-22T08:45:47.279Z</time></trkpt><trkpt lat="41.102935" lon="14.3247529"><ele>165.0</ele><time>2026-04-22T08:45:48.283Z</time></trkpt><trkpt lat="41.1028592" lon="14.3246728"><ele>165.0</ele><time>2026-04-22T08:45:49.275Z</time></trkpt><trkpt lat="41.1027812" lon="14.3245923"><ele>165.0</ele><time>2026-04-22T08:45:50.267Z</time></trkpt><trkpt lat="41.1026955" lon="14.3244986"><ele>165.0</ele><time>2026-04-22T08:45:51.299Z</time></trkpt><trkpt lat="41.1026076" lon="14.324406"><ele>165.0</ele><time>2026-04-22T08:45:52.285Z</time></trkpt><trkpt lat="41.1025252" lon="14.3243193"><ele>165.0</ele><time>2026-04-22T08:45:53.315Z</time></trkpt><trkpt lat="41.1024503" lon="14.3242391"><ele>163.0</ele><time>2026-04-22T08:45:54.306Z</time></trkpt><trkpt lat="41.1023747" lon="14.3241536"><ele>161.0</ele><time>2026-04-22T08:45:55.285Z</time></trkpt><trkpt lat="41.1023084" lon="14.324069"><ele>159.0</ele><time>2026-04-22T08:45:56.306Z</time></trkpt><trkpt lat="41.102258" lon="14.3239871"><ele>157.0</ele><time>2026-04-22T08:45:57.285Z</time></trkpt><trkpt lat="41.1022119" lon="14.3239189"><ele>155.0</ele><time>2026-04-22T08:45:58.3Z</time></trkpt><trkpt lat="41.1021572" lon="14.3238551"><ele>153.0</ele><time>2026-04-22T08:45:59.291Z</time></trkpt><trkpt lat="41.1021093" lon="14.3237739"><ele>153.0</ele><time>2026-04-22T08:46:00.353Z</time></trkpt><trkpt lat="41.1020598" lon="14.3236953"><ele>153.0</ele><time>2026-04-22T08:46:01.291Z</time></trkpt><trkpt lat="41.1020131" lon="14.3236065"><ele>153.0</ele><time>2026-04-22T08:46:02.278Z</time></trkpt><trkpt lat="41.1019667" lon="14.3235126"><ele>153.0</ele><time>2026-04-22T08:46:03.295Z</time></trkpt><trkpt lat="41.1019186" lon="14.323417"><ele>153.0</ele><time>2026-04-22T08:46:04.314Z</time></trkpt><trkpt lat="41.1018749" lon="14.3233329"><ele>153.0</ele><time>2026-04-22T08:46:05.269Z</time></trkpt><trkpt lat="41.1018261" lon="14.3232484"><ele>153.0</ele><time>2026-04-22T08:46:06.269Z</time></trkpt><trkpt lat="41.1017722" lon="14.3231634"><ele>153.0</ele><time>2026-04-22T08:46:07.272Z</time></trkpt><trkpt lat="41.1017129" lon="14.3230815"><ele>153.0</ele><time>2026-04-22T08:46:08.269Z</time></trkpt><trkpt lat="41.1016522" lon="14.3230009"><ele>153.0</ele><time>2026-04-22T08:46:09.268Z</time></trkpt><trkpt lat="41.1015985" lon="14.3229274"><ele>153.0</ele><time>2026-04-22T08:46:10.261Z</time></trkpt><trkpt lat="41.1015536" lon="14.3228681"><ele>153.0</ele><time>2026-04-22T08:46:11.268Z</time></trkpt><trkpt lat="41.1014739" lon="14.3227757"><ele>152.4</ele><time>2026-04-22T08:46:13.263Z</time></trkpt><trkpt lat="41.1014069" lon="14.3226866"><ele>151.8</ele><time>2026-04-22T08:46:16.289Z</time></trkpt><trkpt lat="41.1013993" lon="14.3225308"><ele>151.2</ele><time>2026-04-22T08:46:18.268Z</time></trkpt><trkpt lat="41.1013785" lon="14.3224069"><ele>150.6</ele><time>2026-04-22T08:46:19.29Z</time></trkpt><trkpt lat="41.101336" lon="14.3222774"><ele>150.0</ele><time>2026-04-22T08:46:20.245Z</time></trkpt><trkpt lat="41.1012743" lon="14.322129"><ele>150.0</ele><time>2026-04-22T08:46:21.265Z</time></trkpt><trkpt lat="41.1012144" lon="14.3219851"><ele>150.0</ele><time>2026-04-22T08:46:22.264Z</time></trkpt><trkpt lat="41.1011511" lon="14.3218332"><ele>150.0</ele><time>2026-04-22T08:46:23.252Z</time></trkpt><trkpt lat="41.101072" lon="14.3216688"><ele>150.0</ele><time>2026-04-22T08:46:24.313Z</time></trkpt><trkpt lat="41.1010027" lon="14.3215179"><ele>152.75</ele><time>2026-04-22T08:46:25.278Z</time></trkpt><trkpt lat="41.100934" lon="14.3213602"><ele>155.5</ele><time>2026-04-22T08:46:26.293Z</time></trkpt><trkpt lat="41.1008636" lon="14.3212127"><ele>158.25</ele><time>2026-04-22T08:46:27.279Z</time></trkpt><trkpt lat="41.1007907" lon="14.3210606"><ele>161.0</ele><time>2026-04-22T08:46:28.27Z</time></trkpt><trkpt lat="41.1007183" lon="14.3209058"><ele>156.8</ele><time>2026-04-22T08:46:29.294Z</time></trkpt><trkpt lat="41.1006614" lon="14.3207809"><ele>152.60000000000002</ele><time>2026-04-22T08:46:30.278Z</time></trkpt><trkpt lat="41.1006217" lon="14.3206661"><ele>148.4</ele><time>2026-04-22T08:46:31.29Z</time></trkpt><trkpt lat="41.1005869" lon="14.3205534"><ele>144.2</ele><time>2026-04-22T08:46:32.273Z</time></trkpt><trkpt lat="41.1005685" lon="14.3204378"><ele>140.0</ele><time>2026-04-22T08:46:33.277Z</time></trkpt><trkpt lat="41.1005883" lon="14.3203328"><ele>140.0</ele><time>2026-04-22T08:46:34.27Z</time></trkpt><trkpt lat="41.1006372" lon="14.3202378"><ele>140.0</ele><time>2026-04-22T08:46:35.278Z</time></trkpt><trkpt lat="41.1007009" lon="14.3201969"><ele>140.0</ele><time>2026-04-22T08:46:36.278Z</time></trkpt><trkpt lat="41.1007773" lon="14.3201994"><ele>140.0</ele><time>2026-04-22T08:46:37.261Z</time></trkpt><trkpt lat="41.100862" lon="14.3202623"><ele>140.0</ele><time>2026-04-22T08:46:38.335Z</time></trkpt><trkpt lat="41.1009205" lon="14.3203584"><ele>140.0</ele><time>2026-04-22T08:46:39.262Z</time></trkpt><trkpt lat="41.1009654" lon="14.3204984"><ele>145.25</ele><time>2026-04-22T08:46:40.261Z</time></trkpt><trkpt lat="41.1010129" lon="14.3206585"><ele>150.5</ele><time>2026-04-22T08:46:41.261Z</time></trkpt><trkpt lat="41.1010516" lon="14.320818"><ele>155.75</ele><time>2026-04-22T08:46:42.27Z</time></trkpt><trkpt lat="41.1010954" lon="14.3209648"><ele>161.0</ele><time>2026-04-22T08:46:43.249Z</time></trkpt><trkpt lat="41.1011671" lon="14.3211253"><ele>161.0</ele><time>2026-04-22T08:46:44.269Z</time></trkpt><trkpt lat="41.1012555" lon="14.3212774"><ele>161.0</ele><time>2026-04-22T08:46:45.255Z</time></trkpt><trkpt lat="41.1013593" lon="14.3214074"><ele>161.0</ele><time>2026-04-22T08:46:46.281Z</time></trkpt><trkpt lat="41.1014686" lon="14.3215117"><ele>161.0</ele><time>2026-04-22T08:46:47.266Z</time></trkpt><trkpt lat="41.1015787" lon="14.3215966"><ele>163.5</ele><time>2026-04-22T08:46:48.269Z</time></trkpt><trkpt lat="41.1016991" lon="14.3216698"><ele>166.0</ele><time>2026-04-22T08:46:49.277Z</time></trkpt><trkpt lat="41.1018344" lon="14.3217432"><ele>168.5</ele><time>2026-04-22T08:46:50.269Z</time></trkpt><trkpt lat="41.1019712" lon="14.3218335"><ele>171.0</ele><time>2026-04-22T08:46:51.268Z</time></trkpt><trkpt lat="41.1021036" lon="14.3219353"><ele>171.0</ele><time>2026-04-22T08:46:52.259Z</time></trkpt><trkpt lat="41.1022341" lon="14.3220396"><ele>171.0</ele><time>2026-04-22T08:46:53.347Z</time></trkpt><trkpt lat="41.1023316" lon="14.3221243"><ele>171.0</ele><time>2026-04-22T08:46:54.266Z</time></trkpt><trkpt lat="41.1024396" lon="14.3222383"><ele>171.0</ele><time>2026-04-22T08:46:55.266Z</time></trkpt><trkpt lat="41.1025444" lon="14.3223752"><ele>174.66666666666666</ele><time>2026-04-22T08:46:56.269Z</time></trkpt><trkpt lat="41.1026484" lon="14.3225277"><ele>178.33333333333331</ele><time>2026-04-22T08:46:57.25Z</time></trkpt><trkpt lat="41.102757" lon="14.3226814"><ele>182.0</ele><time>2026-04-22T08:46:58.285Z</time></trkpt><trkpt lat="41.1028786" lon="14.3228304"><ele>182.0</ele><time>2026-04-22T08:46:59.293Z</time></trkpt><trkpt lat="41.1030132" lon="14.3229747"><ele>182.0</ele><time>2026-04-22T08:47:00.285Z</time></trkpt><trkpt lat="41.1031585" lon="14.3231179"><ele>182.0</ele><time>2026-04-22T08:47:01.332Z</time></trkpt><trkpt lat="41.1032784" lon="14.3232332"><ele>184.25</ele><time>2026-04-22T08:47:02.256Z</time></trkpt><trkpt lat="41.1034038" lon="14.3233566"><ele>186.5</ele><time>2026-04-22T08:47:03.261Z</time></trkpt><trkpt lat="41.1035209" lon="14.3234766"><ele>188.75</ele><time>2026-04-22T08:47:04.366Z</time></trkpt><trkpt lat="41.1036013" lon="14.3235666"><ele>191.0</ele><time>2026-04-22T08:47:05.271Z</time></trkpt><trkpt lat="41.1036841" lon="14.3236859"><ele>191.0</ele><time>2026-04-22T08:47:06.292Z</time></trkpt><trkpt lat="41.1037454" lon="14.3238261"><ele>191.0</ele><time>2026-04-22T08:47:07.264Z</time></trkpt><trkpt lat="41.1037923" lon="14.3239816"><ele>191.0</ele><time>2026-04-22T08:47:08.354Z</time></trkpt><trkpt lat="41.1038039" lon="14.324114"><ele>191.0</ele><time>2026-04-22T08:47:09.286Z</time></trkpt><trkpt lat="41.1037942" lon="14.324277"><ele>189.75</ele><time>2026-04-22T08:47:10.264Z</time></trkpt><trkpt lat="41.1037753" lon="14.3244582"><ele>188.5</ele><time>2026-04-22T08:47:11.277Z</time></trkpt><trkpt lat="41.1037704" lon="14.3246504"><ele>187.25</ele><time>2026-04-22T08:47:12.281Z</time></trkpt><trkpt lat="41.103777" lon="14.3248484"><ele>186.0</ele><time>2026-04-22T08:47:13.276Z</time></trkpt><trkpt lat="41.1037922" lon="14.3250252"><ele>185.60000000000002</ele><time>2026-04-22T08:47:14.262Z</time></trkpt><trkpt lat="41.1038119" lon="14.3251742"><ele>185.2</ele><time>2026-04-22T08:47:15.272Z</time></trkpt><trkpt lat="41.1038387" lon="14.3252964"><ele>184.8</ele><time>2026-04-22T08:47:16.271Z</time></trkpt><trkpt lat="41.1038924" lon="14.3254063"><ele>184.39999999999998</ele><time>2026-04-22T08:47:17.295Z</time></trkpt><trkpt lat="41.1039783" lon="14.3254932"><ele>184.0</ele><time>2026-04-22T08:47:18.291Z</time></trkpt><trkpt lat="41.1040873" lon="14.3255954"><ele>192.0</ele><time>2026-04-22T08:47:19.269Z</time></trkpt><trkpt lat="41.1042035" lon="14.325733"><ele>200.0</ele><time>2026-04-22T08:47:20.321Z</time></trkpt><trkpt lat="41.1043139" lon="14.3258966"><ele>208.0</ele><time>2026-04-22T08:47:21.294Z</time></trkpt><trkpt lat="41.1044411" lon="14.326068"><ele>208.0</ele><time>2026-04-22T08:47:22.293Z</time></trkpt><trkpt lat="41.1045793" lon="14.3262383"><ele>208.0</ele><time>2026-04-22T08:47:23.352Z</time></trkpt><trkpt lat="41.1046962" lon="14.3263771"><ele>208.0</ele><time>2026-04-22T08:47:24.268Z</time></trkpt><trkpt lat="41.1048242" lon="14.3265047"><ele>211.33333333333331</ele><time>2026-04-22T08:47:25.287Z</time></trkpt><trkpt lat="41.1049575" lon="14.3266197"><ele>214.66666666666669</ele><time>2026-04-22T08:47:26.29Z</time></trkpt><trkpt lat="41.1051202" lon="14.3267133"><ele>218.0</ele><time>2026-04-22T08:47:27.319Z</time></trkpt><trkpt lat="41.1052842" lon="14.3267895"><ele>218.0</ele><time>2026-04-22T08:47:28.29Z</time></trkpt><trkpt lat="41.1054589" lon="14.3268625"><ele>218.0</ele><time>2026-04-22T08:47:29.281Z</time></trkpt><trkpt lat="41.1056392" lon="14.326934"><ele>218.0</ele><time>2026-04-22T08:47:30.278Z</time></trkpt><trkpt lat="41.1058229" lon="14.3270077"><ele>222.66666666666669</ele><time>2026-04-22T08:47:31.282Z</time></trkpt><trkpt lat="41.1059898" lon="14.3270769"><ele>227.33333333333331</ele><time>2026-04-22T08:47:32.262Z</time></trkpt><trkpt lat="41.1061403" lon="14.3271379"><ele>232.0</ele><time>2026-04-22T08:47:33.265Z</time></trkpt><trkpt lat="41.1062761" lon="14.3271849"><ele>232.0</ele><time>2026-04-22T08:47:34.289Z</time></trkpt><trkpt lat="41.1063901" lon="14.3272241"><ele>232.0</ele><time>2026-04-22T08:47:35.26Z</time></trkpt><trkpt lat="41.1065041" lon="14.3272552"><ele>232.0</ele><time>2026-04-22T08:47:36.305Z</time></trkpt><trkpt lat="41.10659" lon="14.3272793"><ele>232.0</ele><time>2026-04-22T08:47:37.253Z</time></trkpt><trkpt lat="41.1066772" lon="14.3272959"><ele>232.0</ele><time>2026-04-22T08:47:38.285Z</time></trkpt><trkpt lat="41.1067642" lon="14.3273161"><ele>233.39999999999998</ele><time>2026-04-22T08:47:39.318Z</time></trkpt><trkpt lat="41.1068503" lon="14.3273485"><ele>234.79999999999998</ele><time>2026-04-22T08:47:40.288Z</time></trkpt><trkpt lat="41.1069269" lon="14.3274005"><ele>236.2</ele><time>2026-04-22T08:47:41.298Z</time></trkpt><trkpt lat="41.1070075" lon="14.327497"><ele>237.6</ele><time>2026-04-22T08:47:42.352Z</time></trkpt><trkpt lat="41.1070769" lon="14.3276071"><ele>239.0</ele><time>2026-04-22T08:47:43.287Z</time></trkpt><trkpt lat="41.1071639" lon="14.3277719"><ele>239.0</ele><time>2026-04-22T08:47:44.269Z</time></trkpt><trkpt lat="41.1072656" lon="14.3279451"><ele>239.0</ele><time>2026-04-22T08:47:45.283Z</time></trkpt><trkpt lat="41.1073551" lon="14.3280973"><ele>239.0</ele><time>2026-04-22T08:47:46.276Z</time></trkpt><trkpt lat="41.1074225" lon="14.3282381"><ele>239.0</ele><time>2026-04-22T08:47:47.306Z</time></trkpt><trkpt lat="41.1074828" lon="14.3283659"><ele>234.66666666666669</ele><time>2026-04-22T08:47:48.305Z</time></trkpt><trkpt lat="41.1075371" lon="14.3285391"><ele>230.33333333333331</ele><time>2026-04-22T08:47:49.432Z</time></trkpt><trkpt lat="41.1075628" lon="14.3288882"><ele>226.0</ele><time>2026-04-22T08:47:51.317Z</time></trkpt><trkpt lat="41.1075358" lon="14.3290958"><ele>226.0</ele><time>2026-04-22T08:47:52.294Z</time></trkpt><trkpt lat="41.1075056" lon="14.3292901"><ele>226.0</ele><time>2026-04-22T08:47:53.291Z</time></trkpt><trkpt lat="41.1074695" lon="14.3294827"><ele>226.0</ele><time>2026-04-22T08:47:54.284Z</time></trkpt><trkpt lat="41.1074393" lon="14.329687"><ele>227.0</ele><time>2026-04-22T08:47:55.284Z</time></trkpt><trkpt lat="41.1074268" lon="14.3299096"><ele>228.0</ele><time>2026-04-22T08:47:56.314Z</time></trkpt><trkpt lat="41.1074313" lon="14.330133"><ele>229.0</ele><time>2026-04-22T08:47:57.27Z</time></trkpt><trkpt lat="41.1074519" lon="14.3303899"><ele>233.0</ele><time>2026-04-22T08:47:58.361Z</time></trkpt><trkpt lat="41.1074814" lon="14.3306184"><ele>237.0</ele><time>2026-04-22T08:47:59.314Z</time></trkpt><trkpt lat="41.107509" lon="14.3308252"><ele>241.0</ele><time>2026-04-22T08:48:00.272Z</time></trkpt><trkpt lat="41.1075379" lon="14.3310222"><ele>241.0</ele><time>2026-04-22T08:48:01.248Z</time></trkpt><trkpt lat="41.1075601" lon="14.3312122"><ele>241.0</ele><time>2026-04-22T08:48:02.272Z</time></trkpt><trkpt lat="41.1075644" lon="14.3314033"><ele>241.0</ele><time>2026-04-22T08:48:03.283Z</time></trkpt><trkpt lat="41.1075674" lon="14.331601"><ele>241.0</ele><time>2026-04-22T08:48:04.309Z</time></trkpt><trkpt lat="41.1075827" lon="14.3317725"><ele>244.33333333333331</ele><time>2026-04-22T08:48:05.241Z</time></trkpt><trkpt lat="41.1076279" lon="14.3319737"><ele>247.66666666666669</ele><time>2026-04-22T08:48:06.256Z</time></trkpt><trkpt lat="41.1076792" lon="14.3321693"><ele>251.0</ele><time>2026-04-22T08:48:07.256Z</time></trkpt><trkpt lat="41.1077464" lon="14.332374"><ele>256.33333333333337</ele><time>2026-04-22T08:48:08.242Z</time></trkpt><trkpt lat="41.1078314" lon="14.3326079"><ele>261.6666666666667</ele><time>2026-04-22T08:48:09.287Z</time></trkpt><trkpt lat="41.1079023" lon="14.3328225"><ele>267.0</ele><time>2026-04-22T08:48:10.252Z</time></trkpt><trkpt lat="41.1079751" lon="14.3330398"><ele>273.0</ele><time>2026-04-22T08:48:11.266Z</time></trkpt><trkpt lat="41.1080478" lon="14.3332374"><ele>279.0</ele><time>2026-04-22T08:48:12.24Z</time></trkpt><trkpt lat="41.1081181" lon="14.3334402"><ele>285.0</ele><time>2026-04-22T08:48:13.256Z</time></trkpt><trkpt lat="41.1081862" lon="14.3336414"><ele>277.0</ele><time>2026-04-22T08:48:14.276Z</time></trkpt><trkpt lat="41.1082486" lon="14.3338502"><ele>269.0</ele><time>2026-04-22T08:48:15.423Z</time></trkpt><trkpt lat="41.1083505" lon="14.3341774"><ele>261.0</ele><time>2026-04-22T08:48:17.341Z</time></trkpt><trkpt lat="41.1083919" lon="14.3343421"><ele>261.0</ele><time>2026-04-22T08:48:18.285Z</time></trkpt><trkpt lat="41.1084186" lon="14.3345388"><ele>261.0</ele><time>2026-04-22T08:48:19.27Z</time></trkpt><trkpt lat="41.10843" lon="14.3347515"><ele>261.0</ele><time>2026-04-22T08:48:20.289Z</time></trkpt><trkpt lat="41.10843" lon="14.3349544"><ele>264.3333333333333</ele><time>2026-04-22T08:48:21.253Z</time></trkpt><trkpt lat="41.1084183" lon="14.3351708"><ele>267.66666666666663</ele><time>2026-04-22T08:48:22.27Z</time></trkpt><trkpt lat="41.1084088" lon="14.3353798"><ele>271.0</ele><time>2026-04-22T08:48:23.254Z</time></trkpt><trkpt lat="41.1083952" lon="14.3356085"><ele>271.0</ele><time>2026-04-22T08:48:24.319Z</time></trkpt><trkpt lat="41.1083703" lon="14.3359896"><ele>271.0</ele><time>2026-04-22T08:48:26.212Z</time></trkpt><trkpt lat="41.1083285" lon="14.336188"><ele>271.0</ele><time>2026-04-22T08:48:27.213Z</time></trkpt><trkpt lat="41.1082803" lon="14.336395"><ele>287.66666666666663</ele><time>2026-04-22T08:48:28.174Z</time></trkpt><trkpt lat="41.1082172" lon="14.3366358"><ele>304.3333333333333</ele><time>2026-04-22T08:48:29.188Z</time></trkpt><trkpt lat="41.1081574" lon="14.3368649"><ele>321.0</ele><time>2026-04-22T08:48:30.177Z</time></trkpt><trkpt lat="41.1081034" lon="14.3370721"><ele>319.0</ele><time>2026-04-22T08:48:31.161Z</time></trkpt><trkpt lat="41.1080531" lon="14.3372573"><ele>317.0</ele><time>2026-04-22T08:48:32.179Z</time></trkpt><trkpt lat="41.1080063" lon="14.3374193"><ele>315.0</ele><time>2026-04-22T08:48:33.173Z</time></trkpt><trkpt lat="41.1079528" lon="14.3375681"><ele>313.0</ele><time>2026-04-22T08:48:34.182Z</time></trkpt><trkpt lat="41.1078954" lon="14.3377103"><ele>313.0</ele><time>2026-04-22T08:48:35.199Z</time></trkpt><trkpt lat="41.1078345" lon="14.3378585"><ele>313.0</ele><time>2026-04-22T08:48:36.189Z</time></trkpt><trkpt lat="41.1077824" lon="14.3380181"><ele>313.0</ele><time>2026-04-22T08:48:37.186Z</time></trkpt><trkpt lat="41.1077395" lon="14.3381955"><ele>313.0</ele><time>2026-04-22T08:48:38.154Z</time></trkpt><trkpt lat="41.1076991" lon="14.3383977"><ele>310.66666666666663</ele><time>2026-04-22T08:48:39.17Z</time></trkpt><trkpt lat="41.1076652" lon="14.3385987"><ele>308.3333333333333</ele><time>2026-04-22T08:48:40.146Z</time></trkpt><trkpt lat="41.1076309" lon="14.3388159"><ele>306.0</ele><time>2026-04-22T08:48:41.213Z</time></trkpt><trkpt lat="41.1076122" lon="14.3390311"><ele>305.5</ele><time>2026-04-22T08:48:42.24Z</time></trkpt><trkpt lat="41.1076032" lon="14.3392346"><ele>305.0</ele><time>2026-04-22T08:48:43.223Z</time></trkpt><trkpt lat="41.107604" lon="14.3394263"><ele>304.5</ele><time>2026-04-22T08:48:44.164Z</time></trkpt><trkpt lat="41.1076079" lon="14.339621"><ele>304.0</ele><time>2026-04-22T08:48:45.156Z</time></trkpt><trkpt lat="41.107614" lon="14.3398022"><ele>304.0</ele><time>2026-04-22T08:48:46.158Z</time></trkpt><trkpt lat="41.1076194" lon="14.3399593"><ele>304.0</ele><time>2026-04-22T08:48:47.163Z</time></trkpt><trkpt lat="41.1076259" lon="14.3400917"><ele>304.0</ele><time>2026-04-22T08:48:48.16Z</time></trkpt><trkpt lat="41.1076552" lon="14.34021"><ele>304.0</ele><time>2026-04-22T08:48:49.182Z</time></trkpt><trkpt lat="41.107704" lon="14.3403218"><ele>304.0</ele><time>2026-04-22T08:48:50.171Z</time></trkpt><trkpt lat="41.1078006" lon="14.3404368"><ele>304.0</ele><time>2026-04-22T08:48:51.221Z</time></trkpt><trkpt lat="41.1078906" lon="14.3405469"><ele>304.0</ele><time>2026-04-22T08:48:52.188Z</time></trkpt><trkpt lat="41.1079558" lon="14.3406642"><ele>304.0</ele><time>2026-04-22T08:48:53.192Z</time></trkpt><trkpt lat="41.1079909" lon="14.3408086"><ele>304.0</ele><time>2026-04-22T08:48:54.198Z</time></trkpt><trkpt lat="41.1079935" lon="14.3409756"><ele>305.0</ele><time>2026-04-22T08:48:55.194Z</time></trkpt><trkpt lat="41.1079771" lon="14.341171"><ele>306.0</ele><time>2026-04-22T08:48:56.198Z</time></trkpt><trkpt lat="41.1079537" lon="14.3413801"><ele>307.0</ele><time>2026-04-22T08:48:57.223Z</time></trkpt><trkpt lat="41.1079196" lon="14.3415685"><ele>307.0</ele><time>2026-04-22T08:48:58.19Z</time></trkpt><trkpt lat="41.1078671" lon="14.3417822"><ele>307.0</ele><time>2026-04-22T08:48:59.266Z</time></trkpt><trkpt lat="41.107814" lon="14.3419662"><ele>307.0</ele><time>2026-04-22T08:49:00.188Z</time></trkpt><trkpt lat="41.1077589" lon="14.3421685"><ele>307.66666666666663</ele><time>2026-04-22T08:49:01.201Z</time></trkpt><trkpt lat="41.1077098" lon="14.3423559"><ele>308.3333333333333</ele><time>2026-04-22T08:49:02.184Z</time></trkpt><trkpt lat="41.1076656" lon="14.3425491"><ele>309.0</ele><time>2026-04-22T08:49:03.217Z</time></trkpt><trkpt lat="41.1076424" lon="14.3427497"><ele>309.0</ele><time>2026-04-22T08:49:04.219Z</time></trkpt><trkpt lat="41.1076372" lon="14.3429706"><ele>309.0</ele><time>2026-04-22T08:49:05.234Z</time></trkpt><trkpt lat="41.1076376" lon="14.343169"><ele>309.0</ele><time>2026-04-22T08:49:06.23Z</time></trkpt><trkpt lat="41.1076244" lon="14.3433399"><ele>309.0</ele><time>2026-04-22T08:49:07.18Z</time></trkpt><trkpt lat="41.1075775" lon="14.3435182"><ele>310.25</ele><time>2026-04-22T08:49:08.203Z</time></trkpt><trkpt lat="41.1075017" lon="14.3436845"><ele>311.5</ele><time>2026-04-22T08:49:09.194Z</time></trkpt><trkpt lat="41.1073993" lon="14.3438299"><ele>312.75</ele><time>2026-04-22T08:49:10.189Z</time></trkpt><trkpt lat="41.1072816" lon="14.3439568"><ele>314.0</ele><time>2026-04-22T08:49:11.218Z</time></trkpt><trkpt lat="41.1071788" lon="14.3440576"><ele>317.0</ele><time>2026-04-22T08:49:12.185Z</time></trkpt><trkpt lat="41.1070746" lon="14.3441587"><ele>320.0</ele><time>2026-04-22T08:49:13.325Z</time></trkpt><trkpt lat="41.1069476" lon="14.3442773"><ele>323.0</ele><time>2026-04-22T08:49:15.309Z</time></trkpt><trkpt lat="41.1068749" lon="14.3443115"><ele>326.0</ele><time>2026-04-22T08:49:17.218Z</time></trkpt><trkpt lat="41.1068217" lon="14.3442594"><ele>329.0</ele><time>2026-04-22T08:49:19.229Z</time></trkpt><trkpt lat="41.1068275" lon="14.3441682"><ele>329.0</ele><time>2026-04-22T08:49:20.217Z</time></trkpt><trkpt lat="41.106853" lon="14.3440133"><ele>329.0</ele><time>2026-04-22T08:49:21.23Z</time></trkpt><trkpt lat="41.1068787" lon="14.3438477"><ele>329.0</ele><time>2026-04-22T08:49:22.193Z</time></trkpt><trkpt lat="41.1068983" lon="14.3436703"><ele>329.0</ele><time>2026-04-22T08:49:23.244Z</time></trkpt><trkpt lat="41.1069094" lon="14.34346"><ele>337.0</ele><time>2026-04-22T08:49:24.318Z</time></trkpt><trkpt lat="41.1069383" lon="14.3430132"><ele>345.0</ele><time>2026-04-22T08:49:26.236Z</time></trkpt><trkpt lat="41.1069397" lon="14.3427439"><ele>345.0</ele><time>2026-04-22T08:49:27.234Z</time></trkpt><trkpt lat="41.1069279" lon="14.3424798"><ele>345.0</ele><time>2026-04-22T08:49:28.197Z</time></trkpt><trkpt lat="41.1069204" lon="14.3421895"><ele>345.0</ele><time>2026-04-22T08:49:29.253Z</time></trkpt><trkpt lat="41.1069227" lon="14.3419363"><ele>345.3333333333333</ele><time>2026-04-22T08:49:30.267Z</time></trkpt><trkpt lat="41.1069359" lon="14.3416981"><ele>345.66666666666663</ele><time>2026-04-22T08:49:31.343Z</time></trkpt><trkpt lat="41.1069538" lon="14.3415098"><ele>346.0</ele><time>2026-04-22T08:49:32.265Z</time></trkpt><trkpt lat="41.106987" lon="14.3413163"><ele>347.66666666666663</ele><time>2026-04-22T08:49:33.248Z</time></trkpt><trkpt lat="41.1070407" lon="14.341101"><ele>349.3333333333333</ele><time>2026-04-22T08:49:34.264Z</time></trkpt><trkpt lat="41.1071017" lon="14.3408898"><ele>351.0</ele><time>2026-04-22T08:49:35.29Z</time></trkpt><trkpt lat="41.1071439" lon="14.3407083"><ele>352.0</ele><time>2026-04-22T08:49:36.261Z</time></trkpt><trkpt lat="41.1071721" lon="14.3405076"><ele>353.0</ele><time>2026-04-22T08:49:37.289Z</time></trkpt><trkpt lat="41.1071805" lon="14.3402879"><ele>354.0</ele><time>2026-04-22T08:49:38.285Z</time></trkpt><trkpt lat="41.1071679" lon="14.3400379"><ele>354.0</ele><time>2026-04-22T08:49:39.273Z</time></trkpt><trkpt lat="41.1071444" lon="14.3397821"><ele>354.0</ele><time>2026-04-22T08:49:40.253Z</time></trkpt><trkpt lat="41.1071264" lon="14.3395213"><ele>354.0</ele><time>2026-04-22T08:49:41.287Z</time></trkpt><trkpt lat="41.1071219" lon="14.3392859"><ele>353.0</ele><time>2026-04-22T08:49:42.274Z</time></trkpt><trkpt lat="41.1071276" lon="14.3390631"><ele>352.0</ele><time>2026-04-22T08:49:43.232Z</time></trkpt><trkpt lat="41.1071406" lon="14.3388388"><ele>351.0</ele><time>2026-04-22T08:49:44.246Z</time></trkpt><trkpt lat="41.1071565" lon="14.3386298"><ele>350.75</ele><time>2026-04-22T08:49:45.273Z</time></trkpt><trkpt lat="41.1071695" lon="14.3384431"><ele>350.5</ele><time>2026-04-22T08:49:46.23Z</time></trkpt><trkpt lat="41.1071908" lon="14.3382528"><ele>350.25</ele><time>2026-04-22T08:49:47.258Z</time></trkpt><trkpt lat="41.107218" lon="14.3380688"><ele>350.0</ele><time>2026-04-22T08:49:48.229Z</time></trkpt><trkpt lat="41.1072579" lon="14.3378699"><ele>350.0</ele><time>2026-04-22T08:49:49.22Z</time></trkpt><trkpt lat="41.1073109" lon="14.3376381"><ele>350.0</ele><time>2026-04-22T08:49:50.361Z</time></trkpt><trkpt lat="41.1073525" lon="14.3374338"><ele>350.0</ele><time>2026-04-22T08:49:51.261Z</time></trkpt><trkpt lat="41.1074026" lon="14.3371832"><ele>340.33333333333337</ele><time>2026-04-22T08:49:52.285Z</time></trkpt><trkpt lat="41.1074446" lon="14.3369167"><ele>330.6666666666667</ele><time>2026-04-22T08:49:53.233Z</time></trkpt><trkpt lat="41.1074821" lon="14.336628"><ele>321.0</ele><time>2026-04-22T08:49:54.251Z</time></trkpt><trkpt lat="41.1075171" lon="14.3363541"><ele>321.0</ele><time>2026-04-22T08:49:55.287Z</time></trkpt><trkpt lat="41.1075467" lon="14.336133"><ele>321.0</ele><time>2026-04-22T08:49:56.231Z</time></trkpt><trkpt lat="41.1075694" lon="14.3359147"><ele>321.0</ele><time>2026-04-22T08:49:57.262Z</time></trkpt><trkpt lat="41.1075818" lon="14.3357018"><ele>319.25</ele><time>2026-04-22T08:49:58.252Z</time></trkpt><trkpt lat="41.1075794" lon="14.3354817"><ele>317.5</ele><time>2026-04-22T08:49:59.287Z</time></trkpt><trkpt lat="41.1075696" lon="14.3352913"><ele>315.75</ele><time>2026-04-22T08:50:00.286Z</time></trkpt><trkpt lat="41.1075528" lon="14.3351093"><ele>314.0</ele><time>2026-04-22T08:50:01.277Z</time></trkpt><trkpt lat="41.1075231" lon="14.3349269"><ele>315.6666666666667</ele><time>2026-04-22T08:50:02.251Z</time></trkpt><trkpt lat="41.1074727" lon="14.3347193"><ele>317.3333333333333</ele><time>2026-04-22T08:50:03.255Z</time></trkpt><trkpt lat="41.1074067" lon="14.3344984"><ele>319.0</ele><time>2026-04-22T08:50:04.275Z</time></trkpt><trkpt lat="41.1073492" lon="14.3343061"><ele>319.0</ele><time>2026-04-22T08:50:05.275Z</time></trkpt><trkpt lat="41.1072951" lon="14.3341404"><ele>319.0</ele><time>2026-04-22T08:50:06.295Z</time></trkpt><trkpt lat="41.1072482" lon="14.3340015"><ele>319.0</ele><time>2026-04-22T08:50:07.286Z</time></trkpt><trkpt lat="41.1071963" lon="14.3338785"><ele>319.0</ele><time>2026-04-22T08:50:08.3Z</time></trkpt><trkpt lat="41.1071241" lon="14.3337719"><ele>316.59999999999997</ele><time>2026-04-22T08:50:09.328Z</time></trkpt><trkpt lat="41.1070382" lon="14.3336781"><ele>314.2</ele><time>2026-04-22T08:50:10.314Z</time></trkpt><trkpt lat="41.1069444" lon="14.3336032"><ele>311.79999999999995</ele><time>2026-04-22T08:50:11.289Z</time></trkpt><trkpt lat="41.1068493" lon="14.3335523"><ele>309.4</ele><time>2026-04-22T08:50:12.311Z</time></trkpt><trkpt lat="41.1067589" lon="14.3335221"><ele>307.0</ele><time>2026-04-22T08:50:13.337Z</time></trkpt><trkpt lat="41.1066726" lon="14.3335199"><ele>307.0</ele><time>2026-04-22T08:50:14.364Z</time></trkpt><trkpt lat="41.1066081" lon="14.3335326"><ele>307.0</ele><time>2026-04-22T08:50:15.32Z</time></trkpt><trkpt lat="41.1065195" lon="14.3335668"><ele>307.0</ele><time>2026-04-22T08:50:17.296Z</time></trkpt><trkpt lat="41.1064624" lon="14.3336041"><ele>307.0</ele><time>2026-04-22T08:50:19.429Z</time></trkpt><trkpt lat="41.1064063" lon="14.333668"><ele>307.0</ele><time>2026-04-22T08:50:21.342Z</time></trkpt><trkpt lat="41.1063108" lon="14.3338012"><ele>307.0</ele><time>2026-04-22T08:50:23.324Z</time></trkpt><trkpt lat="41.106252" lon="14.333883"><ele>308.6</ele><time>2026-04-22T08:50:24.287Z</time></trkpt><trkpt lat="41.1061888" lon="14.3339731"><ele>310.2</ele><time>2026-04-22T08:50:25.318Z</time></trkpt><trkpt lat="41.1061223" lon="14.3340617"><ele>311.8</ele><time>2026-04-22T08:50:26.333Z</time></trkpt><trkpt lat="41.1060522" lon="14.3341464"><ele>313.4</ele><time>2026-04-22T08:50:27.341Z</time></trkpt><trkpt lat="41.1059797" lon="14.3342195"><ele>315.0</ele><time>2026-04-22T08:50:28.344Z</time></trkpt><trkpt lat="41.1059124" lon="14.3342837"><ele>315.0</ele><time>2026-04-22T08:50:29.285Z</time></trkpt><trkpt lat="41.1058432" lon="14.3343492"><ele>315.0</ele><time>2026-04-22T08:50:30.331Z</time></trkpt><trkpt lat="41.1057814" lon="14.334406"><ele>315.0</ele><time>2026-04-22T08:50:31.317Z</time></trkpt><trkpt lat="41.105724" lon="14.3344603"><ele>315.0</ele><time>2026-04-22T08:50:32.305Z</time></trkpt><trkpt lat="41.1056669" lon="14.3345107"><ele>315.0</ele><time>2026-04-22T08:50:33.356Z</time></trkpt><trkpt lat="41.1055756" lon="14.3345877"><ele>315.0</ele><time>2026-04-22T08:50:35.331Z</time></trkpt><trkpt lat="41.1055189" lon="14.3346245"><ele>314.8333333333333</ele><time>2026-04-22T08:50:37.336Z</time></trkpt><trkpt lat="41.1054629" lon="14.334666"><ele>314.6666666666667</ele><time>2026-04-22T08:50:41.325Z</time></trkpt><trkpt lat="41.1054333" lon="14.3347721"><ele>314.5</ele><time>2026-04-22T08:50:44.299Z</time></trkpt><trkpt lat="41.1054264" lon="14.3348809"><ele>314.33333333333337</ele><time>2026-04-22T08:50:46.435Z</time></trkpt><trkpt lat="41.1054021" lon="14.3349618"><ele>314.1666666666667</ele><time>2026-04-22T08:50:48.324Z</time></trkpt><trkpt lat="41.1053868" lon="14.3350762"><ele>314.0</ele><time>2026-04-22T08:51:21.328Z</time></trkpt><trkpt lat="41.105352" lon="14.3352494"><ele>314.0</ele><time>2026-04-22T08:51:23.316Z</time></trkpt><trkpt lat="41.1053167" lon="14.3353578"><ele>314.0</ele><time>2026-04-22T08:51:24.382Z</time></trkpt><trkpt lat="41.1052893" lon="14.3354639"><ele>314.0</ele><time>2026-04-22T08:51:25.363Z</time></trkpt><trkpt lat="41.1052709" lon="14.3355999"><ele>314.0</ele><time>2026-04-22T08:51:26.354Z</time></trkpt><trkpt lat="41.1052603" lon="14.3357436"><ele>314.0</ele><time>2026-04-22T08:51:27.372Z</time></trkpt><trkpt lat="41.1052547" lon="14.3358765"><ele>314.25</ele><time>2026-04-22T08:51:28.326Z</time></trkpt><trkpt lat="41.1052506" lon="14.3360126"><ele>314.5</ele><time>2026-04-22T08:51:29.334Z</time></trkpt><trkpt lat="41.105256" lon="14.3361389"><ele>314.75</ele><time>2026-04-22T08:51:30.329Z</time></trkpt><trkpt lat="41.1052557" lon="14.336301"><ele>315.0</ele><time>2026-04-22T08:51:31.432Z</time></trkpt><trkpt lat="41.1052167" lon="14.3366182"><ele>315.25</ele><time>2026-04-22T08:51:33.355Z</time></trkpt><trkpt lat="41.1051877" lon="14.3367766"><ele>315.5</ele><time>2026-04-22T08:51:34.322Z</time></trkpt><trkpt lat="41.1051546" lon="14.3369422"><ele>315.75</ele><time>2026-04-22T08:51:35.333Z</time></trkpt><trkpt lat="41.1051166" lon="14.3370999"><ele>316.0</ele><time>2026-04-22T08:51:36.353Z</time></trkpt><trkpt lat="41.1050841" lon="14.3372494"><ele>318.25</ele><time>2026-04-22T08:51:37.322Z</time></trkpt><trkpt lat="41.1050473" lon="14.3374293"><ele>320.5</ele><time>2026-04-22T08:51:38.342Z</time></trkpt><trkpt lat="41.1050179" lon="14.3376052"><ele>322.75</ele><time>2026-04-22T08:51:39.336Z</time></trkpt><trkpt lat="41.1049932" lon="14.3377759"><ele>325.0</ele><time>2026-04-22T08:51:40.309Z</time></trkpt><trkpt lat="41.1049729" lon="14.3379543"><ele>326.6</ele><time>2026-04-22T08:51:41.316Z</time></trkpt><trkpt lat="41.1049603" lon="14.3381204"><ele>328.2</ele><time>2026-04-22T08:51:42.344Z</time></trkpt><trkpt lat="41.1049475" lon="14.3382551"><ele>329.79999999999995</ele><time>2026-04-22T08:51:43.343Z</time></trkpt><trkpt lat="41.1049314" lon="14.3383716"><ele>331.4</ele><time>2026-04-22T08:51:44.349Z</time></trkpt><trkpt lat="41.1049191" lon="14.3384682"><ele>333.0</ele><time>2026-04-22T08:51:45.334Z</time></trkpt><trkpt lat="41.1048982" lon="14.3386328"><ele>333.0</ele><time>2026-04-22T08:51:47.37Z</time></trkpt><trkpt lat="41.1048933" lon="14.3387305"><ele>333.0</ele><time>2026-04-22T08:51:49.359Z</time></trkpt><trkpt lat="41.1049131" lon="14.3388517"><ele>333.0</ele><time>2026-04-22T08:51:52.313Z</time></trkpt><trkpt lat="41.1049296" lon="14.3389655"><ele>333.0</ele><time>2026-04-22T08:51:54.334Z</time></trkpt><trkpt lat="41.1049427" lon="14.3390614"><ele>333.0</ele><time>2026-04-22T08:51:56.324Z</time></trkpt><trkpt lat="41.1049342" lon="14.3391644"><ele>333.0</ele><time>2026-04-22T08:51:58.332Z</time></trkpt><trkpt lat="41.1049314" lon="14.3392817"><ele>333.8333333333333</ele><time>2026-04-22T08:52:00.273Z</time></trkpt><trkpt lat="41.1049386" lon="14.3393956"><ele>334.6666666666667</ele><time>2026-04-22T08:52:02.231Z</time></trkpt><trkpt lat="41.1049474" lon="14.3394802"><ele>335.5</ele><time>2026-04-22T08:52:04.213Z</time></trkpt><trkpt lat="41.104945" lon="14.339599"><ele>336.33333333333337</ele><time>2026-04-22T08:52:07.25Z</time></trkpt><trkpt lat="41.1049475" lon="14.3397018"><ele>337.1666666666667</ele><time>2026-04-22T08:52:09.227Z</time></trkpt><trkpt lat="41.1049602" lon="14.3398192"><ele>338.0</ele><time>2026-04-22T08:52:12.261Z</time></trkpt><trkpt lat="41.1049714" lon="14.3399289"><ele>338.0</ele><time>2026-04-22T08:52:15.24Z</time></trkpt><trkpt lat="41.1049824" lon="14.3400252"><ele>338.0</ele><time>2026-04-22T08:52:18.27Z</time></trkpt><trkpt lat="41.1050037" lon="14.3401329"><ele>338.0</ele><time>2026-04-22T08:52:21.219Z</time></trkpt><trkpt lat="41.1050202" lon="14.340228"><ele>338.0</ele><time>2026-04-22T08:52:23.235Z</time></trkpt><trkpt lat="41.1050359" lon="14.3403128"><ele>338.0</ele><time>2026-04-22T08:52:25.228Z</time></trkpt><trkpt lat="41.1050629" lon="14.3404023"><ele>338.0</ele><time>2026-04-22T08:52:27.337Z</time></trkpt><trkpt lat="41.1050873" lon="14.3404933"><ele>338.0</ele><time>2026-04-22T08:52:29.254Z</time></trkpt><trkpt lat="41.1051131" lon="14.3405841"><ele>337.83333333333337</ele><time>2026-04-22T08:52:31.209Z</time></trkpt><trkpt lat="41.1051495" lon="14.3406664"><ele>337.6666666666667</ele><time>2026-04-22T08:52:33.235Z</time></trkpt><trkpt lat="41.1051933" lon="14.3407789"><ele>337.5</ele><time>2026-04-22T08:52:36.241Z</time></trkpt><trkpt lat="41.1052367" lon="14.340873"><ele>337.3333333333333</ele><time>2026-04-22T08:52:39.236Z</time></trkpt><trkpt lat="41.1052711" lon="14.3409704"><ele>337.16666666666663</ele><time>2026-04-22T08:52:42.258Z</time></trkpt><trkpt lat="41.1053145" lon="14.3410555"><ele>337.0</ele><time>2026-04-22T08:52:45.239Z</time></trkpt><trkpt lat="41.1053469" lon="14.3411565"><ele>337.00000000000006</ele><time>2026-04-22T08:52:48.242Z</time></trkpt><trkpt lat="41.1053623" lon="14.3412397"><ele>337.0</ele><time>2026-04-22T08:53:43.239Z</time></trkpt><trkpt lat="41.1053785" lon="14.3413513"><ele>337.0</ele><time>2026-04-22T08:53:48.233Z</time></trkpt><trkpt lat="41.1053904" lon="14.3414354"><ele>337.0</ele><time>2026-04-22T08:53:50.246Z</time></trkpt><trkpt lat="41.1054182" lon="14.3415535"><ele>337.0</ele><time>2026-04-22T08:53:53.242Z</time></trkpt><trkpt lat="41.1054335" lon="14.3416456"><ele>337.00000000000006</ele><time>2026-04-22T08:53:55.23Z</time></trkpt><trkpt lat="41.1054457" lon="14.3417281"><ele>337.0</ele><time>2026-04-22T08:53:57.228Z</time></trkpt><trkpt lat="41.1054616" lon="14.3418259"><ele>336.5</ele><time>2026-04-22T08:53:59.275Z</time></trkpt><trkpt lat="41.1054769" lon="14.3419435"><ele>336.0</ele><time>2026-04-22T08:54:01.227Z</time></trkpt><trkpt lat="41.1054894" lon="14.3420486"><ele>335.5</ele><time>2026-04-22T08:54:03.247Z</time></trkpt><trkpt lat="41.1055108" lon="14.3421838"><ele>335.0</ele><time>2026-04-22T08:54:06.249Z</time></trkpt><trkpt lat="41.1055217" lon="14.3422835"><ele>334.5</ele><time>2026-04-22T08:54:08.248Z</time></trkpt><trkpt lat="41.1055282" lon="14.34238"><ele>334.0</ele><time>2026-04-22T08:54:10.242Z</time></trkpt><trkpt lat="41.1055366" lon="14.3424898"><ele>335.6</ele><time>2026-04-22T08:54:12.23Z</time></trkpt><trkpt lat="41.1055596" lon="14.3426494"><ele>337.2</ele><time>2026-04-22T08:54:15.227Z</time></trkpt><trkpt lat="41.1055777" lon="14.3427629"><ele>338.8</ele><time>2026-04-22T08:54:17.259Z</time></trkpt><trkpt lat="41.1056096" lon="14.3428727"><ele>340.40000000000003</ele><time>2026-04-22T08:54:19.34Z</time></trkpt><trkpt lat="41.105657" lon="14.3429688"><ele>342.0</ele><time>2026-04-22T08:54:22.242Z</time></trkpt><trkpt lat="41.1056994" lon="14.3430421"><ele>343.5</ele><time>2026-04-22T08:54:29.347Z</time></trkpt><trkpt lat="41.1057563" lon="14.3431051"><ele>345.0</ele><time>2026-04-22T08:54:32.297Z</time></trkpt><trkpt lat="41.1058066" lon="14.3431809"><ele>346.5</ele><time>2026-04-22T08:54:36.301Z</time></trkpt><trkpt lat="41.1057956" lon="14.3432697"><ele>348.0</ele><time>2026-04-22T08:54:38.309Z</time></trkpt><trkpt lat="41.1057719" lon="14.3433637"><ele>349.5</ele><time>2026-04-22T08:54:40.311Z</time></trkpt><trkpt lat="41.1057382" lon="14.3434468"><ele>351.0</ele><time>2026-04-22T08:54:42.335Z</time></trkpt><trkpt lat="41.1056958" lon="14.3435653"><ele>351.0</ele><time>2026-04-22T08:54:44.303Z</time></trkpt><trkpt lat="41.1056562" lon="14.343682"><ele>351.0</ele><time>2026-04-22T08:54:46.32Z</time></trkpt><trkpt lat="41.105614" lon="14.3438075"><ele>351.0</ele><time>2026-04-22T08:54:48.278Z</time></trkpt><trkpt lat="41.1055499" lon="14.3440114"><ele>351.0</ele><time>2026-04-22T08:54:51.261Z</time></trkpt><trkpt lat="41.1054946" lon="14.3441413"><ele>353.6</ele><time>2026-04-22T08:54:53.245Z</time></trkpt><trkpt lat="41.1054268" lon="14.3442485"><ele>356.20000000000005</ele><time>2026-04-22T08:54:55.251Z</time></trkpt><trkpt lat="41.1053615" lon="14.3443672"><ele>358.79999999999995</ele><time>2026-04-22T08:54:57.243Z</time></trkpt><trkpt lat="41.1053049" lon="14.3444972"><ele>361.4</ele><time>2026-04-22T08:54:59.378Z</time></trkpt><trkpt lat="41.1052536" lon="14.3445991"><ele>364.0</ele><time>2026-04-22T08:55:01.302Z</time></trkpt><trkpt lat="41.1052136" lon="14.3446866"><ele>365.8333333333333</ele><time>2026-04-22T08:55:03.264Z</time></trkpt><trkpt lat="41.1051722" lon="14.3447832"><ele>367.66666666666663</ele><time>2026-04-22T08:55:05.275Z</time></trkpt><trkpt lat="41.1051396" lon="14.3448784"><ele>369.5</ele><time>2026-04-22T08:55:07.225Z</time></trkpt><trkpt lat="41.1051137" lon="14.3449559"><ele>371.3333333333333</ele><time>2026-04-22T08:55:09.249Z</time></trkpt><trkpt lat="41.105053" lon="14.3450678"><ele>373.1666666666667</ele><time>2026-04-22T08:55:12.232Z</time></trkpt><trkpt lat="41.1049871" lon="14.3451447"><ele>375.0</ele><time>2026-04-22T08:55:14.355Z</time></trkpt><trkpt lat="41.1049271" lon="14.345212"><ele>375.4</ele><time>2026-04-22T08:55:16.269Z</time></trkpt><trkpt lat="41.1048686" lon="14.345285"><ele>375.8</ele><time>2026-04-22T08:55:18.271Z</time></trkpt><trkpt lat="41.1048019" lon="14.3453906"><ele>376.20000000000005</ele><time>2026-04-22T08:55:20.234Z</time></trkpt><trkpt lat="41.1047316" lon="14.3454884"><ele>376.6</ele><time>2026-04-22T08:55:22.255Z</time></trkpt><trkpt lat="41.1046719" lon="14.3455731"><ele>377.0</ele><time>2026-04-22T08:55:24.265Z</time></trkpt><trkpt lat="41.1046033" lon="14.345633"><ele>376.99999999999994</ele><time>2026-04-22T08:55:26.26Z</time></trkpt><trkpt lat="41.104543" lon="14.3456718"><ele>377.0</ele><time>2026-04-22T08:55:28.236Z</time></trkpt><trkpt lat="41.1044827" lon="14.3457139"><ele>377.0</ele><time>2026-04-22T08:55:31.249Z</time></trkpt><trkpt lat="41.1044249" lon="14.3457544"><ele>377.0</ele><time>2026-04-22T08:55:42.229Z</time></trkpt><trkpt lat="41.1043718" lon="14.3458284"><ele>377.0</ele><time>2026-04-22T08:55:47.259Z</time></trkpt><trkpt lat="41.1043353" lon="14.3459058"><ele>376.99999999999994</ele><time>2026-04-22T08:55:50.243Z</time></trkpt><trkpt lat="41.104297" lon="14.3460167"><ele>377.0</ele><time>2026-04-22T08:56:17.261Z</time></trkpt><trkpt lat="41.104258" lon="14.3461279"><ele>377.0</ele><time>2026-04-22T08:56:19.252Z</time></trkpt><trkpt lat="41.1042067" lon="14.3462359"><ele>377.0</ele><time>2026-04-22T08:56:21.229Z</time></trkpt><trkpt lat="41.1041419" lon="14.3463502"><ele>377.0</ele><time>2026-04-22T08:56:23.27Z</time></trkpt><trkpt lat="41.1040735" lon="14.3464655"><ele>377.0</ele><time>2026-04-22T08:56:25.251Z</time></trkpt><trkpt lat="41.1040228" lon="14.3465647"><ele>377.0</ele><time>2026-04-22T08:56:27.243Z</time></trkpt><trkpt lat="41.1039845" lon="14.3466497"><ele>376.6666666666667</ele><time>2026-04-22T08:56:29.265Z</time></trkpt><trkpt lat="41.1039533" lon="14.3467315"><ele>376.33333333333337</ele><time>2026-04-22T08:56:31.236Z</time></trkpt><trkpt lat="41.1039234" lon="14.3468131"><ele>376.0</ele><time>2026-04-22T08:56:33.221Z</time></trkpt><trkpt lat="41.1038924" lon="14.346918"><ele>375.6666666666667</ele><time>2026-04-22T08:56:35.249Z</time></trkpt><trkpt lat="41.1038601" lon="14.3470123"><ele>375.3333333333333</ele><time>2026-04-22T08:56:37.231Z</time></trkpt><trkpt lat="41.1038277" lon="14.3471163"><ele>375.0</ele><time>2026-04-22T08:56:39.252Z</time></trkpt><trkpt lat="41.1038011" lon="14.3472208"><ele>375.0</ele><time>2026-04-22T08:56:41.256Z</time></trkpt><trkpt lat="41.1037702" lon="14.3473396"><ele>375.0</ele><time>2026-04-22T08:56:43.274Z</time></trkpt><trkpt lat="41.1037369" lon="14.3474422"><ele>375.0</ele><time>2026-04-22T08:56:45.233Z</time></trkpt><trkpt lat="41.103709" lon="14.3475513"><ele>375.0</ele><time>2026-04-22T08:56:47.242Z</time></trkpt><trkpt lat="41.1036881" lon="14.3476621"><ele>375.0</ele><time>2026-04-22T08:56:49.233Z</time></trkpt><trkpt lat="41.1036647" lon="14.3477903"><ele>375.0</ele><time>2026-04-22T08:56:51.264Z</time></trkpt><trkpt lat="41.1036495" lon="14.3479317"><ele>375.0</ele><time>2026-04-22T08:56:53.27Z</time></trkpt><trkpt lat="41.1036342" lon="14.348084"><ele>375.0</ele><time>2026-04-22T08:56:55.245Z</time></trkpt><trkpt lat="41.1036213" lon="14.3481822"><ele>375.0</ele><time>2026-04-22T08:56:57.257Z</time></trkpt><trkpt lat="41.1035995" lon="14.3483106"><ele>375.0</ele><time>2026-04-22T08:57:00.245Z</time></trkpt><trkpt lat="41.1035806" lon="14.3484498"><ele>377.0</ele><time>2026-04-22T08:57:02.257Z</time></trkpt><trkpt lat="41.1035721" lon="14.3485981"><ele>379.0</ele><time>2026-04-22T08:57:04.245Z</time></trkpt><trkpt lat="41.1035658" lon="14.3487462"><ele>381.0</ele><time>2026-04-22T08:57:06.225Z</time></trkpt><trkpt lat="41.1035553" lon="14.348906"><ele>383.0</ele><time>2026-04-22T08:57:08.223Z</time></trkpt><trkpt lat="41.1035506" lon="14.3489924"><ele>385.0</ele><time>2026-04-22T08:57:09.245Z</time></trkpt><trkpt lat="41.1035507" lon="14.3491532"><ele>386.83333333333337</ele><time>2026-04-22T08:57:11.23Z</time></trkpt><trkpt lat="41.1035564" lon="14.3492539"><ele>388.6666666666667</ele><time>2026-04-22T08:57:13.225Z</time></trkpt><trkpt lat="41.1035665" lon="14.3493786"><ele>390.5</ele><time>2026-04-22T08:57:15.217Z</time></trkpt><trkpt lat="41.1035754" lon="14.3494906"><ele>392.33333333333337</ele><time>2026-04-22T08:57:16.348Z</time></trkpt><trkpt lat="41.103577" lon="14.349582"><ele>394.1666666666667</ele><time>2026-04-22T08:57:17.255Z</time></trkpt><trkpt lat="41.1035783" lon="14.3496741"><ele>396.0</ele><time>2026-04-22T08:57:18.225Z</time></trkpt><trkpt lat="41.1035804" lon="14.349772"><ele>397.5</ele><time>2026-04-22T08:57:19.22Z</time></trkpt><trkpt lat="41.103587" lon="14.3498694"><ele>399.0</ele><time>2026-04-22T08:57:20.247Z</time></trkpt><trkpt lat="41.1035938" lon="14.3499649"><ele>400.5</ele><time>2026-04-22T08:57:21.223Z</time></trkpt><trkpt lat="41.1036026" lon="14.3500621"><ele>402.0</ele><time>2026-04-22T08:57:22.24Z</time></trkpt><trkpt lat="41.1036103" lon="14.3501653"><ele>403.5</ele><time>2026-04-22T08:57:23.24Z</time></trkpt><trkpt lat="41.1036223" lon="14.3502674"><ele>405.0</ele><time>2026-04-22T08:57:24.226Z</time></trkpt><trkpt lat="41.1036368" lon="14.3503782"><ele>405.0</ele><time>2026-04-22T08:57:25.274Z</time></trkpt><trkpt lat="41.1036468" lon="14.3504835"><ele>405.0</ele><time>2026-04-22T08:57:26.245Z</time></trkpt><trkpt lat="41.1036588" lon="14.3505928"><ele>405.0</ele><time>2026-04-22T08:57:27.261Z</time></trkpt><trkpt lat="41.1036729" lon="14.3507325"><ele>405.0</ele><time>2026-04-22T08:57:29.224Z</time></trkpt><trkpt lat="41.1036875" lon="14.3508169"><ele>405.0</ele><time>2026-04-22T08:57:31.223Z</time></trkpt><trkpt lat="41.1036974" lon="14.3509083"><ele>405.0</ele><time>2026-04-22T08:57:33.241Z</time></trkpt><trkpt lat="41.1037084" lon="14.3510227"><ele>405.8333333333333</ele><time>2026-04-22T08:57:35.245Z</time></trkpt><trkpt lat="41.1037187" lon="14.3511413"><ele>406.66666666666663</ele><time>2026-04-22T08:57:37.227Z</time></trkpt><trkpt lat="41.1037427" lon="14.3512697"><ele>407.5</ele><time>2026-04-22T08:57:39.367Z</time></trkpt><trkpt lat="41.1037549" lon="14.3513665"><ele>408.3333333333333</ele><time>2026-04-22T08:57:41.25Z</time></trkpt><trkpt lat="41.1037619" lon="14.3514555"><ele>409.16666666666663</ele><time>2026-04-22T08:57:43.242Z</time></trkpt><trkpt lat="41.1037819" lon="14.3515969"><ele>410.0</ele><time>2026-04-22T08:57:46.273Z</time></trkpt><trkpt lat="41.1037814" lon="14.3516921"><ele>409.99999999999994</ele><time>2026-04-22T08:57:58.249Z</time></trkpt><trkpt lat="41.1038079" lon="14.3517985"><ele>410.0</ele><time>2026-04-22T08:58:08.332Z</time></trkpt><trkpt lat="41.1038255" lon="14.3518924"><ele>410.0</ele><time>2026-04-22T08:58:10.343Z</time></trkpt><trkpt lat="41.1038463" lon="14.3520023"><ele>410.0</ele><time>2026-04-22T08:58:12.349Z</time></trkpt><trkpt lat="41.1038604" lon="14.3521085"><ele>409.99999999999994</ele><time>2026-04-22T08:58:14.28Z</time></trkpt><trkpt lat="41.1038814" lon="14.3522228"><ele>410.0</ele><time>2026-04-22T08:58:16.313Z</time></trkpt><trkpt lat="41.1039033" lon="14.3523231"><ele>409.3333333333333</ele><time>2026-04-22T08:58:18.337Z</time></trkpt><trkpt lat="41.1039307" lon="14.3524481"><ele>408.66666666666663</ele><time>2026-04-22T08:58:21.303Z</time></trkpt><trkpt lat="41.1039504" lon="14.3525502"><ele>408.0</ele><time>2026-04-22T08:58:23.329Z</time></trkpt><trkpt lat="41.1039713" lon="14.3526602"><ele>407.33333333333337</ele><time>2026-04-22T08:58:25.324Z</time></trkpt><trkpt lat="41.1039921" lon="14.3527498"><ele>406.6666666666667</ele><time>2026-04-22T08:58:27.319Z</time></trkpt><trkpt lat="41.1040146" lon="14.3528475"><ele>406.0</ele><time>2026-04-22T08:58:29.335Z</time></trkpt><trkpt lat="41.1040339" lon="14.352948"><ele>406.0</ele><time>2026-04-22T08:58:31.307Z</time></trkpt><trkpt lat="41.1040405" lon="14.3530362"><ele>406.0</ele><time>2026-04-22T08:58:33.331Z</time></trkpt><trkpt lat="41.1040456" lon="14.3531297"><ele>406.0</ele><time>2026-04-22T08:58:35.339Z</time></trkpt><trkpt lat="41.1040393" lon="14.353248"><ele>406.0</ele><time>2026-04-22T08:58:38.325Z</time></trkpt><trkpt lat="41.104039" lon="14.3533384"><ele>406.0</ele><time>2026-04-22T08:58:40.374Z</time></trkpt><trkpt lat="41.1040407" lon="14.3534317"><ele>406.0</ele><time>2026-04-22T08:58:43.341Z</time></trkpt><trkpt lat="41.1040514" lon="14.3535233"><ele>406.0</ele><time>2026-04-22T08:58:54.38Z</time></trkpt><trkpt lat="41.1040779" lon="14.3536227"><ele>409.6666666666667</ele><time>2026-04-22T08:58:57.356Z</time></trkpt><trkpt lat="41.1041152" lon="14.3537227"><ele>413.33333333333337</ele><time>2026-04-22T08:59:00.327Z</time></trkpt><trkpt lat="41.1041555" lon="14.3537983"><ele>417.0</ele><time>2026-04-22T08:59:02.352Z</time></trkpt><trkpt lat="41.1042024" lon="14.3538637"><ele>420.66666666666663</ele><time>2026-04-22T08:59:04.397Z</time></trkpt><trkpt lat="41.1042792" lon="14.3539253"><ele>424.3333333333333</ele><time>2026-04-22T08:59:07.368Z</time></trkpt><trkpt lat="41.1043813" lon="14.3539428"><ele>428.0</ele><time>2026-04-22T08:59:10.383Z</time></trkpt><trkpt lat="41.1044496" lon="14.3539529"><ele>427.99999999999994</ele><time>2026-04-22T08:59:12.37Z</time></trkpt><trkpt lat="41.1045278" lon="14.35402"><ele>428.0</ele><time>2026-04-22T08:59:15.384Z</time></trkpt><trkpt lat="41.1045666" lon="14.3540907"><ele>428.0</ele><time>2026-04-22T08:59:17.341Z</time></trkpt><trkpt lat="41.1045954" lon="14.3541943"><ele>428.0</ele><time>2026-04-22T08:59:19.377Z</time></trkpt><trkpt lat="41.1045921" lon="14.3543005"><ele>427.99999999999994</ele><time>2026-04-22T08:59:21.478Z</time></trkpt><trkpt lat="41.1045541" lon="14.3544023"><ele>428.0</ele><time>2026-04-22T08:59:23.402Z</time></trkpt><trkpt lat="41.1045305" lon="14.3545059"><ele>427.99999999999994</ele><time>2026-04-22T08:59:25.354Z</time></trkpt><trkpt lat="41.1045588" lon="14.3546678"><ele>428.0</ele><time>2026-04-22T08:59:28.426Z</time></trkpt><trkpt lat="41.1046181" lon="14.3547304"><ele>428.0</ele><time>2026-04-22T08:59:30.383Z</time></trkpt><trkpt lat="41.1047061" lon="14.3547694"><ele>428.0</ele><time>2026-04-22T08:59:32.391Z</time></trkpt><trkpt lat="41.1047878" lon="14.3547812"><ele>427.99999999999994</ele><time>2026-04-22T08:59:34.375Z</time></trkpt><trkpt lat="41.1048515" lon="14.3548012"><ele>428.0</ele><time>2026-04-22T08:59:36.39Z</time></trkpt><trkpt lat="41.104921" lon="14.354832"><ele>428.3333333333333</ele><time>2026-04-22T08:59:38.38Z</time></trkpt><trkpt lat="41.1049892" lon="14.354871"><ele>428.66666666666663</ele><time>2026-04-22T08:59:40.39Z</time></trkpt><trkpt lat="41.1050392" lon="14.3549285"><ele>429.0</ele><time>2026-04-22T08:59:46.401Z</time></trkpt><trkpt lat="41.1049717" lon="14.3550123"><ele>429.33333333333337</ele><time>2026-04-22T08:59:51.341Z</time></trkpt><trkpt lat="41.1049302" lon="14.3550933"><ele>429.6666666666667</ele><time>2026-04-22T08:59:54.258Z</time></trkpt><trkpt lat="41.1048763" lon="14.3552041"><ele>430.0</ele><time>2026-04-22T08:59:58.366Z</time></trkpt><trkpt lat="41.1048446" lon="14.3552847"><ele>430.00000000000006</ele><time>2026-04-22T09:00:01.226Z</time></trkpt><trkpt lat="41.1048107" lon="14.3553647"><ele>430.0</ele><time>2026-04-22T09:00:04.265Z</time></trkpt><trkpt lat="41.1047821" lon="14.3554547"><ele>430.0</ele><time>2026-04-22T09:00:08.239Z</time></trkpt><trkpt lat="41.1047613" lon="14.3555337"><ele>430.0</ele><time>2026-04-22T09:00:12.248Z</time></trkpt><trkpt lat="41.1048131" lon="14.3553589"><ele>430.00000000000006</ele><time>2026-04-22T09:04:41.242Z</time></trkpt><trkpt lat="41.104837" lon="14.355274"><ele>430.0</ele><time>2026-04-22T09:05:38.285Z</time></trkpt><trkpt lat="41.1048728" lon="14.3552045"><ele>430.0</ele><time>2026-04-22T09:05:48.284Z</time></trkpt><trkpt lat="41.1049101" lon="14.3551371"><ele>430.0</ele><time>2026-04-22T09:05:59.304Z</time></trkpt><trkpt lat="41.1049475" lon="14.3550548"><ele>430.0</ele><time>2026-04-22T09:06:43.274Z</time></trkpt><trkpt lat="41.1049901" lon="14.3549725"><ele>430.0</ele><time>2026-04-22T09:06:48.26Z</time></trkpt><trkpt lat="41.1049888" lon="14.3548874"><ele>430.0</ele><time>2026-04-22T09:06:52.262Z</time></trkpt><trkpt lat="41.1049237" lon="14.3548453"><ele>430.0</ele><time>2026-04-22T09:06:55.273Z</time></trkpt><trkpt lat="41.1048576" lon="14.354811"><ele>430.0</ele><time>2026-04-22T09:06:57.279Z</time></trkpt><trkpt lat="41.1047922" lon="14.354789"><ele>430.00000000000006</ele><time>2026-04-22T09:06:59.393Z</time></trkpt><trkpt lat="41.1047306" lon="14.3547681"><ele>430.0</ele><time>2026-04-22T09:07:01.335Z</time></trkpt><trkpt lat="41.1046397" lon="14.3547458"><ele>430.0</ele><time>2026-04-22T09:07:04.433Z</time></trkpt><trkpt lat="41.1045583" lon="14.354686"><ele>430.0</ele><time>2026-04-22T09:07:07.285Z</time></trkpt><trkpt lat="41.1045257" lon="14.3546092"><ele>430.00000000000006</ele><time>2026-04-22T09:07:09.293Z</time></trkpt><trkpt lat="41.1045211" lon="14.3545157"><ele>430.0</ele><time>2026-04-22T09:07:11.294Z</time></trkpt><trkpt lat="41.1045439" lon="14.3544105"><ele>429.6666666666667</ele><time>2026-04-22T09:07:13.264Z</time></trkpt><trkpt lat="41.1045825" lon="14.3542647"><ele>429.33333333333337</ele><time>2026-04-22T09:07:16.295Z</time></trkpt><trkpt lat="41.1045801" lon="14.3541702"><ele>429.0</ele><time>2026-04-22T09:07:18.307Z</time></trkpt><trkpt lat="41.1045533" lon="14.3540841"><ele>428.66666666666663</ele><time>2026-04-22T09:07:20.28Z</time></trkpt><trkpt lat="41.1045066" lon="14.3540157"><ele>428.3333333333333</ele><time>2026-04-22T09:07:22.277Z</time></trkpt><trkpt lat="41.1044339" lon="14.3539639"><ele>428.0</ele><time>2026-04-22T09:07:24.375Z</time></trkpt><trkpt lat="41.1043163" lon="14.3539721"><ele>427.99999999999994</ele><time>2026-04-22T09:07:27.299Z</time></trkpt><trkpt lat="41.1042256" lon="14.3539253"><ele>428.0</ele><time>2026-04-22T09:07:30.307Z</time></trkpt><trkpt lat="41.1041664" lon="14.3538527"><ele>428.0</ele><time>2026-04-22T09:07:32.267Z</time></trkpt><trkpt lat="41.1041264" lon="14.3537844"><ele>428.0</ele><time>2026-04-22T09:07:34.281Z</time></trkpt><trkpt lat="41.1040885" lon="14.3536959"><ele>427.99999999999994</ele><time>2026-04-22T09:07:37.26Z</time></trkpt><trkpt lat="41.1040507" lon="14.3535895"><ele>428.0</ele><time>2026-04-22T09:07:40.253Z</time></trkpt><trkpt lat="41.104033" lon="14.3534944"><ele>424.3333333333333</ele><time>2026-04-22T09:07:42.302Z</time></trkpt><trkpt lat="41.1040338" lon="14.3533768"><ele>420.66666666666663</ele><time>2026-04-22T09:07:44.273Z</time></trkpt><trkpt lat="41.1040418" lon="14.3532629"><ele>417.0</ele><time>2026-04-22T09:07:46.272Z</time></trkpt><trkpt lat="41.1040463" lon="14.3531517"><ele>413.33333333333337</ele><time>2026-04-22T09:07:48.294Z</time></trkpt><trkpt lat="41.1040439" lon="14.3530527"><ele>409.6666666666667</ele><time>2026-04-22T09:07:50.288Z</time></trkpt><trkpt lat="41.1040305" lon="14.3529585"><ele>406.0</ele><time>2026-04-22T09:07:52.265Z</time></trkpt><trkpt lat="41.1040149" lon="14.3528625"><ele>406.00000000000006</ele><time>2026-04-22T09:07:54.275Z</time></trkpt><trkpt lat="41.1039955" lon="14.3527665"><ele>406.0</ele><time>2026-04-22T09:07:56.308Z</time></trkpt><trkpt lat="41.1039673" lon="14.3526536"><ele>406.0</ele><time>2026-04-22T09:07:58.404Z</time></trkpt><trkpt lat="41.1039475" lon="14.3525454"><ele>406.0</ele><time>2026-04-22T09:08:00.296Z</time></trkpt><trkpt lat="41.1039247" lon="14.352443"><ele>406.00000000000006</ele><time>2026-04-22T09:08:02.274Z</time></trkpt><trkpt lat="41.1039015" lon="14.3523413"><ele>406.0</ele><time>2026-04-22T09:08:04.291Z</time></trkpt><trkpt lat="41.1038834" lon="14.3522344"><ele>406.6666666666667</ele><time>2026-04-22T09:08:06.273Z</time></trkpt><trkpt lat="41.1038535" lon="14.352061"><ele>407.33333333333337</ele><time>2026-04-22T09:08:09.302Z</time></trkpt><trkpt lat="41.1038331" lon="14.3519535"><ele>408.0</ele><time>2026-04-22T09:08:11.246Z</time></trkpt><trkpt lat="41.1038102" lon="14.3518443"><ele>408.66666666666663</ele><time>2026-04-22T09:08:13.279Z</time></trkpt><trkpt lat="41.1037859" lon="14.3517498"><ele>409.3333333333333</ele><time>2026-04-22T09:08:15.269Z</time></trkpt><trkpt lat="41.1037743" lon="14.3516667"><ele>410.0</ele><time>2026-04-22T09:08:17.291Z</time></trkpt><trkpt lat="41.1037635" lon="14.3515839"><ele>410.0</ele><time>2026-04-22T09:08:19.281Z</time></trkpt><trkpt lat="41.1037446" lon="14.3515022"><ele>410.0</ele><time>2026-04-22T09:08:21.278Z</time></trkpt><trkpt lat="41.1037249" lon="14.3513853"><ele>410.0</ele><time>2026-04-22T09:08:24.301Z</time></trkpt><trkpt lat="41.1037023" lon="14.3512934"><ele>410.0</ele><time>2026-04-22T09:08:27.258Z</time></trkpt><trkpt lat="41.1036779" lon="14.3511983"><ele>410.0</ele><time>2026-04-22T09:08:30.305Z</time></trkpt><trkpt lat="41.1036622" lon="14.3510983"><ele>410.0</ele><time>2026-04-22T09:08:33.291Z</time></trkpt><trkpt lat="41.1036533" lon="14.3510074"><ele>410.0</ele><time>2026-04-22T09:08:36.254Z</time></trkpt><trkpt lat="41.1036445" lon="14.3509083"><ele>409.99999999999994</ele><time>2026-04-22T09:08:39.28Z</time></trkpt><trkpt lat="41.1036349" lon="14.3508111"><ele>410.0</ele><time>2026-04-22T09:08:42.262Z</time></trkpt><trkpt lat="41.1036179" lon="14.3506984"><ele>410.0</ele><time>2026-04-22T09:08:45.253Z</time></trkpt><trkpt lat="41.1036032" lon="14.3505605"><ele>410.0</ele><time>2026-04-22T09:08:48.432Z</time></trkpt><trkpt lat="41.103588" lon="14.3504379"><ele>409.99999999999994</ele><time>2026-04-22T09:08:51.268Z</time></trkpt><trkpt lat="41.1035757" lon="14.3503378"><ele>410.0</ele><time>2026-04-22T09:08:53.299Z</time></trkpt><trkpt lat="41.1035678" lon="14.3502383"><ele>409.16666666666663</ele><time>2026-04-22T09:08:55.272Z</time></trkpt><trkpt lat="41.1035627" lon="14.3501521"><ele>408.3333333333333</ele><time>2026-04-22T09:08:57.256Z</time></trkpt><trkpt lat="41.1035556" lon="14.3500377"><ele>407.5</ele><time>2026-04-22T09:09:00.284Z</time></trkpt><trkpt lat="41.1035506" lon="14.3499508"><ele>406.66666666666663</ele><time>2026-04-22T09:09:02.249Z</time></trkpt><trkpt lat="41.1035428" lon="14.3498273"><ele>405.8333333333333</ele><time>2026-04-22T09:09:05.292Z</time></trkpt><trkpt lat="41.1035441" lon="14.3497346"><ele>405.0</ele><time>2026-04-22T09:09:07.293Z</time></trkpt><trkpt lat="41.103545" lon="14.3496327"><ele>403.71428571428567</ele><time>2026-04-22T09:09:09.289Z</time></trkpt><trkpt lat="41.1035465" lon="14.349531"><ele>402.42857142857144</ele><time>2026-04-22T09:09:11.289Z</time></trkpt><trkpt lat="41.1035459" lon="14.3494196"><ele>401.1428571428571</ele><time>2026-04-22T09:09:14.267Z</time></trkpt><trkpt lat="41.1035551" lon="14.3493298"><ele>399.85714285714283</ele><time>2026-04-22T09:09:17.27Z</time></trkpt><trkpt lat="41.1035483" lon="14.3492242"><ele>398.57142857142856</ele><time>2026-04-22T09:09:20.274Z</time></trkpt><trkpt lat="41.103541" lon="14.3491358"><ele>397.2857142857143</ele><time>2026-04-22T09:09:22.269Z</time></trkpt><trkpt lat="41.1035366" lon="14.34905"><ele>396.0</ele><time>2026-04-22T09:09:24.271Z</time></trkpt><trkpt lat="41.1035375" lon="14.348929"><ele>394.1666666666667</ele><time>2026-04-22T09:09:27.264Z</time></trkpt><trkpt lat="41.1035451" lon="14.3488083"><ele>392.33333333333337</ele><time>2026-04-22T09:09:30.278Z</time></trkpt><trkpt lat="41.1035512" lon="14.3486841"><ele>390.5</ele><time>2026-04-22T09:09:33.281Z</time></trkpt><trkpt lat="41.1035598" lon="14.3485659"><ele>388.6666666666667</ele><time>2026-04-22T09:09:36.255Z</time></trkpt><trkpt lat="41.1035711" lon="14.3484757"><ele>386.83333333333337</ele><time>2026-04-22T09:09:38.288Z</time></trkpt><trkpt lat="41.1035822" lon="14.3483906"><ele>385.0</ele><time>2026-04-22T09:09:40.257Z</time></trkpt><trkpt lat="41.1035941" lon="14.3483075"><ele>385.00000000000006</ele><time>2026-04-22T09:09:42.282Z</time></trkpt><trkpt lat="41.1036097" lon="14.3481874"><ele>385.0</ele><time>2026-04-22T09:09:45.264Z</time></trkpt><trkpt lat="41.1036255" lon="14.3481021"><ele>385.0</ele><time>2026-04-22T09:09:47.276Z</time></trkpt><trkpt lat="41.1036392" lon="14.3480088"><ele>385.0</ele><time>2026-04-22T09:09:49.262Z</time></trkpt><trkpt lat="41.1036527" lon="14.3479059"><ele>385.00000000000006</ele><time>2026-04-22T09:09:51.381Z</time></trkpt><trkpt lat="41.1036725" lon="14.3477868"><ele>385.0</ele><time>2026-04-22T09:09:54.278Z</time></trkpt><trkpt lat="41.1036857" lon="14.3476696"><ele>383.33333333333337</ele><time>2026-04-22T09:09:57.273Z</time></trkpt><trkpt lat="41.1036973" lon="14.347565"><ele>381.6666666666667</ele><time>2026-04-22T09:10:00.275Z</time></trkpt><trkpt lat="41.1037089" lon="14.3474828"><ele>380.0</ele><time>2026-04-22T09:10:02.274Z</time></trkpt><trkpt lat="41.1037278" lon="14.3474019"><ele>378.33333333333337</ele><time>2026-04-22T09:10:04.281Z</time></trkpt><trkpt lat="41.1037613" lon="14.347297"><ele>376.6666666666667</ele><time>2026-04-22T09:10:07.441Z</time></trkpt><trkpt lat="41.1038037" lon="14.3471697"><ele>375.0</ele><time>2026-04-22T09:10:12.286Z</time></trkpt><trkpt lat="41.1038349" lon="14.3470638"><ele>373.5</ele><time>2026-04-22T09:10:15.276Z</time></trkpt><trkpt lat="41.1038695" lon="14.3469536"><ele>372.0</ele><time>2026-04-22T09:10:18.28Z</time></trkpt><trkpt lat="41.1039029" lon="14.3468451"><ele>370.5</ele><time>2026-04-22T09:10:21.3Z</time></trkpt><trkpt lat="41.1039477" lon="14.3467253"><ele>369.0</ele><time>2026-04-22T09:10:24.387Z</time></trkpt><trkpt lat="41.1039722" lon="14.3466472"><ele>367.5</ele><time>2026-04-22T09:10:26.282Z</time></trkpt><trkpt lat="41.1040053" lon="14.3465718"><ele>366.0</ele><time>2026-04-22T09:10:28.298Z</time></trkpt><trkpt lat="41.1040406" lon="14.346492"><ele>367.8333333333333</ele><time>2026-04-22T09:10:30.274Z</time></trkpt><trkpt lat="41.1040883" lon="14.3464026"><ele>369.6666666666667</ele><time>2026-04-22T09:10:32.361Z</time></trkpt><trkpt lat="41.104143" lon="14.3463048"><ele>371.5</ele><time>2026-04-22T09:10:34.289Z</time></trkpt><trkpt lat="41.1041905" lon="14.3462202"><ele>373.33333333333337</ele><time>2026-04-22T09:10:36.29Z</time></trkpt><trkpt lat="41.1042512" lon="14.3460985"><ele>375.1666666666667</ele><time>2026-04-22T09:10:39.269Z</time></trkpt><trkpt lat="41.1042886" lon="14.3460225"><ele>377.0</ele><time>2026-04-22T09:10:41.286Z</time></trkpt><trkpt lat="41.1043383" lon="14.3459208"><ele>377.0</ele><time>2026-04-22T09:10:44.265Z</time></trkpt><trkpt lat="41.1043876" lon="14.3458412"><ele>377.0</ele><time>2026-04-22T09:10:47.242Z</time></trkpt><trkpt lat="41.1044396" lon="14.345791"><ele>377.0</ele><time>2026-04-22T09:10:50.255Z</time></trkpt><trkpt lat="41.1044999" lon="14.3457189"><ele>377.0</ele><time>2026-04-22T09:10:54.27Z</time></trkpt><trkpt lat="41.1045566" lon="14.3456541"><ele>377.0</ele><time>2026-04-22T09:10:57.297Z</time></trkpt><trkpt lat="41.1046277" lon="14.3455733"><ele>377.0</ele><time>2026-04-22T09:11:00.265Z</time></trkpt><trkpt lat="41.104694" lon="14.345489"><ele>376.71428571428567</ele><time>2026-04-22T09:11:03.282Z</time></trkpt><trkpt lat="41.1047401" lon="14.3454247"><ele>376.42857142857144</ele><time>2026-04-22T09:11:05.283Z</time></trkpt><trkpt lat="41.104787" lon="14.3453637"><ele>376.1428571428571</ele><time>2026-04-22T09:11:07.3Z</time></trkpt><trkpt lat="41.1048323" lon="14.345304"><ele>375.85714285714283</ele><time>2026-04-22T09:11:09.269Z</time></trkpt><trkpt lat="41.1048937" lon="14.3452333"><ele>375.57142857142856</ele><time>2026-04-22T09:11:11.285Z</time></trkpt><trkpt lat="41.1049491" lon="14.3451671"><ele>375.2857142857143</ele><time>2026-04-22T09:11:13.319Z</time></trkpt><trkpt lat="41.104999" lon="14.345111"><ele>375.0</ele><time>2026-04-22T09:11:15.279Z</time></trkpt><trkpt lat="41.1050576" lon="14.3450315"><ele>375.0</ele><time>2026-04-22T09:11:18.258Z</time></trkpt><trkpt lat="41.1050999" lon="14.3449553"><ele>375.0</ele><time>2026-04-22T09:11:20.274Z</time></trkpt><trkpt lat="41.105134" lon="14.3448742"><ele>375.0</ele><time>2026-04-22T09:11:22.278Z</time></trkpt><trkpt lat="41.105166" lon="14.3448007"><ele>375.0</ele><time>2026-04-22T09:11:24.267Z</time></trkpt><trkpt lat="41.1051927" lon="14.344723"><ele>375.0</ele><time>2026-04-22T09:11:26.266Z</time></trkpt><trkpt lat="41.1052461" lon="14.3446339"><ele>375.0</ele><time>2026-04-22T09:11:30.263Z</time></trkpt><trkpt lat="41.105276" lon="14.3445401"><ele>375.0</ele><time>2026-04-22T09:11:34.284Z</time></trkpt><trkpt lat="41.1053063" lon="14.3444548"><ele>373.1666666666667</ele><time>2026-04-22T09:11:38.306Z</time></trkpt><trkpt lat="41.1053382" lon="14.3443794"><ele>371.3333333333333</ele><time>2026-04-22T09:11:41.306Z</time></trkpt><trkpt lat="41.1053828" lon="14.3442933"><ele>369.5</ele><time>2026-04-22T09:11:44.246Z</time></trkpt><trkpt lat="41.1054359" lon="14.3442018"><ele>367.66666666666663</ele><time>2026-04-22T09:11:47.266Z</time></trkpt><trkpt lat="41.1054789" lon="14.3441328"><ele>365.8333333333333</ele><time>2026-04-22T09:11:50.261Z</time></trkpt><trkpt lat="41.1055238" lon="14.3440358"><ele>364.0</ele><time>2026-04-22T09:11:53.264Z</time></trkpt><trkpt lat="41.1055591" lon="14.3439259"><ele>362.8333333333333</ele><time>2026-04-22T09:11:56.257Z</time></trkpt><trkpt lat="41.1055925" lon="14.3438137"><ele>361.66666666666663</ele><time>2026-04-22T09:11:59.272Z</time></trkpt><trkpt lat="41.1056273" lon="14.3437195"><ele>360.5</ele><time>2026-04-22T09:12:02.272Z</time></trkpt><trkpt lat="41.1056741" lon="14.3435807"><ele>359.3333333333333</ele><time>2026-04-22T09:12:06.273Z</time></trkpt><trkpt lat="41.1057046" lon="14.3434723"><ele>358.1666666666667</ele><time>2026-04-22T09:12:09.306Z</time></trkpt><trkpt lat="41.1057372" lon="14.3433877"><ele>357.0</ele><time>2026-04-22T09:12:12.289Z</time></trkpt><trkpt lat="41.1057683" lon="14.3432909"><ele>357.0</ele><time>2026-04-22T09:12:17.306Z</time></trkpt><trkpt lat="41.1057805" lon="14.3432009"><ele>357.0</ele><time>2026-04-22T09:12:21.293Z</time></trkpt><trkpt lat="41.1057491" lon="14.3431175"><ele>357.0</ele><time>2026-04-22T09:12:26.272Z</time></trkpt><trkpt lat="41.1056909" lon="14.3430465"><ele>357.0</ele><time>2026-04-22T09:12:30.26Z</time></trkpt><trkpt lat="41.1056374" lon="14.3429737"><ele>357.0</ele><time>2026-04-22T09:12:34.249Z</time></trkpt><trkpt lat="41.1055996" lon="14.3429015"><ele>357.0</ele><time>2026-04-22T09:12:37.288Z</time></trkpt><trkpt lat="41.1055605" lon="14.3428001"><ele>357.0</ele><time>2026-04-22T09:12:40.296Z</time></trkpt><trkpt lat="41.1055368" lon="14.3426814"><ele>354.5</ele><time>2026-04-22T09:12:43.258Z</time></trkpt><trkpt lat="41.1055221" lon="14.3425586"><ele>352.0</ele><time>2026-04-22T09:12:46.27Z</time></trkpt><trkpt lat="41.1055108" lon="14.3424439"><ele>349.5</ele><time>2026-04-22T09:12:49.259Z</time></trkpt><trkpt lat="41.1054984" lon="14.3423344"><ele>347.0</ele><time>2026-04-22T09:12:52.269Z</time></trkpt><trkpt lat="41.1054855" lon="14.3422201"><ele>344.5</ele><time>2026-04-22T09:12:55.289Z</time></trkpt><trkpt lat="41.1054725" lon="14.342121"><ele>342.0</ele><time>2026-04-22T09:12:58.256Z</time></trkpt><trkpt lat="41.1054578" lon="14.3420277"><ele>341.1666666666667</ele><time>2026-04-22T09:13:01.354Z</time></trkpt><trkpt lat="41.1054382" lon="14.3418951"><ele>340.3333333333333</ele><time>2026-04-22T09:13:05.247Z</time></trkpt><trkpt lat="41.1054206" lon="14.3417775"><ele>339.5</ele><time>2026-04-22T09:13:08.269Z</time></trkpt><trkpt lat="41.1054028" lon="14.341669"><ele>338.66666666666663</ele><time>2026-04-22T09:13:11.28Z</time></trkpt><trkpt lat="41.1053896" lon="14.3415769"><ele>337.8333333333333</ele><time>2026-04-22T09:13:14.283Z</time></trkpt><trkpt lat="41.1053672" lon="14.3414713"><ele>337.0</ele><time>2026-04-22T09:13:17.285Z</time></trkpt><trkpt lat="41.1053558" lon="14.3413683"><ele>337.0</ele><time>2026-04-22T09:13:20.267Z</time></trkpt><trkpt lat="41.1053429" lon="14.3412209"><ele>337.0</ele><time>2026-04-22T09:13:24.393Z</time></trkpt><trkpt lat="41.1053195" lon="14.3411226"><ele>337.0</ele><time>2026-04-22T09:13:27.27Z</time></trkpt><trkpt lat="41.1052911" lon="14.3410435"><ele>337.0</ele><time>2026-04-22T09:13:29.257Z</time></trkpt><trkpt lat="41.1052613" lon="14.3409677"><ele>337.0</ele><time>2026-04-22T09:13:31.306Z</time></trkpt><trkpt lat="41.1052181" lon="14.3408659"><ele>337.0</ele><time>2026-04-22T09:13:34.272Z</time></trkpt><trkpt lat="41.1051795" lon="14.3407711"><ele>337.0</ele><time>2026-04-22T09:13:37.237Z</time></trkpt><trkpt lat="41.1051293" lon="14.3406575"><ele>337.0</ele><time>2026-04-22T09:13:41.265Z</time></trkpt><trkpt lat="41.1050852" lon="14.3405639"><ele>337.0</ele><time>2026-04-22T09:13:44.274Z</time></trkpt><trkpt lat="41.1050597" lon="14.3404875"><ele>337.0</ele><time>2026-04-22T09:13:46.281Z</time></trkpt><trkpt lat="41.1050401" lon="14.3404048"><ele>337.0</ele><time>2026-04-22T09:13:48.258Z</time></trkpt><trkpt lat="41.1050246" lon="14.3403134"><ele>337.0</ele><time>2026-04-22T09:13:50.291Z</time></trkpt><trkpt lat="41.1050113" lon="14.3402236"><ele>337.16666666666663</ele><time>2026-04-22T09:13:52.234Z</time></trkpt><trkpt lat="41.1049943" lon="14.3401228"><ele>337.3333333333333</ele><time>2026-04-22T09:13:54.28Z</time></trkpt><trkpt lat="41.1049721" lon="14.3400272"><ele>337.5</ele><time>2026-04-22T09:13:56.278Z</time></trkpt><trkpt lat="41.1049521" lon="14.3399434"><ele>337.6666666666667</ele><time>2026-04-22T09:13:58.242Z</time></trkpt><trkpt lat="41.1049299" lon="14.3398204"><ele>337.83333333333337</ele><time>2026-04-22T09:14:01.259Z</time></trkpt><trkpt lat="41.1049175" lon="14.3397204"><ele>338.0</ele><time>2026-04-22T09:14:04.288Z</time></trkpt><trkpt lat="41.1049202" lon="14.3396011"><ele>338.0</ele><time>2026-04-22T09:14:07.318Z</time></trkpt><trkpt lat="41.1049224" lon="14.3395123"><ele>338.0</ele><time>2026-04-22T09:14:10.282Z</time></trkpt><trkpt lat="41.1049127" lon="14.3394105"><ele>338.0</ele><time>2026-04-22T09:14:14.301Z</time></trkpt><trkpt lat="41.1048985" lon="14.3393141"><ele>338.0</ele><time>2026-04-22T09:14:18.27Z</time></trkpt><trkpt lat="41.1048988" lon="14.3392251"><ele>338.0</ele><time>2026-04-22T09:14:22.263Z</time></trkpt><trkpt lat="41.1049002" lon="14.3391271"><ele>338.0</ele><time>2026-04-22T09:14:26.277Z</time></trkpt><trkpt lat="41.1048984" lon="14.3390103"><ele>338.0</ele><time>2026-04-22T09:14:30.263Z</time></trkpt><trkpt lat="41.1048849" lon="14.3389191"><ele>333.0</ele><time>2026-04-22T09:14:36.253Z</time></trkpt><trkpt lat="41.1048244" lon="14.3390094"><ele>328.0</ele><time>2026-04-22T09:14:45.265Z</time></trkpt><trkpt lat="41.1048135" lon="14.3391316"><ele>323.0</ele><time>2026-04-22T09:14:47.256Z</time></trkpt><trkpt lat="41.104802" lon="14.3392643"><ele>318.0</ele><time>2026-04-22T09:14:49.286Z</time></trkpt><trkpt lat="41.1047946" lon="14.3393641"><ele>313.0</ele><time>2026-04-22T09:14:51.249Z</time></trkpt><trkpt lat="41.1047717" lon="14.3395253"><ele>313.0</ele><time>2026-04-22T09:14:53.241Z</time></trkpt><trkpt lat="41.104763" lon="14.3396527"><ele>313.0</ele><time>2026-04-22T09:14:54.24Z</time></trkpt><trkpt lat="41.1047573" lon="14.3397889"><ele>313.0</ele><time>2026-04-22T09:14:55.257Z</time></trkpt><trkpt lat="41.1047505" lon="14.3399249"><ele>313.0</ele><time>2026-04-22T09:14:56.249Z</time></trkpt><trkpt lat="41.1047464" lon="14.3400707"><ele>313.0</ele><time>2026-04-22T09:14:57.287Z</time></trkpt><trkpt lat="41.1047506" lon="14.3402168"><ele>313.75</ele><time>2026-04-22T09:14:58.356Z</time></trkpt><trkpt lat="41.104761" lon="14.3403462"><ele>314.5</ele><time>2026-04-22T09:14:59.284Z</time></trkpt><trkpt lat="41.1047859" lon="14.3404966"><ele>315.25</ele><time>2026-04-22T09:15:00.296Z</time></trkpt><trkpt lat="41.1048283" lon="14.3406533"><ele>316.0</ele><time>2026-04-22T09:15:01.258Z</time></trkpt><trkpt lat="41.1048829" lon="14.3408239"><ele>320.5</ele><time>2026-04-22T09:15:02.276Z</time></trkpt><trkpt lat="41.1049386" lon="14.3409892"><ele>325.0</ele><time>2026-04-22T09:15:03.27Z</time></trkpt><trkpt lat="41.1049801" lon="14.3411587"><ele>329.5</ele><time>2026-04-22T09:15:04.258Z</time></trkpt><trkpt lat="41.1050107" lon="14.3413502"><ele>334.0</ele><time>2026-04-22T09:15:05.366Z</time></trkpt><trkpt lat="41.1050076" lon="14.341694"><ele>334.0</ele><time>2026-04-22T09:15:07.267Z</time></trkpt><trkpt lat="41.1049966" lon="14.3418764"><ele>334.0</ele><time>2026-04-22T09:15:08.284Z</time></trkpt><trkpt lat="41.1049822" lon="14.3420563"><ele>334.0</ele><time>2026-04-22T09:15:09.249Z</time></trkpt><trkpt lat="41.1049461" lon="14.3422597"><ele>334.0</ele><time>2026-04-22T09:15:10.287Z</time></trkpt><trkpt lat="41.1048909" lon="14.3424694"><ele>333.25</ele><time>2026-04-22T09:15:11.366Z</time></trkpt><trkpt lat="41.1048365" lon="14.3426431"><ele>332.5</ele><time>2026-04-22T09:15:12.275Z</time></trkpt><trkpt lat="41.1047771" lon="14.3428193"><ele>331.75</ele><time>2026-04-22T09:15:13.247Z</time></trkpt><trkpt lat="41.1047137" lon="14.3429925"><ele>331.0</ele><time>2026-04-22T09:15:14.284Z</time></trkpt><trkpt lat="41.1046572" lon="14.3431373"><ele>331.0</ele><time>2026-04-22T09:15:15.26Z</time></trkpt><trkpt lat="41.1045913" lon="14.3432785"><ele>331.0</ele><time>2026-04-22T09:15:16.256Z</time></trkpt><trkpt lat="41.1045198" lon="14.3434025"><ele>331.0</ele><time>2026-04-22T09:15:17.274Z</time></trkpt><trkpt lat="41.1044502" lon="14.3434992"><ele>331.0</ele><time>2026-04-22T09:15:18.258Z</time></trkpt><trkpt lat="41.1043642" lon="14.343578"><ele>331.0</ele><time>2026-04-22T09:15:19.263Z</time></trkpt><trkpt lat="41.1042651" lon="14.3436523"><ele>331.0</ele><time>2026-04-22T09:15:20.264Z</time></trkpt><trkpt lat="41.1041353" lon="14.3436641"><ele>331.0</ele><time>2026-04-22T09:15:21.246Z</time></trkpt><trkpt lat="41.1039825" lon="14.3436109"><ele>331.0</ele><time>2026-04-22T09:15:22.217Z</time></trkpt><trkpt lat="41.1038425" lon="14.3435939"><ele>331.0</ele><time>2026-04-22T09:15:23.274Z</time></trkpt><trkpt lat="41.1037282" lon="14.3436133"><ele>331.75</ele><time>2026-04-22T09:15:24.277Z</time></trkpt><trkpt lat="41.1036168" lon="14.3436661"><ele>332.5</ele><time>2026-04-22T09:15:25.27Z</time></trkpt><trkpt lat="41.1034928" lon="14.3437827"><ele>333.25</ele><time>2026-04-22T09:15:26.314Z</time></trkpt><trkpt lat="41.1033874" lon="14.3439156"><ele>334.0</ele><time>2026-04-22T09:15:27.285Z</time></trkpt><trkpt lat="41.1032975" lon="14.3440592"><ele>323.3333333333333</ele><time>2026-04-22T09:15:28.26Z</time></trkpt><trkpt lat="41.1032192" lon="14.3442276"><ele>312.6666666666667</ele><time>2026-04-22T09:15:29.288Z</time></trkpt><trkpt lat="41.1031573" lon="14.3444127"><ele>302.0</ele><time>2026-04-22T09:15:30.297Z</time></trkpt><trkpt lat="41.1030962" lon="14.3446129"><ele>308.0</ele><time>2026-04-22T09:15:31.274Z</time></trkpt><trkpt lat="41.103033" lon="14.3448245"><ele>314.0</ele><time>2026-04-22T09:15:32.242Z</time></trkpt><trkpt lat="41.1029555" lon="14.3450501"><ele>320.0</ele><time>2026-04-22T09:15:33.268Z</time></trkpt><trkpt lat="41.1028659" lon="14.3452723"><ele>320.0</ele><time>2026-04-22T09:15:34.279Z</time></trkpt><trkpt lat="41.1027804" lon="14.3454798"><ele>320.0</ele><time>2026-04-22T09:15:35.27Z</time></trkpt><trkpt lat="41.1027032" lon="14.3456771"><ele>320.0</ele><time>2026-04-22T09:15:36.267Z</time></trkpt><trkpt lat="41.1026282" lon="14.3459066"><ele>323.0</ele><time>2026-04-22T09:15:37.303Z</time></trkpt><trkpt lat="41.1025746" lon="14.3461001"><ele>326.0</ele><time>2026-04-22T09:15:38.264Z</time></trkpt><trkpt lat="41.1025213" lon="14.3463018"><ele>329.0</ele><time>2026-04-22T09:15:39.272Z</time></trkpt><trkpt lat="41.1024662" lon="14.3465205"><ele>318.0</ele><time>2026-04-22T09:15:40.318Z</time></trkpt><trkpt lat="41.1024081" lon="14.3467488"><ele>307.0</ele><time>2026-04-22T09:15:41.42Z</time></trkpt><trkpt lat="41.1023601" lon="14.3469415"><ele>296.0</ele><time>2026-04-22T09:15:42.368Z</time></trkpt><trkpt lat="41.1023175" lon="14.3471275"><ele>302.33333333333337</ele><time>2026-04-22T09:15:43.327Z</time></trkpt><trkpt lat="41.1022644" lon="14.3473131"><ele>308.6666666666667</ele><time>2026-04-22T09:15:44.322Z</time></trkpt><trkpt lat="41.1021918" lon="14.3474939"><ele>315.0</ele><time>2026-04-22T09:15:45.328Z</time></trkpt><trkpt lat="41.1021066" lon="14.3476523"><ele>315.0</ele><time>2026-04-22T09:15:46.323Z</time></trkpt><trkpt lat="41.1020166" lon="14.3478087"><ele>315.0</ele><time>2026-04-22T09:15:47.327Z</time></trkpt><trkpt lat="41.1019256" lon="14.3479535"><ele>315.0</ele><time>2026-04-22T09:15:48.313Z</time></trkpt><trkpt lat="41.1018348" lon="14.3480953"><ele>315.0</ele><time>2026-04-22T09:15:49.358Z</time></trkpt><trkpt lat="41.1017481" lon="14.3482252"><ele>311.0</ele><time>2026-04-22T09:15:50.346Z</time></trkpt><trkpt lat="41.1016561" lon="14.3483946"><ele>307.0</ele><time>2026-04-22T09:15:51.465Z</time></trkpt><trkpt lat="41.1015444" lon="14.3486614"><ele>303.0</ele><time>2026-04-22T09:15:53.311Z</time></trkpt><trkpt lat="41.1015121" lon="14.3488313"><ele>305.0</ele><time>2026-04-22T09:15:54.363Z</time></trkpt><trkpt lat="41.1014959" lon="14.3489994"><ele>307.0</ele><time>2026-04-22T09:15:55.315Z</time></trkpt><trkpt lat="41.1014847" lon="14.3491963"><ele>309.0</ele><time>2026-04-22T09:15:56.35Z</time></trkpt><trkpt lat="41.1014759" lon="14.3493968"><ele>311.0</ele><time>2026-04-22T09:15:57.356Z</time></trkpt><trkpt lat="41.1014665" lon="14.3495973"><ele>312.6666666666667</ele><time>2026-04-22T09:15:58.362Z</time></trkpt><trkpt lat="41.1014586" lon="14.3497961"><ele>314.3333333333333</ele><time>2026-04-22T09:15:59.359Z</time></trkpt><trkpt lat="41.1014565" lon="14.3499963"><ele>316.0</ele><time>2026-04-22T09:16:00.353Z</time></trkpt><trkpt lat="41.1014605" lon="14.3501994"><ele>316.0</ele><time>2026-04-22T09:16:01.367Z</time></trkpt><trkpt lat="41.1014677" lon="14.3503932"><ele>316.0</ele><time>2026-04-22T09:16:02.337Z</time></trkpt><trkpt lat="41.1014785" lon="14.3505902"><ele>316.0</ele><time>2026-04-22T09:16:03.356Z</time></trkpt><trkpt lat="41.1014925" lon="14.3507644"><ele>316.0</ele><time>2026-04-22T09:16:04.329Z</time></trkpt><trkpt lat="41.1015101" lon="14.3509359"><ele>316.6</ele><time>2026-04-22T09:16:05.355Z</time></trkpt><trkpt lat="41.1015254" lon="14.3510956"><ele>317.20000000000005</ele><time>2026-04-22T09:16:06.37Z</time></trkpt><trkpt lat="41.1015496" lon="14.351239"><ele>317.79999999999995</ele><time>2026-04-22T09:16:07.337Z</time></trkpt><trkpt lat="41.1015826" lon="14.3513727"><ele>318.4</ele><time>2026-04-22T09:16:08.341Z</time></trkpt><trkpt lat="41.1016156" lon="14.351508"><ele>319.0</ele><time>2026-04-22T09:16:09.313Z</time></trkpt><trkpt lat="41.1016587" lon="14.3516664"><ele>322.0</ele><time>2026-04-22T09:16:10.362Z</time></trkpt><trkpt lat="41.1017044" lon="14.3518235"><ele>325.0</ele><time>2026-04-22T09:16:11.333Z</time></trkpt><trkpt lat="41.101744" lon="14.3519978"><ele>328.0</ele><time>2026-04-22T09:16:12.353Z</time></trkpt><trkpt lat="41.1017914" lon="14.3521927"><ele>331.0</ele><time>2026-04-22T09:16:13.372Z</time></trkpt><trkpt lat="41.10184" lon="14.3523881"><ele>331.0</ele><time>2026-04-22T09:16:14.335Z</time></trkpt><trkpt lat="41.101889" lon="14.3525907"><ele>331.0</ele><time>2026-04-22T09:16:15.357Z</time></trkpt><trkpt lat="41.101925" lon="14.3527591"><ele>331.0</ele><time>2026-04-22T09:16:16.32Z</time></trkpt><trkpt lat="41.1019475" lon="14.352934"><ele>331.0</ele><time>2026-04-22T09:16:17.33Z</time></trkpt><trkpt lat="41.1019608" lon="14.3531176"><ele>330.3333333333333</ele><time>2026-04-22T09:16:18.342Z</time></trkpt><trkpt lat="41.1019738" lon="14.3533208"><ele>329.6666666666667</ele><time>2026-04-22T09:16:19.342Z</time></trkpt><trkpt lat="41.1019864" lon="14.3535366"><ele>329.0</ele><time>2026-04-22T09:16:20.338Z</time></trkpt><trkpt lat="41.1020013" lon="14.3537583"><ele>328.33333333333337</ele><time>2026-04-22T09:16:21.346Z</time></trkpt><trkpt lat="41.1020175" lon="14.3539771"><ele>327.6666666666667</ele><time>2026-04-22T09:16:22.338Z</time></trkpt><trkpt lat="41.1020336" lon="14.3541917"><ele>327.0</ele><time>2026-04-22T09:16:23.338Z</time></trkpt><trkpt lat="41.1020474" lon="14.3544191"><ele>327.0</ele><time>2026-04-22T09:16:24.457Z</time></trkpt><trkpt lat="41.102056" lon="14.3545895"><ele>327.0</ele><time>2026-04-22T09:16:25.363Z</time></trkpt><trkpt lat="41.1020637" lon="14.3547608"><ele>327.0</ele><time>2026-04-22T09:16:26.334Z</time></trkpt><trkpt lat="41.1020714" lon="14.3549208"><ele>327.0</ele><time>2026-04-22T09:16:27.342Z</time></trkpt><trkpt lat="41.1020792" lon="14.355064"><ele>327.20000000000005</ele><time>2026-04-22T09:16:28.352Z</time></trkpt><trkpt lat="41.1020816" lon="14.3551998"><ele>327.4</ele><time>2026-04-22T09:16:29.353Z</time></trkpt><trkpt lat="41.1020662" lon="14.355321"><ele>327.6</ele><time>2026-04-22T09:16:30.314Z</time></trkpt><trkpt lat="41.1020299" lon="14.3554519"><ele>327.79999999999995</ele><time>2026-04-22T09:16:31.35Z</time></trkpt><trkpt lat="41.1019616" lon="14.3555696"><ele>328.0</ele><time>2026-04-22T09:16:32.337Z</time></trkpt><trkpt lat="41.1018801" lon="14.3556984"><ele>330.75</ele><time>2026-04-22T09:16:33.336Z</time></trkpt><trkpt lat="41.1017828" lon="14.3558315"><ele>333.5</ele><time>2026-04-22T09:16:34.374Z</time></trkpt><trkpt lat="41.1016824" lon="14.3559489"><ele>336.25</ele><time>2026-04-22T09:16:35.335Z</time></trkpt><trkpt lat="41.1015857" lon="14.3560707"><ele>339.0</ele><time>2026-04-22T09:16:36.344Z</time></trkpt><trkpt lat="41.1015016" lon="14.3561941"><ele>334.5</ele><time>2026-04-22T09:16:37.356Z</time></trkpt><trkpt lat="41.1014299" lon="14.3563147"><ele>330.0</ele><time>2026-04-22T09:16:38.361Z</time></trkpt><trkpt lat="41.1013656" lon="14.3564408"><ele>325.5</ele><time>2026-04-22T09:16:39.337Z</time></trkpt><trkpt lat="41.1013069" lon="14.3565945"><ele>321.0</ele><time>2026-04-22T09:16:40.32Z</time></trkpt><trkpt lat="41.1012506" lon="14.3567759"><ele>321.0</ele><time>2026-04-22T09:16:41.343Z</time></trkpt><trkpt lat="41.1011918" lon="14.3569722"><ele>321.0</ele><time>2026-04-22T09:16:42.374Z</time></trkpt><trkpt lat="41.1011488" lon="14.3571835"><ele>321.0</ele><time>2026-04-22T09:16:43.343Z</time></trkpt><trkpt lat="41.1011105" lon="14.357397"><ele>323.3333333333333</ele><time>2026-04-22T09:16:44.368Z</time></trkpt><trkpt lat="41.1010793" lon="14.3576071"><ele>325.66666666666663</ele><time>2026-04-22T09:16:45.338Z</time></trkpt><trkpt lat="41.1010473" lon="14.3578218"><ele>328.0</ele><time>2026-04-22T09:16:46.351Z</time></trkpt><trkpt lat="41.1010138" lon="14.3580159"><ele>330.0</ele><time>2026-04-22T09:16:47.375Z</time></trkpt><trkpt lat="41.1009781" lon="14.3581922"><ele>332.0</ele><time>2026-04-22T09:16:48.358Z</time></trkpt><trkpt lat="41.100937" lon="14.358368"><ele>334.0</ele><time>2026-04-22T09:16:49.379Z</time></trkpt><trkpt lat="41.1008928" lon="14.3585328"><ele>336.0</ele><time>2026-04-22T09:16:50.35Z</time></trkpt><trkpt lat="41.100846" lon="14.3586949"><ele>336.0</ele><time>2026-04-22T09:16:51.339Z</time></trkpt><trkpt lat="41.1008091" lon="14.3588555"><ele>336.0</ele><time>2026-04-22T09:16:52.333Z</time></trkpt><trkpt lat="41.1007847" lon="14.3590395"><ele>336.0</ele><time>2026-04-22T09:16:53.351Z</time></trkpt><trkpt lat="41.1007743" lon="14.3592113"><ele>336.0</ele><time>2026-04-22T09:16:54.319Z</time></trkpt><trkpt lat="41.1007673" lon="14.3594039"><ele>339.25</ele><time>2026-04-22T09:16:55.38Z</time></trkpt><trkpt lat="41.1007606" lon="14.359582"><ele>342.5</ele><time>2026-04-22T09:16:56.411Z</time></trkpt><trkpt lat="41.1007565" lon="14.3597389"><ele>345.75</ele><time>2026-04-22T09:16:57.374Z</time></trkpt><trkpt lat="41.1007511" lon="14.3598993"><ele>349.0</ele><time>2026-04-22T09:16:58.353Z</time></trkpt><trkpt lat="41.1007485" lon="14.3600644"><ele>350.79999999999995</ele><time>2026-04-22T09:16:59.386Z</time></trkpt><trkpt lat="41.1007469" lon="14.3602251"><ele>352.59999999999997</ele><time>2026-04-22T09:17:00.351Z</time></trkpt><trkpt lat="41.1007486" lon="14.3603841"><ele>354.4</ele><time>2026-04-22T09:17:01.357Z</time></trkpt><trkpt lat="41.1007642" lon="14.3605223"><ele>356.2</ele><time>2026-04-22T09:17:02.376Z</time></trkpt><trkpt lat="41.100777" lon="14.3606443"><ele>358.0</ele><time>2026-04-22T09:17:03.36Z</time></trkpt><trkpt lat="41.1008069" lon="14.3607541"><ele>358.4</ele><time>2026-04-22T09:17:04.342Z</time></trkpt><trkpt lat="41.1008272" lon="14.3608742"><ele>358.79999999999995</ele><time>2026-04-22T09:17:05.358Z</time></trkpt><trkpt lat="41.1008298" lon="14.3610156"><ele>359.2</ele><time>2026-04-22T09:17:06.366Z</time></trkpt><trkpt lat="41.1008158" lon="14.3611482"><ele>359.6</ele><time>2026-04-22T09:17:07.317Z</time></trkpt><trkpt lat="41.1007602" lon="14.3612899"><ele>360.0</ele><time>2026-04-22T09:17:08.333Z</time></trkpt><trkpt lat="41.1006946" lon="14.3614434"><ele>349.5</ele><time>2026-04-22T09:17:09.323Z</time></trkpt><trkpt lat="41.1006397" lon="14.3616033"><ele>339.0</ele><time>2026-04-22T09:17:10.338Z</time></trkpt><trkpt lat="41.10061" lon="14.3617812"><ele>328.5</ele><time>2026-04-22T09:17:11.353Z</time></trkpt><trkpt lat="41.1005894" lon="14.3619756"><ele>318.0</ele><time>2026-04-22T09:17:12.347Z</time></trkpt><trkpt lat="41.1005774" lon="14.3621521"><ele>320.25</ele><time>2026-04-22T09:17:13.351Z</time></trkpt><trkpt lat="41.1005665" lon="14.3623195"><ele>322.5</ele><time>2026-04-22T09:17:14.338Z</time></trkpt><trkpt lat="41.1005478" lon="14.3624856"><ele>324.75</ele><time>2026-04-22T09:17:15.371Z</time></trkpt><trkpt lat="41.1005276" lon="14.3626522"><ele>327.0</ele><time>2026-04-22T09:17:16.343Z</time></trkpt><trkpt lat="41.1005179" lon="14.362826"><ele>330.25</ele><time>2026-04-22T09:17:17.351Z</time></trkpt><trkpt lat="41.1005178" lon="14.3630372"><ele>333.5</ele><time>2026-04-22T09:17:18.456Z</time></trkpt><trkpt lat="41.1005147" lon="14.3632205"><ele>336.75</ele><time>2026-04-22T09:17:19.357Z</time></trkpt><trkpt lat="41.1005037" lon="14.3634187"><ele>340.0</ele><time>2026-04-22T09:17:20.353Z</time></trkpt><trkpt lat="41.1004935" lon="14.3636106"><ele>340.0</ele><time>2026-04-22T09:17:21.348Z</time></trkpt><trkpt lat="41.1004745" lon="14.3637812"><ele>340.0</ele><time>2026-04-22T09:17:22.347Z</time></trkpt><trkpt lat="41.1004595" lon="14.3639505"><ele>340.0</ele><time>2026-04-22T09:17:23.366Z</time></trkpt><trkpt lat="41.1004639" lon="14.3641148"><ele>340.0</ele><time>2026-04-22T09:17:24.384Z</time></trkpt><trkpt lat="41.1004775" lon="14.3642673"><ele>342.0</ele><time>2026-04-22T09:17:25.35Z</time></trkpt><trkpt lat="41.1005021" lon="14.3644486"><ele>344.0</ele><time>2026-04-22T09:17:26.352Z</time></trkpt><trkpt lat="41.1005421" lon="14.3646352"><ele>346.0</ele><time>2026-04-22T09:17:27.362Z</time></trkpt><trkpt lat="41.1005921" lon="14.3648391"><ele>348.0</ele><time>2026-04-22T09:17:28.363Z</time></trkpt><trkpt lat="41.1006498" lon="14.3650592"><ele>348.25</ele><time>2026-04-22T09:17:29.379Z</time></trkpt><trkpt lat="41.1006995" lon="14.3652516"><ele>348.5</ele><time>2026-04-22T09:17:30.347Z</time></trkpt><trkpt lat="41.1007395" lon="14.3654255"><ele>348.75</ele><time>2026-04-22T09:17:31.351Z</time></trkpt><trkpt lat="41.1007717" lon="14.3655808"><ele>349.0</ele><time>2026-04-22T09:17:32.342Z</time></trkpt><trkpt lat="41.1007992" lon="14.3657249"><ele>356.75</ele><time>2026-04-22T09:17:33.343Z</time></trkpt><trkpt lat="41.100824" lon="14.3658648"><ele>364.5</ele><time>2026-04-22T09:17:34.346Z</time></trkpt><trkpt lat="41.1008427" lon="14.3660096"><ele>372.25</ele><time>2026-04-22T09:17:35.35Z</time></trkpt><trkpt lat="41.1008452" lon="14.3661672"><ele>380.0</ele><time>2026-04-22T09:17:36.353Z</time></trkpt><trkpt lat="41.1008416" lon="14.3663314"><ele>380.2</ele><time>2026-04-22T09:17:37.374Z</time></trkpt><trkpt lat="41.1008354" lon="14.3664783"><ele>380.4</ele><time>2026-04-22T09:17:38.379Z</time></trkpt><trkpt lat="41.1008268" lon="14.3666072"><ele>380.6</ele><time>2026-04-22T09:17:39.356Z</time></trkpt><trkpt lat="41.1008095" lon="14.3667273"><ele>380.8</ele><time>2026-04-22T09:17:40.387Z</time></trkpt><trkpt lat="41.1007898" lon="14.3668514"><ele>381.0</ele><time>2026-04-22T09:17:41.375Z</time></trkpt><trkpt lat="41.1007738" lon="14.3669817"><ele>375.6</ele><time>2026-04-22T09:17:42.365Z</time></trkpt><trkpt lat="41.1007388" lon="14.367108"><ele>370.20000000000005</ele><time>2026-04-22T09:17:43.326Z</time></trkpt><trkpt lat="41.1007059" lon="14.3672326"><ele>364.79999999999995</ele><time>2026-04-22T09:17:44.321Z</time></trkpt><trkpt lat="41.1006808" lon="14.3673399"><ele>359.4</ele><time>2026-04-22T09:17:45.341Z</time></trkpt><trkpt lat="41.1006561" lon="14.3674464"><ele>354.0</ele><time>2026-04-22T09:17:46.368Z</time></trkpt><trkpt lat="41.1006289" lon="14.367554"><ele>354.0</ele><time>2026-04-22T09:17:47.321Z</time></trkpt><trkpt lat="41.100596" lon="14.3676643"><ele>354.0</ele><time>2026-04-22T09:17:48.343Z</time></trkpt><trkpt lat="41.1005693" lon="14.3677758"><ele>354.0</ele><time>2026-04-22T09:17:49.367Z</time></trkpt><trkpt lat="41.100548" lon="14.3678824"><ele>354.0</ele><time>2026-04-22T09:17:50.359Z</time></trkpt><trkpt lat="41.1005255" lon="14.3679838"><ele>354.0</ele><time>2026-04-22T09:17:51.375Z</time></trkpt><trkpt lat="41.100497" lon="14.3680712"><ele>354.0</ele><time>2026-04-22T09:17:52.382Z</time></trkpt><trkpt lat="41.1004674" lon="14.3681563"><ele>355.79999999999995</ele><time>2026-04-22T09:17:53.34Z</time></trkpt><trkpt lat="41.1004364" lon="14.3682453"><ele>357.59999999999997</ele><time>2026-04-22T09:17:54.319Z</time></trkpt><trkpt lat="41.1004048" lon="14.3683356"><ele>359.4</ele><time>2026-04-22T09:17:55.337Z</time></trkpt><trkpt lat="41.1003557" lon="14.3684466"><ele>361.2</ele><time>2026-04-22T09:17:56.478Z</time></trkpt><trkpt lat="41.100265" lon="14.3686495"><ele>363.0</ele><time>2026-04-22T09:17:58.373Z</time></trkpt><trkpt lat="41.1002149" lon="14.3687736"><ele>364.2</ele><time>2026-04-22T09:17:59.351Z</time></trkpt><trkpt lat="41.1001648" lon="14.3689064"><ele>365.4</ele><time>2026-04-22T09:18:00.32Z</time></trkpt><trkpt lat="41.1001086" lon="14.3690302"><ele>366.59999999999997</ele><time>2026-04-22T09:18:01.367Z</time></trkpt><trkpt lat="41.1000502" lon="14.3691301"><ele>367.79999999999995</ele><time>2026-04-22T09:18:02.343Z</time></trkpt><trkpt lat="41.0999831" lon="14.3692094"><ele>369.0</ele><time>2026-04-22T09:18:03.324Z</time></trkpt><trkpt lat="41.0999108" lon="14.3692592"><ele>369.0</ele><time>2026-04-22T09:18:04.354Z</time></trkpt><trkpt lat="41.0998165" lon="14.3692908"><ele>369.0</ele><time>2026-04-22T09:18:05.337Z</time></trkpt><trkpt lat="41.099713" lon="14.3692956"><ele>369.0</ele><time>2026-04-22T09:18:06.343Z</time></trkpt><trkpt lat="41.0996244" lon="14.369287"><ele>369.0</ele><time>2026-04-22T09:18:07.321Z</time></trkpt><trkpt lat="41.0995424" lon="14.3692608"><ele>369.0</ele><time>2026-04-22T09:18:08.322Z</time></trkpt><trkpt lat="41.0994643" lon="14.3692207"><ele>369.0</ele><time>2026-04-22T09:18:09.347Z</time></trkpt><trkpt lat="41.099383" lon="14.3691979"><ele>369.0</ele><time>2026-04-22T09:18:10.52Z</time></trkpt><trkpt lat="41.0992425" lon="14.369152"><ele>369.0</ele><time>2026-04-22T09:18:12.381Z</time></trkpt><trkpt lat="41.0991413" lon="14.3691627"><ele>369.0</ele><time>2026-04-22T09:18:13.33Z</time></trkpt><trkpt lat="41.0990111" lon="14.3692022"><ele>370.5</ele><time>2026-04-22T09:18:14.352Z</time></trkpt><trkpt lat="41.0988956" lon="14.3692647"><ele>372.0</ele><time>2026-04-22T09:18:15.347Z</time></trkpt><trkpt lat="41.0987791" lon="14.3693502"><ele>373.5</ele><time>2026-04-22T09:18:16.363Z</time></trkpt><trkpt lat="41.0986812" lon="14.3694384"><ele>375.0</ele><time>2026-04-22T09:18:17.326Z</time></trkpt><trkpt lat="41.0985954" lon="14.3695238"><ele>375.0</ele><time>2026-04-22T09:18:18.339Z</time></trkpt><trkpt lat="41.0985257" lon="14.3696026"><ele>375.0</ele><time>2026-04-22T09:18:19.389Z</time></trkpt><trkpt lat="41.0984604" lon="14.3696703"><ele>375.0</ele><time>2026-04-22T09:18:20.383Z</time></trkpt><trkpt lat="41.0983973" lon="14.3697263"><ele>375.0</ele><time>2026-04-22T09:18:21.364Z</time></trkpt><trkpt lat="41.0983319" lon="14.3697836"><ele>375.0</ele><time>2026-04-22T09:18:22.353Z</time></trkpt><trkpt lat="41.0982669" lon="14.3698321"><ele>375.0</ele><time>2026-04-22T09:18:23.359Z</time></trkpt><trkpt lat="41.0982088" lon="14.3698732"><ele>376.8333333333333</ele><time>2026-04-22T09:18:24.367Z</time></trkpt><trkpt lat="41.0981364" lon="14.3699199"><ele>378.66666666666663</ele><time>2026-04-22T09:18:26.487Z</time></trkpt><trkpt lat="41.0980656" lon="14.3699374"><ele>380.5</ele><time>2026-04-22T09:18:29.394Z</time></trkpt><trkpt lat="41.0979754" lon="14.3699929"><ele>382.3333333333333</ele><time>2026-04-22T09:18:31.344Z</time></trkpt><trkpt lat="41.097896" lon="14.3700563"><ele>384.16666666666663</ele><time>2026-04-22T09:18:32.359Z</time></trkpt><trkpt lat="41.097804" lon="14.3701184"><ele>386.0</ele><time>2026-04-22T09:18:33.357Z</time></trkpt><trkpt lat="41.0976808" lon="14.3701911"><ele>386.0</ele><time>2026-04-22T09:18:34.463Z</time></trkpt><trkpt lat="41.0975654" lon="14.3702535"><ele>386.0</ele><time>2026-04-22T09:18:35.387Z</time></trkpt><trkpt lat="41.0974351" lon="14.3703271"><ele>386.0</ele><time>2026-04-22T09:18:36.355Z</time></trkpt><trkpt lat="41.0972996" lon="14.3704117"><ele>386.0</ele><time>2026-04-22T09:18:37.348Z</time></trkpt><trkpt lat="41.0971603" lon="14.3704956"><ele>384.5</ele><time>2026-04-22T09:18:38.413Z</time></trkpt><trkpt lat="41.0970418" lon="14.3705535"><ele>383.0</ele><time>2026-04-22T09:18:39.374Z</time></trkpt><trkpt lat="41.0969115" lon="14.3706006"><ele>381.5</ele><time>2026-04-22T09:18:40.365Z</time></trkpt><trkpt lat="41.0967902" lon="14.3706287"><ele>380.0</ele><time>2026-04-22T09:18:41.365Z</time></trkpt><trkpt lat="41.0966856" lon="14.3706436"><ele>379.83333333333337</ele><time>2026-04-22T09:18:42.348Z</time></trkpt><trkpt lat="41.0965809" lon="14.3706512"><ele>379.6666666666667</ele><time>2026-04-22T09:18:43.367Z</time></trkpt><trkpt lat="41.0964882" lon="14.3706539"><ele>379.5</ele><time>2026-04-22T09:18:44.365Z</time></trkpt><trkpt lat="41.0964049" lon="14.3706563"><ele>379.3333333333333</ele><time>2026-04-22T09:18:45.373Z</time></trkpt><trkpt lat="41.096335" lon="14.3706595"><ele>379.16666666666663</ele><time>2026-04-22T09:18:46.359Z</time></trkpt><trkpt lat="41.0962651" lon="14.3706592"><ele>379.0</ele><time>2026-04-22T09:18:47.397Z</time></trkpt><trkpt lat="41.0961512" lon="14.3706402"><ele>379.0</ele><time>2026-04-22T09:18:49.353Z</time></trkpt><trkpt lat="41.0960829" lon="14.3706308"><ele>379.0</ele><time>2026-04-22T09:18:50.421Z</time></trkpt><trkpt lat="41.095961" lon="14.3706168"><ele>379.0</ele><time>2026-04-22T09:18:52.391Z</time></trkpt><trkpt lat="41.0958595" lon="14.3706067"><ele>379.0</ele><time>2026-04-22T09:18:54.385Z</time></trkpt><trkpt lat="41.0957852" lon="14.3706065"><ele>379.0</ele><time>2026-04-22T09:18:56.367Z</time></trkpt><trkpt lat="41.0957135" lon="14.3706016"><ele>379.0</ele><time>2026-04-22T09:18:59.375Z</time></trkpt><trkpt lat="41.0956539" lon="14.3705419"><ele>379.3333333333333</ele><time>2026-04-22T09:19:02.384Z</time></trkpt><trkpt lat="41.0956344" lon="14.3704592"><ele>379.66666666666663</ele><time>2026-04-22T09:19:04.377Z</time></trkpt><trkpt lat="41.0956302" lon="14.3703309"><ele>380.0</ele><time>2026-04-22T09:19:06.383Z</time></trkpt><trkpt lat="41.0956286" lon="14.3702339"><ele>380.3333333333333</ele><time>2026-04-22T09:19:07.403Z</time></trkpt><trkpt lat="41.0956189" lon="14.3701189"><ele>380.6666666666667</ele><time>2026-04-22T09:19:08.413Z</time></trkpt><trkpt lat="41.0956088" lon="14.3699906"><ele>381.0</ele><time>2026-04-22T09:19:09.404Z</time></trkpt><trkpt lat="41.0956044" lon="14.3698592"><ele>381.0</ele><time>2026-04-22T09:19:10.433Z</time></trkpt><trkpt lat="41.0956039" lon="14.3697329"><ele>381.0</ele><time>2026-04-22T09:19:11.394Z</time></trkpt><trkpt lat="41.0955972" lon="14.3696151"><ele>381.0</ele><time>2026-04-22T09:19:12.402Z</time></trkpt><trkpt lat="41.0955921" lon="14.3694938"><ele>381.0</ele><time>2026-04-22T09:19:13.404Z</time></trkpt><trkpt lat="41.095584" lon="14.3693838"><ele>381.0</ele><time>2026-04-22T09:19:14.356Z</time></trkpt><trkpt lat="41.0955744" lon="14.3692702"><ele>381.0</ele><time>2026-04-22T09:19:15.389Z</time></trkpt><trkpt lat="41.0955703" lon="14.3691839"><ele>380.6666666666667</ele><time>2026-04-22T09:19:16.381Z</time></trkpt><trkpt lat="41.0955591" lon="14.3690402"><ele>380.3333333333333</ele><time>2026-04-22T09:19:18.389Z</time></trkpt><trkpt lat="41.0955614" lon="14.3689536"><ele>380.0</ele><time>2026-04-22T09:19:19.386Z</time></trkpt><trkpt lat="41.095574" lon="14.368855"><ele>379.66666666666663</ele><time>2026-04-22T09:19:20.361Z</time></trkpt><trkpt lat="41.0956056" lon="14.3687476"><ele>379.3333333333333</ele><time>2026-04-22T09:19:21.372Z</time></trkpt><trkpt lat="41.0956445" lon="14.3686367"><ele>379.0</ele><time>2026-04-22T09:19:22.393Z</time></trkpt><trkpt lat="41.0956841" lon="14.3685234"><ele>380.2</ele><time>2026-04-22T09:19:23.438Z</time></trkpt><trkpt lat="41.0957242" lon="14.3684238"><ele>381.4</ele><time>2026-04-22T09:19:24.381Z</time></trkpt><trkpt lat="41.0957748" lon="14.3683193"><ele>382.6</ele><time>2026-04-22T09:19:25.411Z</time></trkpt><trkpt lat="41.0958271" lon="14.3682106"><ele>383.8</ele><time>2026-04-22T09:19:26.509Z</time></trkpt><trkpt lat="41.0958998" lon="14.368049"><ele>385.0</ele><time>2026-04-22T09:19:28.379Z</time></trkpt><trkpt lat="41.0959375" lon="14.3679744"><ele>385.0</ele><time>2026-04-22T09:19:29.406Z</time></trkpt><trkpt lat="41.0959971" lon="14.3678498"><ele>385.0</ele><time>2026-04-22T09:19:31.398Z</time></trkpt><trkpt lat="41.0960585" lon="14.3677121"><ele>385.0</ele><time>2026-04-22T09:19:33.399Z</time></trkpt><trkpt lat="41.096118" lon="14.3675979"><ele>385.0</ele><time>2026-04-22T09:19:35.428Z</time></trkpt><trkpt lat="41.0961644" lon="14.3674813"><ele>385.0</ele><time>2026-04-22T09:19:37.378Z</time></trkpt><trkpt lat="41.0962051" lon="14.3673768"><ele>385.0</ele><time>2026-04-22T09:19:39.359Z</time></trkpt><trkpt lat="41.0962305" lon="14.3672887"><ele>385.0</ele><time>2026-04-22T09:19:41.417Z</time></trkpt><trkpt lat="41.0962176" lon="14.3671888"><ele>378.0</ele><time>2026-04-22T09:19:45.37Z</time></trkpt></trkseg><trkseg><trkpt lat="41.0962506" lon="14.3670682"><ele>378.0</ele><time>2026-04-22T09:42:09.32Z</time></trkpt><trkpt lat="41.0962478" lon="14.3669695"><ele>378.0</ele><time>2026-04-22T09:42:11.288Z</time></trkpt><trkpt lat="41.0962504" lon="14.3668615"><ele>378.0</ele><time>2026-04-22T09:42:13.306Z</time></trkpt><trkpt lat="41.096284" lon="14.3667885"><ele>378.0</ele><time>2026-04-22T09:42:16.296Z</time></trkpt><trkpt lat="41.0963576" lon="14.3667257"><ele>378.0</ele><time>2026-04-22T09:42:24.299Z</time></trkpt><trkpt lat="41.0963652" lon="14.3666252"><ele>378.0</ele><time>2026-04-22T09:42:27.297Z</time></trkpt><trkpt lat="41.0963392" lon="14.3665066"><ele>378.0</ele><time>2026-04-22T09:42:30.303Z</time></trkpt><trkpt lat="41.0963234" lon="14.3663987"><ele>378.0</ele><time>2026-04-22T09:42:32.297Z</time></trkpt><trkpt lat="41.0963119" lon="14.3662886"><ele>378.0</ele><time>2026-04-22T09:42:34.298Z</time></trkpt><trkpt lat="41.0962936" lon="14.3661969"><ele>378.0</ele><time>2026-04-22T09:42:36.281Z</time></trkpt><trkpt lat="41.0962841" lon="14.3660973"><ele>378.0</ele><time>2026-04-22T09:42:38.304Z</time></trkpt><trkpt lat="41.0962754" lon="14.3660071"><ele>378.0</ele><time>2026-04-22T09:42:40.295Z</time></trkpt><trkpt lat="41.0962663" lon="14.365908"><ele>377.5</ele><time>2026-04-22T09:42:42.405Z</time></trkpt><trkpt lat="41.0962565" lon="14.3658081"><ele>377.0</ele><time>2026-04-22T09:42:44.317Z</time></trkpt><trkpt lat="41.096247" lon="14.3657171"><ele>376.5</ele><time>2026-04-22T09:42:46.278Z</time></trkpt><trkpt lat="41.0962098" lon="14.3656188"><ele>376.0</ele><time>2026-04-22T09:42:49.322Z</time></trkpt><trkpt lat="41.0961199" lon="14.3656407"><ele>375.5</ele><time>2026-04-22T09:42:52.331Z</time></trkpt><trkpt lat="41.0960733" lon="14.3657211"><ele>375.0</ele><time>2026-04-22T09:42:54.33Z</time></trkpt><trkpt lat="41.0960174" lon="14.3658051"><ele>375.0</ele><time>2026-04-22T09:42:56.317Z</time></trkpt><trkpt lat="41.0959695" lon="14.3658923"><ele>375.0</ele><time>2026-04-22T09:42:58.306Z</time></trkpt><trkpt lat="41.0959427" lon="14.3659815"><ele>375.0</ele><time>2026-04-22T09:43:00.297Z</time></trkpt><trkpt lat="41.0959308" lon="14.3660787"><ele>375.0</ele><time>2026-04-22T09:43:02.297Z</time></trkpt><trkpt lat="41.0959342" lon="14.3662215"><ele>375.0</ele><time>2026-04-22T09:43:04.32Z</time></trkpt><trkpt lat="41.0959339" lon="14.3663771"><ele>375.42857142857144</ele><time>2026-04-22T09:43:06.317Z</time></trkpt><trkpt lat="41.095927" lon="14.3664621"><ele>375.85714285714283</ele><time>2026-04-22T09:43:07.319Z</time></trkpt><trkpt lat="41.095918" lon="14.3665509"><ele>376.2857142857143</ele><time>2026-04-22T09:43:08.336Z</time></trkpt><trkpt lat="41.0959076" lon="14.3666411"><ele>376.7142857142857</ele><time>2026-04-22T09:43:09.331Z</time></trkpt><trkpt lat="41.0958943" lon="14.3667318"><ele>377.1428571428571</ele><time>2026-04-22T09:43:10.302Z</time></trkpt><trkpt lat="41.0958752" lon="14.3668316"><ele>377.57142857142856</ele><time>2026-04-22T09:43:11.314Z</time></trkpt><trkpt lat="41.0958576" lon="14.3669307"><ele>378.0</ele><time>2026-04-22T09:43:12.299Z</time></trkpt><trkpt lat="41.0958417" lon="14.3670294"><ele>378.0</ele><time>2026-04-22T09:43:13.308Z</time></trkpt><trkpt lat="41.0958266" lon="14.3671128"><ele>378.0</ele><time>2026-04-22T09:43:14.302Z</time></trkpt><trkpt lat="41.0958054" lon="14.3671997"><ele>378.0</ele><time>2026-04-22T09:43:15.327Z</time></trkpt><trkpt lat="41.0957864" lon="14.36728"><ele>378.0</ele><time>2026-04-22T09:43:16.286Z</time></trkpt><trkpt lat="41.0957644" lon="14.3673611"><ele>378.0</ele><time>2026-04-22T09:43:17.299Z</time></trkpt><trkpt lat="41.0957456" lon="14.3674456"><ele>378.0</ele><time>2026-04-22T09:43:18.313Z</time></trkpt><trkpt lat="41.0957265" lon="14.3675327"><ele>378.0</ele><time>2026-04-22T09:43:19.32Z</time></trkpt><trkpt lat="41.0956994" lon="14.3676199"><ele>377.0</ele><time>2026-04-22T09:43:20.321Z</time></trkpt><trkpt lat="41.0956703" lon="14.3677047"><ele>376.0</ele><time>2026-04-22T09:43:21.308Z</time></trkpt><trkpt lat="41.0956403" lon="14.3677936"><ele>375.0</ele><time>2026-04-22T09:43:22.283Z</time></trkpt><trkpt lat="41.0956139" lon="14.3678906"><ele>374.0</ele><time>2026-04-22T09:43:23.294Z</time></trkpt><trkpt lat="41.0955972" lon="14.3679931"><ele>373.0</ele><time>2026-04-22T09:43:24.273Z</time></trkpt><trkpt lat="41.0955716" lon="14.3680924"><ele>372.0</ele><time>2026-04-22T09:43:25.304Z</time></trkpt><trkpt lat="41.0955485" lon="14.3681776"><ele>371.0</ele><time>2026-04-22T09:43:26.313Z</time></trkpt><trkpt lat="41.0955084" lon="14.3683394"><ele>371.0</ele><time>2026-04-22T09:43:28.318Z</time></trkpt><trkpt lat="41.0954901" lon="14.3684252"><ele>371.0</ele><time>2026-04-22T09:43:29.295Z</time></trkpt><trkpt lat="41.0954749" lon="14.3685124"><ele>371.0</ele><time>2026-04-22T09:43:30.295Z</time></trkpt><trkpt lat="41.0954612" lon="14.368601"><ele>371.0</ele><time>2026-04-22T09:43:31.3Z</time></trkpt><trkpt lat="41.0954474" lon="14.3686945"><ele>371.0</ele><time>2026-04-22T09:43:32.335Z</time></trkpt><trkpt lat="41.0954369" lon="14.3688445"><ele>371.0</ele><time>2026-04-22T09:43:34.308Z</time></trkpt><trkpt lat="41.0954351" lon="14.3689906"><ele>372.33333333333337</ele><time>2026-04-22T09:43:36.357Z</time></trkpt><trkpt lat="41.0954557" lon="14.3691249"><ele>373.6666666666667</ele><time>2026-04-22T09:43:38.317Z</time></trkpt><trkpt lat="41.0954715" lon="14.3692321"><ele>375.0</ele><time>2026-04-22T09:43:40.303Z</time></trkpt><trkpt lat="41.0954861" lon="14.3693255"><ele>376.3333333333333</ele><time>2026-04-22T09:43:43.337Z</time></trkpt><trkpt lat="41.0955237" lon="14.369407"><ele>377.66666666666663</ele><time>2026-04-22T09:43:46.314Z</time></trkpt><trkpt lat="41.0955694" lon="14.3695127"><ele>379.0</ele><time>2026-04-22T09:43:48.322Z</time></trkpt><trkpt lat="41.0955931" lon="14.3696627"><ele>379.28571428571433</ele><time>2026-04-22T09:43:50.308Z</time></trkpt><trkpt lat="41.0956024" lon="14.3697551"><ele>379.57142857142856</ele><time>2026-04-22T09:43:51.293Z</time></trkpt><trkpt lat="41.0956097" lon="14.3698552"><ele>379.8571428571429</ele><time>2026-04-22T09:43:52.352Z</time></trkpt><trkpt lat="41.095613" lon="14.3699451"><ele>380.14285714285717</ele><time>2026-04-22T09:43:53.311Z</time></trkpt><trkpt lat="41.0956181" lon="14.3700447"><ele>380.42857142857144</ele><time>2026-04-22T09:43:54.332Z</time></trkpt><trkpt lat="41.0956228" lon="14.3701464"><ele>380.7142857142857</ele><time>2026-04-22T09:43:55.335Z</time></trkpt><trkpt lat="41.0956259" lon="14.3702384"><ele>381.0</ele><time>2026-04-22T09:43:56.298Z</time></trkpt><trkpt lat="41.0956265" lon="14.3703282"><ele>381.0</ele><time>2026-04-22T09:43:57.299Z</time></trkpt><trkpt lat="41.0956262" lon="14.3704678"><ele>381.0</ele><time>2026-04-22T09:43:59.299Z</time></trkpt><trkpt lat="41.0956112" lon="14.370605"><ele>381.0</ele><time>2026-04-22T09:44:01.323Z</time></trkpt><trkpt lat="41.0955759" lon="14.3707569"><ele>381.0</ele><time>2026-04-22T09:44:03.309Z</time></trkpt><trkpt lat="41.0955323" lon="14.370907"><ele>380.1666666666667</ele><time>2026-04-22T09:44:05.294Z</time></trkpt><trkpt lat="41.0955022" lon="14.3709829"><ele>379.3333333333333</ele><time>2026-04-22T09:44:06.302Z</time></trkpt><trkpt lat="41.0954657" lon="14.3710611"><ele>378.5</ele><time>2026-04-22T09:44:07.297Z</time></trkpt><trkpt lat="41.0954216" lon="14.3711409"><ele>377.66666666666663</ele><time>2026-04-22T09:44:08.301Z</time></trkpt><trkpt lat="41.0953681" lon="14.371229"><ele>376.8333333333333</ele><time>2026-04-22T09:44:09.437Z</time></trkpt><trkpt lat="41.0952703" lon="14.3713882"><ele>376.0</ele><time>2026-04-22T09:44:11.34Z</time></trkpt><trkpt lat="41.0952084" lon="14.3714857"><ele>375.25</ele><time>2026-04-22T09:44:12.296Z</time></trkpt><trkpt lat="41.0951351" lon="14.3716069"><ele>374.5</ele><time>2026-04-22T09:44:13.305Z</time></trkpt><trkpt lat="41.0950579" lon="14.3717372"><ele>373.75</ele><time>2026-04-22T09:44:14.306Z</time></trkpt><trkpt lat="41.094978" lon="14.3718799"><ele>373.0</ele><time>2026-04-22T09:44:15.387Z</time></trkpt><trkpt lat="41.094922" lon="14.3719976"><ele>373.79999999999995</ele><time>2026-04-22T09:44:16.308Z</time></trkpt><trkpt lat="41.0948671" lon="14.3721275"><ele>374.6</ele><time>2026-04-22T09:44:17.291Z</time></trkpt><trkpt lat="41.0948147" lon="14.372261"><ele>375.4</ele><time>2026-04-22T09:44:18.336Z</time></trkpt><trkpt lat="41.0947625" lon="14.3723927"><ele>376.20000000000005</ele><time>2026-04-22T09:44:19.385Z</time></trkpt><trkpt lat="41.0947199" lon="14.3725156"><ele>377.0</ele><time>2026-04-22T09:44:20.354Z</time></trkpt><trkpt lat="41.0946831" lon="14.3726417"><ele>377.0</ele><time>2026-04-22T09:44:21.315Z</time></trkpt><trkpt lat="41.0946498" lon="14.372772"><ele>377.0</ele><time>2026-04-22T09:44:22.323Z</time></trkpt><trkpt lat="41.0946304" lon="14.37291"><ele>377.0</ele><time>2026-04-22T09:44:23.313Z</time></trkpt><trkpt lat="41.0946269" lon="14.3730657"><ele>377.0</ele><time>2026-04-22T09:44:24.306Z</time></trkpt><trkpt lat="41.0946417" lon="14.3732416"><ele>376.25</ele><time>2026-04-22T09:44:25.327Z</time></trkpt><trkpt lat="41.0946642" lon="14.3734204"><ele>375.5</ele><time>2026-04-22T09:44:26.329Z</time></trkpt><trkpt lat="41.0946911" lon="14.373586"><ele>374.75</ele><time>2026-04-22T09:44:27.29Z</time></trkpt><trkpt lat="41.0947099" lon="14.3737525"><ele>374.0</ele><time>2026-04-22T09:44:28.292Z</time></trkpt><trkpt lat="41.0947202" lon="14.3739266"><ele>374.0</ele><time>2026-04-22T09:44:29.278Z</time></trkpt><trkpt lat="41.0947241" lon="14.3741143"><ele>374.0</ele><time>2026-04-22T09:44:30.337Z</time></trkpt><trkpt lat="41.0947127" lon="14.3742845"><ele>374.0</ele><time>2026-04-22T09:44:31.291Z</time></trkpt><trkpt lat="41.0946837" lon="14.3744654"><ele>374.0</ele><time>2026-04-22T09:44:32.282Z</time></trkpt><trkpt lat="41.0946416" lon="14.3746688"><ele>372.33333333333337</ele><time>2026-04-22T09:44:33.303Z</time></trkpt><trkpt lat="41.0945953" lon="14.3748764"><ele>370.6666666666667</ele><time>2026-04-22T09:44:34.299Z</time></trkpt><trkpt lat="41.0945416" lon="14.3751071"><ele>369.0</ele><time>2026-04-22T09:44:35.41Z</time></trkpt><trkpt lat="41.0944478" lon="14.3755162"><ele>367.75</ele><time>2026-04-22T09:44:37.414Z</time></trkpt><trkpt lat="41.0944061" lon="14.3757033"><ele>366.5</ele><time>2026-04-22T09:44:38.33Z</time></trkpt><trkpt lat="41.0943634" lon="14.3758969"><ele>365.25</ele><time>2026-04-22T09:44:39.303Z</time></trkpt><trkpt lat="41.0943169" lon="14.3760866"><ele>364.0</ele><time>2026-04-22T09:44:40.322Z</time></trkpt><trkpt lat="41.0942665" lon="14.3762571"><ele>364.66666666666663</ele><time>2026-04-22T09:44:41.301Z</time></trkpt><trkpt lat="41.0941926" lon="14.3764528"><ele>365.3333333333333</ele><time>2026-04-22T09:44:42.437Z</time></trkpt><trkpt lat="41.0941133" lon="14.3766138"><ele>366.0</ele><time>2026-04-22T09:44:43.368Z</time></trkpt><trkpt lat="41.0940236" lon="14.3767704"><ele>366.5</ele><time>2026-04-22T09:44:44.38Z</time></trkpt><trkpt lat="41.0939377" lon="14.3769186"><ele>367.0</ele><time>2026-04-22T09:44:45.39Z</time></trkpt><trkpt lat="41.0938563" lon="14.3770839"><ele>367.5</ele><time>2026-04-22T09:44:46.427Z</time></trkpt><trkpt lat="41.0937866" lon="14.3772517"><ele>368.0</ele><time>2026-04-22T09:44:47.394Z</time></trkpt><trkpt lat="41.0937345" lon="14.3774373"><ele>364.6666666666667</ele><time>2026-04-22T09:44:48.37Z</time></trkpt><trkpt lat="41.0936928" lon="14.3776536"><ele>361.3333333333333</ele><time>2026-04-22T09:44:49.377Z</time></trkpt><trkpt lat="41.0936547" lon="14.3778715"><ele>358.0</ele><time>2026-04-22T09:44:50.353Z</time></trkpt><trkpt lat="41.0936081" lon="14.3780843"><ele>356.0</ele><time>2026-04-22T09:44:51.351Z</time></trkpt><trkpt lat="41.0935523" lon="14.3783216"><ele>354.0</ele><time>2026-04-22T09:44:52.507Z</time></trkpt><trkpt lat="41.0934333" lon="14.3786585"><ele>354.0</ele><time>2026-04-22T09:44:54.356Z</time></trkpt><trkpt lat="41.0933601" lon="14.3788423"><ele>354.0</ele><time>2026-04-22T09:44:55.374Z</time></trkpt><trkpt lat="41.0932872" lon="14.3790118"><ele>354.0</ele><time>2026-04-22T09:44:56.386Z</time></trkpt><trkpt lat="41.0932158" lon="14.3791585"><ele>354.0</ele><time>2026-04-22T09:44:57.376Z</time></trkpt><trkpt lat="41.0931522" lon="14.3792813"><ele>353.79999999999995</ele><time>2026-04-22T09:44:58.365Z</time></trkpt><trkpt lat="41.0930807" lon="14.3793897"><ele>353.59999999999997</ele><time>2026-04-22T09:44:59.394Z</time></trkpt><trkpt lat="41.0930029" lon="14.3794841"><ele>353.4</ele><time>2026-04-22T09:45:00.387Z</time></trkpt><trkpt lat="41.0928992" lon="14.3795502"><ele>353.2</ele><time>2026-04-22T09:45:01.351Z</time></trkpt><trkpt lat="41.0927951" lon="14.3796131"><ele>353.0</ele><time>2026-04-22T09:45:02.35Z</time></trkpt><trkpt lat="41.0926624" lon="14.3796728"><ele>350.33333333333337</ele><time>2026-04-22T09:45:03.354Z</time></trkpt><trkpt lat="41.0925033" lon="14.3797047"><ele>347.6666666666667</ele><time>2026-04-22T09:45:04.355Z</time></trkpt><trkpt lat="41.0923291" lon="14.3797265"><ele>345.0</ele><time>2026-04-22T09:45:05.374Z</time></trkpt><trkpt lat="41.0921478" lon="14.3797278"><ele>344.3333333333333</ele><time>2026-04-22T09:45:06.351Z</time></trkpt><trkpt lat="41.0919707" lon="14.3797265"><ele>343.66666666666663</ele><time>2026-04-22T09:45:07.365Z</time></trkpt><trkpt lat="41.0917962" lon="14.3797156"><ele>343.0</ele><time>2026-04-22T09:45:08.376Z</time></trkpt><trkpt lat="41.0916374" lon="14.3797058"><ele>342.3333333333333</ele><time>2026-04-22T09:45:09.348Z</time></trkpt><trkpt lat="41.0914825" lon="14.3797012"><ele>341.6666666666667</ele><time>2026-04-22T09:45:10.332Z</time></trkpt><trkpt lat="41.0913273" lon="14.3796984"><ele>341.0</ele><time>2026-04-22T09:45:11.373Z</time></trkpt><trkpt lat="41.0911707" lon="14.3796913"><ele>341.0</ele><time>2026-04-22T09:45:12.45Z</time></trkpt><trkpt lat="41.0910415" lon="14.379682"><ele>341.0</ele><time>2026-04-22T09:45:13.368Z</time></trkpt><trkpt lat="41.090898" lon="14.3796673"><ele>341.0</ele><time>2026-04-22T09:45:14.353Z</time></trkpt><trkpt lat="41.0907588" lon="14.3796461"><ele>341.0</ele><time>2026-04-22T09:45:15.354Z</time></trkpt><trkpt lat="41.0906305" lon="14.379605"><ele>341.0</ele><time>2026-04-22T09:45:16.342Z</time></trkpt><trkpt lat="41.0904999" lon="14.3795232"><ele>341.0</ele><time>2026-04-22T09:45:17.397Z</time></trkpt><trkpt lat="41.0903856" lon="14.3794227"><ele>341.0</ele><time>2026-04-22T09:45:18.384Z</time></trkpt><trkpt lat="41.0902584" lon="14.3792988"><ele>341.0</ele><time>2026-04-22T09:45:19.386Z</time></trkpt><trkpt lat="41.0901245" lon="14.379149"><ele>341.0</ele><time>2026-04-22T09:45:20.421Z</time></trkpt><trkpt lat="41.0899918" lon="14.3789998"><ele>341.0</ele><time>2026-04-22T09:45:21.385Z</time></trkpt><trkpt lat="41.0898389" lon="14.3788263"><ele>341.0</ele><time>2026-04-22T09:45:22.487Z</time></trkpt><trkpt lat="41.0895807" lon="14.3784755"><ele>341.6666666666667</ele><time>2026-04-22T09:45:24.41Z</time></trkpt><trkpt lat="41.0894701" lon="14.3782711"><ele>342.3333333333333</ele><time>2026-04-22T09:45:25.381Z</time></trkpt><trkpt lat="41.0893671" lon="14.3780485"><ele>343.0</ele><time>2026-04-22T09:45:26.388Z</time></trkpt><trkpt lat="41.0892762" lon="14.3778175"><ele>343.3333333333333</ele><time>2026-04-22T09:45:27.366Z</time></trkpt><trkpt lat="41.0891914" lon="14.3775662"><ele>343.6666666666667</ele><time>2026-04-22T09:45:28.373Z</time></trkpt><trkpt lat="41.0891211" lon="14.3773248"><ele>344.0</ele><time>2026-04-22T09:45:29.391Z</time></trkpt><trkpt lat="41.0890499" lon="14.3770853"><ele>344.0</ele><time>2026-04-22T09:45:30.405Z</time></trkpt><trkpt lat="41.0889717" lon="14.3768623"><ele>344.0</ele><time>2026-04-22T09:45:31.391Z</time></trkpt><trkpt lat="41.0888794" lon="14.3766403"><ele>344.0</ele><time>2026-04-22T09:45:32.407Z</time></trkpt><trkpt lat="41.0887717" lon="14.3764021"><ele>346.5</ele><time>2026-04-22T09:45:33.51Z</time></trkpt><trkpt lat="41.0885445" lon="14.3760039"><ele>349.0</ele><time>2026-04-22T09:45:35.381Z</time></trkpt><trkpt lat="41.0884164" lon="14.3757842"><ele>349.0</ele><time>2026-04-22T09:45:36.377Z</time></trkpt><trkpt lat="41.0882831" lon="14.3755583"><ele>349.0</ele><time>2026-04-22T09:45:37.419Z</time></trkpt><trkpt lat="41.0881656" lon="14.3753648"><ele>349.0</ele><time>2026-04-22T09:45:38.402Z</time></trkpt><trkpt lat="41.0880572" lon="14.3751959"><ele>348.66666666666663</ele><time>2026-04-22T09:45:39.371Z</time></trkpt><trkpt lat="41.0879515" lon="14.3750472"><ele>348.3333333333333</ele><time>2026-04-22T09:45:40.351Z</time></trkpt><trkpt lat="41.0878234" lon="14.3749124"><ele>348.0</ele><time>2026-04-22T09:45:41.374Z</time></trkpt><trkpt lat="41.0876666" lon="14.3747945"><ele>348.0</ele><time>2026-04-22T09:45:42.388Z</time></trkpt><trkpt lat="41.0875235" lon="14.3747133"><ele>348.0</ele><time>2026-04-22T09:45:43.32Z</time></trkpt><trkpt lat="41.0873726" lon="14.3746312"><ele>348.0</ele><time>2026-04-22T09:45:44.284Z</time></trkpt><trkpt lat="41.0872318" lon="14.3745484"><ele>345.5</ele><time>2026-04-22T09:45:45.3Z</time></trkpt><trkpt lat="41.0871105" lon="14.3744795"><ele>343.0</ele><time>2026-04-22T09:45:46.291Z</time></trkpt><trkpt lat="41.0870045" lon="14.3744143"><ele>340.5</ele><time>2026-04-22T09:45:47.302Z</time></trkpt><trkpt lat="41.0869181" lon="14.37434"><ele>338.0</ele><time>2026-04-22T09:45:48.272Z</time></trkpt><trkpt lat="41.0868429" lon="14.3742356"><ele>338.0</ele><time>2026-04-22T09:45:49.285Z</time></trkpt><trkpt lat="41.0867902" lon="14.3740954"><ele>338.0</ele><time>2026-04-22T09:45:50.301Z</time></trkpt><trkpt lat="41.08678" lon="14.3739187"><ele>338.0</ele><time>2026-04-22T09:45:51.409Z</time></trkpt><trkpt lat="41.0868088" lon="14.3737578"><ele>338.0</ele><time>2026-04-22T09:45:52.31Z</time></trkpt><trkpt lat="41.086843" lon="14.3735675"><ele>333.5</ele><time>2026-04-22T09:45:53.3Z</time></trkpt><trkpt lat="41.0868798" lon="14.373321"><ele>329.0</ele><time>2026-04-22T09:45:54.406Z</time></trkpt><trkpt lat="41.0869795" lon="14.3728595"><ele>324.0</ele><time>2026-04-22T09:45:56.415Z</time></trkpt><trkpt lat="41.0870225" lon="14.3726708"><ele>319.0</ele><time>2026-04-22T09:45:57.319Z</time></trkpt><trkpt lat="41.0870751" lon="14.3724641"><ele>314.0</ele><time>2026-04-22T09:45:58.308Z</time></trkpt><trkpt lat="41.0871273" lon="14.3722666"><ele>308.6666666666667</ele><time>2026-04-22T09:45:59.288Z</time></trkpt><trkpt lat="41.0871837" lon="14.3720673"><ele>303.3333333333333</ele><time>2026-04-22T09:46:00.292Z</time></trkpt><trkpt lat="41.0872428" lon="14.3718738"><ele>298.0</ele><time>2026-04-22T09:46:01.344Z</time></trkpt><trkpt lat="41.0873039" lon="14.3717002"><ele>298.0</ele><time>2026-04-22T09:46:02.289Z</time></trkpt><trkpt lat="41.0873735" lon="14.3715159"><ele>298.0</ele><time>2026-04-22T09:46:03.297Z</time></trkpt><trkpt lat="41.0874475" lon="14.3713338"><ele>298.0</ele><time>2026-04-22T09:46:04.295Z</time></trkpt><trkpt lat="41.0875266" lon="14.3711523"><ele>302.75</ele><time>2026-04-22T09:46:05.307Z</time></trkpt><trkpt lat="41.087609" lon="14.3709832"><ele>307.5</ele><time>2026-04-22T09:46:06.279Z</time></trkpt><trkpt lat="41.0877012" lon="14.3708162"><ele>312.25</ele><time>2026-04-22T09:46:07.332Z</time></trkpt><trkpt lat="41.0877892" lon="14.3706814"><ele>317.0</ele><time>2026-04-22T09:46:08.314Z</time></trkpt><trkpt lat="41.0878679" lon="14.3705516"><ele>310.25</ele><time>2026-04-22T09:46:09.29Z</time></trkpt><trkpt lat="41.0879423" lon="14.370426"><ele>303.5</ele><time>2026-04-22T09:46:10.303Z</time></trkpt><trkpt lat="41.0880219" lon="14.370311"><ele>296.75</ele><time>2026-04-22T09:46:11.288Z</time></trkpt><trkpt lat="41.0881151" lon="14.3702033"><ele>290.0</ele><time>2026-04-22T09:46:12.281Z</time></trkpt><trkpt lat="41.0882212" lon="14.3701035"><ele>296.0</ele><time>2026-04-22T09:46:13.28Z</time></trkpt><trkpt lat="41.0883408" lon="14.37002"><ele>302.0</ele><time>2026-04-22T09:46:14.301Z</time></trkpt><trkpt lat="41.0884529" lon="14.3699544"><ele>308.0</ele><time>2026-04-22T09:46:15.306Z</time></trkpt><trkpt lat="41.0885479" lon="14.3699025"><ele>314.0</ele><time>2026-04-22T09:46:16.295Z</time></trkpt><trkpt lat="41.0886375" lon="14.3698794"><ele>314.0</ele><time>2026-04-22T09:46:17.288Z</time></trkpt><trkpt lat="41.0887515" lon="14.3699062"><ele>314.0</ele><time>2026-04-22T09:46:18.457Z</time></trkpt><trkpt lat="41.088927" lon="14.3699823"><ele>314.0</ele><time>2026-04-22T09:46:20.334Z</time></trkpt><trkpt lat="41.08901" lon="14.3699839"><ele>314.0</ele><time>2026-04-22T09:46:21.332Z</time></trkpt><trkpt lat="41.0890806" lon="14.3699425"><ele>313.0</ele><time>2026-04-22T09:46:22.317Z</time></trkpt><trkpt lat="41.0891409" lon="14.3698609"><ele>312.0</ele><time>2026-04-22T09:46:23.357Z</time></trkpt><trkpt lat="41.089182" lon="14.369728"><ele>311.0</ele><time>2026-04-22T09:46:24.452Z</time></trkpt><trkpt lat="41.0892073" lon="14.3695848"><ele>310.0</ele><time>2026-04-22T09:46:25.364Z</time></trkpt><trkpt lat="41.0892304" lon="14.3693967"><ele>309.0</ele><time>2026-04-22T09:46:26.39Z</time></trkpt><trkpt lat="41.0892618" lon="14.3692254"><ele>309.0</ele><time>2026-04-22T09:46:27.356Z</time></trkpt><trkpt lat="41.0893061" lon="14.369052"><ele>309.0</ele><time>2026-04-22T09:46:28.353Z</time></trkpt><trkpt lat="41.0893523" lon="14.3688919"><ele>309.0</ele><time>2026-04-22T09:46:29.337Z</time></trkpt><trkpt lat="41.0894066" lon="14.368735"><ele>309.0</ele><time>2026-04-22T09:46:30.351Z</time></trkpt><trkpt lat="41.0894873" lon="14.3685704"><ele>301.6666666666667</ele><time>2026-04-22T09:46:31.41Z</time></trkpt><trkpt lat="41.0895773" lon="14.3684099"><ele>294.33333333333337</ele><time>2026-04-22T09:46:32.37Z</time></trkpt><trkpt lat="41.0896631" lon="14.3682374"><ele>287.0</ele><time>2026-04-22T09:46:33.356Z</time></trkpt><trkpt lat="41.0897392" lon="14.3680533"><ele>282.75</ele><time>2026-04-22T09:46:34.337Z</time></trkpt><trkpt lat="41.0898026" lon="14.3678658"><ele>278.5</ele><time>2026-04-22T09:46:35.381Z</time></trkpt><trkpt lat="41.0898491" lon="14.3676887"><ele>274.25</ele><time>2026-04-22T09:46:36.379Z</time></trkpt><trkpt lat="41.0898876" lon="14.3675199"><ele>270.0</ele><time>2026-04-22T09:46:37.367Z</time></trkpt><trkpt lat="41.0899219" lon="14.3673657"><ele>276.6666666666667</ele><time>2026-04-22T09:46:38.327Z</time></trkpt><trkpt lat="41.0899693" lon="14.3671924"><ele>283.33333333333337</ele><time>2026-04-22T09:46:39.431Z</time></trkpt><trkpt lat="41.0900474" lon="14.3669254"><ele>290.0</ele><time>2026-04-22T09:46:41.338Z</time></trkpt><trkpt lat="41.0901023" lon="14.3667929"><ele>290.0</ele><time>2026-04-22T09:46:42.359Z</time></trkpt><trkpt lat="41.0901812" lon="14.3666779"><ele>290.0</ele><time>2026-04-22T09:46:43.358Z</time></trkpt><trkpt lat="41.0902794" lon="14.3665722"><ele>290.0</ele><time>2026-04-22T09:46:44.415Z</time></trkpt><trkpt lat="41.0903815" lon="14.3664958"><ele>290.0</ele><time>2026-04-22T09:46:45.353Z</time></trkpt><trkpt lat="41.0904962" lon="14.3664204"><ele>290.0</ele><time>2026-04-22T09:46:46.358Z</time></trkpt><trkpt lat="41.0906134" lon="14.3663646"><ele>290.0</ele><time>2026-04-22T09:46:47.285Z</time></trkpt><trkpt lat="41.0907526" lon="14.3663091"><ele>290.0</ele><time>2026-04-22T09:46:48.304Z</time></trkpt><trkpt lat="41.0908934" lon="14.3662657"><ele>290.0</ele><time>2026-04-22T09:46:49.323Z</time></trkpt><trkpt lat="41.0910197" lon="14.3662433"><ele>286.25</ele><time>2026-04-22T09:46:50.301Z</time></trkpt><trkpt lat="41.0911435" lon="14.3662366"><ele>282.5</ele><time>2026-04-22T09:46:51.327Z</time></trkpt><trkpt lat="41.0912595" lon="14.3662364"><ele>278.75</ele><time>2026-04-22T09:46:52.304Z</time></trkpt><trkpt lat="41.0913868" lon="14.3662375"><ele>275.0</ele><time>2026-04-22T09:46:53.421Z</time></trkpt><trkpt lat="41.091576" lon="14.3662332"><ele>275.0</ele><time>2026-04-22T09:46:55.294Z</time></trkpt><trkpt lat="41.0916811" lon="14.3662232"><ele>275.0</ele><time>2026-04-22T09:46:56.301Z</time></trkpt><trkpt lat="41.0917918" lon="14.3662019"><ele>275.0</ele><time>2026-04-22T09:46:57.287Z</time></trkpt><trkpt lat="41.0919132" lon="14.3661673"><ele>275.0</ele><time>2026-04-22T09:46:58.31Z</time></trkpt><trkpt lat="41.0920326" lon="14.3661242"><ele>275.0</ele><time>2026-04-22T09:46:59.278Z</time></trkpt><trkpt lat="41.092163" lon="14.3660844"><ele>275.0</ele><time>2026-04-22T09:47:00.296Z</time></trkpt><trkpt lat="41.092294" lon="14.3660706"><ele>275.0</ele><time>2026-04-22T09:47:01.281Z</time></trkpt><trkpt lat="41.092438" lon="14.3660743"><ele>275.0</ele><time>2026-04-22T09:47:02.301Z</time></trkpt><trkpt lat="41.0925737" lon="14.3661042"><ele>274.6666666666667</ele><time>2026-04-22T09:47:03.308Z</time></trkpt><trkpt lat="41.0926918" lon="14.3661248"><ele>274.3333333333333</ele><time>2026-04-22T09:47:04.309Z</time></trkpt><trkpt lat="41.0928177" lon="14.3661248"><ele>274.0</ele><time>2026-04-22T09:47:05.396Z</time></trkpt><trkpt lat="41.0930422" lon="14.3660519"><ele>274.0</ele><time>2026-04-22T09:47:07.306Z</time></trkpt><trkpt lat="41.0931458" lon="14.3660207"><ele>274.0</ele><time>2026-04-22T09:47:08.28Z</time></trkpt><trkpt lat="41.093266" lon="14.3660108"><ele>274.0</ele><time>2026-04-22T09:47:09.302Z</time></trkpt><trkpt lat="41.093411" lon="14.366036"><ele>274.0</ele><time>2026-04-22T09:47:10.381Z</time></trkpt><trkpt lat="41.0935383" lon="14.3660672"><ele>274.66666666666663</ele><time>2026-04-22T09:47:11.281Z</time></trkpt><trkpt lat="41.0936644" lon="14.3661006"><ele>275.3333333333333</ele><time>2026-04-22T09:47:12.275Z</time></trkpt><trkpt lat="41.0937667" lon="14.3661153"><ele>276.0</ele><time>2026-04-22T09:47:13.299Z</time></trkpt><trkpt lat="41.0938392" lon="14.3661181"><ele>276.6666666666667</ele><time>2026-04-22T09:47:14.267Z</time></trkpt><trkpt lat="41.0939083" lon="14.3660856"><ele>277.33333333333337</ele><time>2026-04-22T09:47:15.256Z</time></trkpt><trkpt lat="41.0939529" lon="14.3660204"><ele>278.0</ele><time>2026-04-22T09:47:16.279Z</time></trkpt><trkpt lat="41.0939402" lon="14.3659327"><ele>278.0</ele><time>2026-04-22T09:47:17.27Z</time></trkpt><trkpt lat="41.0938978" lon="14.365813"><ele>278.0</ele><time>2026-04-22T09:47:18.277Z</time></trkpt><trkpt lat="41.0938249" lon="14.3656779"><ele>278.0</ele><time>2026-04-22T09:47:19.29Z</time></trkpt><trkpt lat="41.0937367" lon="14.3655201"><ele>278.0</ele><time>2026-04-22T09:47:20.348Z</time></trkpt><trkpt lat="41.0936593" lon="14.3653801"><ele>274.5</ele><time>2026-04-22T09:47:21.276Z</time></trkpt><trkpt lat="41.0935765" lon="14.3652227"><ele>271.0</ele><time>2026-04-22T09:47:22.306Z</time></trkpt><trkpt lat="41.093509" lon="14.3650765"><ele>267.5</ele><time>2026-04-22T09:47:23.281Z</time></trkpt><trkpt lat="41.0934527" lon="14.3649471"><ele>264.0</ele><time>2026-04-22T09:47:24.284Z</time></trkpt><trkpt lat="41.0934085" lon="14.3648132"><ele>262.0</ele><time>2026-04-22T09:47:25.283Z</time></trkpt><trkpt lat="41.0933904" lon="14.3646838"><ele>260.0</ele><time>2026-04-22T09:47:26.258Z</time></trkpt><trkpt lat="41.0934099" lon="14.3645265"><ele>258.0</ele><time>2026-04-22T09:47:27.304Z</time></trkpt><trkpt lat="41.0934738" lon="14.3643514"><ele>256.0</ele><time>2026-04-22T09:47:28.305Z</time></trkpt><trkpt lat="41.0935615" lon="14.364167"><ele>256.0</ele><time>2026-04-22T09:47:29.299Z</time></trkpt><trkpt lat="41.0936578" lon="14.3639891"><ele>256.0</ele><time>2026-04-22T09:47:30.289Z</time></trkpt><trkpt lat="41.0937751" lon="14.3637941"><ele>256.0</ele><time>2026-04-22T09:47:31.304Z</time></trkpt><trkpt lat="41.0938978" lon="14.363598"><ele>259.66666666666663</ele><time>2026-04-22T09:47:32.296Z</time></trkpt><trkpt lat="41.094022" lon="14.3634022"><ele>263.3333333333333</ele><time>2026-04-22T09:47:33.284Z</time></trkpt><trkpt lat="41.0941429" lon="14.363215"><ele>267.0</ele><time>2026-04-22T09:47:34.305Z</time></trkpt><trkpt lat="41.094255" lon="14.3630559"><ele>260.0</ele><time>2026-04-22T09:47:35.29Z</time></trkpt><trkpt lat="41.0943668" lon="14.3629063"><ele>253.0</ele><time>2026-04-22T09:47:36.309Z</time></trkpt><trkpt lat="41.0944815" lon="14.3627758"><ele>246.0</ele><time>2026-04-22T09:47:37.289Z</time></trkpt><trkpt lat="41.0946374" lon="14.3626429"><ele>246.0</ele><time>2026-04-22T09:47:38.393Z</time></trkpt><trkpt lat="41.0949114" lon="14.3624468"><ele>246.0</ele><time>2026-04-22T09:47:40.277Z</time></trkpt><trkpt lat="41.0950312" lon="14.3623574"><ele>246.0</ele><time>2026-04-22T09:47:41.303Z</time></trkpt><trkpt lat="41.0951394" lon="14.3622329"><ele>242.66666666666669</ele><time>2026-04-22T09:47:42.303Z</time></trkpt><trkpt lat="41.0952341" lon="14.362065"><ele>239.33333333333334</ele><time>2026-04-22T09:47:43.301Z</time></trkpt><trkpt lat="41.0953366" lon="14.3618755"><ele>236.0</ele><time>2026-04-22T09:47:44.281Z</time></trkpt><trkpt lat="41.0954446" lon="14.361685"><ele>236.0</ele><time>2026-04-22T09:47:45.284Z</time></trkpt><trkpt lat="41.095554" lon="14.3614952"><ele>236.0</ele><time>2026-04-22T09:47:46.288Z</time></trkpt><trkpt lat="41.0956608" lon="14.3613099"><ele>236.0</ele><time>2026-04-22T09:47:47.273Z</time></trkpt><trkpt lat="41.0957634" lon="14.3611287"><ele>237.25</ele><time>2026-04-22T09:47:48.306Z</time></trkpt><trkpt lat="41.095857" lon="14.360969"><ele>238.5</ele><time>2026-04-22T09:47:49.319Z</time></trkpt><trkpt lat="41.0959449" lon="14.3608172"><ele>239.75</ele><time>2026-04-22T09:47:50.31Z</time></trkpt><trkpt lat="41.0960319" lon="14.3606707"><ele>241.0</ele><time>2026-04-22T09:47:51.326Z</time></trkpt><trkpt lat="41.096116" lon="14.3605337"><ele>235.5</ele><time>2026-04-22T09:47:52.307Z</time></trkpt><trkpt lat="41.0962191" lon="14.3603927"><ele>230.0</ele><time>2026-04-22T09:47:53.309Z</time></trkpt><trkpt lat="41.0963368" lon="14.3602614"><ele>224.5</ele><time>2026-04-22T09:47:54.316Z</time></trkpt><trkpt lat="41.0964453" lon="14.3601538"><ele>219.0</ele><time>2026-04-22T09:47:55.343Z</time></trkpt><trkpt lat="41.0965384" lon="14.3600715"><ele>223.25</ele><time>2026-04-22T09:47:56.322Z</time></trkpt><trkpt lat="41.0966464" lon="14.3599912"><ele>227.5</ele><time>2026-04-22T09:47:57.476Z</time></trkpt><trkpt lat="41.0968347" lon="14.3598965"><ele>231.75</ele><time>2026-04-22T09:47:59.296Z</time></trkpt><trkpt lat="41.09695" lon="14.3598457"><ele>236.0</ele><time>2026-04-22T09:48:00.31Z</time></trkpt><trkpt lat="41.097046" lon="14.3598021"><ele>236.0</ele><time>2026-04-22T09:48:01.305Z</time></trkpt><trkpt lat="41.0971441" lon="14.3597613"><ele>236.00000000000003</ele><time>2026-04-22T09:48:02.325Z</time></trkpt><trkpt lat="41.0972321" lon="14.3597265"><ele>236.00000000000003</ele><time>2026-04-22T09:48:03.309Z</time></trkpt><trkpt lat="41.0973199" lon="14.3596946"><ele>236.0</ele><time>2026-04-22T09:48:04.31Z</time></trkpt><trkpt lat="41.0974156" lon="14.3596652"><ele>236.0</ele><time>2026-04-22T09:48:05.306Z</time></trkpt><trkpt lat="41.0975162" lon="14.3596406"><ele>237.5</ele><time>2026-04-22T09:48:06.286Z</time></trkpt><trkpt lat="41.0976299" lon="14.3596364"><ele>239.0</ele><time>2026-04-22T09:48:07.313Z</time></trkpt><trkpt lat="41.0977635" lon="14.3596494"><ele>240.5</ele><time>2026-04-22T09:48:08.323Z</time></trkpt><trkpt lat="41.0978994" lon="14.3596814"><ele>242.0</ele><time>2026-04-22T09:48:09.3Z</time></trkpt><trkpt lat="41.0980262" lon="14.35972"><ele>242.0</ele><time>2026-04-22T09:48:10.302Z</time></trkpt><trkpt lat="41.0981418" lon="14.3597666"><ele>242.0</ele><time>2026-04-22T09:48:11.264Z</time></trkpt><trkpt lat="41.0982471" lon="14.3598363"><ele>242.0</ele><time>2026-04-22T09:48:12.322Z</time></trkpt><trkpt lat="41.0983296" lon="14.359909"><ele>242.0</ele><time>2026-04-22T09:48:13.277Z</time></trkpt><trkpt lat="41.0984095" lon="14.3599979"><ele>242.0</ele><time>2026-04-22T09:48:14.389Z</time></trkpt><trkpt lat="41.0984653" lon="14.3600581"><ele>240.50000000000003</ele><time>2026-04-22T09:48:15.289Z</time></trkpt><trkpt lat="41.0985221" lon="14.3601064"><ele>239.0</ele><time>2026-04-22T09:48:16.284Z</time></trkpt><trkpt lat="41.0985927" lon="14.3601379"><ele>237.5</ele><time>2026-04-22T09:48:17.288Z</time></trkpt><trkpt lat="41.0986768" lon="14.360134"><ele>236.0</ele><time>2026-04-22T09:48:18.326Z</time></trkpt><trkpt lat="41.0987497" lon="14.3601193"><ele>234.50000000000003</ele><time>2026-04-22T09:48:19.298Z</time></trkpt><trkpt lat="41.0988571" lon="14.3600615"><ele>233.0</ele><time>2026-04-22T09:48:21.296Z</time></trkpt><trkpt lat="41.0988969" lon="14.3599808"><ele>233.0</ele><time>2026-04-22T09:48:22.389Z</time></trkpt><trkpt lat="41.0989073" lon="14.3598796"><ele>233.0</ele><time>2026-04-22T09:48:23.297Z</time></trkpt><trkpt lat="41.0989016" lon="14.3597291"><ele>233.0</ele><time>2026-04-22T09:48:24.31Z</time></trkpt><trkpt lat="41.0988929" lon="14.3595667"><ele>233.0</ele><time>2026-04-22T09:48:25.307Z</time></trkpt><trkpt lat="41.0988941" lon="14.3593714"><ele>229.0</ele><time>2026-04-22T09:48:26.305Z</time></trkpt><trkpt lat="41.0989" lon="14.3591583"><ele>225.0</ele><time>2026-04-22T09:48:27.333Z</time></trkpt><trkpt lat="41.0989091" lon="14.3589664"><ele>221.0</ele><time>2026-04-22T09:48:28.284Z</time></trkpt><trkpt lat="41.0989114" lon="14.3587813"><ele>217.0</ele><time>2026-04-22T09:48:29.285Z</time></trkpt><trkpt lat="41.0989117" lon="14.3585613"><ele>215.66666666666666</ele><time>2026-04-22T09:48:30.518Z</time></trkpt><trkpt lat="41.0988865" lon="14.3582194"><ele>214.33333333333331</ele><time>2026-04-22T09:48:32.385Z</time></trkpt><trkpt lat="41.0988558" lon="14.3580428"><ele>213.0</ele><time>2026-04-22T09:48:33.319Z</time></trkpt><trkpt lat="41.0988136" lon="14.3578682"><ele>213.0</ele><time>2026-04-22T09:48:34.334Z</time></trkpt><trkpt lat="41.0987462" lon="14.3576991"><ele>213.0</ele><time>2026-04-22T09:48:35.357Z</time></trkpt><trkpt lat="41.0986757" lon="14.3575529"><ele>213.0</ele><time>2026-04-22T09:48:36.326Z</time></trkpt><trkpt lat="41.0985652" lon="14.3574005"><ele>213.0</ele><time>2026-04-22T09:48:37.388Z</time></trkpt><trkpt lat="41.0984468" lon="14.3572622"><ele>217.33333333333331</ele><time>2026-04-22T09:48:38.326Z</time></trkpt><trkpt lat="41.0983181" lon="14.3571249"><ele>221.66666666666666</ele><time>2026-04-22T09:48:39.344Z</time></trkpt><trkpt lat="41.0982006" lon="14.3570044"><ele>226.0</ele><time>2026-04-22T09:48:40.327Z</time></trkpt><trkpt lat="41.0981008" lon="14.356864"><ele>217.0</ele><time>2026-04-22T09:48:41.327Z</time></trkpt><trkpt lat="41.09801" lon="14.356715"><ele>208.0</ele><time>2026-04-22T09:48:42.311Z</time></trkpt><trkpt lat="41.0979177" lon="14.3565161"><ele>199.0</ele><time>2026-04-22T09:48:43.445Z</time></trkpt><trkpt lat="41.0978604" lon="14.3563528"><ele>199.0</ele><time>2026-04-22T09:48:44.359Z</time></trkpt><trkpt lat="41.0978298" lon="14.3561783"><ele>199.0</ele><time>2026-04-22T09:48:45.36Z</time></trkpt><trkpt lat="41.0978174" lon="14.3560303"><ele>199.0</ele><time>2026-04-22T09:48:46.391Z</time></trkpt><trkpt lat="41.0978332" lon="14.3559073"><ele>199.0</ele><time>2026-04-22T09:48:47.343Z</time></trkpt><trkpt lat="41.0978948" lon="14.3557633"><ele>199.0</ele><time>2026-04-22T09:48:48.397Z</time></trkpt><trkpt lat="41.0979808" lon="14.3556275"><ele>199.0</ele><time>2026-04-22T09:48:49.376Z</time></trkpt><trkpt lat="41.0980898" lon="14.3554623"><ele>199.0</ele><time>2026-04-22T09:48:50.446Z</time></trkpt><trkpt lat="41.0982702" lon="14.355176"><ele>201.0</ele><time>2026-04-22T09:48:52.342Z</time></trkpt><trkpt lat="41.0983402" lon="14.3550376"><ele>203.0</ele><time>2026-04-22T09:48:53.344Z</time></trkpt><trkpt lat="41.0983731" lon="14.3548779"><ele>205.0</ele><time>2026-04-22T09:48:54.34Z</time></trkpt><trkpt lat="41.0983855" lon="14.3547018"><ele>207.0</ele><time>2026-04-22T09:48:55.373Z</time></trkpt><trkpt lat="41.0983726" lon="14.3545146"><ele>207.0</ele><time>2026-04-22T09:48:56.453Z</time></trkpt><trkpt lat="41.0983331" lon="14.3543534"><ele>207.0</ele><time>2026-04-22T09:48:57.369Z</time></trkpt><trkpt lat="41.0982704" lon="14.3541969"><ele>207.0</ele><time>2026-04-22T09:48:58.329Z</time></trkpt><trkpt lat="41.0982055" lon="14.3540459"><ele>207.0</ele><time>2026-04-22T09:48:59.395Z</time></trkpt><trkpt lat="41.0981672" lon="14.353931"><ele>206.83333333333334</ele><time>2026-04-22T09:49:00.336Z</time></trkpt><trkpt lat="41.0981345" lon="14.3538176"><ele>206.66666666666669</ele><time>2026-04-22T09:49:01.36Z</time></trkpt><trkpt lat="41.098123" lon="14.3537142"><ele>206.5</ele><time>2026-04-22T09:49:02.324Z</time></trkpt><trkpt lat="41.0981226" lon="14.3535922"><ele>206.33333333333334</ele><time>2026-04-22T09:49:03.329Z</time></trkpt><trkpt lat="41.0981558" lon="14.3534893"><ele>206.16666666666669</ele><time>2026-04-22T09:49:04.321Z</time></trkpt><trkpt lat="41.0982262" lon="14.3533996"><ele>206.0</ele><time>2026-04-22T09:49:05.347Z</time></trkpt><trkpt lat="41.098271" lon="14.3533032"><ele>205.99999999999997</ele><time>2026-04-22T09:49:06.341Z</time></trkpt><trkpt lat="41.0982949" lon="14.3532"><ele>206.0</ele><time>2026-04-22T09:49:07.348Z</time></trkpt><trkpt lat="41.0983007" lon="14.3531048"><ele>206.0</ele><time>2026-04-22T09:49:08.351Z</time></trkpt><trkpt lat="41.0982925" lon="14.3530198"><ele>206.0</ele><time>2026-04-22T09:49:09.338Z</time></trkpt><trkpt lat="41.0982696" lon="14.3529292"><ele>206.0</ele><time>2026-04-22T09:49:10.344Z</time></trkpt><trkpt lat="41.0982331" lon="14.3528449"><ele>205.99999999999997</ele><time>2026-04-22T09:49:11.348Z</time></trkpt><trkpt lat="41.0981937" lon="14.3527791"><ele>206.0</ele><time>2026-04-22T09:49:12.335Z</time></trkpt><trkpt lat="41.0981389" lon="14.3527135"><ele>201.0</ele><time>2026-04-22T09:49:13.357Z</time></trkpt><trkpt lat="41.0980651" lon="14.3526511"><ele>196.0</ele><time>2026-04-22T09:49:14.342Z</time></trkpt><trkpt lat="41.0979751" lon="14.3525728"><ele>191.0</ele><time>2026-04-22T09:49:15.382Z</time></trkpt><trkpt lat="41.0978718" lon="14.3524689"><ele>186.0</ele><time>2026-04-22T09:49:16.355Z</time></trkpt><trkpt lat="41.0977597" lon="14.3523502"><ele>186.0</ele><time>2026-04-22T09:49:17.374Z</time></trkpt><trkpt lat="41.0976495" lon="14.3522199"><ele>186.0</ele><time>2026-04-22T09:49:18.388Z</time></trkpt><trkpt lat="41.0975596" lon="14.3520932"><ele>186.0</ele><time>2026-04-22T09:49:19.353Z</time></trkpt><trkpt lat="41.097485" lon="14.3519674"><ele>186.0</ele><time>2026-04-22T09:49:20.34Z</time></trkpt><trkpt lat="41.0974351" lon="14.3518366"><ele>182.0</ele><time>2026-04-22T09:49:21.35Z</time></trkpt><trkpt lat="41.0973995" lon="14.3516782"><ele>178.0</ele><time>2026-04-22T09:49:22.345Z</time></trkpt><trkpt lat="41.0973745" lon="14.3514839"><ele>174.0</ele><time>2026-04-22T09:49:23.407Z</time></trkpt><trkpt lat="41.0973631" lon="14.3513059"><ele>170.0</ele><time>2026-04-22T09:49:24.354Z</time></trkpt><trkpt lat="41.097374" lon="14.3510732"><ele>169.33333333333331</ele><time>2026-04-22T09:49:25.353Z</time></trkpt><trkpt lat="41.0973921" lon="14.3508147"><ele>168.66666666666666</ele><time>2026-04-22T09:49:26.36Z</time></trkpt><trkpt lat="41.0974205" lon="14.3505594"><ele>168.0</ele><time>2026-04-22T09:49:27.346Z</time></trkpt><trkpt lat="41.0974498" lon="14.3502935"><ele>171.33333333333334</ele><time>2026-04-22T09:49:28.398Z</time></trkpt><trkpt lat="41.0974692" lon="14.350057"><ele>174.66666666666669</ele><time>2026-04-22T09:49:29.362Z</time></trkpt><trkpt lat="41.097491" lon="14.3498103"><ele>178.0</ele><time>2026-04-22T09:49:30.413Z</time></trkpt><trkpt lat="41.0975129" lon="14.3495869"><ele>178.0</ele><time>2026-04-22T09:49:31.413Z</time></trkpt><trkpt lat="41.0975322" lon="14.3493738"><ele>178.0</ele><time>2026-04-22T09:49:32.41Z</time></trkpt><trkpt lat="41.0975683" lon="14.3489942"><ele>176.33333333333334</ele><time>2026-04-22T09:49:34.297Z</time></trkpt><trkpt lat="41.0975858" lon="14.3488009"><ele>174.66666666666666</ele><time>2026-04-22T09:49:35.322Z</time></trkpt><trkpt lat="41.0976081" lon="14.3486059"><ele>173.0</ele><time>2026-04-22T09:49:36.415Z</time></trkpt><trkpt lat="41.0976433" lon="14.348296"><ele>173.0</ele><time>2026-04-22T09:49:38.299Z</time></trkpt><trkpt lat="41.0976538" lon="14.3481421"><ele>173.0</ele><time>2026-04-22T09:49:39.288Z</time></trkpt><trkpt lat="41.0976649" lon="14.3479903"><ele>173.0</ele><time>2026-04-22T09:49:40.307Z</time></trkpt><trkpt lat="41.0976785" lon="14.3478463"><ele>173.0</ele><time>2026-04-22T09:49:41.303Z</time></trkpt><trkpt lat="41.097696" lon="14.3476964"><ele>172.0</ele><time>2026-04-22T09:49:42.307Z</time></trkpt><trkpt lat="41.0977098" lon="14.3475405"><ele>171.0</ele><time>2026-04-22T09:49:43.289Z</time></trkpt><trkpt lat="41.0977261" lon="14.3473479"><ele>170.0</ele><time>2026-04-22T09:49:44.428Z</time></trkpt><trkpt lat="41.097742" lon="14.3471792"><ele>169.0</ele><time>2026-04-22T09:49:45.42Z</time></trkpt><trkpt lat="41.097757" lon="14.3470351"><ele>168.2</ele><time>2026-04-22T09:49:46.32Z</time></trkpt><trkpt lat="41.097777" lon="14.3468884"><ele>167.39999999999998</ele><time>2026-04-22T09:49:47.302Z</time></trkpt><trkpt lat="41.097792" lon="14.3467477"><ele>166.6</ele><time>2026-04-22T09:49:48.294Z</time></trkpt><trkpt lat="41.0978028" lon="14.3466099"><ele>165.8</ele><time>2026-04-22T09:49:49.328Z</time></trkpt><trkpt lat="41.0978111" lon="14.3464878"><ele>165.0</ele><time>2026-04-22T09:49:50.317Z</time></trkpt><trkpt lat="41.0978114" lon="14.3463738"><ele>164.6</ele><time>2026-04-22T09:49:51.306Z</time></trkpt><trkpt lat="41.0977986" lon="14.3462505"><ele>164.2</ele><time>2026-04-22T09:49:52.32Z</time></trkpt><trkpt lat="41.097766" lon="14.3461189"><ele>163.8</ele><time>2026-04-22T09:49:53.511Z</time></trkpt><trkpt lat="41.09769" lon="14.3459704"><ele>163.4</ele><time>2026-04-22T09:49:55.3Z</time></trkpt><trkpt lat="41.0976467" lon="14.3458958"><ele>163.0</ele><time>2026-04-22T09:49:56.294Z</time></trkpt><trkpt lat="41.0976013" lon="14.3458293"><ele>163.0</ele><time>2026-04-22T09:49:57.298Z</time></trkpt><trkpt lat="41.0975195" lon="14.3457573"><ele>163.0</ele><time>2026-04-22T09:49:59.3Z</time></trkpt><trkpt lat="41.0974269" lon="14.3457674"><ele>163.0</ele><time>2026-04-22T09:50:04.278Z</time></trkpt><trkpt lat="41.097365" lon="14.3458341"><ele>163.0</ele><time>2026-04-22T09:50:05.278Z</time></trkpt><trkpt lat="41.0972998" lon="14.3459267"><ele>163.0</ele><time>2026-04-22T09:50:06.25Z</time></trkpt><trkpt lat="41.0972171" lon="14.3460454"><ele>161.0</ele><time>2026-04-22T09:50:07.287Z</time></trkpt><trkpt lat="41.0971296" lon="14.3461791"><ele>159.0</ele><time>2026-04-22T09:50:08.293Z</time></trkpt><trkpt lat="41.0970332" lon="14.346333"><ele>157.0</ele><time>2026-04-22T09:50:09.313Z</time></trkpt><trkpt lat="41.0969366" lon="14.346491"><ele>155.0</ele><time>2026-04-22T09:50:10.302Z</time></trkpt><trkpt lat="41.0968329" lon="14.3466605"><ele>154.66666666666666</ele><time>2026-04-22T09:50:11.306Z</time></trkpt><trkpt lat="41.0967339" lon="14.3468263"><ele>154.33333333333334</ele><time>2026-04-22T09:50:12.278Z</time></trkpt><trkpt lat="41.0966362" lon="14.3469904"><ele>154.0</ele><time>2026-04-22T09:50:13.311Z</time></trkpt><trkpt lat="41.0965492" lon="14.3471336"><ele>153.0</ele><time>2026-04-22T09:50:14.271Z</time></trkpt><trkpt lat="41.0964505" lon="14.3472949"><ele>152.0</ele><time>2026-04-22T09:50:15.411Z</time></trkpt><trkpt lat="41.0962958" lon="14.3475457"><ele>151.0</ele><time>2026-04-22T09:50:17.311Z</time></trkpt><trkpt lat="41.0962176" lon="14.3476662"><ele>151.0</ele><time>2026-04-22T09:50:18.323Z</time></trkpt><trkpt lat="41.0961442" lon="14.3477755"><ele>151.0</ele><time>2026-04-22T09:50:19.305Z</time></trkpt><trkpt lat="41.0960697" lon="14.3478938"><ele>151.0</ele><time>2026-04-22T09:50:20.303Z</time></trkpt><trkpt lat="41.0959933" lon="14.3480163"><ele>151.0</ele><time>2026-04-22T09:50:21.288Z</time></trkpt><trkpt lat="41.0959094" lon="14.3481577"><ele>151.5</ele><time>2026-04-22T09:50:22.31Z</time></trkpt><trkpt lat="41.0958216" lon="14.3482768"><ele>152.0</ele><time>2026-04-22T09:50:23.294Z</time></trkpt><trkpt lat="41.0957378" lon="14.3484078"><ele>152.5</ele><time>2026-04-22T09:50:24.304Z</time></trkpt><trkpt lat="41.0956645" lon="14.3485153"><ele>153.0</ele><time>2026-04-22T09:50:25.267Z</time></trkpt><trkpt lat="41.0955923" lon="14.3486149"><ele>151.83333333333334</ele><time>2026-04-22T09:50:26.245Z</time></trkpt><trkpt lat="41.0955322" lon="14.3487259"><ele>150.66666666666666</ele><time>2026-04-22T09:50:27.292Z</time></trkpt><trkpt lat="41.0954847" lon="14.3488086"><ele>149.5</ele><time>2026-04-22T09:50:28.252Z</time></trkpt><trkpt lat="41.0954392" lon="14.3488896"><ele>148.33333333333331</ele><time>2026-04-22T09:50:29.28Z</time></trkpt><trkpt lat="41.095396" lon="14.3489793"><ele>147.16666666666666</ele><time>2026-04-22T09:50:30.273Z</time></trkpt><trkpt lat="41.0953208" lon="14.3490844"><ele>146.0</ele><time>2026-04-22T09:50:31.302Z</time></trkpt><trkpt lat="41.0952466" lon="14.349201"><ele>146.0</ele><time>2026-04-22T09:50:32.28Z</time></trkpt><trkpt lat="41.0951629" lon="14.3493335"><ele>146.0</ele><time>2026-04-22T09:50:33.282Z</time></trkpt><trkpt lat="41.0950822" lon="14.3494762"><ele>146.0</ele><time>2026-04-22T09:50:34.295Z</time></trkpt><trkpt lat="41.0949944" lon="14.3496213"><ele>146.0</ele><time>2026-04-22T09:50:35.297Z</time></trkpt><trkpt lat="41.0949085" lon="14.3497473"><ele>144.5</ele><time>2026-04-22T09:50:36.273Z</time></trkpt><trkpt lat="41.0948335" lon="14.349868"><ele>143.0</ele><time>2026-04-22T09:50:37.294Z</time></trkpt><trkpt lat="41.0947558" lon="14.3500156"><ele>141.5</ele><time>2026-04-22T09:50:38.469Z</time></trkpt><trkpt lat="41.0947115" lon="14.3501442"><ele>140.0</ele><time>2026-04-22T09:50:39.422Z</time></trkpt><trkpt lat="41.0946736" lon="14.3502655"><ele>140.0</ele><time>2026-04-22T09:50:40.33Z</time></trkpt><trkpt lat="41.0946349" lon="14.3504353"><ele>140.0</ele><time>2026-04-22T09:50:41.468Z</time></trkpt><trkpt lat="41.0945843" lon="14.3507083"><ele>140.0</ele><time>2026-04-22T09:50:43.372Z</time></trkpt><trkpt lat="41.0945807" lon="14.350825"><ele>140.0</ele><time>2026-04-22T09:50:44.363Z</time></trkpt><trkpt lat="41.0945766" lon="14.3509793"><ele>140.66666666666666</ele><time>2026-04-22T09:50:45.508Z</time></trkpt><trkpt lat="41.0945789" lon="14.3510845"><ele>141.33333333333331</ele><time>2026-04-22T09:50:46.308Z</time></trkpt><trkpt lat="41.0945805" lon="14.3512096"><ele>142.0</ele><time>2026-04-22T09:50:47.342Z</time></trkpt><trkpt lat="41.0945829" lon="14.3513071"><ele>142.66666666666666</ele><time>2026-04-22T09:50:48.335Z</time></trkpt><trkpt lat="41.0945794" lon="14.3514023"><ele>143.33333333333334</ele><time>2026-04-22T09:50:49.329Z</time></trkpt><trkpt lat="41.0945729" lon="14.3515387"><ele>144.0</ele><time>2026-04-22T09:50:51.385Z</time></trkpt><trkpt lat="41.0945829" lon="14.3517086"><ele>144.16666666666666</ele><time>2026-04-22T09:50:53.35Z</time></trkpt><trkpt lat="41.0945728" lon="14.3517969"><ele>144.33333333333334</ele><time>2026-04-22T09:50:54.337Z</time></trkpt><trkpt lat="41.0945714" lon="14.3519017"><ele>144.5</ele><time>2026-04-22T09:50:55.328Z</time></trkpt><trkpt lat="41.0945731" lon="14.3520203"><ele>144.66666666666669</ele><time>2026-04-22T09:50:56.33Z</time></trkpt><trkpt lat="41.0945731" lon="14.352143"><ele>144.83333333333334</ele><time>2026-04-22T09:50:57.335Z</time></trkpt><trkpt lat="41.0945769" lon="14.352254"><ele>145.0</ele><time>2026-04-22T09:50:58.319Z</time></trkpt><trkpt lat="41.0945905" lon="14.3523717"><ele>145.6</ele><time>2026-04-22T09:50:59.306Z</time></trkpt><trkpt lat="41.0945956" lon="14.3524813"><ele>146.2</ele><time>2026-04-22T09:51:00.283Z</time></trkpt><trkpt lat="41.0945972" lon="14.3525999"><ele>146.8</ele><time>2026-04-22T09:51:01.275Z</time></trkpt><trkpt lat="41.0946017" lon="14.3527252"><ele>147.4</ele><time>2026-04-22T09:51:02.259Z</time></trkpt><trkpt lat="41.0946019" lon="14.3528562"><ele>148.0</ele><time>2026-04-22T09:51:03.254Z</time></trkpt><trkpt lat="41.0945986" lon="14.3529986"><ele>148.4</ele><time>2026-04-22T09:51:04.322Z</time></trkpt><trkpt lat="41.0945983" lon="14.3531307"><ele>148.8</ele><time>2026-04-22T09:51:05.283Z</time></trkpt><trkpt lat="41.094595" lon="14.3532709"><ele>149.2</ele><time>2026-04-22T09:51:06.301Z</time></trkpt><trkpt lat="41.0945924" lon="14.3533903"><ele>149.6</ele><time>2026-04-22T09:51:07.255Z</time></trkpt><trkpt lat="41.0945886" lon="14.3535007"><ele>150.0</ele><time>2026-04-22T09:51:08.26Z</time></trkpt><trkpt lat="41.0945861" lon="14.3536035"><ele>150.0</ele><time>2026-04-22T09:51:09.294Z</time></trkpt><trkpt lat="41.094583" lon="14.3536898"><ele>150.0</ele><time>2026-04-22T09:51:10.305Z</time></trkpt><trkpt lat="41.0945844" lon="14.3537737"><ele>150.0</ele><time>2026-04-22T09:51:11.293Z</time></trkpt><trkpt lat="41.0945765" lon="14.3539211"><ele>150.0</ele><time>2026-04-22T09:51:13.292Z</time></trkpt><trkpt lat="41.0945729" lon="14.3540839"><ele>150.0</ele><time>2026-04-22T09:51:15.268Z</time></trkpt><trkpt lat="41.0945561" lon="14.3542221"><ele>150.5</ele><time>2026-04-22T09:51:17.258Z</time></trkpt><trkpt lat="41.0945534" lon="14.3543347"><ele>151.0</ele><time>2026-04-22T09:51:19.274Z</time></trkpt><trkpt lat="41.0945573" lon="14.3544201"><ele>151.5</ele><time>2026-04-22T09:51:21.265Z</time></trkpt><trkpt lat="41.0945755" lon="14.3545736"><ele>152.0</ele><time>2026-04-22T09:51:23.35Z</time></trkpt><trkpt lat="41.0945717" lon="14.3546779"><ele>152.5</ele><time>2026-04-22T09:51:24.29Z</time></trkpt><trkpt lat="41.0945644" lon="14.354784"><ele>153.0</ele><time>2026-04-22T09:51:25.289Z</time></trkpt><trkpt lat="41.0945603" lon="14.3548896"><ele>153.5</ele><time>2026-04-22T09:51:26.264Z</time></trkpt><trkpt lat="41.0945515" lon="14.3550047"><ele>154.0</ele><time>2026-04-22T09:51:27.282Z</time></trkpt><trkpt lat="41.0945443" lon="14.3551191"><ele>154.5</ele><time>2026-04-22T09:51:28.251Z</time></trkpt><trkpt lat="41.0945364" lon="14.3552305"><ele>155.0</ele><time>2026-04-22T09:51:29.269Z</time></trkpt><trkpt lat="41.0945288" lon="14.3553236"><ele>155.5</ele><time>2026-04-22T09:51:30.29Z</time></trkpt><trkpt lat="41.094494" lon="14.355468"><ele>156.0</ele><time>2026-04-22T09:51:32.291Z</time></trkpt><trkpt lat="41.0944447" lon="14.355607"><ele>157.0</ele><time>2026-04-22T09:51:34.264Z</time></trkpt><trkpt lat="41.0944082" lon="14.3556868"><ele>158.0</ele><time>2026-04-22T09:51:35.253Z</time></trkpt><trkpt lat="41.0943715" lon="14.355768"><ele>159.0</ele><time>2026-04-22T09:51:36.251Z</time></trkpt><trkpt lat="41.0943281" lon="14.355843"><ele>160.0</ele><time>2026-04-22T09:51:37.238Z</time></trkpt><trkpt lat="41.0942682" lon="14.3559101"><ele>161.0</ele><time>2026-04-22T09:51:38.248Z</time></trkpt><trkpt lat="41.0942156" lon="14.3559725"><ele>162.0</ele><time>2026-04-22T09:51:39.231Z</time></trkpt><trkpt lat="41.0941472" lon="14.3560459"><ele>162.0</ele><time>2026-04-22T09:51:41.247Z</time></trkpt><trkpt lat="41.0940993" lon="14.3561249"><ele>162.0</ele><time>2026-04-22T09:51:43.26Z</time></trkpt><trkpt lat="41.0941142" lon="14.3562663"><ele>162.0</ele><time>2026-04-22T09:51:56.275Z</time></trkpt><trkpt lat="41.0941197" lon="14.3564294"><ele>162.0</ele><time>2026-04-22T09:51:58.282Z</time></trkpt><trkpt lat="41.094121" lon="14.3565255"><ele>162.0</ele><time>2026-04-22T09:51:59.265Z</time></trkpt><trkpt lat="41.0941263" lon="14.3566324"><ele>161.66666666666666</ele><time>2026-04-22T09:52:00.255Z</time></trkpt><trkpt lat="41.0941327" lon="14.3567384"><ele>161.33333333333334</ele><time>2026-04-22T09:52:01.257Z</time></trkpt><trkpt lat="41.0941285" lon="14.3568494"><ele>161.0</ele><time>2026-04-22T09:52:02.275Z</time></trkpt><trkpt lat="41.0941137" lon="14.3569479"><ele>160.66666666666669</ele><time>2026-04-22T09:52:03.282Z</time></trkpt><trkpt lat="41.0941042" lon="14.3570344"><ele>160.33333333333334</ele><time>2026-04-22T09:52:04.264Z</time></trkpt><trkpt lat="41.094041" lon="14.3571832"><ele>160.0</ele><time>2026-04-22T09:52:06.256Z</time></trkpt><trkpt lat="41.0939955" lon="14.3572555"><ele>160.66666666666669</ele><time>2026-04-22T09:52:07.235Z</time></trkpt><trkpt lat="41.0939335" lon="14.3573186"><ele>161.33333333333334</ele><time>2026-04-22T09:52:08.259Z</time></trkpt><trkpt lat="41.0939061" lon="14.3574167"><ele>162.0</ele><time>2026-04-22T09:52:09.231Z</time></trkpt><trkpt lat="41.0938887" lon="14.3575095"><ele>162.66666666666666</ele><time>2026-04-22T09:52:10.24Z</time></trkpt><trkpt lat="41.093839" lon="14.3576218"><ele>163.33333333333331</ele><time>2026-04-22T09:52:12.314Z</time></trkpt><trkpt lat="41.0937729" lon="14.3576698"><ele>164.0</ele><time>2026-04-22T09:52:16.361Z</time></trkpt><trkpt lat="41.0937043" lon="14.3576776"><ele>164.0</ele><time>2026-04-22T09:52:18.288Z</time></trkpt><trkpt lat="41.0935638" lon="14.357658"><ele>164.0</ele><time>2026-04-22T09:52:21.296Z</time></trkpt><trkpt lat="41.0934927" lon="14.357627"><ele>164.0</ele><time>2026-04-22T09:52:23.294Z</time></trkpt><trkpt lat="41.0934424" lon="14.3575383"><ele>164.0</ele><time>2026-04-22T09:52:25.264Z</time></trkpt><trkpt lat="41.0933876" lon="14.357419"><ele>164.0</ele><time>2026-04-22T09:52:27.285Z</time></trkpt><trkpt lat="41.0933161" lon="14.3572978"><ele>164.0</ele><time>2026-04-22T09:52:29.28Z</time></trkpt><trkpt lat="41.0932738" lon="14.3572327"><ele>164.0</ele><time>2026-04-22T09:52:30.276Z</time></trkpt><trkpt lat="41.0932204" lon="14.3571577"><ele>164.0</ele><time>2026-04-22T09:52:31.386Z</time></trkpt><trkpt lat="41.0931546" lon="14.3570511"><ele>164.0</ele><time>2026-04-22T09:52:33.259Z</time></trkpt><trkpt lat="41.0930797" lon="14.356951"><ele>164.0</ele><time>2026-04-22T09:52:35.295Z</time></trkpt><trkpt lat="41.0929836" lon="14.3568886"><ele>161.79999999999998</ele><time>2026-04-22T09:52:37.318Z</time></trkpt><trkpt lat="41.0928949" lon="14.3568175"><ele>159.6</ele><time>2026-04-22T09:52:39.314Z</time></trkpt><trkpt lat="41.0928183" lon="14.3567291"><ele>157.4</ele><time>2026-04-22T09:52:41.294Z</time></trkpt><trkpt lat="41.0927678" lon="14.3565944"><ele>155.2</ele><time>2026-04-22T09:52:43.284Z</time></trkpt><trkpt lat="41.0927406" lon="14.3565123"><ele>153.0</ele><time>2026-04-22T09:52:44.318Z</time></trkpt><trkpt lat="41.092708" lon="14.3564326"><ele>152.33333333333334</ele><time>2026-04-22T09:52:45.335Z</time></trkpt><trkpt lat="41.0926799" lon="14.3563569"><ele>151.66666666666666</ele><time>2026-04-22T09:52:46.322Z</time></trkpt><trkpt lat="41.0926512" lon="14.3562809"><ele>151.0</ele><time>2026-04-22T09:52:47.321Z</time></trkpt><trkpt lat="41.09262" lon="14.3562035"><ele>150.33333333333331</ele><time>2026-04-22T09:52:48.389Z</time></trkpt><trkpt lat="41.0925523" lon="14.3560809"><ele>149.66666666666666</ele><time>2026-04-22T09:52:50.287Z</time></trkpt><trkpt lat="41.0924806" lon="14.3559709"><ele>149.0</ele><time>2026-04-22T09:52:52.282Z</time></trkpt><trkpt lat="41.0924222" lon="14.3558702"><ele>148.2</ele><time>2026-04-22T09:52:54.319Z</time></trkpt><trkpt lat="41.0923159" lon="14.3558133"><ele>147.4</ele><time>2026-04-22T09:52:57.292Z</time></trkpt><trkpt lat="41.0922263" lon="14.3558069"><ele>146.6</ele><time>2026-04-22T09:52:59.293Z</time></trkpt><trkpt lat="41.0921541" lon="14.3557758"><ele>145.8</ele><time>2026-04-22T09:53:02.313Z</time></trkpt><trkpt lat="41.0921261" lon="14.3556616"><ele>145.0</ele><time>2026-04-22T09:53:05.344Z</time></trkpt><trkpt lat="41.092161" lon="14.3554817"><ele>144.16666666666669</ele><time>2026-04-22T09:53:07.31Z</time></trkpt><trkpt lat="41.0921781" lon="14.3553705"><ele>143.33333333333334</ele><time>2026-04-22T09:53:08.321Z</time></trkpt><trkpt lat="41.0921947" lon="14.3552734"><ele>142.5</ele><time>2026-04-22T09:53:09.366Z</time></trkpt><trkpt lat="41.0922102" lon="14.3551735"><ele>141.66666666666666</ele><time>2026-04-22T09:53:10.314Z</time></trkpt><trkpt lat="41.0922233" lon="14.3550911"><ele>140.83333333333331</ele><time>2026-04-22T09:53:11.331Z</time></trkpt><trkpt lat="41.0922362" lon="14.3549952"><ele>140.0</ele><time>2026-04-22T09:53:12.416Z</time></trkpt><trkpt lat="41.0923005" lon="14.3548699"><ele>140.0</ele><time>2026-04-22T09:53:14.292Z</time></trkpt><trkpt lat="41.0924035" lon="14.3548139"><ele>140.0</ele><time>2026-04-22T09:53:16.313Z</time></trkpt><trkpt lat="41.0924741" lon="14.3548142"><ele>140.0</ele><time>2026-04-22T09:53:17.299Z</time></trkpt><trkpt lat="41.0925689" lon="14.3547776"><ele>140.0</ele><time>2026-04-22T09:53:19.299Z</time></trkpt><trkpt lat="41.0926316" lon="14.3546843"><ele>140.0</ele><time>2026-04-22T09:53:21.311Z</time></trkpt><trkpt lat="41.0926484" lon="14.3546033"><ele>140.0</ele><time>2026-04-22T09:53:22.3Z</time></trkpt><trkpt lat="41.0926703" lon="14.3544186"><ele>140.0</ele><time>2026-04-22T09:53:24.28Z</time></trkpt><trkpt lat="41.0926933" lon="14.3543137"><ele>140.0</ele><time>2026-04-22T09:53:25.276Z</time></trkpt><trkpt lat="41.0927068" lon="14.3541974"><ele>140.0</ele><time>2026-04-22T09:53:26.279Z</time></trkpt><trkpt lat="41.092723" lon="14.3541075"><ele>140.0</ele><time>2026-04-22T09:53:27.294Z</time></trkpt><trkpt lat="41.0927351" lon="14.3539481"><ele>140.0</ele><time>2026-04-22T09:53:29.309Z</time></trkpt><trkpt lat="41.0927509" lon="14.3538366"><ele>140.0</ele><time>2026-04-22T09:53:31.263Z</time></trkpt><trkpt lat="41.0927645" lon="14.3537481"><ele>140.0</ele><time>2026-04-22T09:53:33.343Z</time></trkpt><trkpt lat="41.0927128" lon="14.3536977"><ele>140.0</ele><time>2026-04-22T09:53:38.339Z</time></trkpt><trkpt lat="41.0926444" lon="14.3536656"><ele>140.0</ele><time>2026-04-22T09:53:39.338Z</time></trkpt><trkpt lat="41.0925794" lon="14.3536203"><ele>140.0</ele><time>2026-04-22T09:53:40.338Z</time></trkpt><trkpt lat="41.0924897" lon="14.3535067"><ele>140.0</ele><time>2026-04-22T09:53:42.338Z</time></trkpt><trkpt lat="41.0924658" lon="14.3534267"><ele>140.0</ele><time>2026-04-22T09:53:43.328Z</time></trkpt><trkpt lat="41.0924375" lon="14.3532772"><ele>140.0</ele><time>2026-04-22T09:53:45.337Z</time></trkpt><trkpt lat="41.0924324" lon="14.3531082"><ele>140.0</ele><time>2026-04-22T09:53:47.349Z</time></trkpt><trkpt lat="41.0924384" lon="14.3530022"><ele>140.0</ele><time>2026-04-22T09:53:48.357Z</time></trkpt><trkpt lat="41.0924526" lon="14.3528982"><ele>140.0</ele><time>2026-04-22T09:53:49.338Z</time></trkpt><trkpt lat="41.0924687" lon="14.3527812"><ele>140.0</ele><time>2026-04-22T09:53:50.345Z</time></trkpt><trkpt lat="41.0924867" lon="14.3526586"><ele>139.5</ele><time>2026-04-22T09:53:51.453Z</time></trkpt><trkpt lat="41.0924944" lon="14.352546"><ele>139.0</ele><time>2026-04-22T09:53:52.362Z</time></trkpt><trkpt lat="41.0925083" lon="14.3524374"><ele>138.5</ele><time>2026-04-22T09:53:53.319Z</time></trkpt><trkpt lat="41.0925259" lon="14.3523098"><ele>138.0</ele><time>2026-04-22T09:53:54.334Z</time></trkpt><trkpt lat="41.092543" lon="14.3521795"><ele>137.5</ele><time>2026-04-22T09:53:55.333Z</time></trkpt><trkpt lat="41.0925581" lon="14.3520739"><ele>137.0</ele><time>2026-04-22T09:53:56.317Z</time></trkpt><trkpt lat="41.0925698" lon="14.351975"><ele>136.5</ele><time>2026-04-22T09:53:57.353Z</time></trkpt><trkpt lat="41.0925835" lon="14.3518916"><ele>136.0</ele><time>2026-04-22T09:53:58.331Z</time></trkpt><trkpt lat="41.09259" lon="14.3517466"><ele>135.5</ele><time>2026-04-22T09:54:00.356Z</time></trkpt><trkpt lat="41.0925627" lon="14.3516598"><ele>135.0</ele><time>2026-04-22T09:54:02.401Z</time></trkpt><trkpt lat="41.092458" lon="14.3516403"><ele>134.5</ele><time>2026-04-22T09:54:04.363Z</time></trkpt><trkpt lat="41.0923735" lon="14.351656"><ele>134.0</ele><time>2026-04-22T09:54:05.35Z</time></trkpt><trkpt lat="41.0922794" lon="14.3516635"><ele>133.5</ele><time>2026-04-22T09:54:06.344Z</time></trkpt><trkpt lat="41.0921933" lon="14.3516583"><ele>133.0</ele><time>2026-04-22T09:54:07.331Z</time></trkpt><trkpt lat="41.0921031" lon="14.3516461"><ele>132.5</ele><time>2026-04-22T09:54:08.342Z</time></trkpt><trkpt lat="41.0920113" lon="14.3516316"><ele>132.0</ele><time>2026-04-22T09:54:09.361Z</time></trkpt><trkpt lat="41.091924" lon="14.3516206"><ele>131.5</ele><time>2026-04-22T09:54:10.34Z</time></trkpt><trkpt lat="41.0918349" lon="14.3516098"><ele>131.0</ele><time>2026-04-22T09:54:11.356Z</time></trkpt><trkpt lat="41.0917459" lon="14.3515935"><ele>131.0</ele><time>2026-04-22T09:54:12.367Z</time></trkpt><trkpt lat="41.0916558" lon="14.3515773"><ele>131.0</ele><time>2026-04-22T09:54:13.361Z</time></trkpt><trkpt lat="41.0915676" lon="14.3515613"><ele>131.0</ele><time>2026-04-22T09:54:14.352Z</time></trkpt><trkpt lat="41.0914787" lon="14.3515511"><ele>131.0</ele><time>2026-04-22T09:54:15.364Z</time></trkpt><trkpt lat="41.0913798" lon="14.3515402"><ele>131.0</ele><time>2026-04-22T09:54:16.353Z</time></trkpt><trkpt lat="41.0912777" lon="14.3515215"><ele>129.75</ele><time>2026-04-22T09:54:17.349Z</time></trkpt><trkpt lat="41.091168" lon="14.3514964"><ele>128.5</ele><time>2026-04-22T09:54:18.327Z</time></trkpt><trkpt lat="41.0910378" lon="14.3514829"><ele>127.25</ele><time>2026-04-22T09:54:19.36Z</time></trkpt><trkpt lat="41.0909201" lon="14.3514785"><ele>126.0</ele><time>2026-04-22T09:54:20.337Z</time></trkpt><trkpt lat="41.0908" lon="14.3514765"><ele>125.0</ele><time>2026-04-22T09:54:21.384Z</time></trkpt><trkpt lat="41.090694" lon="14.3514798"><ele>124.0</ele><time>2026-04-22T09:54:22.358Z</time></trkpt><trkpt lat="41.0905887" lon="14.3514856"><ele>123.0</ele><time>2026-04-22T09:54:23.343Z</time></trkpt><trkpt lat="41.0904797" lon="14.3514981"><ele>122.0</ele><time>2026-04-22T09:54:24.361Z</time></trkpt><trkpt lat="41.0903709" lon="14.351499"><ele>121.0</ele><time>2026-04-22T09:54:25.35Z</time></trkpt><trkpt lat="41.0902574" lon="14.3514852"><ele>121.00000000000001</ele><time>2026-04-22T09:54:26.361Z</time></trkpt><trkpt lat="41.0901546" lon="14.3514654"><ele>121.0</ele><time>2026-04-22T09:54:27.353Z</time></trkpt><trkpt lat="41.0900603" lon="14.3514434"><ele>121.0</ele><time>2026-04-22T09:54:28.36Z</time></trkpt><trkpt lat="41.089982" lon="14.3514111"><ele>121.0</ele><time>2026-04-22T09:54:29.328Z</time></trkpt><trkpt lat="41.0899085" lon="14.3513609"><ele>121.00000000000001</ele><time>2026-04-22T09:54:30.343Z</time></trkpt><trkpt lat="41.0898428" lon="14.3512972"><ele>121.0</ele><time>2026-04-22T09:54:31.352Z</time></trkpt><trkpt lat="41.0898" lon="14.3512139"><ele>120.00000000000001</ele><time>2026-04-22T09:54:32.35Z</time></trkpt><trkpt lat="41.0897684" lon="14.3510982"><ele>119.0</ele><time>2026-04-22T09:54:33.372Z</time></trkpt><trkpt lat="41.089751" lon="14.3509689"><ele>118.0</ele><time>2026-04-22T09:54:34.369Z</time></trkpt><trkpt lat="41.0897491" lon="14.3508398"><ele>117.0</ele><time>2026-04-22T09:54:35.389Z</time></trkpt><trkpt lat="41.0897341" lon="14.3507342"><ele>116.00000000000001</ele><time>2026-04-22T09:54:36.381Z</time></trkpt><trkpt lat="41.0896923" lon="14.3506453"><ele>115.0</ele><time>2026-04-22T09:54:37.383Z</time></trkpt><trkpt lat="41.0896246" lon="14.3505758"><ele>115.0</ele><time>2026-04-22T09:54:38.408Z</time></trkpt><trkpt lat="41.0895324" lon="14.3505547"><ele>115.0</ele><time>2026-04-22T09:54:39.385Z</time></trkpt><trkpt lat="41.0894169" lon="14.3505605"><ele>115.0</ele><time>2026-04-22T09:54:40.392Z</time></trkpt><trkpt lat="41.0892942" lon="14.3505558"><ele>115.0</ele><time>2026-04-22T09:54:41.339Z</time></trkpt><trkpt lat="41.0891674" lon="14.3505463"><ele>114.0</ele><time>2026-04-22T09:54:42.377Z</time></trkpt><trkpt lat="41.0890432" lon="14.3505403"><ele>113.0</ele><time>2026-04-22T09:54:43.394Z</time></trkpt><trkpt lat="41.0889106" lon="14.3505327"><ele>112.0</ele><time>2026-04-22T09:54:44.365Z</time></trkpt><trkpt lat="41.0887736" lon="14.3505204"><ele>111.0</ele><time>2026-04-22T09:54:45.425Z</time></trkpt><trkpt lat="41.0886513" lon="14.3505007"><ele>111.0</ele><time>2026-04-22T09:54:46.41Z</time></trkpt><trkpt lat="41.0885324" lon="14.3504939"><ele>111.0</ele><time>2026-04-22T09:54:47.385Z</time></trkpt><trkpt lat="41.0884228" lon="14.3504833"><ele>111.0</ele><time>2026-04-22T09:54:48.417Z</time></trkpt><trkpt lat="41.0883026" lon="14.3504666"><ele>111.0</ele><time>2026-04-22T09:54:50.412Z</time></trkpt><trkpt lat="41.088248" lon="14.3504141"><ele>111.0</ele><time>2026-04-22T09:54:51.378Z</time></trkpt><trkpt lat="41.0881944" lon="14.3503287"><ele>110.4</ele><time>2026-04-22T09:54:52.366Z</time></trkpt><trkpt lat="41.0881417" lon="14.3502304"><ele>109.8</ele><time>2026-04-22T09:54:53.375Z</time></trkpt><trkpt lat="41.0881122" lon="14.3501348"><ele>109.20000000000002</ele><time>2026-04-22T09:54:54.384Z</time></trkpt><trkpt lat="41.0881221" lon="14.3499878"><ele>108.60000000000001</ele><time>2026-04-22T09:54:55.413Z</time></trkpt><trkpt lat="41.0881302" lon="14.3498543"><ele>108.0</ele><time>2026-04-22T09:54:56.39Z</time></trkpt><trkpt lat="41.0881326" lon="14.349757"><ele>108.0</ele><time>2026-04-22T09:54:57.383Z</time></trkpt><trkpt lat="41.0880529" lon="14.3496136"><ele>108.00000000000001</ele><time>2026-04-22T09:55:03.401Z</time></trkpt><trkpt lat="41.0879742" lon="14.3495819"><ele>108.00000000000001</ele><time>2026-04-22T09:55:04.364Z</time></trkpt><trkpt lat="41.0878713" lon="14.3495895"><ele>108.0</ele><time>2026-04-22T09:55:05.387Z</time></trkpt><trkpt lat="41.0877715" lon="14.3495826"><ele>108.0</ele><time>2026-04-22T09:55:06.352Z</time></trkpt><trkpt lat="41.0876544" lon="14.349569"><ele>108.0</ele><time>2026-04-22T09:55:07.368Z</time></trkpt><trkpt lat="41.0875382" lon="14.3495625"><ele>108.0</ele><time>2026-04-22T09:55:08.357Z</time></trkpt><trkpt lat="41.0874153" lon="14.3495601"><ele>108.0</ele><time>2026-04-22T09:55:09.386Z</time></trkpt><trkpt lat="41.0872929" lon="14.3495591"><ele>108.0</ele><time>2026-04-22T09:55:10.391Z</time></trkpt><trkpt lat="41.0871673" lon="14.3495575"><ele>106.75</ele><time>2026-04-22T09:55:11.383Z</time></trkpt><trkpt lat="41.087042" lon="14.3495589"><ele>105.5</ele><time>2026-04-22T09:55:12.371Z</time></trkpt><trkpt lat="41.0869167" lon="14.3495565"><ele>104.25</ele><time>2026-04-22T09:55:13.362Z</time></trkpt><trkpt lat="41.0867963" lon="14.3495513"><ele>103.0</ele><time>2026-04-22T09:55:14.367Z</time></trkpt><trkpt lat="41.0866871" lon="14.3495463"><ele>102.50000000000001</ele><time>2026-04-22T09:55:15.335Z</time></trkpt><trkpt lat="41.0865932" lon="14.3495412"><ele>102.0</ele><time>2026-04-22T09:55:16.344Z</time></trkpt><trkpt lat="41.0865177" lon="14.3495353"><ele>101.5</ele><time>2026-04-22T09:55:17.328Z</time></trkpt><trkpt lat="41.0864534" lon="14.3495296"><ele>101.0</ele><time>2026-04-22T09:55:18.317Z</time></trkpt><trkpt lat="41.0863591" lon="14.3495228"><ele>100.50000000000001</ele><time>2026-04-22T09:55:19.358Z</time></trkpt><trkpt lat="41.0862583" lon="14.3494844"><ele>100.0</ele><time>2026-04-22T09:55:21.465Z</time></trkpt><trkpt lat="41.0861999" lon="14.3493253"><ele>100.0</ele><time>2026-04-22T09:55:23.412Z</time></trkpt><trkpt lat="41.0862328" lon="14.3491977"><ele>100.0</ele><time>2026-04-22T09:55:24.353Z</time></trkpt><trkpt lat="41.0862655" lon="14.3490354"><ele>100.0</ele><time>2026-04-22T09:55:25.35Z</time></trkpt><trkpt lat="41.0862971" lon="14.3488486"><ele>100.0</ele><time>2026-04-22T09:55:26.497Z</time></trkpt><trkpt lat="41.0863129" lon="14.3487036"><ele>100.0</ele><time>2026-04-22T09:55:27.414Z</time></trkpt><trkpt lat="41.0863196" lon="14.3485738"><ele>100.0</ele><time>2026-04-22T09:55:28.367Z</time></trkpt><trkpt lat="41.0863197" lon="14.3484628"><ele>100.0</ele><time>2026-04-22T09:55:29.365Z</time></trkpt><trkpt lat="41.08631" lon="14.3483786"><ele>100.0</ele><time>2026-04-22T09:55:30.337Z</time></trkpt><trkpt lat="41.0862293" lon="14.3482789"><ele>100.0</ele><time>2026-04-22T09:55:32.354Z</time></trkpt><trkpt lat="41.0861282" lon="14.3482423"><ele>100.00000000000001</ele><time>2026-04-22T09:55:34.344Z</time></trkpt><trkpt lat="41.0860496" lon="14.3482243"><ele>100.0</ele><time>2026-04-22T09:55:36.41Z</time></trkpt><trkpt lat="41.0858847" lon="14.3481977"><ele>100.0</ele><time>2026-04-22T09:55:39.352Z</time></trkpt><trkpt lat="41.0858198" lon="14.3481889"><ele>100.0</ele><time>2026-04-22T09:55:40.381Z</time></trkpt><trkpt lat="41.0857556" lon="14.34818"><ele>100.00000000000001</ele><time>2026-04-22T09:55:41.355Z</time></trkpt><trkpt lat="41.0856875" lon="14.3481719"><ele>100.0</ele><time>2026-04-22T09:55:42.346Z</time></trkpt><trkpt lat="41.0856167" lon="14.3481656"><ele>99.66666666666667</ele><time>2026-04-22T09:55:43.348Z</time></trkpt><trkpt lat="41.0855493" lon="14.3481614"><ele>99.33333333333334</ele><time>2026-04-22T09:55:44.34Z</time></trkpt><trkpt lat="41.085487" lon="14.3481463"><ele>99.0</ele><time>2026-04-22T09:55:45.34Z</time></trkpt><trkpt lat="41.0854163" lon="14.3481357"><ele>98.66666666666666</ele><time>2026-04-22T09:55:46.336Z</time></trkpt><trkpt lat="41.0853327" lon="14.3481217"><ele>98.33333333333333</ele><time>2026-04-22T09:55:47.347Z</time></trkpt><trkpt lat="41.0852529" lon="14.3481005"><ele>98.0</ele><time>2026-04-22T09:55:48.327Z</time></trkpt><trkpt lat="41.0851625" lon="14.3480882"><ele>97.99999999999999</ele><time>2026-04-22T09:55:49.41Z</time></trkpt><trkpt lat="41.085082" lon="14.3480833"><ele>98.0</ele><time>2026-04-22T09:55:50.365Z</time></trkpt><trkpt lat="41.0850022" lon="14.3480657"><ele>98.0</ele><time>2026-04-22T09:55:51.357Z</time></trkpt><trkpt lat="41.0849166" lon="14.3480505"><ele>98.0</ele><time>2026-04-22T09:55:52.355Z</time></trkpt><trkpt lat="41.084829" lon="14.3480335"><ele>97.99999999999999</ele><time>2026-04-22T09:55:53.362Z</time></trkpt><trkpt lat="41.0847384" lon="14.3480194"><ele>98.0</ele><time>2026-04-22T09:55:54.403Z</time></trkpt><trkpt lat="41.084655" lon="14.3480035"><ele>97.33333333333333</ele><time>2026-04-22T09:55:55.383Z</time></trkpt><trkpt lat="41.0845723" lon="14.3479901"><ele>96.66666666666666</ele><time>2026-04-22T09:55:56.368Z</time></trkpt><trkpt lat="41.0844903" lon="14.3479797"><ele>96.0</ele><time>2026-04-22T09:55:57.378Z</time></trkpt><trkpt lat="41.0844109" lon="14.3479705"><ele>95.33333333333333</ele><time>2026-04-22T09:55:58.387Z</time></trkpt><trkpt lat="41.0843395" lon="14.3479684"><ele>94.66666666666666</ele><time>2026-04-22T09:55:59.377Z</time></trkpt><trkpt lat="41.0842365" lon="14.3479515"><ele>94.0</ele><time>2026-04-22T09:56:01.354Z</time></trkpt><trkpt lat="41.0841722" lon="14.3478573"><ele>94.0</ele><time>2026-04-22T09:56:03.411Z</time></trkpt><trkpt lat="41.0841557" lon="14.347708"><ele>94.0</ele><time>2026-04-22T09:56:05.379Z</time></trkpt><trkpt lat="41.0841627" lon="14.3476059"><ele>94.0</ele><time>2026-04-22T09:56:06.338Z</time></trkpt><trkpt lat="41.0841672" lon="14.3474927"><ele>94.0</ele><time>2026-04-22T09:56:07.353Z</time></trkpt><trkpt lat="41.0841804" lon="14.3473765"><ele>94.0</ele><time>2026-04-22T09:56:08.355Z</time></trkpt><trkpt lat="41.0841975" lon="14.3472593"><ele>93.6</ele><time>2026-04-22T09:56:09.361Z</time></trkpt><trkpt lat="41.0842131" lon="14.3471246"><ele>93.2</ele><time>2026-04-22T09:56:10.386Z</time></trkpt><trkpt lat="41.0842243" lon="14.3470049"><ele>92.8</ele><time>2026-04-22T09:56:11.37Z</time></trkpt><trkpt lat="41.0842368" lon="14.3468873"><ele>92.39999999999999</ele><time>2026-04-22T09:56:12.378Z</time></trkpt><trkpt lat="41.0842517" lon="14.3467671"><ele>92.0</ele><time>2026-04-22T09:56:13.36Z</time></trkpt><trkpt lat="41.0842618" lon="14.346644"><ele>92.0</ele><time>2026-04-22T09:56:14.357Z</time></trkpt><trkpt lat="41.0842735" lon="14.3465064"><ele>92.0</ele><time>2026-04-22T09:56:15.461Z</time></trkpt><trkpt lat="41.0842842" lon="14.3463946"><ele>92.0</ele><time>2026-04-22T09:56:16.366Z</time></trkpt><trkpt lat="41.0842917" lon="14.3462654"><ele>92.0</ele><time>2026-04-22T09:56:17.422Z</time></trkpt><trkpt lat="41.0842979" lon="14.3461558"><ele>92.0</ele><time>2026-04-22T09:56:18.417Z</time></trkpt><trkpt lat="41.0843055" lon="14.3460524"><ele>92.0</ele><time>2026-04-22T09:56:19.377Z</time></trkpt><trkpt lat="41.084316" lon="14.3459462"><ele>91.83333333333334</ele><time>2026-04-22T09:56:20.409Z</time></trkpt><trkpt lat="41.0843246" lon="14.3458469"><ele>91.66666666666667</ele><time>2026-04-22T09:56:21.427Z</time></trkpt><trkpt lat="41.0843327" lon="14.3457585"><ele>91.5</ele><time>2026-04-22T09:56:22.398Z</time></trkpt><trkpt lat="41.0843395" lon="14.3456742"><ele>91.33333333333333</ele><time>2026-04-22T09:56:23.443Z</time></trkpt><trkpt lat="41.0843536" lon="14.3455147"><ele>91.16666666666666</ele><time>2026-04-22T09:56:25.412Z</time></trkpt><trkpt lat="41.0843615" lon="14.3454232"><ele>91.0</ele><time>2026-04-22T09:56:26.416Z</time></trkpt><trkpt lat="41.0843712" lon="14.3453398"><ele>90.75</ele><time>2026-04-22T09:56:27.421Z</time></trkpt><trkpt lat="41.0843772" lon="14.3451871"><ele>90.5</ele><time>2026-04-22T09:56:29.456Z</time></trkpt><trkpt lat="41.0843882" lon="14.3450557"><ele>90.25</ele><time>2026-04-22T09:56:31.428Z</time></trkpt><trkpt lat="41.0844063" lon="14.3449208"><ele>90.0</ele><time>2026-04-22T09:56:33.438Z</time></trkpt><trkpt lat="41.0844104" lon="14.3447446"><ele>90.0</ele><time>2026-04-22T09:56:36.402Z</time></trkpt><trkpt lat="41.0843846" lon="14.3446532"><ele>90.0</ele><time>2026-04-22T09:56:38.448Z</time></trkpt><trkpt lat="41.0843068" lon="14.3446099"><ele>90.0</ele><time>2026-04-22T09:56:40.433Z</time></trkpt><trkpt lat="41.0842112" lon="14.3446077"><ele>90.0</ele><time>2026-04-22T09:56:42.41Z</time></trkpt><trkpt lat="41.0840968" lon="14.3445957"><ele>90.0</ele><time>2026-04-22T09:56:44.444Z</time></trkpt><trkpt lat="41.0839788" lon="14.3445892"><ele>89.25</ele><time>2026-04-22T09:56:46.419Z</time></trkpt><trkpt lat="41.0838603" lon="14.344587"><ele>88.5</ele><time>2026-04-22T09:56:48.422Z</time></trkpt><trkpt lat="41.08374" lon="14.3445779"><ele>87.75</ele><time>2026-04-22T09:56:50.433Z</time></trkpt><trkpt lat="41.0836275" lon="14.3445711"><ele>87.0</ele><time>2026-04-22T09:56:52.397Z</time></trkpt><trkpt lat="41.0835179" lon="14.344563"><ele>87.0</ele><time>2026-04-22T09:56:54.404Z</time></trkpt><trkpt lat="41.0833991" lon="14.3445512"><ele>87.0</ele><time>2026-04-22T09:56:56.575Z</time></trkpt><trkpt lat="41.0832799" lon="14.3445484"><ele>87.0</ele><time>2026-04-22T09:56:58.433Z</time></trkpt><trkpt lat="41.0831492" lon="14.3445437"><ele>87.0</ele><time>2026-04-22T09:57:00.394Z</time></trkpt><trkpt lat="41.0830857" lon="14.3445413"><ele>87.0</ele><time>2026-04-22T09:57:01.44Z</time></trkpt><trkpt lat="41.0830196" lon="14.3445355"><ele>87.0</ele><time>2026-04-22T09:57:02.552Z</time></trkpt><trkpt lat="41.0829101" lon="14.3445304"><ele>87.0</ele><time>2026-04-22T09:57:04.445Z</time></trkpt><trkpt lat="41.0827984" lon="14.3445241"><ele>87.0</ele><time>2026-04-22T09:57:06.429Z</time></trkpt><trkpt lat="41.082687" lon="14.3445076"><ele>87.0</ele><time>2026-04-22T09:57:08.405Z</time></trkpt><trkpt lat="41.0825714" lon="14.3445012"><ele>87.0</ele><time>2026-04-22T09:57:10.371Z</time></trkpt><trkpt lat="41.0824627" lon="14.3444971"><ele>87.16666666666667</ele><time>2026-04-22T09:57:12.398Z</time></trkpt><trkpt lat="41.0823894" lon="14.3444902"><ele>87.33333333333333</ele><time>2026-04-22T09:57:14.424Z</time></trkpt><trkpt lat="41.0823247" lon="14.344488"><ele>87.5</ele><time>2026-04-22T09:57:16.39Z</time></trkpt><trkpt lat="41.0822426" lon="14.3444845"><ele>87.66666666666666</ele><time>2026-04-22T09:57:18.394Z</time></trkpt><trkpt lat="41.0821535" lon="14.3444804"><ele>87.83333333333333</ele><time>2026-04-22T09:57:20.567Z</time></trkpt><trkpt lat="41.0820339" lon="14.3444749"><ele>88.0</ele><time>2026-04-22T09:57:22.366Z</time></trkpt><trkpt lat="41.0819672" lon="14.3444768"><ele>88.0</ele><time>2026-04-22T09:57:23.417Z</time></trkpt><trkpt lat="41.0818993" lon="14.3444684"><ele>88.0</ele><time>2026-04-22T09:57:24.412Z</time></trkpt><trkpt lat="41.0818137" lon="14.344454"><ele>88.0</ele><time>2026-04-22T09:57:26.388Z</time></trkpt><trkpt lat="41.0817227" lon="14.3444464"><ele>88.0</ele><time>2026-04-22T09:57:28.424Z</time></trkpt><trkpt lat="41.0816404" lon="14.3444103"><ele>88.0</ele><time>2026-04-22T09:57:30.392Z</time></trkpt><trkpt lat="41.0815945" lon="14.3443416"><ele>88.0</ele><time>2026-04-22T09:57:34.4Z</time></trkpt><trkpt lat="41.0815769" lon="14.3442121"><ele>87.60000000000001</ele><time>2026-04-22T09:57:36.419Z</time></trkpt><trkpt lat="41.0815551" lon="14.3440648"><ele>87.2</ele><time>2026-04-22T09:57:38.406Z</time></trkpt><trkpt lat="41.0815619" lon="14.34397"><ele>86.8</ele><time>2026-04-22T09:57:41.417Z</time></trkpt><trkpt lat="41.0815532" lon="14.343861"><ele>86.4</ele><time>2026-04-22T09:57:45.417Z</time></trkpt><trkpt lat="41.0815537" lon="14.3437532"><ele>86.0</ele><time>2026-04-22T09:57:47.44Z</time></trkpt><trkpt lat="41.0815576" lon="14.3436127"><ele>86.0</ele><time>2026-04-22T09:57:49.422Z</time></trkpt><trkpt lat="41.0815537" lon="14.3434475"><ele>86.0</ele><time>2026-04-22T09:57:51.437Z</time></trkpt><trkpt lat="41.0815463" lon="14.3433583"><ele>86.0</ele><time>2026-04-22T09:57:52.419Z</time></trkpt><trkpt lat="41.0814828" lon="14.3432621"><ele>86.0</ele><time>2026-04-22T09:57:54.394Z</time></trkpt><trkpt lat="41.081384" lon="14.3432374"><ele>86.0</ele><time>2026-04-22T09:57:56.366Z</time></trkpt><trkpt lat="41.0813052" lon="14.3432304"><ele>86.0</ele><time>2026-04-22T09:57:57.421Z</time></trkpt><trkpt lat="41.0812215" lon="14.34322"><ele>86.0</ele><time>2026-04-22T09:57:58.416Z</time></trkpt><trkpt lat="41.0811403" lon="14.34321"><ele>86.0</ele><time>2026-04-22T09:57:59.379Z</time></trkpt><trkpt lat="41.0810437" lon="14.3432052"><ele>86.0</ele><time>2026-04-22T09:58:00.545Z</time></trkpt><trkpt lat="41.0808927" lon="14.3432012"><ele>86.0</ele><time>2026-04-22T09:58:02.365Z</time></trkpt><trkpt lat="41.0808182" lon="14.3431971"><ele>85.19999999999999</ele><time>2026-04-22T09:58:03.415Z</time></trkpt><trkpt lat="41.0807435" lon="14.3431892"><ele>84.39999999999999</ele><time>2026-04-22T09:58:04.444Z</time></trkpt><trkpt lat="41.0806332" lon="14.3431429"><ele>83.6</ele><time>2026-04-22T09:58:06.456Z</time></trkpt><trkpt lat="41.080575" lon="14.3430427"><ele>82.8</ele><time>2026-04-22T09:58:08.397Z</time></trkpt><trkpt lat="41.0805488" lon="14.3429444"><ele>82.0</ele><time>2026-04-22T09:58:09.522Z</time></trkpt><trkpt lat="41.0805271" lon="14.3427351"><ele>82.0</ele><time>2026-04-22T09:58:11.405Z</time></trkpt><trkpt lat="41.0805189" lon="14.3426149"><ele>82.0</ele><time>2026-04-22T09:58:12.375Z</time></trkpt><trkpt lat="41.0805167" lon="14.3424907"><ele>82.0</ele><time>2026-04-22T09:58:13.405Z</time></trkpt><trkpt lat="41.0805132" lon="14.3423683"><ele>82.0</ele><time>2026-04-22T09:58:14.388Z</time></trkpt><trkpt lat="41.0805122" lon="14.34228"><ele>82.0</ele><time>2026-04-22T09:58:15.499Z</time></trkpt><trkpt lat="41.0805096" lon="14.34219"><ele>82.0</ele><time>2026-04-22T09:58:16.466Z</time></trkpt><trkpt lat="41.0805149" lon="14.342056"><ele>82.19999999999999</ele><time>2026-04-22T09:58:18.48Z</time></trkpt><trkpt lat="41.0805252" lon="14.3418506"><ele>82.4</ele><time>2026-04-22T09:58:21.41Z</time></trkpt><trkpt lat="41.0805213" lon="14.3417322"><ele>82.6</ele><time>2026-04-22T09:58:23.406Z</time></trkpt><trkpt lat="41.0804979" lon="14.3416409"><ele>82.80000000000001</ele><time>2026-04-22T09:58:25.427Z</time></trkpt><trkpt lat="41.0804431" lon="14.3415789"><ele>83.0</ele><time>2026-04-22T09:58:27.413Z</time></trkpt><trkpt lat="41.0803439" lon="14.3415831"><ele>83.0</ele><time>2026-04-22T09:58:29.44Z</time></trkpt><trkpt lat="41.0802282" lon="14.3416774"><ele>83.0</ele><time>2026-04-22T09:58:31.42Z</time></trkpt><trkpt lat="41.0801413" lon="14.3417262"><ele>83.0</ele><time>2026-04-22T09:58:33.324Z</time></trkpt><trkpt lat="41.0800297" lon="14.3417421"><ele>83.0</ele><time>2026-04-22T09:58:35.309Z</time></trkpt><trkpt lat="41.0799441" lon="14.3417344"><ele>83.0</ele><time>2026-04-22T09:58:37.324Z</time></trkpt><trkpt lat="41.0798453" lon="14.3417336"><ele>82.83333333333334</ele><time>2026-04-22T09:58:39.33Z</time></trkpt><trkpt lat="41.0797663" lon="14.341729"><ele>82.66666666666667</ele><time>2026-04-22T09:58:41.284Z</time></trkpt><trkpt lat="41.0796931" lon="14.3417212"><ele>82.5</ele><time>2026-04-22T09:58:43.373Z</time></trkpt><trkpt lat="41.0796042" lon="14.3417089"><ele>82.33333333333333</ele><time>2026-04-22T09:58:45.287Z</time></trkpt><trkpt lat="41.0795246" lon="14.3417064"><ele>82.16666666666666</ele><time>2026-04-22T09:58:47.317Z</time></trkpt><trkpt lat="41.079458" lon="14.341705"><ele>82.0</ele><time>2026-04-22T09:58:49.352Z</time></trkpt><trkpt lat="41.0793881" lon="14.3417118"><ele>82.0</ele><time>2026-04-22T09:58:52.345Z</time></trkpt><trkpt lat="41.0793244" lon="14.341714"><ele>82.0</ele><time>2026-04-22T09:58:55.328Z</time></trkpt><trkpt lat="41.0792485" lon="14.3417088"><ele>82.0</ele><time>2026-04-22T09:58:58.326Z</time></trkpt><trkpt lat="41.079173" lon="14.341692"><ele>82.0</ele><time>2026-04-22T09:59:01.322Z</time></trkpt><trkpt lat="41.0791084" lon="14.3416881"><ele>82.0</ele><time>2026-04-22T09:59:03.333Z</time></trkpt><trkpt lat="41.079033" lon="14.3416836"><ele>82.0</ele><time>2026-04-22T09:59:06.34Z</time></trkpt><trkpt lat="41.0789234" lon="14.3416776"><ele>81.5</ele><time>2026-04-22T09:59:10.333Z</time></trkpt><trkpt lat="41.0788362" lon="14.3416689"><ele>81.0</ele><time>2026-04-22T09:59:13.314Z</time></trkpt><trkpt lat="41.0787559" lon="14.3416619"><ele>80.5</ele><time>2026-04-22T09:59:15.328Z</time></trkpt><trkpt lat="41.078681" lon="14.3416518"><ele>80.0</ele><time>2026-04-22T09:59:17.366Z</time></trkpt><trkpt lat="41.078611" lon="14.3416399"><ele>79.5</ele><time>2026-04-22T09:59:19.359Z</time></trkpt><trkpt lat="41.0785136" lon="14.3416348"><ele>79.0</ele><time>2026-04-22T09:59:22.338Z</time></trkpt><trkpt lat="41.0784206" lon="14.3416289"><ele>79.0</ele><time>2026-04-22T09:59:25.33Z</time></trkpt><trkpt lat="41.0783282" lon="14.3416177"><ele>79.0</ele><time>2026-04-22T09:59:28.33Z</time></trkpt><trkpt lat="41.0782494" lon="14.3416354"><ele>79.0</ele><time>2026-04-22T09:59:30.311Z</time></trkpt><trkpt lat="41.0781552" lon="14.3416248"><ele>79.0</ele><time>2026-04-22T09:59:32.344Z</time></trkpt><trkpt lat="41.0780616" lon="14.3416144"><ele>79.0</ele><time>2026-04-22T09:59:34.292Z</time></trkpt><trkpt lat="41.0779543" lon="14.341598"><ele>78.8</ele><time>2026-04-22T09:59:36.302Z</time></trkpt><trkpt lat="41.0778627" lon="14.3415829"><ele>78.60000000000001</ele><time>2026-04-22T09:59:38.294Z</time></trkpt><trkpt lat="41.0777735" lon="14.3415641"><ele>78.4</ele><time>2026-04-22T09:59:40.284Z</time></trkpt><trkpt lat="41.0776283" lon="14.3415452"><ele>78.2</ele><time>2026-04-22T09:59:43.289Z</time></trkpt><trkpt lat="41.077521" lon="14.3415433"><ele>78.0</ele><time>2026-04-22T09:59:45.332Z</time></trkpt><trkpt lat="41.0774161" lon="14.3415396"><ele>78.0</ele><time>2026-04-22T09:59:47.305Z</time></trkpt><trkpt lat="41.0773243" lon="14.3415372"><ele>78.0</ele><time>2026-04-22T09:59:49.317Z</time></trkpt><trkpt lat="41.077238" lon="14.3415281"><ele>78.0</ele><time>2026-04-22T09:59:51.294Z</time></trkpt><trkpt lat="41.0771613" lon="14.3415264"><ele>78.0</ele><time>2026-04-22T09:59:53.304Z</time></trkpt><trkpt lat="41.0770764" lon="14.3415102"><ele>78.0</ele><time>2026-04-22T09:59:55.318Z</time></trkpt><trkpt lat="41.0769942" lon="14.3415138"><ele>78.0</ele><time>2026-04-22T09:59:58.318Z</time></trkpt><trkpt lat="41.0769248" lon="14.3415087"><ele>78.0</ele><time>2026-04-22T10:00:01.292Z</time></trkpt><trkpt lat="41.0768342" lon="14.3414982"><ele>78.0</ele><time>2026-04-22T10:00:04.305Z</time></trkpt><trkpt lat="41.0767398" lon="14.3414886"><ele>78.0</ele><time>2026-04-22T10:00:07.305Z</time></trkpt><trkpt lat="41.0766562" lon="14.3415008"><ele>78.0</ele><time>2026-04-22T10:00:09.288Z</time></trkpt><trkpt lat="41.076574" lon="14.3415"><ele>78.0</ele><time>2026-04-22T10:00:11.325Z</time></trkpt><trkpt lat="41.0764751" lon="14.341495"><ele>77.83333333333333</ele><time>2026-04-22T10:00:13.539Z</time></trkpt><trkpt lat="41.0763798" lon="14.3414789"><ele>77.66666666666667</ele><time>2026-04-22T10:00:15.316Z</time></trkpt><trkpt lat="41.0762837" lon="14.3414709"><ele>77.5</ele><time>2026-04-22T10:00:16.308Z</time></trkpt><trkpt lat="41.0762056" lon="14.3414715"><ele>77.33333333333334</ele><time>2026-04-22T10:00:17.278Z</time></trkpt><trkpt lat="41.0761268" lon="14.341475"><ele>77.16666666666667</ele><time>2026-04-22T10:00:18.292Z</time></trkpt><trkpt lat="41.0760499" lon="14.3414845"><ele>77.0</ele><time>2026-04-22T10:00:19.318Z</time></trkpt><trkpt lat="41.0759777" lon="14.3414851"><ele>77.0</ele><time>2026-04-22T10:00:20.302Z</time></trkpt><trkpt lat="41.0759039" lon="14.3414873"><ele>77.0</ele><time>2026-04-22T10:00:21.291Z</time></trkpt><trkpt lat="41.0758103" lon="14.3414761"><ele>77.0</ele><time>2026-04-22T10:00:22.338Z</time></trkpt><trkpt lat="41.0756848" lon="14.3414634"><ele>77.0</ele><time>2026-04-22T10:00:23.39Z</time></trkpt><trkpt lat="41.0754286" lon="14.3414453"><ele>76.75</ele><time>2026-04-22T10:00:25.325Z</time></trkpt><trkpt lat="41.0752971" lon="14.3414434"><ele>76.5</ele><time>2026-04-22T10:00:26.315Z</time></trkpt><trkpt lat="41.0751773" lon="14.3414428"><ele>76.25</ele><time>2026-04-22T10:00:27.325Z</time></trkpt><trkpt lat="41.075065" lon="14.3414365"><ele>76.0</ele><time>2026-04-22T10:00:28.41Z</time></trkpt><trkpt lat="41.0748975" lon="14.3414216"><ele>75.5</ele><time>2026-04-22T10:00:30.332Z</time></trkpt><trkpt lat="41.0748088" lon="14.3414073"><ele>75.0</ele><time>2026-04-22T10:00:31.317Z</time></trkpt><trkpt lat="41.0747156" lon="14.3414064"><ele>74.5</ele><time>2026-04-22T10:00:32.335Z</time></trkpt><trkpt lat="41.0746121" lon="14.3414094"><ele>74.0</ele><time>2026-04-22T10:00:33.463Z</time></trkpt><trkpt lat="41.0744397" lon="14.3413902"><ele>74.25</ele><time>2026-04-22T10:00:35.484Z</time></trkpt><trkpt lat="41.0742455" lon="14.3413779"><ele>74.5</ele><time>2026-04-22T10:00:37.345Z</time></trkpt><trkpt lat="41.0741399" lon="14.3413698"><ele>74.75</ele><time>2026-04-22T10:00:38.338Z</time></trkpt><trkpt lat="41.0740355" lon="14.3413653"><ele>75.0</ele><time>2026-04-22T10:00:39.308Z</time></trkpt><trkpt lat="41.0739315" lon="14.3413625"><ele>75.0</ele><time>2026-04-22T10:00:40.31Z</time></trkpt><trkpt lat="41.0738398" lon="14.3413581"><ele>75.0</ele><time>2026-04-22T10:00:41.306Z</time></trkpt><trkpt lat="41.0737635" lon="14.3413556"><ele>75.0</ele><time>2026-04-22T10:00:42.314Z</time></trkpt><trkpt lat="41.0736948" lon="14.3413537"><ele>75.0</ele><time>2026-04-22T10:00:43.328Z</time></trkpt><trkpt lat="41.0735911" lon="14.3413498"><ele>75.0</ele><time>2026-04-22T10:00:45.308Z</time></trkpt><trkpt lat="41.0735212" lon="14.3413319"><ele>75.0</ele><time>2026-04-22T10:00:47.336Z</time></trkpt><trkpt lat="41.0734519" lon="14.3413087"><ele>75.0</ele><time>2026-04-22T10:00:49.329Z</time></trkpt><trkpt lat="41.0734117" lon="14.3412338"><ele>75.0</ele><time>2026-04-22T10:00:51.345Z</time></trkpt><trkpt lat="41.0733896" lon="14.3411506"><ele>75.0</ele><time>2026-04-22T10:00:53.306Z</time></trkpt><trkpt lat="41.0733873" lon="14.3410655"><ele>75.0</ele><time>2026-04-22T10:00:55.301Z</time></trkpt><trkpt lat="41.0733888" lon="14.340916"><ele>75.0</ele><time>2026-04-22T10:00:58.302Z</time></trkpt><trkpt lat="41.0733908" lon="14.3407644"><ele>75.0</ele><time>2026-04-22T10:01:01.296Z</time></trkpt><trkpt lat="41.0734153" lon="14.3406527"><ele>74.6</ele><time>2026-04-22T10:01:03.326Z</time></trkpt><trkpt lat="41.0734241" lon="14.3404931"><ele>74.2</ele><time>2026-04-22T10:01:05.299Z</time></trkpt><trkpt lat="41.073438" lon="14.3403357"><ele>73.8</ele><time>2026-04-22T10:01:07.333Z</time></trkpt><trkpt lat="41.0734507" lon="14.3401735"><ele>73.4</ele><time>2026-04-22T10:01:09.298Z</time></trkpt><trkpt lat="41.073456" lon="14.34009"><ele>73.0</ele><time>2026-04-22T10:01:10.303Z</time></trkpt><trkpt lat="41.0734703" lon="14.3400006"><ele>73.0</ele><time>2026-04-22T10:01:11.319Z</time></trkpt><trkpt lat="41.0734849" lon="14.3398572"><ele>73.0</ele><time>2026-04-22T10:01:13.32Z</time></trkpt><trkpt lat="41.0734973" lon="14.3397667"><ele>73.0</ele><time>2026-04-22T10:01:15.267Z</time></trkpt><trkpt lat="41.0735186" lon="14.33968"><ele>73.0</ele><time>2026-04-22T10:01:17.31Z</time></trkpt><trkpt lat="41.0735371" lon="14.3395688"><ele>73.0</ele><time>2026-04-22T10:01:19.32Z</time></trkpt><trkpt lat="41.0735449" lon="14.3394693"><ele>73.0</ele><time>2026-04-22T10:01:21.311Z</time></trkpt><trkpt lat="41.0735574" lon="14.3393664"><ele>73.2</ele><time>2026-04-22T10:01:23.314Z</time></trkpt><trkpt lat="41.073567" lon="14.3392598"><ele>73.4</ele><time>2026-04-22T10:01:25.293Z</time></trkpt><trkpt lat="41.0735851" lon="14.3391477"><ele>73.60000000000001</ele><time>2026-04-22T10:01:27.3Z</time></trkpt><trkpt lat="41.0735945" lon="14.3390293"><ele>73.8</ele><time>2026-04-22T10:01:29.28Z</time></trkpt><trkpt lat="41.0735984" lon="14.3389256"><ele>74.0</ele><time>2026-04-22T10:01:31.308Z</time></trkpt><trkpt lat="41.0735658" lon="14.3387669"><ele>74.5</ele><time>2026-04-22T10:01:33.303Z</time></trkpt><trkpt lat="41.0735784" lon="14.3385924"><ele>75.0</ele><time>2026-04-22T10:01:35.363Z</time></trkpt><trkpt lat="41.0736022" lon="14.3384295"><ele>75.5</ele><time>2026-04-22T10:01:37.444Z</time></trkpt><trkpt lat="41.0736229" lon="14.338279"><ele>76.0</ele><time>2026-04-22T10:01:39.301Z</time></trkpt><trkpt lat="41.0736392" lon="14.3381213"><ele>75.6</ele><time>2026-04-22T10:01:41.299Z</time></trkpt><trkpt lat="41.0736491" lon="14.3379793"><ele>75.19999999999999</ele><time>2026-04-22T10:01:43.292Z</time></trkpt><trkpt lat="41.0736571" lon="14.3378176"><ele>74.80000000000001</ele><time>2026-04-22T10:01:45.278Z</time></trkpt><trkpt lat="41.0736682" lon="14.3376529"><ele>74.4</ele><time>2026-04-22T10:01:47.266Z</time></trkpt><trkpt lat="41.0736785" lon="14.3375413"><ele>74.0</ele><time>2026-04-22T10:01:48.267Z</time></trkpt><trkpt lat="41.0736912" lon="14.3374261"><ele>74.0</ele><time>2026-04-22T10:01:49.299Z</time></trkpt><trkpt lat="41.073693" lon="14.3372983"><ele>74.0</ele><time>2026-04-22T10:01:50.316Z</time></trkpt><trkpt lat="41.0737068" lon="14.3371989"><ele>74.0</ele><time>2026-04-22T10:01:51.328Z</time></trkpt><trkpt lat="41.0737286" lon="14.3370302"><ele>74.0</ele><time>2026-04-22T10:01:53.406Z</time></trkpt><trkpt lat="41.0737603" lon="14.3368445"><ele>74.0</ele><time>2026-04-22T10:01:55.317Z</time></trkpt><trkpt lat="41.0737721" lon="14.3367554"><ele>73.83333333333334</ele><time>2026-04-22T10:01:56.333Z</time></trkpt><trkpt lat="41.0737894" lon="14.336604"><ele>73.66666666666667</ele><time>2026-04-22T10:01:58.264Z</time></trkpt><trkpt lat="41.0738044" lon="14.3364765"><ele>73.5</ele><time>2026-04-22T10:02:00.375Z</time></trkpt><trkpt lat="41.0738301" lon="14.3363983"><ele>73.33333333333333</ele><time>2026-04-22T10:02:04.398Z</time></trkpt><trkpt lat="41.0739097" lon="14.3363922"><ele>73.16666666666666</ele><time>2026-04-22T10:02:07.346Z</time></trkpt><trkpt lat="41.0739734" lon="14.336386"><ele>73.0</ele><time>2026-04-22T10:02:08.344Z</time></trkpt><trkpt lat="41.0740786" lon="14.3363922"><ele>73.33333333333333</ele><time>2026-04-22T10:02:10.366Z</time></trkpt><trkpt lat="41.0741917" lon="14.3364067"><ele>73.66666666666666</ele><time>2026-04-22T10:02:12.307Z</time></trkpt><trkpt lat="41.0743094" lon="14.3364182"><ele>74.0</ele><time>2026-04-22T10:02:14.341Z</time></trkpt><trkpt lat="41.0743851" lon="14.3364264"><ele>74.33333333333333</ele><time>2026-04-22T10:02:16.297Z</time></trkpt><trkpt lat="41.0744569" lon="14.3364298"><ele>74.66666666666667</ele><time>2026-04-22T10:02:18.288Z</time></trkpt><trkpt lat="41.0745094" lon="14.3363809"><ele>75.0</ele><time>2026-04-22T10:02:20.352Z</time></trkpt><trkpt lat="41.0745232" lon="14.3362817"><ele>74.99999999999999</ele><time>2026-04-22T10:02:22.453Z</time></trkpt><trkpt lat="41.0745294" lon="14.3361627"><ele>75.0</ele><time>2026-04-22T10:02:25.334Z</time></trkpt><trkpt lat="41.0745279" lon="14.336063"><ele>75.0</ele><time>2026-04-22T10:02:28.404Z</time></trkpt><trkpt lat="41.0745494" lon="14.33598"><ele>75.0</ele><time>2026-04-22T10:02:30.363Z</time></trkpt><trkpt lat="41.0745625" lon="14.3358933"><ele>75.0</ele><time>2026-04-22T10:02:32.367Z</time></trkpt><trkpt lat="41.0745591" lon="14.3357896"><ele>74.99999999999999</ele><time>2026-04-22T10:02:35.357Z</time></trkpt><trkpt lat="41.0745489" lon="14.3357064"><ele>75.0</ele><time>2026-04-22T10:02:37.404Z</time></trkpt><trkpt lat="41.0745439" lon="14.3355986"><ele>75.0</ele><time>2026-04-22T10:02:39.362Z</time></trkpt><trkpt lat="41.074537" lon="14.3354926"><ele>75.0</ele><time>2026-04-22T10:02:41.356Z</time></trkpt><trkpt lat="41.0745482" lon="14.3353694"><ele>75.0</ele><time>2026-04-22T10:02:43.368Z</time></trkpt><trkpt lat="41.0745634" lon="14.3352615"><ele>75.0</ele><time>2026-04-22T10:02:46.373Z</time></trkpt><trkpt lat="41.0745543" lon="14.335152"><ele>75.0</ele><time>2026-04-22T10:02:49.345Z</time></trkpt><trkpt lat="41.0745662" lon="14.3350562"><ele>75.0</ele><time>2026-04-22T10:02:51.348Z</time></trkpt><trkpt lat="41.074587" lon="14.3349229"><ele>75.0</ele><time>2026-04-22T10:02:53.352Z</time></trkpt><trkpt lat="41.0746004" lon="14.3348015"><ele>75.0</ele><time>2026-04-22T10:02:55.367Z</time></trkpt><trkpt lat="41.0746105" lon="14.3347047"><ele>75.0</ele><time>2026-04-22T10:02:57.4Z</time></trkpt><trkpt lat="41.0746176" lon="14.3345911"><ele>75.0</ele><time>2026-04-22T10:03:02.369Z</time></trkpt><trkpt lat="41.074694" lon="14.3345328"><ele>75.0</ele><time>2026-04-22T10:03:05.388Z</time></trkpt><trkpt lat="41.0747607" lon="14.3344899"><ele>75.0</ele><time>2026-04-22T10:03:07.357Z</time></trkpt><trkpt lat="41.0748264" lon="14.3344432"><ele>75.33333333333333</ele><time>2026-04-22T10:03:10.394Z</time></trkpt><trkpt lat="41.074894" lon="14.3344293"><ele>75.66666666666667</ele><time>2026-04-22T10:03:14.345Z</time></trkpt><trkpt lat="41.0749646" lon="14.3344081"><ele>76.0</ele><time>2026-04-22T10:03:17.405Z</time></trkpt><trkpt lat="41.0750398" lon="14.334374"><ele>76.33333333333334</ele><time>2026-04-22T10:03:20.354Z</time></trkpt><trkpt lat="41.0750837" lon="14.3343073"><ele>76.66666666666667</ele><time>2026-04-22T10:03:22.345Z</time></trkpt><trkpt lat="41.0750886" lon="14.334182"><ele>77.0</ele><time>2026-04-22T10:03:25.383Z</time></trkpt><trkpt lat="41.0750821" lon="14.3340899"><ele>77.0</ele><time>2026-04-22T10:03:28.362Z</time></trkpt><trkpt lat="41.0751025" lon="14.3339889"><ele>77.0</ele><time>2026-04-22T10:03:31.387Z</time></trkpt><trkpt lat="41.0751152" lon="14.3338685"><ele>77.0</ele><time>2026-04-22T10:03:34.403Z</time></trkpt><trkpt lat="41.0751246" lon="14.3337667"><ele>77.0</ele><time>2026-04-22T10:03:36.398Z</time></trkpt><trkpt lat="41.0751269" lon="14.3336436"><ele>77.0</ele><time>2026-04-22T10:03:39.406Z</time></trkpt><trkpt lat="41.075125" lon="14.3335396"><ele>77.0</ele><time>2026-04-22T10:03:42.428Z</time></trkpt><trkpt lat="41.0751117" lon="14.3334568"><ele>77.0</ele><time>2026-04-22T10:03:45.399Z</time></trkpt><trkpt lat="41.0750967" lon="14.3333707"><ele>77.0</ele><time>2026-04-22T10:03:48.382Z</time></trkpt><trkpt lat="41.0750878" lon="14.3332813"><ele>77.0</ele><time>2026-04-22T10:03:51.41Z</time></trkpt><trkpt lat="41.0750783" lon="14.3331709"><ele>77.0</ele><time>2026-04-22T10:03:55.428Z</time></trkpt><trkpt lat="41.0751236" lon="14.3331066"><ele>77.0</ele><time>2026-04-22T10:04:02.373Z</time></trkpt><trkpt lat="41.0751952" lon="14.3331015"><ele>77.0</ele><time>2026-04-22T10:04:06.403Z</time></trkpt><trkpt lat="41.0752666" lon="14.33307"><ele>77.0</ele><time>2026-04-22T10:04:10.536Z</time></trkpt><trkpt lat="41.0753346" lon="14.3330545"><ele>77.33333333333334</ele><time>2026-04-22T10:04:13.392Z</time></trkpt><trkpt lat="41.0754058" lon="14.333041"><ele>77.66666666666667</ele><time>2026-04-22T10:04:16.36Z</time></trkpt><trkpt lat="41.0754937" lon="14.3330167"><ele>78.0</ele><time>2026-04-22T10:04:18.377Z</time></trkpt><trkpt lat="41.0755962" lon="14.3329926"><ele>78.33333333333333</ele><time>2026-04-22T10:04:20.295Z</time></trkpt><trkpt lat="41.0756748" lon="14.3329403"><ele>78.66666666666666</ele><time>2026-04-22T10:04:22.303Z</time></trkpt><trkpt lat="41.075712" lon="14.332868"><ele>79.0</ele><time>2026-04-22T10:04:24.289Z</time></trkpt><trkpt lat="41.0757197" lon="14.332757"><ele>79.0</ele><time>2026-04-22T10:04:28.3Z</time></trkpt><trkpt lat="41.0756975" lon="14.3326389"><ele>79.0</ele><time>2026-04-22T10:04:31.312Z</time></trkpt><trkpt lat="41.075682" lon="14.3325489"><ele>79.0</ele><time>2026-04-22T10:04:33.328Z</time></trkpt><trkpt lat="41.0756784" lon="14.3324521"><ele>79.0</ele><time>2026-04-22T10:04:35.295Z</time></trkpt><trkpt lat="41.0756755" lon="14.3323541"><ele>79.0</ele><time>2026-04-22T10:04:37.297Z</time></trkpt><trkpt lat="41.0756734" lon="14.3322405"><ele>79.0</ele><time>2026-04-22T10:04:40.271Z</time></trkpt><trkpt lat="41.0756817" lon="14.3321493"><ele>78.5</ele><time>2026-04-22T10:04:43.377Z</time></trkpt><trkpt lat="41.0756911" lon="14.3320513"><ele>78.0</ele><time>2026-04-22T10:04:46.341Z</time></trkpt><trkpt lat="41.075698" lon="14.3319526"><ele>77.5</ele><time>2026-04-22T10:04:48.289Z</time></trkpt><trkpt lat="41.0757043" lon="14.3318695"><ele>77.0</ele><time>2026-04-22T10:04:50.356Z</time></trkpt><trkpt lat="41.075713" lon="14.3317633"><ele>76.5</ele><time>2026-04-22T10:04:54.317Z</time></trkpt><trkpt lat="41.0756982" lon="14.3316528"><ele>76.0</ele><time>2026-04-22T10:04:57.424Z</time></trkpt><trkpt lat="41.0756915" lon="14.3315552"><ele>76.0</ele><time>2026-04-22T10:04:59.283Z</time></trkpt><trkpt lat="41.0756846" lon="14.3314502"><ele>76.0</ele><time>2026-04-22T10:05:01.336Z</time></trkpt><trkpt lat="41.0756404" lon="14.331373"><ele>76.0</ele><time>2026-04-22T10:05:03.342Z</time></trkpt><trkpt lat="41.0755586" lon="14.3313339"><ele>76.0</ele><time>2026-04-22T10:05:05.324Z</time></trkpt><trkpt lat="41.0754508" lon="14.3313391"><ele>76.0</ele><time>2026-04-22T10:05:07.416Z</time></trkpt><trkpt lat="41.0753579" lon="14.3313439"><ele>76.0</ele><time>2026-04-22T10:05:09.341Z</time></trkpt><trkpt lat="41.0752714" lon="14.3313479"><ele>75.83333333333333</ele><time>2026-04-22T10:05:11.305Z</time></trkpt><trkpt lat="41.0751866" lon="14.3313542"><ele>75.66666666666666</ele><time>2026-04-22T10:05:13.316Z</time></trkpt><trkpt lat="41.0751184" lon="14.3313562"><ele>75.5</ele><time>2026-04-22T10:05:15.324Z</time></trkpt><trkpt lat="41.0750191" lon="14.33132"><ele>75.33333333333333</ele><time>2026-04-22T10:05:18.32Z</time></trkpt><trkpt lat="41.0749631" lon="14.3312374"><ele>75.16666666666667</ele><time>2026-04-22T10:05:20.331Z</time></trkpt><trkpt lat="41.0749301" lon="14.3311097"><ele>75.0</ele><time>2026-04-22T10:05:22.292Z</time></trkpt><trkpt lat="41.074865" lon="14.3310149"><ele>74.8</ele><time>2026-04-22T10:05:24.296Z</time></trkpt><trkpt lat="41.0747673" lon="14.3309373"><ele>74.6</ele><time>2026-04-22T10:05:26.311Z</time></trkpt><trkpt lat="41.0747286" lon="14.3308384"><ele>74.4</ele><time>2026-04-22T10:05:28.374Z</time></trkpt><trkpt lat="41.0747299" lon="14.3306474"><ele>74.2</ele><time>2026-04-22T10:05:30.32Z</time></trkpt><trkpt lat="41.0747353" lon="14.3305423"><ele>74.0</ele><time>2026-04-22T10:05:31.294Z</time></trkpt><trkpt lat="41.0747384" lon="14.3304368"><ele>73.5</ele><time>2026-04-22T10:05:32.318Z</time></trkpt><trkpt lat="41.0747407" lon="14.3303306"><ele>73.0</ele><time>2026-04-22T10:05:33.357Z</time></trkpt><trkpt lat="41.0747342" lon="14.3302441"><ele>72.5</ele><time>2026-04-22T10:05:34.312Z</time></trkpt><trkpt lat="41.0747371" lon="14.3301391"><ele>72.0</ele><time>2026-04-22T10:05:35.313Z</time></trkpt><trkpt lat="41.0747442" lon="14.3299953"><ele>71.5</ele><time>2026-04-22T10:05:37.312Z</time></trkpt><trkpt lat="41.0747122" lon="14.3298726"><ele>71.0</ele><time>2026-04-22T10:05:39.317Z</time></trkpt><trkpt lat="41.0746405" lon="14.3298321"><ele>71.0</ele><time>2026-04-22T10:05:41.329Z</time></trkpt><trkpt lat="41.0745462" lon="14.3298354"><ele>71.0</ele><time>2026-04-22T10:05:43.312Z</time></trkpt><trkpt lat="41.0744678" lon="14.3298274"><ele>71.0</ele><time>2026-04-22T10:05:45.266Z</time></trkpt><trkpt lat="41.0743607" lon="14.3298247"><ele>71.0</ele><time>2026-04-22T10:05:47.32Z</time></trkpt><trkpt lat="41.074254" lon="14.3298162"><ele>71.0</ele><time>2026-04-22T10:05:49.34Z</time></trkpt><trkpt lat="41.074137" lon="14.3298133"><ele>70.83333333333334</ele><time>2026-04-22T10:05:51.319Z</time></trkpt><trkpt lat="41.0740642" lon="14.3298035"><ele>70.66666666666667</ele><time>2026-04-22T10:05:52.289Z</time></trkpt><trkpt lat="41.0739476" lon="14.3297902"><ele>70.5</ele><time>2026-04-22T10:05:54.316Z</time></trkpt><trkpt lat="41.0738805" lon="14.3297761"><ele>70.33333333333333</ele><time>2026-04-22T10:05:55.352Z</time></trkpt><trkpt lat="41.0738139" lon="14.3297639"><ele>70.16666666666666</ele><time>2026-04-22T10:05:56.302Z</time></trkpt><trkpt lat="41.0736974" lon="14.3297389"><ele>70.0</ele><time>2026-04-22T10:05:58.292Z</time></trkpt><trkpt lat="41.0736145" lon="14.3297251"><ele>70.0</ele><time>2026-04-22T10:05:59.325Z</time></trkpt><trkpt lat="41.0735206" lon="14.3297029"><ele>70.0</ele><time>2026-04-22T10:06:00.315Z</time></trkpt><trkpt lat="41.0734438" lon="14.3296875"><ele>70.0</ele><time>2026-04-22T10:06:01.396Z</time></trkpt><trkpt lat="41.0733764" lon="14.3296864"><ele>70.0</ele><time>2026-04-22T10:06:02.301Z</time></trkpt><trkpt lat="41.073309" lon="14.3296875"><ele>70.0</ele><time>2026-04-22T10:06:03.322Z</time></trkpt><trkpt lat="41.0732339" lon="14.3296911"><ele>70.0</ele><time>2026-04-22T10:06:04.326Z</time></trkpt><trkpt lat="41.073103" lon="14.3296864"><ele>69.8</ele><time>2026-04-22T10:06:06.339Z</time></trkpt><trkpt lat="41.072988" lon="14.3296678"><ele>69.6</ele><time>2026-04-22T10:06:08.302Z</time></trkpt><trkpt lat="41.0728803" lon="14.32965"><ele>69.4</ele><time>2026-04-22T10:06:10.338Z</time></trkpt><trkpt lat="41.0727715" lon="14.3296478"><ele>69.2</ele><time>2026-04-22T10:06:12.306Z</time></trkpt><trkpt lat="41.0726674" lon="14.3296236"><ele>69.0</ele><time>2026-04-22T10:06:14.356Z</time></trkpt><trkpt lat="41.0725733" lon="14.3296221"><ele>69.0</ele><time>2026-04-22T10:06:16.292Z</time></trkpt><trkpt lat="41.0724953" lon="14.3296252"><ele>69.0</ele><time>2026-04-22T10:06:18.412Z</time></trkpt><trkpt lat="41.0723989" lon="14.3296196"><ele>69.0</ele><time>2026-04-22T10:06:20.344Z</time></trkpt><trkpt lat="41.0722456" lon="14.3296085"><ele>69.0</ele><time>2026-04-22T10:06:23.331Z</time></trkpt><trkpt lat="41.0721775" lon="14.3296036"><ele>69.0</ele><time>2026-04-22T10:06:25.359Z</time></trkpt><trkpt lat="41.0721109" lon="14.329674"><ele>69.0</ele><time>2026-04-22T10:06:28.365Z</time></trkpt><trkpt lat="41.072107" lon="14.3297752"><ele>69.0</ele><time>2026-04-22T10:06:30.359Z</time></trkpt><trkpt lat="41.0721172" lon="14.3299075"><ele>69.0</ele><time>2026-04-22T10:06:32.37Z</time></trkpt><trkpt lat="41.0721101" lon="14.3300577"><ele>69.0</ele><time>2026-04-22T10:06:34.353Z</time></trkpt><trkpt lat="41.0721014" lon="14.3302064"><ele>69.0</ele><time>2026-04-22T10:06:36.397Z</time></trkpt><trkpt lat="41.0720888" lon="14.3303171"><ele>69.0</ele><time>2026-04-22T10:06:38.371Z</time></trkpt><trkpt lat="41.0721017" lon="14.3304203"><ele>69.0</ele><time>2026-04-22T10:06:41.345Z</time></trkpt><trkpt lat="41.0720979" lon="14.3305117"><ele>69.0</ele><time>2026-04-22T10:06:43.381Z</time></trkpt><trkpt lat="41.0720871" lon="14.3306153"><ele>69.0</ele><time>2026-04-22T10:06:45.366Z</time></trkpt><trkpt lat="41.0720797" lon="14.3307464"><ele>69.0</ele><time>2026-04-22T10:06:47.388Z</time></trkpt><trkpt lat="41.0720772" lon="14.3308789"><ele>69.0</ele><time>2026-04-22T10:06:49.345Z</time></trkpt><trkpt lat="41.0720705" lon="14.3310278"><ele>69.4</ele><time>2026-04-22T10:06:51.354Z</time></trkpt><trkpt lat="41.0720552" lon="14.3311412"><ele>69.80000000000001</ele><time>2026-04-22T10:06:53.365Z</time></trkpt><trkpt lat="41.0719983" lon="14.3312213"><ele>70.19999999999999</ele><time>2026-04-22T10:06:55.387Z</time></trkpt><trkpt lat="41.0718533" lon="14.3312857"><ele>70.6</ele><time>2026-04-22T10:06:58.408Z</time></trkpt><trkpt lat="41.0717372" lon="14.331282"><ele>71.0</ele><time>2026-04-22T10:07:00.377Z</time></trkpt><trkpt lat="41.0716133" lon="14.3312828"><ele>70.33333333333334</ele><time>2026-04-22T10:07:02.365Z</time></trkpt><trkpt lat="41.0715448" lon="14.3312868"><ele>69.66666666666667</ele><time>2026-04-22T10:07:03.401Z</time></trkpt><trkpt lat="41.0714748" lon="14.3312935"><ele>69.0</ele><time>2026-04-22T10:07:04.404Z</time></trkpt><trkpt lat="41.0713649" lon="14.3312811"><ele>68.33333333333333</ele><time>2026-04-22T10:07:06.356Z</time></trkpt><trkpt lat="41.0712984" lon="14.3312881"><ele>67.66666666666666</ele><time>2026-04-22T10:07:07.38Z</time></trkpt><trkpt lat="41.0711688" lon="14.3312967"><ele>67.0</ele><time>2026-04-22T10:07:09.372Z</time></trkpt><trkpt lat="41.0710994" lon="14.3313038"><ele>67.0</ele><time>2026-04-22T10:07:10.352Z</time></trkpt><trkpt lat="41.0710193" lon="14.3312937"><ele>67.0</ele><time>2026-04-22T10:07:11.37Z</time></trkpt><trkpt lat="41.0709513" lon="14.3312893"><ele>67.0</ele><time>2026-04-22T10:07:12.374Z</time></trkpt><trkpt lat="41.0708362" lon="14.331281"><ele>67.0</ele><time>2026-04-22T10:07:14.369Z</time></trkpt><trkpt lat="41.0707093" lon="14.3312755"><ele>67.0</ele><time>2026-04-22T10:07:16.372Z</time></trkpt><trkpt lat="41.070578" lon="14.3312667"><ele>67.16666666666666</ele><time>2026-04-22T10:07:18.375Z</time></trkpt><trkpt lat="41.0705109" lon="14.3312665"><ele>67.33333333333333</ele><time>2026-04-22T10:07:19.409Z</time></trkpt><trkpt lat="41.0704474" lon="14.3312589"><ele>67.5</ele><time>2026-04-22T10:07:20.428Z</time></trkpt><trkpt lat="41.0703415" lon="14.3312553"><ele>67.66666666666667</ele><time>2026-04-22T10:07:22.429Z</time></trkpt><trkpt lat="41.0702528" lon="14.3312188"><ele>67.83333333333334</ele><time>2026-04-22T10:07:24.365Z</time></trkpt><trkpt lat="41.0701947" lon="14.3311459"><ele>68.0</ele><time>2026-04-22T10:07:26.42Z</time></trkpt><trkpt lat="41.0701957" lon="14.331048"><ele>68.0</ele><time>2026-04-22T10:07:28.395Z</time></trkpt><trkpt lat="41.0702051" lon="14.3309245"><ele>68.0</ele><time>2026-04-22T10:07:30.394Z</time></trkpt><trkpt lat="41.0702061" lon="14.3307945"><ele>68.0</ele><time>2026-04-22T10:07:32.371Z</time></trkpt><trkpt lat="41.0702107" lon="14.330642"><ele>68.0</ele><time>2026-04-22T10:07:34.367Z</time></trkpt><trkpt lat="41.0702174" lon="14.3305516"><ele>68.0</ele><time>2026-04-22T10:07:35.394Z</time></trkpt><trkpt lat="41.0702256" lon="14.3303901"><ele>68.2</ele><time>2026-04-22T10:07:37.427Z</time></trkpt><trkpt lat="41.0702289" lon="14.3302336"><ele>68.4</ele><time>2026-04-22T10:07:39.495Z</time></trkpt><trkpt lat="41.0702203" lon="14.3301458"><ele>68.60000000000001</ele><time>2026-04-22T10:07:41.377Z</time></trkpt><trkpt lat="41.0701245" lon="14.3300916"><ele>68.8</ele><time>2026-04-22T10:07:44.407Z</time></trkpt><trkpt lat="41.0699924" lon="14.3300978"><ele>69.0</ele><time>2026-04-22T10:07:46.4Z</time></trkpt><trkpt lat="41.0699215" lon="14.3300971"><ele>69.0</ele><time>2026-04-22T10:07:47.422Z</time></trkpt><trkpt lat="41.0698493" lon="14.3300989"><ele>69.0</ele><time>2026-04-22T10:07:48.413Z</time></trkpt><trkpt lat="41.0697783" lon="14.3301025"><ele>69.0</ele><time>2026-04-22T10:07:49.384Z</time></trkpt><trkpt lat="41.0697133" lon="14.3301037"><ele>69.0</ele><time>2026-04-22T10:07:50.38Z</time></trkpt><trkpt lat="41.0696402" lon="14.3301002"><ele>69.0</ele><time>2026-04-22T10:07:51.411Z</time></trkpt><trkpt lat="41.0695605" lon="14.3300993"><ele>69.0</ele><time>2026-04-22T10:07:52.395Z</time></trkpt><trkpt lat="41.0694714" lon="14.3300991"><ele>69.0</ele><time>2026-04-22T10:07:54.401Z</time></trkpt><trkpt lat="41.0694054" lon="14.3301149"><ele>69.0</ele><time>2026-04-22T10:07:56.434Z</time></trkpt><trkpt lat="41.0693294" lon="14.3301182"><ele>69.0</ele><time>2026-04-22T10:07:58.394Z</time></trkpt><trkpt lat="41.0692523" lon="14.330119"><ele>69.0</ele><time>2026-04-22T10:08:00.506Z</time></trkpt><trkpt lat="41.0691866" lon="14.3301012"><ele>69.0</ele><time>2026-04-22T10:08:02.507Z</time></trkpt><trkpt lat="41.0691225" lon="14.3301048"><ele>69.0</ele><time>2026-04-22T10:08:08.427Z</time></trkpt><trkpt lat="41.0691234" lon="14.3302044"><ele>69.0</ele><time>2026-04-22T10:08:11.407Z</time></trkpt><trkpt lat="41.0691454" lon="14.3303343"><ele>69.0</ele><time>2026-04-22T10:08:13.424Z</time></trkpt><trkpt lat="41.0691397" lon="14.3304583"><ele>69.0</ele><time>2026-04-22T10:08:15.375Z</time></trkpt><trkpt lat="41.0691343" lon="14.3305617"><ele>69.0</ele><time>2026-04-22T10:08:17.377Z</time></trkpt><trkpt lat="41.0691275" lon="14.330677"><ele>69.0</ele><time>2026-04-22T10:08:19.366Z</time></trkpt><trkpt lat="41.069129" lon="14.330789"><ele>69.0</ele><time>2026-04-22T10:08:21.388Z</time></trkpt><trkpt lat="41.0691368" lon="14.3309945"><ele>69.5</ele><time>2026-04-22T10:08:24.382Z</time></trkpt><trkpt lat="41.0691352" lon="14.3311242"><ele>70.0</ele><time>2026-04-22T10:08:26.39Z</time></trkpt><trkpt lat="41.0691333" lon="14.3312543"><ele>70.5</ele><time>2026-04-22T10:08:28.382Z</time></trkpt><trkpt lat="41.0691297" lon="14.3313813"><ele>71.0</ele><time>2026-04-22T10:08:30.383Z</time></trkpt><trkpt lat="41.0691295" lon="14.3315951"><ele>71.0</ele><time>2026-04-22T10:08:33.359Z</time></trkpt><trkpt lat="41.0691291" lon="14.3316817"><ele>71.0</ele><time>2026-04-22T10:08:34.42Z</time></trkpt><trkpt lat="41.0691316" lon="14.3318351"><ele>71.0</ele><time>2026-04-22T10:08:36.519Z</time></trkpt><trkpt lat="41.0691312" lon="14.3319896"><ele>71.0</ele><time>2026-04-22T10:08:38.449Z</time></trkpt><trkpt lat="41.0691373" lon="14.3321491"><ele>71.0</ele><time>2026-04-22T10:08:40.416Z</time></trkpt><trkpt lat="41.0691425" lon="14.332311"><ele>70.33333333333334</ele><time>2026-04-22T10:08:42.518Z</time></trkpt><trkpt lat="41.0691378" lon="14.3324604"><ele>69.66666666666667</ele><time>2026-04-22T10:08:45.418Z</time></trkpt><trkpt lat="41.069139" lon="14.3325663"><ele>69.0</ele><time>2026-04-22T10:08:49.405Z</time></trkpt><trkpt lat="41.0691331" lon="14.3326693"><ele>68.33333333333333</ele><time>2026-04-22T10:08:55.372Z</time></trkpt><trkpt lat="41.0691357" lon="14.3327715"><ele>67.66666666666666</ele><time>2026-04-22T10:08:58.414Z</time></trkpt><trkpt lat="41.0691289" lon="14.3328796"><ele>67.0</ele><time>2026-04-22T10:09:01.514Z</time></trkpt><trkpt lat="41.0691128" lon="14.3330157"><ele>66.66666666666666</ele><time>2026-04-22T10:09:05.489Z</time></trkpt><trkpt lat="41.0690493" lon="14.3330435"><ele>66.33333333333333</ele><time>2026-04-22T10:09:07.415Z</time></trkpt><trkpt lat="41.0689427" lon="14.3330337"><ele>66.0</ele><time>2026-04-22T10:09:09.473Z</time></trkpt><trkpt lat="41.0688746" lon="14.3330252"><ele>65.66666666666667</ele><time>2026-04-22T10:09:10.467Z</time></trkpt><trkpt lat="41.0688097" lon="14.3330148"><ele>65.33333333333334</ele><time>2026-04-22T10:09:11.416Z</time></trkpt><trkpt lat="41.0687349" lon="14.3330156"><ele>65.0</ele><time>2026-04-22T10:09:12.401Z</time></trkpt><trkpt lat="41.068668" lon="14.3330028"><ele>65.0</ele><time>2026-04-22T10:09:13.417Z</time></trkpt><trkpt lat="41.0685963" lon="14.3330001"><ele>65.0</ele><time>2026-04-22T10:09:14.43Z</time></trkpt><trkpt lat="41.0685195" lon="14.3330089"><ele>65.0</ele><time>2026-04-22T10:09:15.415Z</time></trkpt><trkpt lat="41.0684334" lon="14.3330172"><ele>65.0</ele><time>2026-04-22T10:09:16.477Z</time></trkpt><trkpt lat="41.0683592" lon="14.3330242"><ele>65.0</ele><time>2026-04-22T10:09:17.38Z</time></trkpt><trkpt lat="41.0682791" lon="14.3330345"><ele>65.0</ele><time>2026-04-22T10:09:19.445Z</time></trkpt><trkpt lat="41.0682141" lon="14.3330301"><ele>65.2</ele><time>2026-04-22T10:09:21.469Z</time></trkpt><trkpt lat="41.0681249" lon="14.3330316"><ele>65.4</ele><time>2026-04-22T10:09:24.407Z</time></trkpt><trkpt lat="41.0680137" lon="14.3330062"><ele>65.6</ele><time>2026-04-22T10:09:28.435Z</time></trkpt><trkpt lat="41.0679663" lon="14.3329473"><ele>65.8</ele><time>2026-04-22T10:09:30.449Z</time></trkpt><trkpt lat="41.067982" lon="14.3327634"><ele>66.0</ele><time>2026-04-22T10:09:32.441Z</time></trkpt><trkpt lat="41.0679954" lon="14.3326473"><ele>66.0</ele><time>2026-04-22T10:09:33.424Z</time></trkpt><trkpt lat="41.0680078" lon="14.3325199"><ele>66.0</ele><time>2026-04-22T10:09:34.381Z</time></trkpt><trkpt lat="41.0680283" lon="14.3323856"><ele>66.0</ele><time>2026-04-22T10:09:35.402Z</time></trkpt><trkpt lat="41.0680424" lon="14.332259"><ele>66.0</ele><time>2026-04-22T10:09:36.359Z</time></trkpt><trkpt lat="41.0680607" lon="14.332117"><ele>66.0</ele><time>2026-04-22T10:09:37.369Z</time></trkpt><trkpt lat="41.0680771" lon="14.3319788"><ele>66.0</ele><time>2026-04-22T10:09:38.362Z</time></trkpt><trkpt lat="41.0680961" lon="14.3318249"><ele>66.0</ele><time>2026-04-22T10:09:39.366Z</time></trkpt><trkpt lat="41.0681121" lon="14.3316947"><ele>66.0</ele><time>2026-04-22T10:09:40.341Z</time></trkpt><trkpt lat="41.068131" lon="14.3315673"><ele>66.0</ele><time>2026-04-22T10:09:41.382Z</time></trkpt><trkpt lat="41.0681485" lon="14.331439"><ele>66.0</ele><time>2026-04-22T10:09:42.359Z</time></trkpt><trkpt lat="41.0681634" lon="14.3313049"><ele>66.0</ele><time>2026-04-22T10:09:43.424Z</time></trkpt><trkpt lat="41.0681663" lon="14.3311819"><ele>66.0</ele><time>2026-04-22T10:09:44.361Z</time></trkpt><trkpt lat="41.068174" lon="14.331037"><ele>66.0</ele><time>2026-04-22T10:09:45.374Z</time></trkpt><trkpt lat="41.06819" lon="14.3309051"><ele>66.0</ele><time>2026-04-22T10:09:46.378Z</time></trkpt><trkpt lat="41.0681976" lon="14.3307727"><ele>66.0</ele><time>2026-04-22T10:09:47.364Z</time></trkpt><trkpt lat="41.0682049" lon="14.330635"><ele>65.5</ele><time>2026-04-22T10:09:48.338Z</time></trkpt><trkpt lat="41.0682159" lon="14.3304888"><ele>65.0</ele><time>2026-04-22T10:09:49.36Z</time></trkpt><trkpt lat="41.0682285" lon="14.3303234"><ele>64.5</ele><time>2026-04-22T10:09:50.421Z</time></trkpt><trkpt lat="41.0682309" lon="14.3301792"><ele>64.0</ele><time>2026-04-22T10:09:51.44Z</time></trkpt><trkpt lat="41.0682368" lon="14.330034"><ele>64.0</ele><time>2026-04-22T10:09:52.339Z</time></trkpt><trkpt lat="41.0682428" lon="14.3298825"><ele>64.0</ele><time>2026-04-22T10:09:53.382Z</time></trkpt><trkpt lat="41.068247" lon="14.3297547"><ele>64.0</ele><time>2026-04-22T10:09:54.359Z</time></trkpt><trkpt lat="41.0682503" lon="14.3296332"><ele>64.0</ele><time>2026-04-22T10:09:55.355Z</time></trkpt><trkpt lat="41.0682548" lon="14.3295132"><ele>64.0</ele><time>2026-04-22T10:09:56.399Z</time></trkpt><trkpt lat="41.0682602" lon="14.3294147"><ele>63.83333333333333</ele><time>2026-04-22T10:09:57.327Z</time></trkpt><trkpt lat="41.068267" lon="14.3293117"><ele>63.666666666666664</ele><time>2026-04-22T10:09:58.333Z</time></trkpt><trkpt lat="41.0682717" lon="14.3292105"><ele>63.5</ele><time>2026-04-22T10:09:59.365Z</time></trkpt><trkpt lat="41.0682722" lon="14.3291186"><ele>63.33333333333333</ele><time>2026-04-22T10:10:00.337Z</time></trkpt><trkpt lat="41.0682683" lon="14.3290058"><ele>63.166666666666664</ele><time>2026-04-22T10:10:01.329Z</time></trkpt><trkpt lat="41.0682715" lon="14.3288757"><ele>63.0</ele><time>2026-04-22T10:10:02.359Z</time></trkpt><trkpt lat="41.0682799" lon="14.3287338"><ele>63.4</ele><time>2026-04-22T10:10:03.387Z</time></trkpt><trkpt lat="41.0682865" lon="14.3286002"><ele>63.8</ele><time>2026-04-22T10:10:04.345Z</time></trkpt><trkpt lat="41.0682946" lon="14.3284655"><ele>64.2</ele><time>2026-04-22T10:10:05.332Z</time></trkpt><trkpt lat="41.0683003" lon="14.3283326"><ele>64.6</ele><time>2026-04-22T10:10:06.378Z</time></trkpt><trkpt lat="41.0683035" lon="14.3282133"><ele>65.0</ele><time>2026-04-22T10:10:07.356Z</time></trkpt><trkpt lat="41.0683077" lon="14.3280961"><ele>64.83333333333334</ele><time>2026-04-22T10:10:08.356Z</time></trkpt><trkpt lat="41.0683145" lon="14.3279808"><ele>64.66666666666667</ele><time>2026-04-22T10:10:09.386Z</time></trkpt><trkpt lat="41.068317" lon="14.3278644"><ele>64.5</ele><time>2026-04-22T10:10:10.389Z</time></trkpt><trkpt lat="41.0683191" lon="14.3277517"><ele>64.33333333333333</ele><time>2026-04-22T10:10:11.36Z</time></trkpt><trkpt lat="41.0683265" lon="14.3276401"><ele>64.16666666666666</ele><time>2026-04-22T10:10:12.341Z</time></trkpt><trkpt lat="41.0683352" lon="14.32752"><ele>64.0</ele><time>2026-04-22T10:10:13.348Z</time></trkpt><trkpt lat="41.0683443" lon="14.3274069"><ele>64.0</ele><time>2026-04-22T10:10:14.342Z</time></trkpt><trkpt lat="41.0683472" lon="14.3272878"><ele>64.0</ele><time>2026-04-22T10:10:15.326Z</time></trkpt><trkpt lat="41.0683519" lon="14.3271805"><ele>64.0</ele><time>2026-04-22T10:10:16.328Z</time></trkpt><trkpt lat="41.0683601" lon="14.3270593"><ele>64.0</ele><time>2026-04-22T10:10:17.361Z</time></trkpt><trkpt lat="41.0683699" lon="14.3269364"><ele>64.0</ele><time>2026-04-22T10:10:18.322Z</time></trkpt><trkpt lat="41.0683791" lon="14.3267822"><ele>63.75</ele><time>2026-04-22T10:10:19.475Z</time></trkpt><trkpt lat="41.068394" lon="14.3265207"><ele>63.5</ele><time>2026-04-22T10:10:21.333Z</time></trkpt><trkpt lat="41.0684031" lon="14.3263886"><ele>63.25</ele><time>2026-04-22T10:10:22.328Z</time></trkpt><trkpt lat="41.0684126" lon="14.3262612"><ele>63.0</ele><time>2026-04-22T10:10:23.374Z</time></trkpt><trkpt lat="41.0684201" lon="14.3261498"><ele>63.0</ele><time>2026-04-22T10:10:24.316Z</time></trkpt><trkpt lat="41.0684272" lon="14.3260297"><ele>63.0</ele><time>2026-04-22T10:10:25.356Z</time></trkpt><trkpt lat="41.0684349" lon="14.325921"><ele>63.0</ele><time>2026-04-22T10:10:26.364Z</time></trkpt><trkpt lat="41.06844" lon="14.3258188"><ele>63.0</ele><time>2026-04-22T10:10:27.349Z</time></trkpt><trkpt lat="41.0684432" lon="14.3257121"><ele>63.0</ele><time>2026-04-22T10:10:28.348Z</time></trkpt><trkpt lat="41.0684454" lon="14.3256009"><ele>63.0</ele><time>2026-04-22T10:10:29.348Z</time></trkpt><trkpt lat="41.0684464" lon="14.3254919"><ele>62.833333333333336</ele><time>2026-04-22T10:10:30.349Z</time></trkpt><trkpt lat="41.0684513" lon="14.3253838"><ele>62.66666666666667</ele><time>2026-04-22T10:10:31.335Z</time></trkpt><trkpt lat="41.0684578" lon="14.3252733"><ele>62.5</ele><time>2026-04-22T10:10:32.317Z</time></trkpt><trkpt lat="41.0684671" lon="14.3251501"><ele>62.333333333333336</ele><time>2026-04-22T10:10:33.361Z</time></trkpt><trkpt lat="41.068476" lon="14.3250341"><ele>62.16666666666667</ele><time>2026-04-22T10:10:34.374Z</time></trkpt><trkpt lat="41.0684925" lon="14.3249275"><ele>62.0</ele><time>2026-04-22T10:10:35.35Z</time></trkpt><trkpt lat="41.0685161" lon="14.3248146"><ele>62.2</ele><time>2026-04-22T10:10:36.375Z</time></trkpt><trkpt lat="41.0685379" lon="14.3247096"><ele>62.400000000000006</ele><time>2026-04-22T10:10:37.35Z</time></trkpt><trkpt lat="41.0685572" lon="14.3246063"><ele>62.599999999999994</ele><time>2026-04-22T10:10:38.359Z</time></trkpt><trkpt lat="41.06857" lon="14.3244893"><ele>62.8</ele><time>2026-04-22T10:10:39.368Z</time></trkpt><trkpt lat="41.0685792" lon="14.324354"><ele>63.0</ele><time>2026-04-22T10:10:40.459Z</time></trkpt><trkpt lat="41.0685916" lon="14.324106"><ele>63.0</ele><time>2026-04-22T10:10:42.346Z</time></trkpt><trkpt lat="41.0685998" lon="14.3239633"><ele>63.0</ele><time>2026-04-22T10:10:43.397Z</time></trkpt><trkpt lat="41.0686045" lon="14.3238287"><ele>63.0</ele><time>2026-04-22T10:10:44.411Z</time></trkpt><trkpt lat="41.0686097" lon="14.3236982"><ele>63.0</ele><time>2026-04-22T10:10:45.425Z</time></trkpt><trkpt lat="41.0686157" lon="14.3235723"><ele>63.0</ele><time>2026-04-22T10:10:46.366Z</time></trkpt><trkpt lat="41.0686228" lon="14.3234469"><ele>63.0</ele><time>2026-04-22T10:10:47.32Z</time></trkpt><trkpt lat="41.0686299" lon="14.3233108"><ele>63.0</ele><time>2026-04-22T10:10:48.402Z</time></trkpt><trkpt lat="41.0686339" lon="14.3231968"><ele>63.0</ele><time>2026-04-22T10:10:49.313Z</time></trkpt><trkpt lat="41.0686383" lon="14.3230602"><ele>63.0</ele><time>2026-04-22T10:10:50.371Z</time></trkpt><trkpt lat="41.0686383" lon="14.3229344"><ele>63.0</ele><time>2026-04-22T10:10:51.361Z</time></trkpt><trkpt lat="41.0686392" lon="14.3228082"><ele>63.2</ele><time>2026-04-22T10:10:52.339Z</time></trkpt><trkpt lat="41.0686405" lon="14.3226873"><ele>63.4</ele><time>2026-04-22T10:10:53.34Z</time></trkpt><trkpt lat="41.0686389" lon="14.3225633"><ele>63.60000000000001</ele><time>2026-04-22T10:10:54.349Z</time></trkpt><trkpt lat="41.0686386" lon="14.322443"><ele>63.800000000000004</ele><time>2026-04-22T10:10:55.332Z</time></trkpt><trkpt lat="41.0686299" lon="14.3223217"><ele>64.0</ele><time>2026-04-22T10:10:56.355Z</time></trkpt><trkpt lat="41.0686186" lon="14.3221963"><ele>63.666666666666664</ele><time>2026-04-22T10:10:57.509Z</time></trkpt><trkpt lat="41.0686073" lon="14.3220941"><ele>63.33333333333333</ele><time>2026-04-22T10:10:58.465Z</time></trkpt><trkpt lat="41.068592" lon="14.3219908"><ele>63.0</ele><time>2026-04-22T10:10:59.393Z</time></trkpt><trkpt lat="41.0685829" lon="14.3218979"><ele>62.66666666666667</ele><time>2026-04-22T10:11:00.353Z</time></trkpt><trkpt lat="41.0685664" lon="14.321799"><ele>62.333333333333336</ele><time>2026-04-22T10:11:01.325Z</time></trkpt><trkpt lat="41.0685429" lon="14.3216812"><ele>62.0</ele><time>2026-04-22T10:11:02.464Z</time></trkpt><trkpt lat="41.0685262" lon="14.3215813"><ele>62.00000000000001</ele><time>2026-04-22T10:11:03.415Z</time></trkpt><trkpt lat="41.0685092" lon="14.3214794"><ele>62.0</ele><time>2026-04-22T10:11:04.372Z</time></trkpt><trkpt lat="41.0684913" lon="14.3213753"><ele>62.0</ele><time>2026-04-22T10:11:05.359Z</time></trkpt><trkpt lat="41.0684715" lon="14.3212738"><ele>62.0</ele><time>2026-04-22T10:11:06.357Z</time></trkpt><trkpt lat="41.0684547" lon="14.3211837"><ele>62.00000000000001</ele><time>2026-04-22T10:11:07.329Z</time></trkpt><trkpt lat="41.068437" lon="14.321086"><ele>62.0</ele><time>2026-04-22T10:11:08.357Z</time></trkpt><trkpt lat="41.0684123" lon="14.3209821"><ele>62.16666666666667</ele><time>2026-04-22T10:11:09.359Z</time></trkpt><trkpt lat="41.0683936" lon="14.3208728"><ele>62.333333333333336</ele><time>2026-04-22T10:11:10.341Z</time></trkpt><trkpt lat="41.0683752" lon="14.3207654"><ele>62.5</ele><time>2026-04-22T10:11:11.351Z</time></trkpt><trkpt lat="41.0683598" lon="14.3206661"><ele>62.66666666666667</ele><time>2026-04-22T10:11:12.342Z</time></trkpt><trkpt lat="41.0683462" lon="14.3205686"><ele>62.833333333333336</ele><time>2026-04-22T10:11:13.335Z</time></trkpt><trkpt lat="41.0683247" lon="14.3204671"><ele>63.0</ele><time>2026-04-22T10:11:14.329Z</time></trkpt><trkpt lat="41.0682994" lon="14.3203497"><ele>63.0</ele><time>2026-04-22T10:11:15.387Z</time></trkpt><trkpt lat="41.0682773" lon="14.3202465"><ele>63.0</ele><time>2026-04-22T10:11:16.365Z</time></trkpt><trkpt lat="41.0682606" lon="14.3201406"><ele>63.0</ele><time>2026-04-22T10:11:17.346Z</time></trkpt><trkpt lat="41.0682452" lon="14.3200388"><ele>63.0</ele><time>2026-04-22T10:11:18.336Z</time></trkpt><trkpt lat="41.068222" lon="14.3199359"><ele>63.0</ele><time>2026-04-22T10:11:19.366Z</time></trkpt><trkpt lat="41.0681932" lon="14.3197844"><ele>63.0</ele><time>2026-04-22T10:11:21.37Z</time></trkpt><trkpt lat="41.0681846" lon="14.3197002"><ele>62.85714285714286</ele><time>2026-04-22T10:11:22.336Z</time></trkpt><trkpt lat="41.0681731" lon="14.3196096"><ele>62.714285714285715</ele><time>2026-04-22T10:11:23.346Z</time></trkpt><trkpt lat="41.068155" lon="14.3195266"><ele>62.57142857142857</ele><time>2026-04-22T10:11:24.354Z</time></trkpt><trkpt lat="41.0681359" lon="14.3194456"><ele>62.42857142857143</ele><time>2026-04-22T10:11:25.354Z</time></trkpt><trkpt lat="41.0681113" lon="14.3193616"><ele>62.28571428571429</ele><time>2026-04-22T10:11:26.324Z</time></trkpt><trkpt lat="41.0680848" lon="14.3192709"><ele>62.142857142857146</ele><time>2026-04-22T10:11:27.32Z</time></trkpt><trkpt lat="41.0680511" lon="14.3191647"><ele>62.0</ele><time>2026-04-22T10:11:28.472Z</time></trkpt><trkpt lat="41.0679932" lon="14.31899"><ele>61.833333333333336</ele><time>2026-04-22T10:11:30.344Z</time></trkpt><trkpt lat="41.0679539" lon="14.3188408"><ele>61.66666666666667</ele><time>2026-04-22T10:11:32.392Z</time></trkpt><trkpt lat="41.06793" lon="14.3187616"><ele>61.5</ele><time>2026-04-22T10:11:33.403Z</time></trkpt><trkpt lat="41.0679016" lon="14.3186862"><ele>61.33333333333333</ele><time>2026-04-22T10:11:34.349Z</time></trkpt><trkpt lat="41.0678714" lon="14.318594"><ele>61.166666666666664</ele><time>2026-04-22T10:11:35.344Z</time></trkpt><trkpt lat="41.0678407" lon="14.3184887"><ele>61.0</ele><time>2026-04-22T10:11:36.354Z</time></trkpt><trkpt lat="41.0678095" lon="14.3183906"><ele>60.99999999999999</ele><time>2026-04-22T10:11:37.318Z</time></trkpt><trkpt lat="41.0677773" lon="14.3182906"><ele>61.0</ele><time>2026-04-22T10:11:38.374Z</time></trkpt><trkpt lat="41.0677461" lon="14.3181931"><ele>61.0</ele><time>2026-04-22T10:11:39.435Z</time></trkpt><trkpt lat="41.0677219" lon="14.318102"><ele>61.0</ele><time>2026-04-22T10:11:40.378Z</time></trkpt><trkpt lat="41.0676929" lon="14.3180094"><ele>60.99999999999999</ele><time>2026-04-22T10:11:41.348Z</time></trkpt><trkpt lat="41.0676609" lon="14.3179123"><ele>61.0</ele><time>2026-04-22T10:11:42.358Z</time></trkpt><trkpt lat="41.0676293" lon="14.3178131"><ele>60.83333333333333</ele><time>2026-04-22T10:11:43.376Z</time></trkpt><trkpt lat="41.0676026" lon="14.3177283"><ele>60.666666666666664</ele><time>2026-04-22T10:11:44.325Z</time></trkpt><trkpt lat="41.0675755" lon="14.3176417"><ele>60.5</ele><time>2026-04-22T10:11:45.355Z</time></trkpt><trkpt lat="41.0675479" lon="14.3175533"><ele>60.33333333333333</ele><time>2026-04-22T10:11:46.369Z</time></trkpt><trkpt lat="41.0675223" lon="14.3174643"><ele>60.166666666666664</ele><time>2026-04-22T10:11:47.375Z</time></trkpt><trkpt lat="41.067473" lon="14.3173145"><ele>60.0</ele><time>2026-04-22T10:11:49.336Z</time></trkpt><trkpt lat="41.067444" lon="14.317224"><ele>60.166666666666664</ele><time>2026-04-22T10:11:50.354Z</time></trkpt><trkpt lat="41.0674133" lon="14.317129"><ele>60.33333333333333</ele><time>2026-04-22T10:11:51.381Z</time></trkpt><trkpt lat="41.0673837" lon="14.3170372"><ele>60.5</ele><time>2026-04-22T10:11:52.339Z</time></trkpt><trkpt lat="41.0673485" lon="14.3169293"><ele>60.666666666666664</ele><time>2026-04-22T10:11:53.402Z</time></trkpt><trkpt lat="41.0673164" lon="14.3168273"><ele>60.83333333333333</ele><time>2026-04-22T10:11:54.364Z</time></trkpt><trkpt lat="41.067283" lon="14.3167176"><ele>61.0</ele><time>2026-04-22T10:11:55.36Z</time></trkpt><trkpt lat="41.0672554" lon="14.3166163"><ele>60.99999999999999</ele><time>2026-04-22T10:11:56.324Z</time></trkpt><trkpt lat="41.0672316" lon="14.3165333"><ele>61.0</ele><time>2026-04-22T10:11:57.406Z</time></trkpt><trkpt lat="41.0671809" lon="14.3163803"><ele>61.0</ele><time>2026-04-22T10:11:59.36Z</time></trkpt><trkpt lat="41.067153" lon="14.316293"><ele>61.0</ele><time>2026-04-22T10:12:00.332Z</time></trkpt><trkpt lat="41.067122" lon="14.3161996"><ele>60.99999999999999</ele><time>2026-04-22T10:12:01.336Z</time></trkpt><trkpt lat="41.0670972" lon="14.3161005"><ele>61.0</ele><time>2026-04-22T10:12:02.371Z</time></trkpt><trkpt lat="41.0670686" lon="14.3159945"><ele>60.99999999999999</ele><time>2026-04-22T10:12:03.425Z</time></trkpt><trkpt lat="41.0670394" lon="14.3158943"><ele>61.0</ele><time>2026-04-22T10:12:04.38Z</time></trkpt><trkpt lat="41.0670116" lon="14.3157866"><ele>61.0</ele><time>2026-04-22T10:12:05.359Z</time></trkpt><trkpt lat="41.0669802" lon="14.3156774"><ele>61.0</ele><time>2026-04-22T10:12:06.377Z</time></trkpt><trkpt lat="41.0669507" lon="14.3155621"><ele>60.99999999999999</ele><time>2026-04-22T10:12:07.358Z</time></trkpt><trkpt lat="41.0669272" lon="14.3154456"><ele>61.0</ele><time>2026-04-22T10:12:08.372Z</time></trkpt><trkpt lat="41.0668955" lon="14.3153365"><ele>61.0</ele><time>2026-04-22T10:12:09.346Z</time></trkpt><trkpt lat="41.0668559" lon="14.3152142"><ele>60.99999999999999</ele><time>2026-04-22T10:12:10.334Z</time></trkpt><trkpt lat="41.0668151" lon="14.3150932"><ele>60.99999999999999</ele><time>2026-04-22T10:12:11.384Z</time></trkpt><trkpt lat="41.0667787" lon="14.314983"><ele>61.0</ele><time>2026-04-22T10:12:12.367Z</time></trkpt><trkpt lat="41.0667411" lon="14.3148741"><ele>61.0</ele><time>2026-04-22T10:12:13.331Z</time></trkpt><trkpt lat="41.0666863" lon="14.3147216"><ele>60.0</ele><time>2026-04-22T10:12:14.48Z</time></trkpt><trkpt lat="41.0665818" lon="14.3143832"><ele>59.0</ele><time>2026-04-22T10:12:16.334Z</time></trkpt><trkpt lat="41.0665123" lon="14.314148"><ele>59.0</ele><time>2026-04-22T10:12:17.398Z</time></trkpt><trkpt lat="41.0664518" lon="14.3139429"><ele>59.0</ele><time>2026-04-22T10:12:18.357Z</time></trkpt><trkpt lat="41.0663942" lon="14.3137243"><ele>59.0</ele><time>2026-04-22T10:12:19.454Z</time></trkpt><trkpt lat="41.0663524" lon="14.3135562"><ele>59.2</ele><time>2026-04-22T10:12:20.429Z</time></trkpt><trkpt lat="41.066314" lon="14.3134165"><ele>59.400000000000006</ele><time>2026-04-22T10:12:21.374Z</time></trkpt><trkpt lat="41.0662734" lon="14.3132742"><ele>59.6</ele><time>2026-04-22T10:12:22.374Z</time></trkpt><trkpt lat="41.0662365" lon="14.3131432"><ele>59.8</ele><time>2026-04-22T10:12:23.334Z</time></trkpt><trkpt lat="41.0662" lon="14.3130113"><ele>60.0</ele><time>2026-04-22T10:12:24.327Z</time></trkpt><trkpt lat="41.0661612" lon="14.312879"><ele>60.4</ele><time>2026-04-22T10:12:25.323Z</time></trkpt><trkpt lat="41.0661232" lon="14.3127484"><ele>60.8</ele><time>2026-04-22T10:12:26.309Z</time></trkpt><trkpt lat="41.0660802" lon="14.3126023"><ele>61.2</ele><time>2026-04-22T10:12:27.443Z</time></trkpt><trkpt lat="41.0660471" lon="14.3124952"><ele>61.6</ele><time>2026-04-22T10:12:28.375Z</time></trkpt><trkpt lat="41.0660171" lon="14.3123953"><ele>62.0</ele><time>2026-04-22T10:12:29.345Z</time></trkpt><trkpt lat="41.0659861" lon="14.3122952"><ele>61.8</ele><time>2026-04-22T10:12:30.331Z</time></trkpt><trkpt lat="41.06596" lon="14.3122005"><ele>61.6</ele><time>2026-04-22T10:12:31.369Z</time></trkpt><trkpt lat="41.0659198" lon="14.3120539"><ele>61.39999999999999</ele><time>2026-04-22T10:12:33.343Z</time></trkpt><trkpt lat="41.0658761" lon="14.3119116"><ele>61.199999999999996</ele><time>2026-04-22T10:12:35.397Z</time></trkpt><trkpt lat="41.0658397" lon="14.3117779"><ele>61.0</ele><time>2026-04-22T10:12:37.373Z</time></trkpt><trkpt lat="41.0658084" lon="14.3116644"><ele>60.99999999999999</ele><time>2026-04-22T10:12:39.354Z</time></trkpt><trkpt lat="41.0657858" lon="14.3115848"><ele>61.0</ele><time>2026-04-22T10:12:41.364Z</time></trkpt><trkpt lat="41.0657573" lon="14.3115016"><ele>61.0</ele><time>2026-04-22T10:12:43.365Z</time></trkpt><trkpt lat="41.0657008" lon="14.3113383"><ele>61.0</ele><time>2026-04-22T10:12:46.332Z</time></trkpt><trkpt lat="41.0656589" lon="14.3112037"><ele>60.99999999999999</ele><time>2026-04-22T10:12:48.369Z</time></trkpt><trkpt lat="41.0656323" lon="14.3111184"><ele>61.0</ele><time>2026-04-22T10:12:49.411Z</time></trkpt><trkpt lat="41.0655923" lon="14.3109812"><ele>60.57142857142856</ele><time>2026-04-22T10:12:51.357Z</time></trkpt><trkpt lat="41.065573" lon="14.3109"><ele>60.14285714285714</ele><time>2026-04-22T10:12:52.368Z</time></trkpt><trkpt lat="41.0655479" lon="14.3108176"><ele>59.714285714285715</ele><time>2026-04-22T10:12:53.346Z</time></trkpt><trkpt lat="41.0655208" lon="14.3107222"><ele>59.285714285714285</ele><time>2026-04-22T10:12:54.392Z</time></trkpt><trkpt lat="41.0654946" lon="14.3106422"><ele>58.85714285714286</ele><time>2026-04-22T10:12:55.366Z</time></trkpt><trkpt lat="41.0654661" lon="14.3105511"><ele>58.42857142857144</ele><time>2026-04-22T10:12:56.346Z</time></trkpt><trkpt lat="41.0654333" lon="14.310434"><ele>58.00000000000001</ele><time>2026-04-22T10:12:57.517Z</time></trkpt><trkpt lat="41.065407" lon="14.3103472"><ele>57.85714285714286</ele><time>2026-04-22T10:12:58.463Z</time></trkpt><trkpt lat="41.0653815" lon="14.3102591"><ele>57.714285714285715</ele><time>2026-04-22T10:12:59.372Z</time></trkpt><trkpt lat="41.0653545" lon="14.3101654"><ele>57.57142857142857</ele><time>2026-04-22T10:13:00.365Z</time></trkpt><trkpt lat="41.0653278" lon="14.3100738"><ele>57.42857142857143</ele><time>2026-04-22T10:13:01.357Z</time></trkpt><trkpt lat="41.0653017" lon="14.309988"><ele>57.28571428571428</ele><time>2026-04-22T10:13:02.358Z</time></trkpt><trkpt lat="41.0652774" lon="14.309906"><ele>57.14285714285714</ele><time>2026-04-22T10:13:03.34Z</time></trkpt><trkpt lat="41.0652525" lon="14.3098225"><ele>57.0</ele><time>2026-04-22T10:13:04.347Z</time></trkpt><trkpt lat="41.0652306" lon="14.3097408"><ele>56.666666666666664</ele><time>2026-04-22T10:13:05.336Z</time></trkpt><trkpt lat="41.0652031" lon="14.3096514"><ele>56.33333333333333</ele><time>2026-04-22T10:13:06.311Z</time></trkpt><trkpt lat="41.065172" lon="14.3095493"><ele>56.0</ele><time>2026-04-22T10:13:07.375Z</time></trkpt><trkpt lat="41.0651451" lon="14.3094516"><ele>55.666666666666664</ele><time>2026-04-22T10:13:08.37Z</time></trkpt><trkpt lat="41.0651185" lon="14.3093602"><ele>55.33333333333333</ele><time>2026-04-22T10:13:09.359Z</time></trkpt><trkpt lat="41.0650927" lon="14.3092807"><ele>55.0</ele><time>2026-04-22T10:13:10.356Z</time></trkpt><trkpt lat="41.0650554" lon="14.3091847"><ele>55.0</ele><time>2026-04-22T10:13:12.348Z</time></trkpt><trkpt lat="41.0650198" lon="14.3090598"><ele>55.0</ele><time>2026-04-22T10:13:15.542Z</time></trkpt><trkpt lat="41.0649916" lon="14.3089616"><ele>55.0</ele><time>2026-04-22T10:13:17.364Z</time></trkpt><trkpt lat="41.0649531" lon="14.308836"><ele>55.0</ele><time>2026-04-22T10:13:19.406Z</time></trkpt><trkpt lat="41.0649156" lon="14.3087092"><ele>55.0</ele><time>2026-04-22T10:13:21.369Z</time></trkpt><trkpt lat="41.0648738" lon="14.3085603"><ele>55.14285714285714</ele><time>2026-04-22T10:13:23.342Z</time></trkpt><trkpt lat="41.0648542" lon="14.3084721"><ele>55.285714285714285</ele><time>2026-04-22T10:13:24.33Z</time></trkpt><trkpt lat="41.0648366" lon="14.3083904"><ele>55.42857142857143</ele><time>2026-04-22T10:13:25.31Z</time></trkpt><trkpt lat="41.0648181" lon="14.3082808"><ele>55.57142857142857</ele><time>2026-04-22T10:13:26.284Z</time></trkpt><trkpt lat="41.0647771" lon="14.3082023"><ele>55.714285714285715</ele><time>2026-04-22T10:13:28.068Z</time></trkpt><trkpt lat="41.0647474" lon="14.3081125"><ele>55.857142857142854</ele><time>2026-04-22T10:13:29.069Z</time></trkpt><trkpt lat="41.0647147" lon="14.308024"><ele>56.0</ele><time>2026-04-22T10:13:30.069Z</time></trkpt><trkpt lat="41.064688" lon="14.3079379"><ele>56.0</ele><time>2026-04-22T10:13:31.069Z</time></trkpt><trkpt lat="41.0646558" lon="14.3078173"><ele>56.0</ele><time>2026-04-22T10:13:32.494Z</time></trkpt><trkpt lat="41.0645839" lon="14.3075915"><ele>56.0</ele><time>2026-04-22T10:13:34.415Z</time></trkpt><trkpt lat="41.0645474" lon="14.3074726"><ele>56.0</ele><time>2026-04-22T10:13:35.533Z</time></trkpt><trkpt lat="41.0644876" lon="14.307274"><ele>55.8</ele><time>2026-04-22T10:13:37.367Z</time></trkpt><trkpt lat="41.0644546" lon="14.3071635"><ele>55.599999999999994</ele><time>2026-04-22T10:13:38.428Z</time></trkpt><trkpt lat="41.0644212" lon="14.3070585"><ele>55.4</ele><time>2026-04-22T10:13:39.445Z</time></trkpt><trkpt lat="41.0643864" lon="14.3069467"><ele>55.2</ele><time>2026-04-22T10:13:40.458Z</time></trkpt><trkpt lat="41.0643539" lon="14.306843"><ele>55.0</ele><time>2026-04-22T10:13:41.389Z</time></trkpt><trkpt lat="41.0643177" lon="14.3067183"><ele>55.0</ele><time>2026-04-22T10:13:42.477Z</time></trkpt><trkpt lat="41.0642824" lon="14.3065956"><ele>55.0</ele><time>2026-04-22T10:13:43.485Z</time></trkpt><trkpt lat="41.0642471" lon="14.3064784"><ele>55.0</ele><time>2026-04-22T10:13:44.448Z</time></trkpt><trkpt lat="41.0642064" lon="14.3063555"><ele>55.0</ele><time>2026-04-22T10:13:45.437Z</time></trkpt><trkpt lat="41.0641656" lon="14.306241"><ele>55.0</ele><time>2026-04-22T10:13:46.371Z</time></trkpt><trkpt lat="41.0641205" lon="14.3061129"><ele>55.0</ele><time>2026-04-22T10:13:47.426Z</time></trkpt><trkpt lat="41.0640723" lon="14.305991"><ele>55.0</ele><time>2026-04-22T10:13:48.407Z</time></trkpt><trkpt lat="41.0640195" lon="14.3058667"><ele>55.0</ele><time>2026-04-22T10:13:49.424Z</time></trkpt><trkpt lat="41.0639719" lon="14.3057588"><ele>55.0</ele><time>2026-04-22T10:13:50.388Z</time></trkpt><trkpt lat="41.0639168" lon="14.3056484"><ele>55.0</ele><time>2026-04-22T10:13:51.382Z</time></trkpt><trkpt lat="41.0638684" lon="14.3055329"><ele>54.4</ele><time>2026-04-22T10:13:52.374Z</time></trkpt><trkpt lat="41.0638107" lon="14.3054227"><ele>53.8</ele><time>2026-04-22T10:13:53.443Z</time></trkpt><trkpt lat="41.0637486" lon="14.3053304"><ele>53.2</ele><time>2026-04-22T10:13:54.431Z</time></trkpt><trkpt lat="41.063686" lon="14.3052302"><ele>52.6</ele><time>2026-04-22T10:13:55.377Z</time></trkpt><trkpt lat="41.0636205" lon="14.3051209"><ele>52.0</ele><time>2026-04-22T10:13:56.448Z</time></trkpt><trkpt lat="41.0635627" lon="14.3050199"><ele>51.99999999999999</ele><time>2026-04-22T10:13:57.422Z</time></trkpt><trkpt lat="41.0635047" lon="14.3049224"><ele>52.0</ele><time>2026-04-22T10:13:58.427Z</time></trkpt><trkpt lat="41.0634488" lon="14.30483"><ele>52.0</ele><time>2026-04-22T10:13:59.43Z</time></trkpt><trkpt lat="41.0633971" lon="14.3047454"><ele>52.0</ele><time>2026-04-22T10:14:00.426Z</time></trkpt><trkpt lat="41.0633474" lon="14.3046652"><ele>51.99999999999999</ele><time>2026-04-22T10:14:01.415Z</time></trkpt><trkpt lat="41.0633001" lon="14.3045863"><ele>52.0</ele><time>2026-04-22T10:14:02.404Z</time></trkpt><trkpt lat="41.0632437" lon="14.3045057"><ele>51.99999999999999</ele><time>2026-04-22T10:14:03.483Z</time></trkpt><trkpt lat="41.0631865" lon="14.3044247"><ele>52.0</ele><time>2026-04-22T10:14:04.53Z</time></trkpt><trkpt lat="41.0631436" lon="14.3043543"><ele>52.0</ele><time>2026-04-22T10:14:05.448Z</time></trkpt><trkpt lat="41.0630998" lon="14.304293"><ele>52.0</ele><time>2026-04-22T10:14:06.397Z</time></trkpt><trkpt lat="41.0630568" lon="14.3042319"><ele>51.99999999999999</ele><time>2026-04-22T10:14:07.42Z</time></trkpt><trkpt lat="41.0630051" lon="14.3041651"><ele>52.0</ele><time>2026-04-22T10:14:08.606Z</time></trkpt><trkpt lat="41.0629052" lon="14.3040474"><ele>51.99999999999999</ele><time>2026-04-22T10:14:10.422Z</time></trkpt><trkpt lat="41.0628442" lon="14.3039708"><ele>52.0</ele><time>2026-04-22T10:14:11.437Z</time></trkpt><trkpt lat="41.0627844" lon="14.3039015"><ele>52.0</ele><time>2026-04-22T10:14:12.423Z</time></trkpt><trkpt lat="41.0626934" lon="14.3038001"><ele>52.0</ele><time>2026-04-22T10:14:14.477Z</time></trkpt><trkpt lat="41.0626172" lon="14.3037333"><ele>51.99999999999999</ele><time>2026-04-22T10:14:16.39Z</time></trkpt><trkpt lat="41.0625611" lon="14.3036847"><ele>52.0</ele><time>2026-04-22T10:14:19.431Z</time></trkpt><trkpt lat="41.0624992" lon="14.3036312"><ele>51.99999999999999</ele><time>2026-04-22T10:14:22.579Z</time></trkpt><trkpt lat="41.0624238" lon="14.3035711"><ele>52.0</ele><time>2026-04-22T10:14:25.436Z</time></trkpt><trkpt lat="41.0623579" lon="14.3035372"><ele>52.0</ele><time>2026-04-22T10:14:28.44Z</time></trkpt><trkpt lat="41.0622975" lon="14.303474"><ele>52.0</ele><time>2026-04-22T10:14:32.438Z</time></trkpt><trkpt lat="41.0622369" lon="14.3034006"><ele>51.99999999999999</ele><time>2026-04-22T10:14:34.447Z</time></trkpt><trkpt lat="41.0621641" lon="14.3033102"><ele>52.0</ele><time>2026-04-22T10:14:36.445Z</time></trkpt><trkpt lat="41.0621146" lon="14.3031812"><ele>51.6</ele><time>2026-04-22T10:14:38.42Z</time></trkpt><trkpt lat="41.0620391" lon="14.3030283"><ele>51.2</ele><time>2026-04-22T10:14:40.506Z</time></trkpt><trkpt lat="41.0619842" lon="14.3029602"><ele>50.8</ele><time>2026-04-22T10:14:41.439Z</time></trkpt><trkpt lat="41.0619223" lon="14.3028846"><ele>50.4</ele><time>2026-04-22T10:14:42.433Z</time></trkpt><trkpt lat="41.061843" lon="14.3028102"><ele>50.0</ele><time>2026-04-22T10:14:43.458Z</time></trkpt><trkpt lat="41.0617395" lon="14.3027265"><ele>50.0</ele><time>2026-04-22T10:14:44.469Z</time></trkpt><trkpt lat="41.0616391" lon="14.3026317"><ele>50.0</ele><time>2026-04-22T10:14:45.45Z</time></trkpt><trkpt lat="41.0615312" lon="14.3025244"><ele>50.0</ele><time>2026-04-22T10:14:46.459Z</time></trkpt><trkpt lat="41.061444" lon="14.30243"><ele>50.0</ele><time>2026-04-22T10:14:47.434Z</time></trkpt><trkpt lat="41.0613576" lon="14.3023394"><ele>50.0</ele><time>2026-04-22T10:14:48.511Z</time></trkpt><trkpt lat="41.0612727" lon="14.302265"><ele>50.0</ele><time>2026-04-22T10:14:49.444Z</time></trkpt><trkpt lat="41.0611546" lon="14.3021618"><ele>50.0</ele><time>2026-04-22T10:14:50.414Z</time></trkpt><trkpt lat="41.0610111" lon="14.3020351"><ele>50.0</ele><time>2026-04-22T10:14:51.429Z</time></trkpt><trkpt lat="41.060855" lon="14.3018914"><ele>49.333333333333336</ele><time>2026-04-22T10:14:52.472Z</time></trkpt><trkpt lat="41.0607149" lon="14.3017544"><ele>48.66666666666667</ele><time>2026-04-22T10:14:53.508Z</time></trkpt><trkpt lat="41.060599" lon="14.3016366"><ele>48.0</ele><time>2026-04-22T10:14:54.456Z</time></trkpt><trkpt lat="41.0604738" lon="14.3015258"><ele>48.0</ele><time>2026-04-22T10:14:55.43Z</time></trkpt><trkpt lat="41.0603376" lon="14.3014171"><ele>48.0</ele><time>2026-04-22T10:14:56.485Z</time></trkpt><trkpt lat="41.0602156" lon="14.3013223"><ele>48.0</ele><time>2026-04-22T10:14:57.465Z</time></trkpt><trkpt lat="41.0600906" lon="14.3012291"><ele>48.0</ele><time>2026-04-22T10:14:58.464Z</time></trkpt><trkpt lat="41.0599693" lon="14.3011347"><ele>47.5</ele><time>2026-04-22T10:14:59.446Z</time></trkpt><trkpt lat="41.0598594" lon="14.3010413"><ele>47.0</ele><time>2026-04-22T10:15:00.404Z</time></trkpt><trkpt lat="41.0597352" lon="14.3009401"><ele>46.5</ele><time>2026-04-22T10:15:01.453Z</time></trkpt><trkpt lat="41.0596079" lon="14.3008479"><ele>46.0</ele><time>2026-04-22T10:15:02.484Z</time></trkpt><trkpt lat="41.0594862" lon="14.3007601"><ele>46.0</ele><time>2026-04-22T10:15:03.458Z</time></trkpt><trkpt lat="41.0593647" lon="14.3006752"><ele>46.0</ele><time>2026-04-22T10:15:04.42Z</time></trkpt><trkpt lat="41.0592312" lon="14.3005866"><ele>46.0</ele><time>2026-04-22T10:15:05.492Z</time></trkpt><trkpt lat="41.0591146" lon="14.3005087"><ele>46.0</ele><time>2026-04-22T10:15:06.458Z</time></trkpt><trkpt lat="41.0589914" lon="14.3004301"><ele>45.25</ele><time>2026-04-22T10:15:07.475Z</time></trkpt><trkpt lat="41.0588709" lon="14.3003554"><ele>44.5</ele><time>2026-04-22T10:15:08.469Z</time></trkpt><trkpt lat="41.0587497" lon="14.3002805"><ele>43.75</ele><time>2026-04-22T10:15:09.478Z</time></trkpt><trkpt lat="41.0586357" lon="14.3002175"><ele>43.0</ele><time>2026-04-22T10:15:10.425Z</time></trkpt><trkpt lat="41.0585195" lon="14.3001509"><ele>43.0</ele><time>2026-04-22T10:15:11.454Z</time></trkpt><trkpt lat="41.0584084" lon="14.3000825"><ele>43.0</ele><time>2026-04-22T10:15:12.448Z</time></trkpt><trkpt lat="41.0582957" lon="14.3000285"><ele>43.0</ele><time>2026-04-22T10:15:13.44Z</time></trkpt><trkpt lat="41.058176" lon="14.2999953"><ele>43.0</ele><time>2026-04-22T10:15:14.485Z</time></trkpt><trkpt lat="41.0580708" lon="14.2999833"><ele>43.0</ele><time>2026-04-22T10:15:15.445Z</time></trkpt><trkpt lat="41.0579757" lon="14.2999659"><ele>43.0</ele><time>2026-04-22T10:15:16.428Z</time></trkpt><trkpt lat="41.0578822" lon="14.2999283"><ele>43.0</ele><time>2026-04-22T10:15:17.451Z</time></trkpt><trkpt lat="41.0577982" lon="14.2998521"><ele>43.0</ele><time>2026-04-22T10:15:18.48Z</time></trkpt><trkpt lat="41.0577259" lon="14.299748"><ele>43.0</ele><time>2026-04-22T10:15:19.486Z</time></trkpt><trkpt lat="41.0576493" lon="14.2996609"><ele>42.5</ele><time>2026-04-22T10:15:20.405Z</time></trkpt><trkpt lat="41.0575452" lon="14.2995807"><ele>42.0</ele><time>2026-04-22T10:15:21.462Z</time></trkpt><trkpt lat="41.0574223" lon="14.2995099"><ele>41.5</ele><time>2026-04-22T10:15:22.543Z</time></trkpt><trkpt lat="41.0573245" lon="14.2994703"><ele>41.0</ele><time>2026-04-22T10:15:23.448Z</time></trkpt><trkpt lat="41.0572047" lon="14.2994399"><ele>41.0</ele><time>2026-04-22T10:15:24.416Z</time></trkpt><trkpt lat="41.0570679" lon="14.2994254"><ele>41.0</ele><time>2026-04-22T10:15:25.425Z</time></trkpt><trkpt lat="41.0569178" lon="14.2994189"><ele>41.0</ele><time>2026-04-22T10:15:26.602Z</time></trkpt><trkpt lat="41.0567059" lon="14.2994294"><ele>41.0</ele><time>2026-04-22T10:15:28.527Z</time></trkpt><trkpt lat="41.0566112" lon="14.2994423"><ele>41.0</ele><time>2026-04-22T10:15:29.498Z</time></trkpt><trkpt lat="41.0565296" lon="14.2994573"><ele>41.0</ele><time>2026-04-22T10:15:30.427Z</time></trkpt><trkpt lat="41.0564434" lon="14.29947"><ele>41.0</ele><time>2026-04-22T10:15:31.412Z</time></trkpt><trkpt lat="41.0563611" lon="14.299484"><ele>41.0</ele><time>2026-04-22T10:15:32.441Z</time></trkpt><trkpt lat="41.056296" lon="14.2994768"><ele>41.0</ele><time>2026-04-22T10:15:33.531Z</time></trkpt><trkpt lat="41.0562457" lon="14.2994085"><ele>41.0</ele><time>2026-04-22T10:15:36.442Z</time></trkpt><trkpt lat="41.0562422" lon="14.2993248"><ele>41.0</ele><time>2026-04-22T10:15:37.459Z</time></trkpt><trkpt lat="41.0562446" lon="14.2992091"><ele>41.0</ele><time>2026-04-22T10:15:38.453Z</time></trkpt><trkpt lat="41.0562345" lon="14.2991087"><ele>41.0</ele><time>2026-04-22T10:15:39.465Z</time></trkpt><trkpt lat="41.0562319" lon="14.2990124"><ele>41.0</ele><time>2026-04-22T10:15:40.462Z</time></trkpt><trkpt lat="41.0562466" lon="14.2988431"><ele>41.0</ele><time>2026-04-22T10:15:42.585Z</time></trkpt><trkpt lat="41.0562843" lon="14.2987328"><ele>41.0</ele><time>2026-04-22T10:15:44.369Z</time></trkpt><trkpt lat="41.0563338" lon="14.2986351"><ele>41.0</ele><time>2026-04-22T10:15:45.422Z</time></trkpt><trkpt lat="41.056232" lon="14.2984689"><ele>41.0</ele><time>2026-04-22T10:15:56.465Z</time></trkpt><trkpt lat="41.0561318" lon="14.2984174"><ele>41.0</ele><time>2026-04-22T10:15:57.485Z</time></trkpt><trkpt lat="41.056033" lon="14.2983658"><ele>41.0</ele><time>2026-04-22T10:15:58.395Z</time></trkpt><trkpt lat="41.0558861" lon="14.2982816"><ele>41.0</ele><time>2026-04-22T10:15:59.496Z</time></trkpt><trkpt lat="41.0557286" lon="14.2982004"><ele>41.0</ele><time>2026-04-22T10:16:00.478Z</time></trkpt><trkpt lat="41.0555697" lon="14.2981135"><ele>39.33333333333333</ele><time>2026-04-22T10:16:01.43Z</time></trkpt><trkpt lat="41.0553915" lon="14.2980178"><ele>37.666666666666664</ele><time>2026-04-22T10:16:02.448Z</time></trkpt><trkpt lat="41.0552038" lon="14.2979194"><ele>36.0</ele><time>2026-04-22T10:16:03.439Z</time></trkpt><trkpt lat="41.0550195" lon="14.2978155"><ele>36.666666666666664</ele><time>2026-04-22T10:16:04.449Z</time></trkpt><trkpt lat="41.0548478" lon="14.29772"><ele>37.33333333333333</ele><time>2026-04-22T10:16:05.437Z</time></trkpt><trkpt lat="41.0546835" lon="14.2976304"><ele>38.0</ele><time>2026-04-22T10:16:06.451Z</time></trkpt><trkpt lat="41.0545269" lon="14.2975478"><ele>38.0</ele><time>2026-04-22T10:16:07.457Z</time></trkpt><trkpt lat="41.0543669" lon="14.2974608"><ele>38.0</ele><time>2026-04-22T10:16:08.527Z</time></trkpt><trkpt lat="41.0542395" lon="14.2973947"><ele>38.0</ele><time>2026-04-22T10:16:09.447Z</time></trkpt><trkpt lat="41.0541055" lon="14.2973173"><ele>37.5</ele><time>2026-04-22T10:16:10.462Z</time></trkpt><trkpt lat="41.0539779" lon="14.297248"><ele>37.0</ele><time>2026-04-22T10:16:11.446Z</time></trkpt><trkpt lat="41.0538387" lon="14.2971776"><ele>36.5</ele><time>2026-04-22T10:16:12.462Z</time></trkpt><trkpt lat="41.0536997" lon="14.2971018"><ele>36.0</ele><time>2026-04-22T10:16:13.455Z</time></trkpt><trkpt lat="41.0535599" lon="14.2970217"><ele>36.0</ele><time>2026-04-22T10:16:14.438Z</time></trkpt><trkpt lat="41.0534161" lon="14.2969443"><ele>36.0</ele><time>2026-04-22T10:16:15.428Z</time></trkpt><trkpt lat="41.0532609" lon="14.2968594"><ele>36.0</ele><time>2026-04-22T10:16:16.466Z</time></trkpt><trkpt lat="41.0531034" lon="14.2967722"><ele>36.0</ele><time>2026-04-22T10:16:17.468Z</time></trkpt><trkpt lat="41.0529241" lon="14.2966717"><ele>36.0</ele><time>2026-04-22T10:16:18.581Z</time></trkpt><trkpt lat="41.0527753" lon="14.2965885"><ele>36.0</ele><time>2026-04-22T10:16:19.488Z</time></trkpt><trkpt lat="41.0526192" lon="14.2964977"><ele>36.0</ele><time>2026-04-22T10:16:20.457Z</time></trkpt><trkpt lat="41.0524565" lon="14.2963997"><ele>36.0</ele><time>2026-04-22T10:16:21.469Z</time></trkpt><trkpt lat="41.0523028" lon="14.2963093"><ele>36.0</ele><time>2026-04-22T10:16:22.426Z</time></trkpt><trkpt lat="41.0521427" lon="14.2962067"><ele>35.333333333333336</ele><time>2026-04-22T10:16:23.435Z</time></trkpt><trkpt lat="41.0519773" lon="14.2960869"><ele>34.66666666666667</ele><time>2026-04-22T10:16:24.523Z</time></trkpt><trkpt lat="41.05184" lon="14.2959791"><ele>34.0</ele><time>2026-04-22T10:16:25.441Z</time></trkpt><trkpt lat="41.0516942" lon="14.2958543"><ele>33.66666666666667</ele><time>2026-04-22T10:16:26.449Z</time></trkpt><trkpt lat="41.0515458" lon="14.295712"><ele>33.333333333333336</ele><time>2026-04-22T10:16:27.547Z</time></trkpt><trkpt lat="41.0514113" lon="14.295564"><ele>33.0</ele><time>2026-04-22T10:16:28.618Z</time></trkpt><trkpt lat="41.0511883" lon="14.2952968"><ele>33.0</ele><time>2026-04-22T10:16:30.443Z</time></trkpt><trkpt lat="41.0510516" lon="14.295133"><ele>33.0</ele><time>2026-04-22T10:16:31.581Z</time></trkpt><trkpt lat="41.0509463" lon="14.2950083"><ele>33.0</ele><time>2026-04-22T10:16:32.492Z</time></trkpt><trkpt lat="41.0508249" lon="14.2948755"><ele>33.0</ele><time>2026-04-22T10:16:33.551Z</time></trkpt><trkpt lat="41.0507101" lon="14.2947688"><ele>33.0</ele><time>2026-04-22T10:16:34.558Z</time></trkpt><trkpt lat="41.0505063" lon="14.2946121"><ele>33.0</ele><time>2026-04-22T10:16:36.458Z</time></trkpt><trkpt lat="41.0504077" lon="14.2945478"><ele>33.0</ele><time>2026-04-22T10:16:37.488Z</time></trkpt><trkpt lat="41.0503123" lon="14.2944929"><ele>33.0</ele><time>2026-04-22T10:16:38.522Z</time></trkpt><trkpt lat="41.0502281" lon="14.2944513"><ele>33.0</ele><time>2026-04-22T10:16:39.495Z</time></trkpt><trkpt lat="41.0501523" lon="14.2944188"><ele>33.0</ele><time>2026-04-22T10:16:40.458Z</time></trkpt><trkpt lat="41.0500768" lon="14.2943917"><ele>33.0</ele><time>2026-04-22T10:16:41.538Z</time></trkpt><trkpt lat="41.049991" lon="14.294349"><ele>33.0</ele><time>2026-04-22T10:16:43.448Z</time></trkpt><trkpt lat="41.0499105" lon="14.2943256"><ele>32.8</ele><time>2026-04-22T10:16:45.6Z</time></trkpt><trkpt lat="41.0498572" lon="14.2942558"><ele>32.599999999999994</ele><time>2026-04-22T10:16:47.448Z</time></trkpt><trkpt lat="41.0498586" lon="14.2941424"><ele>32.400000000000006</ele><time>2026-04-22T10:16:49.468Z</time></trkpt><trkpt lat="41.0498516" lon="14.2939679"><ele>32.2</ele><time>2026-04-22T10:16:51.33Z</time></trkpt><trkpt lat="41.0498452" lon="14.2938306"><ele>32.0</ele><time>2026-04-22T10:16:52.393Z</time></trkpt><trkpt lat="41.0498375" lon="14.293696"><ele>32.0</ele><time>2026-04-22T10:16:53.384Z</time></trkpt><trkpt lat="41.0498376" lon="14.2935632"><ele>32.0</ele><time>2026-04-22T10:16:54.369Z</time></trkpt><trkpt lat="41.0498355" lon="14.2934226"><ele>32.0</ele><time>2026-04-22T10:16:55.345Z</time></trkpt><trkpt lat="41.0498304" lon="14.2932815"><ele>32.0</ele><time>2026-04-22T10:16:56.322Z</time></trkpt><trkpt lat="41.0498277" lon="14.2931287"><ele>32.0</ele><time>2026-04-22T10:16:57.348Z</time></trkpt><trkpt lat="41.0498305" lon="14.2929908"><ele>32.0</ele><time>2026-04-22T10:16:58.316Z</time></trkpt><trkpt lat="41.0498295" lon="14.2928389"><ele>32.0</ele><time>2026-04-22T10:16:59.353Z</time></trkpt><trkpt lat="41.0498226" lon="14.2926912"><ele>32.0</ele><time>2026-04-22T10:17:00.336Z</time></trkpt><trkpt lat="41.0498154" lon="14.2925322"><ele>32.0</ele><time>2026-04-22T10:17:01.409Z</time></trkpt><trkpt lat="41.0498124" lon="14.292398"><ele>32.0</ele><time>2026-04-22T10:17:02.351Z</time></trkpt><trkpt lat="41.0498161" lon="14.2922458"><ele>32.0</ele><time>2026-04-22T10:17:03.371Z</time></trkpt><trkpt lat="41.0498236" lon="14.2921061"><ele>32.0</ele><time>2026-04-22T10:17:04.378Z</time></trkpt><trkpt lat="41.0498236" lon="14.2919714"><ele>32.0</ele><time>2026-04-22T10:17:05.384Z</time></trkpt><trkpt lat="41.0498221" lon="14.2918395"><ele>32.0</ele><time>2026-04-22T10:17:06.367Z</time></trkpt><trkpt lat="41.0498229" lon="14.2917169"><ele>32.0</ele><time>2026-04-22T10:17:07.364Z</time></trkpt><trkpt lat="41.0498175" lon="14.2916144"><ele>31.999999999999996</ele><time>2026-04-22T10:17:08.347Z</time></trkpt><trkpt lat="41.0498148" lon="14.2915176"><ele>32.0</ele><time>2026-04-22T10:17:09.369Z</time></trkpt><trkpt lat="41.0498011" lon="14.2913596"><ele>32.0</ele><time>2026-04-22T10:17:11.375Z</time></trkpt><trkpt lat="41.0497915" lon="14.2912549"><ele>32.0</ele><time>2026-04-22T10:17:13.468Z</time></trkpt><trkpt lat="41.049777" lon="14.291128"><ele>31.999999999999996</ele><time>2026-04-22T10:17:16.499Z</time></trkpt><trkpt lat="41.049711" lon="14.2910783"><ele>32.0</ele><time>2026-04-22T10:17:19.493Z</time></trkpt><trkpt lat="41.0496299" lon="14.2910975"><ele>31.999999999999996</ele><time>2026-04-22T10:17:21.362Z</time></trkpt><trkpt lat="41.0495184" lon="14.291123"><ele>32.0</ele><time>2026-04-22T10:17:23.373Z</time></trkpt><trkpt lat="41.0494477" lon="14.2911299"><ele>32.0</ele><time>2026-04-22T10:17:24.439Z</time></trkpt><trkpt lat="41.0493229" lon="14.291142"><ele>32.0</ele><time>2026-04-22T10:17:26.359Z</time></trkpt><trkpt lat="41.0492591" lon="14.2911497"><ele>31.999999999999996</ele><time>2026-04-22T10:17:27.358Z</time></trkpt><trkpt lat="41.0491954" lon="14.2911479"><ele>32.0</ele><time>2026-04-22T10:17:28.345Z</time></trkpt><trkpt lat="41.0491246" lon="14.2911535"><ele>31.666666666666664</ele><time>2026-04-22T10:17:29.365Z</time></trkpt><trkpt lat="41.0490604" lon="14.2911456"><ele>31.333333333333332</ele><time>2026-04-22T10:17:30.43Z</time></trkpt><trkpt lat="41.0489897" lon="14.2911543"><ele>31.0</ele><time>2026-04-22T10:17:31.375Z</time></trkpt><trkpt lat="41.0489207" lon="14.291155"><ele>30.666666666666664</ele><time>2026-04-22T10:17:32.36Z</time></trkpt><trkpt lat="41.0488006" lon="14.2911496"><ele>30.333333333333332</ele><time>2026-04-22T10:17:34.355Z</time></trkpt><trkpt lat="41.048732" lon="14.2911498"><ele>30.0</ele><time>2026-04-22T10:17:35.335Z</time></trkpt><trkpt lat="41.0486539" lon="14.2911425"><ele>30.0</ele><time>2026-04-22T10:17:36.383Z</time></trkpt><trkpt lat="41.0485849" lon="14.29113"><ele>30.0</ele><time>2026-04-22T10:17:37.331Z</time></trkpt><trkpt lat="41.0485056" lon="14.2911217"><ele>30.0</ele><time>2026-04-22T10:17:38.339Z</time></trkpt><trkpt lat="41.0484163" lon="14.2911077"><ele>30.0</ele><time>2026-04-22T10:17:39.45Z</time></trkpt><trkpt lat="41.0483257" lon="14.2910999"><ele>30.0</ele><time>2026-04-22T10:17:40.523Z</time></trkpt><trkpt lat="41.0481692" lon="14.2911027"><ele>29.8</ele><time>2026-04-22T10:17:42.325Z</time></trkpt><trkpt lat="41.0480725" lon="14.2911058"><ele>29.6</ele><time>2026-04-22T10:17:43.38Z</time></trkpt><trkpt lat="41.0479813" lon="14.2911052"><ele>29.4</ele><time>2026-04-22T10:17:44.334Z</time></trkpt><trkpt lat="41.0478794" lon="14.291105"><ele>29.2</ele><time>2026-04-22T10:17:45.357Z</time></trkpt><trkpt lat="41.0477752" lon="14.2911049"><ele>29.0</ele><time>2026-04-22T10:17:46.372Z</time></trkpt><trkpt lat="41.0476656" lon="14.2911033"><ele>29.0</ele><time>2026-04-22T10:17:47.426Z</time></trkpt><trkpt lat="41.0475512" lon="14.2911041"><ele>29.0</ele><time>2026-04-22T10:17:48.47Z</time></trkpt><trkpt lat="41.04744" lon="14.2911037"><ele>29.0</ele><time>2026-04-22T10:17:49.454Z</time></trkpt><trkpt lat="41.0473337" lon="14.291106"><ele>29.0</ele><time>2026-04-22T10:17:50.366Z</time></trkpt><trkpt lat="41.0472103" lon="14.2911104"><ele>29.0</ele><time>2026-04-22T10:17:51.389Z</time></trkpt><trkpt lat="41.0470816" lon="14.2911157"><ele>29.0</ele><time>2026-04-22T10:17:52.426Z</time></trkpt><trkpt lat="41.0469568" lon="14.2911172"><ele>29.0</ele><time>2026-04-22T10:17:53.42Z</time></trkpt><trkpt lat="41.0468389" lon="14.291121"><ele>29.0</ele><time>2026-04-22T10:17:54.34Z</time></trkpt><trkpt lat="41.0466985" lon="14.2911317"><ele>29.0</ele><time>2026-04-22T10:17:55.428Z</time></trkpt><trkpt lat="41.0465719" lon="14.2911406"><ele>29.0</ele><time>2026-04-22T10:17:56.419Z</time></trkpt><trkpt lat="41.046457" lon="14.2911463"><ele>29.0</ele><time>2026-04-22T10:17:57.366Z</time></trkpt><trkpt lat="41.0463248" lon="14.2911533"><ele>29.0</ele><time>2026-04-22T10:17:58.424Z</time></trkpt><trkpt lat="41.046203" lon="14.2911588"><ele>29.0</ele><time>2026-04-22T10:17:59.368Z</time></trkpt><trkpt lat="41.0460764" lon="14.2911601"><ele>29.0</ele><time>2026-04-22T10:18:00.384Z</time></trkpt><trkpt lat="41.0459549" lon="14.2911642"><ele>29.0</ele><time>2026-04-22T10:18:01.415Z</time></trkpt><trkpt lat="41.0458421" lon="14.2911662"><ele>29.0</ele><time>2026-04-22T10:18:02.363Z</time></trkpt><trkpt lat="41.0457328" lon="14.2911651"><ele>28.666666666666664</ele><time>2026-04-22T10:18:03.346Z</time></trkpt><trkpt lat="41.0456273" lon="14.2911631"><ele>28.333333333333336</ele><time>2026-04-22T10:18:04.385Z</time></trkpt><trkpt lat="41.0455143" lon="14.2911662"><ele>28.0</ele><time>2026-04-22T10:18:05.453Z</time></trkpt><trkpt lat="41.0452723" lon="14.291155"><ele>28.0</ele><time>2026-04-22T10:18:07.639Z</time></trkpt><trkpt lat="41.0450755" lon="14.2911483"><ele>28.0</ele><time>2026-04-22T10:18:09.437Z</time></trkpt><trkpt lat="41.0449763" lon="14.2911474"><ele>28.0</ele><time>2026-04-22T10:18:10.376Z</time></trkpt><trkpt lat="41.0448791" lon="14.2911463"><ele>28.0</ele><time>2026-04-22T10:18:11.422Z</time></trkpt><trkpt lat="41.0447878" lon="14.291136"><ele>27.833333333333336</ele><time>2026-04-22T10:18:12.411Z</time></trkpt><trkpt lat="41.044696" lon="14.2911165"><ele>27.666666666666668</ele><time>2026-04-22T10:18:13.451Z</time></trkpt><trkpt lat="41.04461" lon="14.2910963"><ele>27.5</ele><time>2026-04-22T10:18:14.36Z</time></trkpt><trkpt lat="41.0445172" lon="14.2910582"><ele>27.333333333333336</ele><time>2026-04-22T10:18:15.432Z</time></trkpt><trkpt lat="41.0444425" lon="14.2910195"><ele>27.166666666666668</ele><time>2026-04-22T10:18:16.394Z</time></trkpt><trkpt lat="41.044365" lon="14.2909673"><ele>27.0</ele><time>2026-04-22T10:18:17.389Z</time></trkpt><trkpt lat="41.0442779" lon="14.2909094"><ele>27.0</ele><time>2026-04-22T10:18:18.456Z</time></trkpt><trkpt lat="41.0442041" lon="14.29086"><ele>27.0</ele><time>2026-04-22T10:18:19.449Z</time></trkpt><trkpt lat="41.0441383" lon="14.2908186"><ele>27.0</ele><time>2026-04-22T10:18:20.377Z</time></trkpt><trkpt lat="41.0440735" lon="14.2907715"><ele>27.0</ele><time>2026-04-22T10:18:21.344Z</time></trkpt><trkpt lat="41.0439994" lon="14.2907162"><ele>27.0</ele><time>2026-04-22T10:18:22.385Z</time></trkpt><trkpt lat="41.0439215" lon="14.2906637"><ele>27.0</ele><time>2026-04-22T10:18:23.398Z</time></trkpt><trkpt lat="41.0438457" lon="14.2906078"><ele>27.166666666666668</ele><time>2026-04-22T10:18:24.414Z</time></trkpt><trkpt lat="41.0437779" lon="14.2905564"><ele>27.333333333333336</ele><time>2026-04-22T10:18:25.377Z</time></trkpt><trkpt lat="41.0437022" lon="14.2905001"><ele>27.5</ele><time>2026-04-22T10:18:26.431Z</time></trkpt><trkpt lat="41.0436337" lon="14.2904554"><ele>27.666666666666668</ele><time>2026-04-22T10:18:27.498Z</time></trkpt><trkpt lat="41.0435348" lon="14.2904135"><ele>27.833333333333336</ele><time>2026-04-22T10:18:29.371Z</time></trkpt><trkpt lat="41.0434723" lon="14.290403"><ele>28.0</ele><time>2026-04-22T10:18:30.374Z</time></trkpt><trkpt lat="41.0433855" lon="14.2903806"><ele>28.0</ele><time>2026-04-22T10:18:31.553Z</time></trkpt><trkpt lat="41.0433112" lon="14.2903618"><ele>27.999999999999996</ele><time>2026-04-22T10:18:32.478Z</time></trkpt><trkpt lat="41.0432357" lon="14.2903463"><ele>27.999999999999996</ele><time>2026-04-22T10:18:33.39Z</time></trkpt><trkpt lat="41.0431566" lon="14.2903305"><ele>28.0</ele><time>2026-04-22T10:18:34.473Z</time></trkpt><trkpt lat="41.0430398" lon="14.2903086"><ele>28.0</ele><time>2026-04-22T10:18:36.413Z</time></trkpt><trkpt lat="41.0428958" lon="14.2902933"><ele>28.333333333333336</ele><time>2026-04-22T10:18:38.485Z</time></trkpt><trkpt lat="41.0428139" lon="14.2902844"><ele>28.666666666666668</ele><time>2026-04-22T10:18:39.417Z</time></trkpt><trkpt lat="41.0427283" lon="14.290278"><ele>29.0</ele><time>2026-04-22T10:18:40.413Z</time></trkpt><trkpt lat="41.0426478" lon="14.2902868"><ele>29.333333333333336</ele><time>2026-04-22T10:18:41.475Z</time></trkpt><trkpt lat="41.0425709" lon="14.2902924"><ele>29.666666666666668</ele><time>2026-04-22T10:18:42.44Z</time></trkpt><trkpt lat="41.0424973" lon="14.2902936"><ele>30.0</ele><time>2026-04-22T10:18:43.397Z</time></trkpt><trkpt lat="41.0424092" lon="14.2902847"><ele>30.0</ele><time>2026-04-22T10:18:44.427Z</time></trkpt><trkpt lat="41.0423159" lon="14.2902761"><ele>30.0</ele><time>2026-04-22T10:18:45.407Z</time></trkpt><trkpt lat="41.0422097" lon="14.2902729"><ele>30.0</ele><time>2026-04-22T10:18:46.484Z</time></trkpt><trkpt lat="41.0421205" lon="14.2902737"><ele>30.0</ele><time>2026-04-22T10:18:47.431Z</time></trkpt><trkpt lat="41.0420226" lon="14.2902692"><ele>30.0</ele><time>2026-04-22T10:18:48.484Z</time></trkpt><trkpt lat="41.0419376" lon="14.2902693"><ele>30.0</ele><time>2026-04-22T10:18:49.433Z</time></trkpt><trkpt lat="41.0418564" lon="14.2902698"><ele>30.0</ele><time>2026-04-22T10:18:50.436Z</time></trkpt><trkpt lat="41.0417751" lon="14.2902712"><ele>30.0</ele><time>2026-04-22T10:18:51.538Z</time></trkpt><trkpt lat="41.0416351" lon="14.2902837"><ele>30.0</ele><time>2026-04-22T10:18:53.404Z</time></trkpt><trkpt lat="41.041536" lon="14.2902837"><ele>30.0</ele><time>2026-04-22T10:18:54.486Z</time></trkpt><trkpt lat="41.0414318" lon="14.2902841"><ele>29.75</ele><time>2026-04-22T10:18:55.496Z</time></trkpt><trkpt lat="41.0413354" lon="14.2902716"><ele>29.5</ele><time>2026-04-22T10:18:56.406Z</time></trkpt><trkpt lat="41.0412176" lon="14.2902361"><ele>29.25</ele><time>2026-04-22T10:18:57.463Z</time></trkpt><trkpt lat="41.0410917" lon="14.290185"><ele>29.0</ele><time>2026-04-22T10:18:58.432Z</time></trkpt><trkpt lat="41.0409492" lon="14.2901383"><ele>29.333333333333332</ele><time>2026-04-22T10:18:59.39Z</time></trkpt><trkpt lat="41.0407654" lon="14.2900736"><ele>29.666666666666664</ele><time>2026-04-22T10:19:00.57Z</time></trkpt><trkpt lat="41.0406149" lon="14.2900057"><ele>30.0</ele><time>2026-04-22T10:19:01.52Z</time></trkpt><trkpt lat="41.0404596" lon="14.2899274"><ele>30.0</ele><time>2026-04-22T10:19:02.466Z</time></trkpt><trkpt lat="41.0402938" lon="14.2898448"><ele>30.0</ele><time>2026-04-22T10:19:03.44Z</time></trkpt><trkpt lat="41.0401114" lon="14.2897535"><ele>30.0</ele><time>2026-04-22T10:19:04.479Z</time></trkpt><trkpt lat="41.0399538" lon="14.2896651"><ele>29.666666666666664</ele><time>2026-04-22T10:19:05.413Z</time></trkpt><trkpt lat="41.0397762" lon="14.2895717"><ele>29.333333333333332</ele><time>2026-04-22T10:19:06.444Z</time></trkpt><trkpt lat="41.039607" lon="14.2894798"><ele>29.0</ele><time>2026-04-22T10:19:07.434Z</time></trkpt><trkpt lat="41.0394344" lon="14.2893819"><ele>29.0</ele><time>2026-04-22T10:19:08.471Z</time></trkpt><trkpt lat="41.0392605" lon="14.2892857"><ele>29.0</ele><time>2026-04-22T10:19:09.58Z</time></trkpt><trkpt lat="41.0390004" lon="14.2891438"><ele>29.5</ele><time>2026-04-22T10:19:11.434Z</time></trkpt><trkpt lat="41.0388674" lon="14.2890656"><ele>30.0</ele><time>2026-04-22T10:19:12.501Z</time></trkpt><trkpt lat="41.03877" lon="14.2890077"><ele>30.5</ele><time>2026-04-22T10:19:13.445Z</time></trkpt><trkpt lat="41.0386854" lon="14.2889343"><ele>31.0</ele><time>2026-04-22T10:19:14.427Z</time></trkpt><trkpt lat="41.0386169" lon="14.2888243"><ele>31.200000000000003</ele><time>2026-04-22T10:19:15.456Z</time></trkpt><trkpt lat="41.0385632" lon="14.2886948"><ele>31.400000000000002</ele><time>2026-04-22T10:19:16.497Z</time></trkpt><trkpt lat="41.0385358" lon="14.2885581"><ele>31.6</ele><time>2026-04-22T10:19:17.494Z</time></trkpt><trkpt lat="41.0385145" lon="14.2884315"><ele>31.8</ele><time>2026-04-22T10:19:18.423Z</time></trkpt><trkpt lat="41.0384926" lon="14.2882961"><ele>32.0</ele><time>2026-04-22T10:19:19.499Z</time></trkpt><trkpt lat="41.0384729" lon="14.2881942"><ele>31.833333333333332</ele><time>2026-04-22T10:19:20.418Z</time></trkpt><trkpt lat="41.0384567" lon="14.2880899"><ele>31.666666666666664</ele><time>2026-04-22T10:19:21.331Z</time></trkpt><trkpt lat="41.0384517" lon="14.287968"><ele>31.5</ele><time>2026-04-22T10:19:22.337Z</time></trkpt><trkpt lat="41.0384594" lon="14.2878405"><ele>31.333333333333336</ele><time>2026-04-22T10:19:23.426Z</time></trkpt><trkpt lat="41.0384674" lon="14.2877251"><ele>31.166666666666668</ele><time>2026-04-22T10:19:24.399Z</time></trkpt><trkpt lat="41.0384755" lon="14.2876033"><ele>31.0</ele><time>2026-04-22T10:19:25.365Z</time></trkpt><trkpt lat="41.038484" lon="14.2874824"><ele>31.000000000000004</ele><time>2026-04-22T10:19:26.366Z</time></trkpt><trkpt lat="41.0384962" lon="14.2873747"><ele>31.0</ele><time>2026-04-22T10:19:27.355Z</time></trkpt><trkpt lat="41.0385083" lon="14.2872576"><ele>31.0</ele><time>2026-04-22T10:19:28.53Z</time></trkpt><trkpt lat="41.0385182" lon="14.2871035"><ele>31.0</ele><time>2026-04-22T10:19:30.415Z</time></trkpt><trkpt lat="41.0385231" lon="14.2870135"><ele>31.000000000000004</ele><time>2026-04-22T10:19:31.408Z</time></trkpt><trkpt lat="41.038528" lon="14.2869178"><ele>31.0</ele><time>2026-04-22T10:19:32.43Z</time></trkpt><trkpt lat="41.0385384" lon="14.2868045"><ele>31.0</ele><time>2026-04-22T10:19:33.58Z</time></trkpt><trkpt lat="41.0385531" lon="14.2866303"><ele>31.0</ele><time>2026-04-22T10:19:35.401Z</time></trkpt><trkpt lat="41.0385621" lon="14.2865459"><ele>31.0</ele><time>2026-04-22T10:19:36.353Z</time></trkpt><trkpt lat="41.0385821" lon="14.2864182"><ele>31.0</ele><time>2026-04-22T10:19:38.376Z</time></trkpt><trkpt lat="41.0385411" lon="14.2863365"><ele>31.0</ele><time>2026-04-22T10:19:40.369Z</time></trkpt><trkpt lat="41.0384142" lon="14.2863212"><ele>31.0</ele><time>2026-04-22T10:19:42.343Z</time></trkpt><trkpt lat="41.0383359" lon="14.2863"><ele>31.0</ele><time>2026-04-22T10:19:43.33Z</time></trkpt><trkpt lat="41.0382353" lon="14.2862752"><ele>31.0</ele><time>2026-04-22T10:19:44.415Z</time></trkpt><trkpt lat="41.038046" lon="14.286251"><ele>31.0</ele><time>2026-04-22T10:19:46.339Z</time></trkpt><trkpt lat="41.0379477" lon="14.2862385"><ele>31.200000000000003</ele><time>2026-04-22T10:19:47.312Z</time></trkpt><trkpt lat="41.0378492" lon="14.2862255"><ele>31.400000000000002</ele><time>2026-04-22T10:19:48.347Z</time></trkpt><trkpt lat="41.0377609" lon="14.2862088"><ele>31.6</ele><time>2026-04-22T10:19:49.382Z</time></trkpt><trkpt lat="41.0376822" lon="14.2861692"><ele>31.8</ele><time>2026-04-22T10:19:50.361Z</time></trkpt><trkpt lat="41.0375921" lon="14.2861684"><ele>32.0</ele><time>2026-04-22T10:19:51.307Z</time></trkpt><trkpt lat="41.0375003" lon="14.286164"><ele>31.833333333333332</ele><time>2026-04-22T10:19:52.343Z</time></trkpt><trkpt lat="41.0374088" lon="14.2861662"><ele>31.666666666666664</ele><time>2026-04-22T10:19:53.395Z</time></trkpt><trkpt lat="41.0373354" lon="14.2861665"><ele>31.5</ele><time>2026-04-22T10:19:54.32Z</time></trkpt><trkpt lat="41.0372643" lon="14.2861686"><ele>31.333333333333336</ele><time>2026-04-22T10:19:55.39Z</time></trkpt><trkpt lat="41.0371712" lon="14.2861646"><ele>31.166666666666668</ele><time>2026-04-22T10:19:57.376Z</time></trkpt><trkpt lat="41.0371223" lon="14.2860879"><ele>31.0</ele><time>2026-04-22T10:20:07.478Z</time></trkpt><trkpt lat="41.0371259" lon="14.2859734"><ele>31.0</ele><time>2026-04-22T10:20:09.364Z</time></trkpt><trkpt lat="41.037127" lon="14.2858274"><ele>31.0</ele><time>2026-04-22T10:20:11.353Z</time></trkpt><trkpt lat="41.037127" lon="14.2856923"><ele>31.0</ele><time>2026-04-22T10:20:13.353Z</time></trkpt><trkpt lat="41.0371196" lon="14.2855491"><ele>31.0</ele><time>2026-04-22T10:20:15.37Z</time></trkpt><trkpt lat="41.0371262" lon="14.2854565"><ele>31.0</ele><time>2026-04-22T10:20:16.396Z</time></trkpt><trkpt lat="41.0371279" lon="14.2853656"><ele>31.000000000000004</ele><time>2026-04-22T10:20:17.347Z</time></trkpt><trkpt lat="41.0371308" lon="14.2852732"><ele>31.0</ele><time>2026-04-22T10:20:18.312Z</time></trkpt><trkpt lat="41.0371294" lon="14.285178"><ele>31.0</ele><time>2026-04-22T10:20:19.359Z</time></trkpt><trkpt lat="41.0371261" lon="14.285074"><ele>31.0</ele><time>2026-04-22T10:20:20.484Z</time></trkpt><trkpt lat="41.0371275" lon="14.2849041"><ele>31.000000000000004</ele><time>2026-04-22T10:20:22.34Z</time></trkpt><trkpt lat="41.0371175" lon="14.2848092"><ele>31.0</ele><time>2026-04-22T10:20:23.373Z</time></trkpt><trkpt lat="41.0371165" lon="14.2847141"><ele>31.142857142857146</ele><time>2026-04-22T10:20:24.364Z</time></trkpt><trkpt lat="41.0371156" lon="14.2846215"><ele>31.28571428571429</ele><time>2026-04-22T10:20:25.351Z</time></trkpt><trkpt lat="41.0371131" lon="14.2845191"><ele>31.42857142857143</ele><time>2026-04-22T10:20:26.369Z</time></trkpt><trkpt lat="41.037106" lon="14.284419"><ele>31.57142857142857</ele><time>2026-04-22T10:20:27.37Z</time></trkpt><trkpt lat="41.0371013" lon="14.2843327"><ele>31.71428571428571</ele><time>2026-04-22T10:20:28.344Z</time></trkpt><trkpt lat="41.0371041" lon="14.2842406"><ele>31.857142857142854</ele><time>2026-04-22T10:20:29.352Z</time></trkpt><trkpt lat="41.0370994" lon="14.2841437"><ele>32.0</ele><time>2026-04-22T10:20:30.379Z</time></trkpt><trkpt lat="41.0370938" lon="14.2840559"><ele>31.999999999999996</ele><time>2026-04-22T10:20:31.348Z</time></trkpt><trkpt lat="41.0370867" lon="14.2839625"><ele>32.0</ele><time>2026-04-22T10:20:32.343Z</time></trkpt><trkpt lat="41.0370857" lon="14.2838141"><ele>32.0</ele><time>2026-04-22T10:20:34.335Z</time></trkpt><trkpt lat="41.0370907" lon="14.2836967"><ele>32.0</ele><time>2026-04-22T10:20:36.331Z</time></trkpt><trkpt lat="41.0370965" lon="14.2836068"><ele>31.999999999999996</ele><time>2026-04-22T10:20:38.345Z</time></trkpt><trkpt lat="41.0370988" lon="14.2835114"><ele>32.0</ele><time>2026-04-22T10:20:41.444Z</time></trkpt><trkpt lat="41.0371065" lon="14.2833958"><ele>31.200000000000003</ele><time>2026-04-22T10:20:45.389Z</time></trkpt><trkpt lat="41.0371222" lon="14.2832663"><ele>30.400000000000002</ele><time>2026-04-22T10:20:47.378Z</time></trkpt><trkpt lat="41.0371304" lon="14.2831809"><ele>29.599999999999998</ele><time>2026-04-22T10:20:49.338Z</time></trkpt><trkpt lat="41.0370898" lon="14.2830606"><ele>28.799999999999997</ele><time>2026-04-22T10:20:52.468Z</time></trkpt><trkpt lat="41.0370014" lon="14.2829784"><ele>28.0</ele><time>2026-04-22T10:20:54.418Z</time></trkpt><trkpt lat="41.0368979" lon="14.2829128"><ele>27.799999999999997</ele><time>2026-04-22T10:20:56.345Z</time></trkpt><trkpt lat="41.0367805" lon="14.2828835"><ele>27.599999999999998</ele><time>2026-04-22T10:20:58.361Z</time></trkpt><trkpt lat="41.0367113" lon="14.2828804"><ele>27.400000000000002</ele><time>2026-04-22T10:20:59.478Z</time></trkpt><trkpt lat="41.0365738" lon="14.28288"><ele>27.200000000000003</ele><time>2026-04-22T10:21:01.372Z</time></trkpt><trkpt lat="41.0365034" lon="14.2828805"><ele>27.0</ele><time>2026-04-22T10:21:02.352Z</time></trkpt><trkpt lat="41.0364276" lon="14.2828928"><ele>27.0</ele><time>2026-04-22T10:21:03.364Z</time></trkpt><trkpt lat="41.0363609" lon="14.2828968"><ele>27.000000000000004</ele><time>2026-04-22T10:21:04.481Z</time></trkpt><trkpt lat="41.0362335" lon="14.2828867"><ele>27.000000000000004</ele><time>2026-04-22T10:21:07.351Z</time></trkpt><trkpt lat="41.0361236" lon="14.2828762"><ele>27.0</ele><time>2026-04-22T10:21:09.381Z</time></trkpt><trkpt lat="41.0360133" lon="14.2828741"><ele>27.0</ele><time>2026-04-22T10:21:11.34Z</time></trkpt><trkpt lat="41.0359113" lon="14.2828691"><ele>27.166666666666668</ele><time>2026-04-22T10:21:13.364Z</time></trkpt><trkpt lat="41.0357941" lon="14.2828716"><ele>27.333333333333336</ele><time>2026-04-22T10:21:15.345Z</time></trkpt><trkpt lat="41.0357297" lon="14.2828752"><ele>27.5</ele><time>2026-04-22T10:21:16.349Z</time></trkpt><trkpt lat="41.0356665" lon="14.2828725"><ele>27.666666666666668</ele><time>2026-04-22T10:21:17.322Z</time></trkpt><trkpt lat="41.0355971" lon="14.28287"><ele>27.833333333333336</ele><time>2026-04-22T10:21:18.356Z</time></trkpt><trkpt lat="41.0355276" lon="14.2828753"><ele>28.0</ele><time>2026-04-22T10:21:19.364Z</time></trkpt><trkpt lat="41.0354599" lon="14.2828779"><ele>28.0</ele><time>2026-04-22T10:21:20.363Z</time></trkpt><trkpt lat="41.035394" lon="14.2828802"><ele>28.0</ele><time>2026-04-22T10:21:21.324Z</time></trkpt><trkpt lat="41.0353217" lon="14.282883"><ele>28.0</ele><time>2026-04-22T10:21:22.36Z</time></trkpt><trkpt lat="41.0352532" lon="14.2828844"><ele>28.0</ele><time>2026-04-22T10:21:23.332Z</time></trkpt><trkpt lat="41.0351805" lon="14.2828857"><ele>28.0</ele><time>2026-04-22T10:21:24.336Z</time></trkpt><trkpt lat="41.035107" lon="14.2828851"><ele>28.0</ele><time>2026-04-22T10:21:25.361Z</time></trkpt><trkpt lat="41.0350407" lon="14.2828823"><ele>28.0</ele><time>2026-04-22T10:21:26.364Z</time></trkpt><trkpt lat="41.0349189" lon="14.2828799"><ele>27.833333333333336</ele><time>2026-04-22T10:21:28.373Z</time></trkpt><trkpt lat="41.034854" lon="14.2828786"><ele>27.666666666666668</ele><time>2026-04-22T10:21:29.381Z</time></trkpt><trkpt lat="41.034782" lon="14.2828823"><ele>27.5</ele><time>2026-04-22T10:21:30.458Z</time></trkpt><trkpt lat="41.034656" lon="14.2828927"><ele>27.333333333333336</ele><time>2026-04-22T10:21:32.335Z</time></trkpt><trkpt lat="41.0345864" lon="14.2828941"><ele>27.166666666666668</ele><time>2026-04-22T10:21:33.384Z</time></trkpt><trkpt lat="41.0345208" lon="14.2828972"><ele>27.0</ele><time>2026-04-22T10:21:34.357Z</time></trkpt><trkpt lat="41.0344506" lon="14.2828917"><ele>27.0</ele><time>2026-04-22T10:21:35.34Z</time></trkpt><trkpt lat="41.0343766" lon="14.2828983"><ele>27.0</ele><time>2026-04-22T10:21:36.343Z</time></trkpt><trkpt lat="41.0343098" lon="14.2828918"><ele>27.0</ele><time>2026-04-22T10:21:37.357Z</time></trkpt><trkpt lat="41.0342328" lon="14.2828973"><ele>27.0</ele><time>2026-04-22T10:21:38.351Z</time></trkpt><trkpt lat="41.0341519" lon="14.2828944"><ele>27.0</ele><time>2026-04-22T10:21:39.371Z</time></trkpt><trkpt lat="41.0340719" lon="14.2828904"><ele>27.0</ele><time>2026-04-22T10:21:40.326Z</time></trkpt><trkpt lat="41.0339818" lon="14.2828889"><ele>27.0</ele><time>2026-04-22T10:21:41.353Z</time></trkpt><trkpt lat="41.0338944" lon="14.2828803"><ele>27.000000000000004</ele><time>2026-04-22T10:21:42.323Z</time></trkpt><trkpt lat="41.0338001" lon="14.2828902"><ele>27.000000000000004</ele><time>2026-04-22T10:21:43.337Z</time></trkpt><trkpt lat="41.0336963" lon="14.2828919"><ele>27.0</ele><time>2026-04-22T10:21:44.357Z</time></trkpt><trkpt lat="41.0336029" lon="14.2828949"><ele>27.0</ele><time>2026-04-22T10:21:45.347Z</time></trkpt><trkpt lat="41.0335316" lon="14.2829033"><ele>27.0</ele><time>2026-04-22T10:21:46.346Z</time></trkpt><trkpt lat="41.0334272" lon="14.2828925"><ele>27.000000000000004</ele><time>2026-04-22T10:21:48.34Z</time></trkpt><trkpt lat="41.0333867" lon="14.2827551"><ele>27.000000000000004</ele><time>2026-04-22T10:21:50.321Z</time></trkpt><trkpt lat="41.0333809" lon="14.2826374"><ele>27.0</ele><time>2026-04-22T10:21:51.324Z</time></trkpt><trkpt lat="41.0333871" lon="14.2825153"><ele>27.0</ele><time>2026-04-22T10:21:52.324Z</time></trkpt><trkpt lat="41.0334091" lon="14.2823861"><ele>27.25</ele><time>2026-04-22T10:21:53.332Z</time></trkpt><trkpt lat="41.0334232" lon="14.2822271"><ele>27.5</ele><time>2026-04-22T10:21:54.371Z</time></trkpt><trkpt lat="41.033428" lon="14.282062"><ele>27.75</ele><time>2026-04-22T10:21:55.378Z</time></trkpt><trkpt lat="41.0334324" lon="14.281901"><ele>28.0</ele><time>2026-04-22T10:21:56.35Z</time></trkpt><trkpt lat="41.0334371" lon="14.2817321"><ele>28.0</ele><time>2026-04-22T10:21:57.419Z</time></trkpt><trkpt lat="41.0334411" lon="14.2815952"><ele>27.999999999999996</ele><time>2026-04-22T10:21:58.364Z</time></trkpt><trkpt lat="41.0334411" lon="14.2814599"><ele>27.999999999999996</ele><time>2026-04-22T10:21:59.342Z</time></trkpt><trkpt lat="41.0334475" lon="14.2813136"><ele>28.0</ele><time>2026-04-22T10:22:00.345Z</time></trkpt><trkpt lat="41.0334539" lon="14.2811634"><ele>28.0</ele><time>2026-04-22T10:22:01.349Z</time></trkpt><trkpt lat="41.0334591" lon="14.2810193"><ele>27.799999999999997</ele><time>2026-04-22T10:22:02.337Z</time></trkpt><trkpt lat="41.0334635" lon="14.2808738"><ele>27.599999999999998</ele><time>2026-04-22T10:22:03.388Z</time></trkpt><trkpt lat="41.0334636" lon="14.2807412"><ele>27.400000000000002</ele><time>2026-04-22T10:22:04.38Z</time></trkpt><trkpt lat="41.0334631" lon="14.2806094"><ele>27.200000000000003</ele><time>2026-04-22T10:22:05.373Z</time></trkpt><trkpt lat="41.0334681" lon="14.2804866"><ele>27.0</ele><time>2026-04-22T10:22:06.352Z</time></trkpt><trkpt lat="41.0334765" lon="14.2803914"><ele>26.833333333333332</ele><time>2026-04-22T10:22:07.375Z</time></trkpt><trkpt lat="41.0334723" lon="14.2802765"><ele>26.666666666666664</ele><time>2026-04-22T10:22:08.38Z</time></trkpt><trkpt lat="41.0334706" lon="14.2801595"><ele>26.5</ele><time>2026-04-22T10:22:09.362Z</time></trkpt><trkpt lat="41.0334724" lon="14.2800483"><ele>26.333333333333332</ele><time>2026-04-22T10:22:10.361Z</time></trkpt><trkpt lat="41.0334734" lon="14.2799313"><ele>26.166666666666664</ele><time>2026-04-22T10:22:11.371Z</time></trkpt><trkpt lat="41.0334694" lon="14.2798197"><ele>26.0</ele><time>2026-04-22T10:22:12.359Z</time></trkpt><trkpt lat="41.0334657" lon="14.2797049"><ele>25.8</ele><time>2026-04-22T10:22:13.358Z</time></trkpt><trkpt lat="41.0334622" lon="14.2795906"><ele>25.6</ele><time>2026-04-22T10:22:14.346Z</time></trkpt><trkpt lat="41.0334565" lon="14.2794705"><ele>25.4</ele><time>2026-04-22T10:22:15.367Z</time></trkpt><trkpt lat="41.0334519" lon="14.2793709"><ele>25.2</ele><time>2026-04-22T10:22:16.32Z</time></trkpt><trkpt lat="41.0334473" lon="14.2792667"><ele>25.0</ele><time>2026-04-22T10:22:17.479Z</time></trkpt><trkpt lat="41.0334388" lon="14.2790898"><ele>25.0</ele><time>2026-04-22T10:22:19.343Z</time></trkpt><trkpt lat="41.0334396" lon="14.278993"><ele>25.0</ele><time>2026-04-22T10:22:20.358Z</time></trkpt><trkpt lat="41.0334439" lon="14.2789048"><ele>25.0</ele><time>2026-04-22T10:22:21.37Z</time></trkpt><trkpt lat="41.0334455" lon="14.2787472"><ele>25.0</ele><time>2026-04-22T10:22:23.381Z</time></trkpt><trkpt lat="41.0334497" lon="14.2785951"><ele>25.0</ele><time>2026-04-22T10:22:25.396Z</time></trkpt><trkpt lat="41.033445" lon="14.2784344"><ele>24.833333333333336</ele><time>2026-04-22T10:22:27.358Z</time></trkpt><trkpt lat="41.0334411" lon="14.2783478"><ele>24.666666666666668</ele><time>2026-04-22T10:22:28.378Z</time></trkpt><trkpt lat="41.0334392" lon="14.2782042"><ele>24.5</ele><time>2026-04-22T10:22:30.429Z</time></trkpt><trkpt lat="41.0334341" lon="14.2780813"><ele>24.333333333333336</ele><time>2026-04-22T10:22:32.352Z</time></trkpt><trkpt lat="41.0334235" lon="14.2779744"><ele>24.166666666666668</ele><time>2026-04-22T10:22:34.408Z</time></trkpt><trkpt lat="41.0334168" lon="14.2778518"><ele>24.0</ele><time>2026-04-22T10:22:36.381Z</time></trkpt><trkpt lat="41.0334081" lon="14.2777002"><ele>24.0</ele><time>2026-04-22T10:22:38.349Z</time></trkpt><trkpt lat="41.0333976" lon="14.2776158"><ele>24.0</ele><time>2026-04-22T10:22:39.379Z</time></trkpt><trkpt lat="41.033381" lon="14.2774373"><ele>24.0</ele><time>2026-04-22T10:22:41.407Z</time></trkpt><trkpt lat="41.0333717" lon="14.2773541"><ele>24.0</ele><time>2026-04-22T10:22:42.351Z</time></trkpt><trkpt lat="41.0333487" lon="14.2771889"><ele>24.0</ele><time>2026-04-22T10:22:44.371Z</time></trkpt><trkpt lat="41.0333315" lon="14.2771037"><ele>23.857142857142854</ele><time>2026-04-22T10:22:45.345Z</time></trkpt><trkpt lat="41.0333099" lon="14.2770219"><ele>23.714285714285715</ele><time>2026-04-22T10:22:46.359Z</time></trkpt><trkpt lat="41.0332843" lon="14.2769426"><ele>23.57142857142857</ele><time>2026-04-22T10:22:47.354Z</time></trkpt><trkpt lat="41.0332307" lon="14.2768102"><ele>23.428571428571427</ele><time>2026-04-22T10:22:49.358Z</time></trkpt><trkpt lat="41.0331927" lon="14.2767378"><ele>23.285714285714285</ele><time>2026-04-22T10:22:50.356Z</time></trkpt><trkpt lat="41.0331461" lon="14.276678"><ele>23.142857142857142</ele><time>2026-04-22T10:22:51.392Z</time></trkpt><trkpt lat="41.033094" lon="14.2766172"><ele>23.0</ele><time>2026-04-22T10:22:52.385Z</time></trkpt><trkpt lat="41.0330424" lon="14.2765583"><ele>22.857142857142858</ele><time>2026-04-22T10:22:53.374Z</time></trkpt><trkpt lat="41.0329947" lon="14.2765029"><ele>22.71428571428571</ele><time>2026-04-22T10:22:54.344Z</time></trkpt><trkpt lat="41.0329437" lon="14.2764506"><ele>22.57142857142857</ele><time>2026-04-22T10:22:55.342Z</time></trkpt><trkpt lat="41.0328901" lon="14.2764001"><ele>22.42857142857143</ele><time>2026-04-22T10:22:56.356Z</time></trkpt><trkpt lat="41.0328364" lon="14.2763554"><ele>22.285714285714285</ele><time>2026-04-22T10:22:57.358Z</time></trkpt><trkpt lat="41.0327816" lon="14.2763068"><ele>22.142857142857142</ele><time>2026-04-22T10:22:58.372Z</time></trkpt><trkpt lat="41.0327334" lon="14.2762531"><ele>22.0</ele><time>2026-04-22T10:22:59.36Z</time></trkpt><trkpt lat="41.0326872" lon="14.2761921"><ele>22.0</ele><time>2026-04-22T10:23:00.392Z</time></trkpt><trkpt lat="41.0326494" lon="14.2761248"><ele>22.0</ele><time>2026-04-22T10:23:01.366Z</time></trkpt><trkpt lat="41.032597" lon="14.2759766"><ele>22.0</ele><time>2026-04-22T10:23:03.382Z</time></trkpt><trkpt lat="41.0325709" lon="14.2758961"><ele>22.0</ele><time>2026-04-22T10:23:04.348Z</time></trkpt><trkpt lat="41.0325442" lon="14.2758187"><ele>22.0</ele><time>2026-04-22T10:23:05.368Z</time></trkpt><trkpt lat="41.0325155" lon="14.2756702"><ele>22.0</ele><time>2026-04-22T10:23:07.357Z</time></trkpt><trkpt lat="41.032503" lon="14.2755818"><ele>22.0</ele><time>2026-04-22T10:23:08.343Z</time></trkpt><trkpt lat="41.0324963" lon="14.2754973"><ele>22.0</ele><time>2026-04-22T10:23:09.346Z</time></trkpt><trkpt lat="41.0324913" lon="14.2754056"><ele>22.0</ele><time>2026-04-22T10:23:10.363Z</time></trkpt><trkpt lat="41.0324863" lon="14.2753176"><ele>22.0</ele><time>2026-04-22T10:23:11.361Z</time></trkpt><trkpt lat="41.0324883" lon="14.2752273"><ele>22.0</ele><time>2026-04-22T10:23:12.349Z</time></trkpt><trkpt lat="41.0324948" lon="14.275128"><ele>22.0</ele><time>2026-04-22T10:23:13.336Z</time></trkpt><trkpt lat="41.0325043" lon="14.2750113"><ele>22.0</ele><time>2026-04-22T10:23:14.499Z</time></trkpt><trkpt lat="41.0325161" lon="14.2748192"><ele>22.0</ele><time>2026-04-22T10:23:16.354Z</time></trkpt><trkpt lat="41.0325217" lon="14.2747315"><ele>22.0</ele><time>2026-04-22T10:23:17.353Z</time></trkpt><trkpt lat="41.0325351" lon="14.2746013"><ele>22.0</ele><time>2026-04-22T10:23:19.443Z</time></trkpt><trkpt lat="41.0325323" lon="14.2745149"><ele>22.0</ele><time>2026-04-22T10:23:24.354Z</time></trkpt><trkpt lat="41.0324596" lon="14.2744451"><ele>22.0</ele><time>2026-04-22T10:23:27.353Z</time></trkpt><trkpt lat="41.0323758" lon="14.2744482"><ele>22.0</ele><time>2026-04-22T10:23:28.368Z</time></trkpt><trkpt lat="41.032274" lon="14.2744491"><ele>22.0</ele><time>2026-04-22T10:23:29.344Z</time></trkpt><trkpt lat="41.0321482" lon="14.2744584"><ele>22.0</ele><time>2026-04-22T10:23:30.444Z</time></trkpt><trkpt lat="41.032029" lon="14.274465"><ele>22.0</ele><time>2026-04-22T10:23:31.363Z</time></trkpt><trkpt lat="41.0318852" lon="14.27446"><ele>22.0</ele><time>2026-04-22T10:23:32.364Z</time></trkpt><trkpt lat="41.031738" lon="14.274458"><ele>21.75</ele><time>2026-04-22T10:23:33.344Z</time></trkpt><trkpt lat="41.0315847" lon="14.2744574"><ele>21.5</ele><time>2026-04-22T10:23:34.358Z</time></trkpt><trkpt lat="41.0314385" lon="14.2744589"><ele>21.25</ele><time>2026-04-22T10:23:35.388Z</time></trkpt><trkpt lat="41.0313054" lon="14.2744572"><ele>21.0</ele><time>2026-04-22T10:23:36.358Z</time></trkpt><trkpt lat="41.0311689" lon="14.2744539"><ele>21.0</ele><time>2026-04-22T10:23:37.337Z</time></trkpt><trkpt lat="41.0310255" lon="14.2744543"><ele>21.0</ele><time>2026-04-22T10:23:38.373Z</time></trkpt><trkpt lat="41.0308869" lon="14.2744547"><ele>21.0</ele><time>2026-04-22T10:23:39.358Z</time></trkpt><trkpt lat="41.030744" lon="14.274456"><ele>21.0</ele><time>2026-04-22T10:23:40.33Z</time></trkpt><trkpt lat="41.0305848" lon="14.2744569"><ele>21.0</ele><time>2026-04-22T10:23:41.387Z</time></trkpt><trkpt lat="41.0304336" lon="14.2744569"><ele>21.0</ele><time>2026-04-22T10:23:42.361Z</time></trkpt><trkpt lat="41.0302714" lon="14.2744498"><ele>21.0</ele><time>2026-04-22T10:23:43.344Z</time></trkpt><trkpt lat="41.0301089" lon="14.2744396"><ele>21.0</ele><time>2026-04-22T10:23:44.339Z</time></trkpt><trkpt lat="41.0299473" lon="14.2744362"><ele>21.0</ele><time>2026-04-22T10:23:45.348Z</time></trkpt><trkpt lat="41.0297863" lon="14.2744292"><ele>21.0</ele><time>2026-04-22T10:23:46.356Z</time></trkpt><trkpt lat="41.0296281" lon="14.2744256"><ele>21.0</ele><time>2026-04-22T10:23:47.333Z</time></trkpt><trkpt lat="41.0294567" lon="14.2744199"><ele>21.0</ele><time>2026-04-22T10:23:48.401Z</time></trkpt><trkpt lat="41.0292643" lon="14.2744196"><ele>21.0</ele><time>2026-04-22T10:23:49.589Z</time></trkpt><trkpt lat="41.0289886" lon="14.2744203"><ele>21.333333333333332</ele><time>2026-04-22T10:23:51.339Z</time></trkpt><trkpt lat="41.02883" lon="14.274422"><ele>21.666666666666664</ele><time>2026-04-22T10:23:52.344Z</time></trkpt><trkpt lat="41.0286701" lon="14.2744254"><ele>22.0</ele><time>2026-04-22T10:23:53.347Z</time></trkpt><trkpt lat="41.0285025" lon="14.2744262"><ele>22.0</ele><time>2026-04-22T10:23:54.376Z</time></trkpt><trkpt lat="41.0283411" lon="14.2744267"><ele>22.0</ele><time>2026-04-22T10:23:55.353Z</time></trkpt><trkpt lat="41.0281769" lon="14.2744251"><ele>22.0</ele><time>2026-04-22T10:23:56.358Z</time></trkpt><trkpt lat="41.0280128" lon="14.2744232"><ele>22.333333333333332</ele><time>2026-04-22T10:23:57.364Z</time></trkpt><trkpt lat="41.0278539" lon="14.2744284"><ele>22.666666666666668</ele><time>2026-04-22T10:23:58.321Z</time></trkpt><trkpt lat="41.0276823" lon="14.274431"><ele>23.0</ele><time>2026-04-22T10:23:59.354Z</time></trkpt><trkpt lat="41.0275029" lon="14.2744333"><ele>23.0</ele><time>2026-04-22T10:24:00.362Z</time></trkpt><trkpt lat="41.027321" lon="14.2744368"><ele>23.0</ele><time>2026-04-22T10:24:01.384Z</time></trkpt><trkpt lat="41.0271468" lon="14.2744367"><ele>23.0</ele><time>2026-04-22T10:24:02.363Z</time></trkpt><trkpt lat="41.0269549" lon="14.2744397"><ele>23.0</ele><time>2026-04-22T10:24:03.427Z</time></trkpt><trkpt lat="41.0267904" lon="14.2744452"><ele>23.0</ele><time>2026-04-22T10:24:04.343Z</time></trkpt><trkpt lat="41.0266113" lon="14.2744502"><ele>23.0</ele><time>2026-04-22T10:24:05.342Z</time></trkpt><trkpt lat="41.0264383" lon="14.2744576"><ele>22.666666666666668</ele><time>2026-04-22T10:24:06.348Z</time></trkpt><trkpt lat="41.0262767" lon="14.2744633"><ele>22.333333333333332</ele><time>2026-04-22T10:24:07.347Z</time></trkpt><trkpt lat="41.0261226" lon="14.2744646"><ele>22.0</ele><time>2026-04-22T10:24:08.322Z</time></trkpt><trkpt lat="41.0259644" lon="14.2744662"><ele>22.0</ele><time>2026-04-22T10:24:09.367Z</time></trkpt><trkpt lat="41.0258147" lon="14.2744719"><ele>22.0</ele><time>2026-04-22T10:24:10.4Z</time></trkpt><trkpt lat="41.0256818" lon="14.2744757"><ele>22.0</ele><time>2026-04-22T10:24:11.409Z</time></trkpt><trkpt lat="41.0255658" lon="14.2744781"><ele>22.0</ele><time>2026-04-22T10:24:12.362Z</time></trkpt><trkpt lat="41.0254364" lon="14.2744851"><ele>21.75</ele><time>2026-04-22T10:24:13.375Z</time></trkpt><trkpt lat="41.025318" lon="14.2744913"><ele>21.5</ele><time>2026-04-22T10:24:14.327Z</time></trkpt><trkpt lat="41.0251926" lon="14.274496"><ele>21.25</ele><time>2026-04-22T10:24:15.386Z</time></trkpt><trkpt lat="41.0250784" lon="14.2745027"><ele>21.0</ele><time>2026-04-22T10:24:16.349Z</time></trkpt><trkpt lat="41.0249648" lon="14.2745119"><ele>21.0</ele><time>2026-04-22T10:24:17.34Z</time></trkpt><trkpt lat="41.0248561" lon="14.2745135"><ele>21.0</ele><time>2026-04-22T10:24:18.336Z</time></trkpt><trkpt lat="41.0247482" lon="14.274518"><ele>21.0</ele><time>2026-04-22T10:24:19.347Z</time></trkpt><trkpt lat="41.0246453" lon="14.2745197"><ele>21.0</ele><time>2026-04-22T10:24:20.363Z</time></trkpt><trkpt lat="41.0245573" lon="14.2745248"><ele>21.0</ele><time>2026-04-22T10:24:21.376Z</time></trkpt><trkpt lat="41.0244799" lon="14.2745317"><ele>21.0</ele><time>2026-04-22T10:24:22.347Z</time></trkpt><trkpt lat="41.0243754" lon="14.2745278"><ele>21.0</ele><time>2026-04-22T10:24:24.368Z</time></trkpt><trkpt lat="41.0243148" lon="14.2744792"><ele>21.0</ele><time>2026-04-22T10:24:26.359Z</time></trkpt><trkpt lat="41.0242933" lon="14.2743755"><ele>21.0</ele><time>2026-04-22T10:24:28.361Z</time></trkpt><trkpt lat="41.0242976" lon="14.2742863"><ele>21.0</ele><time>2026-04-22T10:24:29.314Z</time></trkpt><trkpt lat="41.024305" lon="14.2741776"><ele>21.0</ele><time>2026-04-22T10:24:30.333Z</time></trkpt><trkpt lat="41.0243168" lon="14.2740545"><ele>21.0</ele><time>2026-04-22T10:24:31.442Z</time></trkpt><trkpt lat="41.0243196" lon="14.2739503"><ele>21.0</ele><time>2026-04-22T10:24:32.36Z</time></trkpt><trkpt lat="41.0243184" lon="14.2738511"><ele>21.0</ele><time>2026-04-22T10:24:33.338Z</time></trkpt><trkpt lat="41.0243069" lon="14.2737584"><ele>21.0</ele><time>2026-04-22T10:24:34.381Z</time></trkpt><trkpt lat="41.0242766" lon="14.2736832"><ele>21.0</ele><time>2026-04-22T10:24:35.404Z</time></trkpt><trkpt lat="41.0242198" lon="14.273626"><ele>21.0</ele><time>2026-04-22T10:24:36.356Z</time></trkpt><trkpt lat="41.0241405" lon="14.2735951"><ele>21.0</ele><time>2026-04-22T10:24:37.343Z</time></trkpt><trkpt lat="41.0240316" lon="14.273592"><ele>21.25</ele><time>2026-04-22T10:24:38.346Z</time></trkpt><trkpt lat="41.0238991" lon="14.2736008"><ele>21.5</ele><time>2026-04-22T10:24:39.329Z</time></trkpt><trkpt lat="41.0237553" lon="14.2736037"><ele>21.75</ele><time>2026-04-22T10:24:40.355Z</time></trkpt><trkpt lat="41.0235983" lon="14.2736075"><ele>22.0</ele><time>2026-04-22T10:24:41.378Z</time></trkpt><trkpt lat="41.0234399" lon="14.2736144"><ele>21.333333333333332</ele><time>2026-04-22T10:24:42.36Z</time></trkpt><trkpt lat="41.0232858" lon="14.2736193"><ele>20.666666666666668</ele><time>2026-04-22T10:24:43.315Z</time></trkpt><trkpt lat="41.0231183" lon="14.2736216"><ele>20.0</ele><time>2026-04-22T10:24:44.343Z</time></trkpt><trkpt lat="41.0229553" lon="14.2736233"><ele>20.0</ele><time>2026-04-22T10:24:45.345Z</time></trkpt><trkpt lat="41.0227796" lon="14.2736358"><ele>20.0</ele><time>2026-04-22T10:24:46.502Z</time></trkpt><trkpt lat="41.0225323" lon="14.273594"><ele>20.0</ele><time>2026-04-22T10:24:48.378Z</time></trkpt><trkpt lat="41.022408" lon="14.2735115"><ele>20.0</ele><time>2026-04-22T10:24:49.389Z</time></trkpt><trkpt lat="41.0222972" lon="14.2733838"><ele>20.0</ele><time>2026-04-22T10:24:50.362Z</time></trkpt><trkpt lat="41.0221831" lon="14.2732207"><ele>20.0</ele><time>2026-04-22T10:24:51.387Z</time></trkpt><trkpt lat="41.022056" lon="14.273048"><ele>20.0</ele><time>2026-04-22T10:24:52.37Z</time></trkpt><trkpt lat="41.0219156" lon="14.2728606"><ele>20.0</ele><time>2026-04-22T10:24:53.345Z</time></trkpt><trkpt lat="41.0217578" lon="14.272647"><ele>20.0</ele><time>2026-04-22T10:24:54.373Z</time></trkpt><trkpt lat="41.0215973" lon="14.2724287"><ele>20.0</ele><time>2026-04-22T10:24:55.338Z</time></trkpt><trkpt lat="41.0214227" lon="14.2721867"><ele>20.0</ele><time>2026-04-22T10:24:56.367Z</time></trkpt><trkpt lat="41.021237" lon="14.2719343"><ele>20.0</ele><time>2026-04-22T10:24:57.477Z</time></trkpt><trkpt lat="41.0210974" lon="14.2717441"><ele>20.0</ele><time>2026-04-22T10:24:58.391Z</time></trkpt><trkpt lat="41.0209547" lon="14.2715488"><ele>20.0</ele><time>2026-04-22T10:24:59.377Z</time></trkpt><trkpt lat="41.0208237" lon="14.2713662"><ele>20.333333333333336</ele><time>2026-04-22T10:25:00.369Z</time></trkpt><trkpt lat="41.0207006" lon="14.2711946"><ele>20.666666666666668</ele><time>2026-04-22T10:25:01.354Z</time></trkpt><trkpt lat="41.0205847" lon="14.2710323"><ele>21.0</ele><time>2026-04-22T10:25:02.339Z</time></trkpt><trkpt lat="41.0204708" lon="14.2708757"><ele>21.0</ele><time>2026-04-22T10:25:03.356Z</time></trkpt><trkpt lat="41.0203594" lon="14.2707236"><ele>21.0</ele><time>2026-04-22T10:25:04.439Z</time></trkpt><trkpt lat="41.0202631" lon="14.2705941"><ele>21.0</ele><time>2026-04-22T10:25:05.38Z</time></trkpt><trkpt lat="41.0201652" lon="14.2704634"><ele>21.0</ele><time>2026-04-22T10:25:06.355Z</time></trkpt><trkpt lat="41.0200755" lon="14.2703424"><ele>20.75</ele><time>2026-04-22T10:25:07.373Z</time></trkpt><trkpt lat="41.0200031" lon="14.2702128"><ele>20.5</ele><time>2026-04-22T10:25:08.352Z</time></trkpt><trkpt lat="41.0199484" lon="14.2700493"><ele>20.25</ele><time>2026-04-22T10:25:09.382Z</time></trkpt><trkpt lat="41.0199322" lon="14.2698766"><ele>20.0</ele><time>2026-04-22T10:25:10.341Z</time></trkpt><trkpt lat="41.0199202" lon="14.2696815"><ele>21.666666666666668</ele><time>2026-04-22T10:25:11.343Z</time></trkpt><trkpt lat="41.0199095" lon="14.2694821"><ele>23.333333333333336</ele><time>2026-04-22T10:25:12.358Z</time></trkpt><trkpt lat="41.0198998" lon="14.2692659"><ele>25.0</ele><time>2026-04-22T10:25:13.45Z</time></trkpt><trkpt lat="41.0198994" lon="14.2689509"><ele>24.666666666666668</ele><time>2026-04-22T10:25:15.379Z</time></trkpt><trkpt lat="41.019897" lon="14.2688198"><ele>24.333333333333336</ele><time>2026-04-22T10:25:16.36Z</time></trkpt><trkpt lat="41.0198897" lon="14.2687085"><ele>24.0</ele><time>2026-04-22T10:25:17.33Z</time></trkpt><trkpt lat="41.0198814" lon="14.2686204"><ele>23.666666666666668</ele><time>2026-04-22T10:25:18.321Z</time></trkpt><trkpt lat="41.0198596" lon="14.268532"><ele>23.333333333333336</ele><time>2026-04-22T10:25:19.314Z</time></trkpt><trkpt lat="41.0197878" lon="14.2684005"><ele>23.0</ele><time>2026-04-22T10:25:21.382Z</time></trkpt><trkpt lat="41.0197409" lon="14.2683275"><ele>23.0</ele><time>2026-04-22T10:25:22.339Z</time></trkpt><trkpt lat="41.0196898" lon="14.2682531"><ele>23.0</ele><time>2026-04-22T10:25:23.341Z</time></trkpt><trkpt lat="41.0196244" lon="14.2681677"><ele>23.0</ele><time>2026-04-22T10:25:24.357Z</time></trkpt><trkpt lat="41.0195515" lon="14.2680717"><ele>23.0</ele><time>2026-04-22T10:25:25.384Z</time></trkpt><trkpt lat="41.0194795" lon="14.2679773"><ele>23.0</ele><time>2026-04-22T10:25:26.329Z</time></trkpt><trkpt lat="41.0193985" lon="14.2678705"><ele>22.0</ele><time>2026-04-22T10:25:27.358Z</time></trkpt><trkpt lat="41.0193202" lon="14.2677696"><ele>21.0</ele><time>2026-04-22T10:25:28.34Z</time></trkpt><trkpt lat="41.0192368" lon="14.2676558"><ele>20.0</ele><time>2026-04-22T10:25:29.369Z</time></trkpt><trkpt lat="41.0191526" lon="14.2675396"><ele>19.0</ele><time>2026-04-22T10:25:30.359Z</time></trkpt><trkpt lat="41.0190677" lon="14.2674209"><ele>19.0</ele><time>2026-04-22T10:25:31.362Z</time></trkpt><trkpt lat="41.018981" lon="14.2673031"><ele>19.0</ele><time>2026-04-22T10:25:32.352Z</time></trkpt><trkpt lat="41.0188958" lon="14.2671906"><ele>19.0</ele><time>2026-04-22T10:25:33.356Z</time></trkpt><trkpt lat="41.0188125" lon="14.2670831"><ele>19.0</ele><time>2026-04-22T10:25:34.383Z</time></trkpt><trkpt lat="41.0187364" lon="14.2669767"><ele>19.0</ele><time>2026-04-22T10:25:35.553Z</time></trkpt><trkpt lat="41.0186634" lon="14.2668737"><ele>19.0</ele><time>2026-04-22T10:25:37.354Z</time></trkpt><trkpt lat="41.0186144" lon="14.2668078"><ele>19.0</ele><time>2026-04-22T10:25:39.403Z</time></trkpt><trkpt lat="41.0185272" lon="14.266844"><ele>19.0</ele><time>2026-04-22T10:25:44.586Z</time></trkpt><trkpt lat="41.0184675" lon="14.2669911"><ele>19.0</ele><time>2026-04-22T10:25:46.347Z</time></trkpt><trkpt lat="41.0184208" lon="14.2670882"><ele>19.0</ele><time>2026-04-22T10:25:47.354Z</time></trkpt><trkpt lat="41.0183627" lon="14.2671875"><ele>19.0</ele><time>2026-04-22T10:25:48.355Z</time></trkpt><trkpt lat="41.0182937" lon="14.2672904"><ele>19.0</ele><time>2026-04-22T10:25:49.314Z</time></trkpt><trkpt lat="41.0182056" lon="14.2674035"><ele>19.0</ele><time>2026-04-22T10:25:50.326Z</time></trkpt><trkpt lat="41.0181025" lon="14.2675183"><ele>19.0</ele><time>2026-04-22T10:25:51.331Z</time></trkpt><trkpt lat="41.0179894" lon="14.2676306"><ele>19.0</ele><time>2026-04-22T10:25:52.335Z</time></trkpt><trkpt lat="41.0178639" lon="14.2677372"><ele>19.0</ele><time>2026-04-22T10:25:53.326Z</time></trkpt><trkpt lat="41.0177337" lon="14.2678372"><ele>19.0</ele><time>2026-04-22T10:25:54.317Z</time></trkpt><trkpt lat="41.0176058" lon="14.2679508"><ele>18.666666666666664</ele><time>2026-04-22T10:25:55.42Z</time></trkpt><trkpt lat="41.0173892" lon="14.2680926"><ele>18.333333333333332</ele><time>2026-04-22T10:25:57.316Z</time></trkpt><trkpt lat="41.0172652" lon="14.2681438"><ele>18.0</ele><time>2026-04-22T10:25:58.339Z</time></trkpt><trkpt lat="41.0171399" lon="14.2681867"><ele>18.0</ele><time>2026-04-22T10:25:59.364Z</time></trkpt><trkpt lat="41.0170218" lon="14.2682094"><ele>18.0</ele><time>2026-04-22T10:26:00.328Z</time></trkpt><trkpt lat="41.0168868" lon="14.2682147"><ele>18.0</ele><time>2026-04-22T10:26:01.422Z</time></trkpt><trkpt lat="41.0167632" lon="14.268205"><ele>18.0</ele><time>2026-04-22T10:26:02.336Z</time></trkpt><trkpt lat="41.0166201" lon="14.2681784"><ele>18.25</ele><time>2026-04-22T10:26:03.344Z</time></trkpt><trkpt lat="41.0164868" lon="14.2681417"><ele>18.5</ele><time>2026-04-22T10:26:04.334Z</time></trkpt><trkpt lat="41.0163609" lon="14.2681063"><ele>18.75</ele><time>2026-04-22T10:26:05.342Z</time></trkpt><trkpt lat="41.0162473" lon="14.2680751"><ele>19.0</ele><time>2026-04-22T10:26:06.358Z</time></trkpt><trkpt lat="41.0161457" lon="14.2680238"><ele>19.0</ele><time>2026-04-22T10:26:07.365Z</time></trkpt><trkpt lat="41.0160633" lon="14.2679326"><ele>19.0</ele><time>2026-04-22T10:26:08.359Z</time></trkpt><trkpt lat="41.016001" lon="14.2678034"><ele>19.0</ele><time>2026-04-22T10:26:09.374Z</time></trkpt><trkpt lat="41.0159679" lon="14.2676566"><ele>19.0</ele><time>2026-04-22T10:26:10.359Z</time></trkpt><trkpt lat="41.0159515" lon="14.2674885"><ele>19.0</ele><time>2026-04-22T10:26:11.347Z</time></trkpt><trkpt lat="41.0159323" lon="14.2673089"><ele>19.0</ele><time>2026-04-22T10:26:12.345Z</time></trkpt><trkpt lat="41.0159094" lon="14.267129"><ele>19.0</ele><time>2026-04-22T10:26:13.387Z</time></trkpt><trkpt lat="41.0158913" lon="14.2669751"><ele>19.0</ele><time>2026-04-22T10:26:14.366Z</time></trkpt><trkpt lat="41.0158752" lon="14.2668355"><ele>19.0</ele><time>2026-04-22T10:26:15.337Z</time></trkpt><trkpt lat="41.0158598" lon="14.2667091"><ele>19.0</ele><time>2026-04-22T10:26:16.339Z</time></trkpt><trkpt lat="41.0158445" lon="14.2665891"><ele>19.0</ele><time>2026-04-22T10:26:17.423Z</time></trkpt><trkpt lat="41.0158364" lon="14.2664956"><ele>19.0</ele><time>2026-04-22T10:26:18.368Z</time></trkpt><trkpt lat="41.0158384" lon="14.2664029"><ele>19.0</ele><time>2026-04-22T10:26:19.398Z</time></trkpt><trkpt lat="41.0158345" lon="14.2662815"><ele>19.0</ele><time>2026-04-22T10:26:21.348Z</time></trkpt><trkpt lat="41.0157017" lon="14.266193"><ele>19.5</ele><time>2026-04-22T10:26:24.407Z</time></trkpt><trkpt lat="41.0155947" lon="14.2661944"><ele>20.0</ele><time>2026-04-22T10:26:25.404Z</time></trkpt><trkpt lat="41.0154823" lon="14.2662024"><ele>20.5</ele><time>2026-04-22T10:26:26.365Z</time></trkpt><trkpt lat="41.0153233" lon="14.266212"><ele>21.0</ele><time>2026-04-22T10:26:27.478Z</time></trkpt><trkpt lat="41.015173" lon="14.2662211"><ele>21.0</ele><time>2026-04-22T10:26:28.381Z</time></trkpt><trkpt lat="41.0150218" lon="14.266242"><ele>21.0</ele><time>2026-04-22T10:26:29.331Z</time></trkpt><trkpt lat="41.014866" lon="14.2662605"><ele>21.0</ele><time>2026-04-22T10:26:30.394Z</time></trkpt><trkpt lat="41.0147334" lon="14.266271"><ele>21.0</ele><time>2026-04-22T10:26:31.38Z</time></trkpt><trkpt lat="41.0146132" lon="14.266266"><ele>20.75</ele><time>2026-04-22T10:26:32.54Z</time></trkpt><trkpt lat="41.0144816" lon="14.2661615"><ele>20.5</ele><time>2026-04-22T10:26:34.405Z</time></trkpt><trkpt lat="41.0144433" lon="14.2660261"><ele>20.25</ele><time>2026-04-22T10:26:35.417Z</time></trkpt><trkpt lat="41.014432" lon="14.2658684"><ele>20.0</ele><time>2026-04-22T10:26:36.418Z</time></trkpt><trkpt lat="41.0144349" lon="14.2657438"><ele>20.0</ele><time>2026-04-22T10:26:37.365Z</time></trkpt><trkpt lat="41.0144374" lon="14.2656335"><ele>20.0</ele><time>2026-04-22T10:26:38.415Z</time></trkpt><trkpt lat="41.0144377" lon="14.2654801"><ele>20.0</ele><time>2026-04-22T10:26:40.364Z</time></trkpt><trkpt lat="41.0144307" lon="14.2653333"><ele>20.0</ele><time>2026-04-22T10:26:42.495Z</time></trkpt><trkpt lat="41.014423" lon="14.2652155"><ele>20.0</ele><time>2026-04-22T10:26:44.48Z</time></trkpt><trkpt lat="41.0143649" lon="14.2651397"><ele>19.6</ele><time>2026-04-22T10:26:47.395Z</time></trkpt><trkpt lat="41.0144302" lon="14.2651"><ele>19.2</ele><time>2026-04-22T10:31:40.411Z</time></trkpt><trkpt lat="41.0144344" lon="14.264979"><ele>18.8</ele><time>2026-04-22T10:31:42.42Z</time></trkpt><trkpt lat="41.0143945" lon="14.2648022"><ele>18.4</ele><time>2026-04-22T10:31:44.363Z</time></trkpt><trkpt lat="41.0143455" lon="14.2646689"><ele>18.0</ele><time>2026-04-22T10:31:45.512Z</time></trkpt><trkpt lat="41.0142828" lon="14.2645413"><ele>17.666666666666668</ele><time>2026-04-22T10:31:46.431Z</time></trkpt><trkpt lat="41.0142028" lon="14.264369"><ele>17.333333333333336</ele><time>2026-04-22T10:31:47.562Z</time></trkpt><trkpt lat="41.0140825" lon="14.2640988"><ele>17.0</ele><time>2026-04-22T10:31:49.428Z</time></trkpt><trkpt lat="41.0140129" lon="14.2639512"><ele>17.75</ele><time>2026-04-22T10:31:50.413Z</time></trkpt><trkpt lat="41.0139473" lon="14.2638044"><ele>18.5</ele><time>2026-04-22T10:31:51.374Z</time></trkpt><trkpt lat="41.0138817" lon="14.2636453"><ele>19.25</ele><time>2026-04-22T10:31:52.369Z</time></trkpt><trkpt lat="41.0138051" lon="14.2634597"><ele>20.0</ele><time>2026-04-22T10:31:53.425Z</time></trkpt><trkpt lat="41.0137268" lon="14.2632715"><ele>19.333333333333336</ele><time>2026-04-22T10:31:54.399Z</time></trkpt><trkpt lat="41.013644" lon="14.2630755"><ele>18.666666666666668</ele><time>2026-04-22T10:31:55.395Z</time></trkpt><trkpt lat="41.0135554" lon="14.2628665"><ele>18.0</ele><time>2026-04-22T10:31:56.436Z</time></trkpt><trkpt lat="41.0134699" lon="14.2626639"><ele>18.0</ele><time>2026-04-22T10:31:57.417Z</time></trkpt><trkpt lat="41.0133894" lon="14.2624779"><ele>18.0</ele><time>2026-04-22T10:31:58.361Z</time></trkpt><trkpt lat="41.0133054" lon="14.2622851"><ele>18.0</ele><time>2026-04-22T10:31:59.386Z</time></trkpt><trkpt lat="41.0132303" lon="14.2621122"><ele>16.666666666666668</ele><time>2026-04-22T10:32:00.363Z</time></trkpt><trkpt lat="41.0131469" lon="14.2619216"><ele>15.333333333333334</ele><time>2026-04-22T10:32:01.503Z</time></trkpt><trkpt lat="41.0130092" lon="14.2616402"><ele>14.0</ele><time>2026-04-22T10:32:03.509Z</time></trkpt><trkpt lat="41.0129263" lon="14.2615313"><ele>13.666666666666668</ele><time>2026-04-22T10:32:04.492Z</time></trkpt><trkpt lat="41.0127414" lon="14.2613582"><ele>13.333333333333332</ele><time>2026-04-22T10:32:06.38Z</time></trkpt><trkpt lat="41.0126371" lon="14.2612706"><ele>13.0</ele><time>2026-04-22T10:32:07.37Z</time></trkpt><trkpt lat="41.012535" lon="14.2611864"><ele>14.25</ele><time>2026-04-22T10:32:08.352Z</time></trkpt><trkpt lat="41.0124215" lon="14.2610994"><ele>15.5</ele><time>2026-04-22T10:32:09.436Z</time></trkpt><trkpt lat="41.0123175" lon="14.2610367"><ele>16.75</ele><time>2026-04-22T10:32:10.35Z</time></trkpt><trkpt lat="41.0121662" lon="14.2609817"><ele>18.0</ele><time>2026-04-22T10:32:11.506Z</time></trkpt><trkpt lat="41.0120278" lon="14.2609596"><ele>18.0</ele><time>2026-04-22T10:32:12.447Z</time></trkpt><trkpt lat="41.0118859" lon="14.2609417"><ele>18.0</ele><time>2026-04-22T10:32:13.376Z</time></trkpt><trkpt lat="41.0117172" lon="14.2609237"><ele>18.0</ele><time>2026-04-22T10:32:14.462Z</time></trkpt><trkpt lat="41.0115774" lon="14.2609191"><ele>18.0</ele><time>2026-04-22T10:32:15.401Z</time></trkpt><trkpt lat="41.0114241" lon="14.2609189"><ele>18.0</ele><time>2026-04-22T10:32:16.464Z</time></trkpt><trkpt lat="41.0113" lon="14.2609222"><ele>18.0</ele><time>2026-04-22T10:32:17.39Z</time></trkpt><trkpt lat="41.0111746" lon="14.2609241"><ele>18.0</ele><time>2026-04-22T10:32:18.407Z</time></trkpt><trkpt lat="41.0110419" lon="14.2609317"><ele>18.0</ele><time>2026-04-22T10:32:19.361Z</time></trkpt><trkpt lat="41.0109022" lon="14.2609346"><ele>18.0</ele><time>2026-04-22T10:32:20.375Z</time></trkpt><trkpt lat="41.0107601" lon="14.2609407"><ele>18.0</ele><time>2026-04-22T10:32:21.421Z</time></trkpt><trkpt lat="41.0106224" lon="14.2609506"><ele>18.0</ele><time>2026-04-22T10:32:22.384Z</time></trkpt><trkpt lat="41.0104747" lon="14.2609596"><ele>18.0</ele><time>2026-04-22T10:32:23.398Z</time></trkpt><trkpt lat="41.0103207" lon="14.2609609"><ele>18.0</ele><time>2026-04-22T10:32:24.43Z</time></trkpt><trkpt lat="41.0101722" lon="14.2609616"><ele>18.0</ele><time>2026-04-22T10:32:25.429Z</time></trkpt><trkpt lat="41.0100404" lon="14.2609591"><ele>18.0</ele><time>2026-04-22T10:32:26.387Z</time></trkpt><trkpt lat="41.0099056" lon="14.2609579"><ele>18.0</ele><time>2026-04-22T10:32:27.386Z</time></trkpt><trkpt lat="41.0097794" lon="14.2609554"><ele>18.0</ele><time>2026-04-22T10:32:28.374Z</time></trkpt><trkpt lat="41.0096404" lon="14.2609558"><ele>18.0</ele><time>2026-04-22T10:32:29.63Z</time></trkpt><trkpt lat="41.0094884" lon="14.2609561"><ele>18.0</ele><time>2026-04-22T10:32:31.387Z</time></trkpt><trkpt lat="41.0094165" lon="14.2609598"><ele>18.0</ele><time>2026-04-22T10:32:32.433Z</time></trkpt><trkpt lat="41.009351" lon="14.2609833"><ele>18.0</ele><time>2026-04-22T10:32:33.41Z</time></trkpt><trkpt lat="41.0092746" lon="14.261036"><ele>18.0</ele><time>2026-04-22T10:32:34.497Z</time></trkpt><trkpt lat="41.009119" lon="14.2611818"><ele>18.0</ele><time>2026-04-22T10:32:36.373Z</time></trkpt><trkpt lat="41.0090309" lon="14.2612635"><ele>18.166666666666668</ele><time>2026-04-22T10:32:37.412Z</time></trkpt><trkpt lat="41.0089531" lon="14.2613376"><ele>18.333333333333332</ele><time>2026-04-22T10:32:38.435Z</time></trkpt><trkpt lat="41.0088851" lon="14.2614018"><ele>18.5</ele><time>2026-04-22T10:32:39.377Z</time></trkpt><trkpt lat="41.0088114" lon="14.2614738"><ele>18.666666666666664</ele><time>2026-04-22T10:32:40.37Z</time></trkpt><trkpt lat="41.0087387" lon="14.2615395"><ele>18.833333333333332</ele><time>2026-04-22T10:32:41.361Z</time></trkpt><trkpt lat="41.0086823" lon="14.2616101"><ele>19.0</ele><time>2026-04-22T10:32:42.266Z</time></trkpt><trkpt lat="41.0086043" lon="14.2617285"><ele>19.0</ele><time>2026-04-22T10:32:43.337Z</time></trkpt><trkpt lat="41.0085457" lon="14.2618287"><ele>19.0</ele><time>2026-04-22T10:32:44.356Z</time></trkpt><trkpt lat="41.0084936" lon="14.261937"><ele>19.0</ele><time>2026-04-22T10:32:45.579Z</time></trkpt><trkpt lat="41.0084141" lon="14.262044"><ele>19.0</ele><time>2026-04-22T10:32:47.393Z</time></trkpt><trkpt lat="41.0083536" lon="14.2620743"><ele>19.0</ele><time>2026-04-22T10:32:48.473Z</time></trkpt><trkpt lat="41.0082497" lon="14.262075"><ele>19.0</ele><time>2026-04-22T10:32:50.352Z</time></trkpt><trkpt lat="41.0081657" lon="14.2620928"><ele>19.0</ele><time>2026-04-22T10:32:52.406Z</time></trkpt><trkpt lat="41.0081273" lon="14.2621802"><ele>19.0</ele><time>2026-04-22T10:32:54.375Z</time></trkpt><trkpt lat="41.0081312" lon="14.2622916"><ele>19.0</ele><time>2026-04-22T10:32:56.361Z</time></trkpt><trkpt lat="41.0080985" lon="14.2623769"><ele>19.0</ele><time>2026-04-22T10:32:59.441Z</time></trkpt><trkpt lat="41.0080321" lon="14.2624113"><ele>19.0</ele><time>2026-04-22T10:33:01.479Z</time></trkpt><trkpt lat="41.0079135" lon="14.2623884"><ele>19.0</ele><time>2026-04-22T10:33:03.542Z</time></trkpt><trkpt lat="41.0078499" lon="14.2623738"><ele>19.0</ele><time>2026-04-22T10:33:04.49Z</time></trkpt><trkpt lat="41.007732" lon="14.2623538"><ele>19.0</ele><time>2026-04-22T10:33:06.352Z</time></trkpt><trkpt lat="41.0076558" lon="14.2623443"><ele>19.0</ele><time>2026-04-22T10:33:07.412Z</time></trkpt><trkpt lat="41.0075866" lon="14.2623346"><ele>19.0</ele><time>2026-04-22T10:33:08.406Z</time></trkpt><trkpt lat="41.0075107" lon="14.2623278"><ele>19.0</ele><time>2026-04-22T10:33:09.518Z</time></trkpt><trkpt lat="41.007447" lon="14.2623231"><ele>18.599999999999998</ele><time>2026-04-22T10:33:10.425Z</time></trkpt><trkpt lat="41.0073643" lon="14.2623126"><ele>18.2</ele><time>2026-04-22T10:33:11.564Z</time></trkpt><trkpt lat="41.0072179" lon="14.2622971"><ele>17.799999999999997</ele><time>2026-04-22T10:33:13.472Z</time></trkpt><trkpt lat="41.0071335" lon="14.2622895"><ele>17.4</ele><time>2026-04-22T10:33:14.493Z</time></trkpt><trkpt lat="41.0070502" lon="14.2622808"><ele>17.0</ele><time>2026-04-22T10:33:15.474Z</time></trkpt><trkpt lat="41.00696" lon="14.262272"><ele>16.999999999999996</ele><time>2026-04-22T10:33:16.546Z</time></trkpt><trkpt lat="41.0068849" lon="14.2622657"><ele>17.0</ele><time>2026-04-22T10:33:17.502Z</time></trkpt><trkpt lat="41.0068213" lon="14.2622561"><ele>17.0</ele><time>2026-04-22T10:33:18.463Z</time></trkpt><trkpt lat="41.0067537" lon="14.262245"><ele>17.0</ele><time>2026-04-22T10:33:19.507Z</time></trkpt><trkpt lat="41.006691" lon="14.2622287"><ele>17.0</ele><time>2026-04-22T10:33:20.491Z</time></trkpt><trkpt lat="41.0066159" lon="14.2621996"><ele>16.999999999999996</ele><time>2026-04-22T10:33:21.588Z</time></trkpt><trkpt lat="41.006547" lon="14.2621648"><ele>17.0</ele><time>2026-04-22T10:33:22.676Z</time></trkpt><trkpt lat="41.0064305" lon="14.2620999"><ele>17.166666666666668</ele><time>2026-04-22T10:33:24.649Z</time></trkpt><trkpt lat="41.0063007" lon="14.2620341"><ele>17.333333333333336</ele><time>2026-04-22T10:33:26.504Z</time></trkpt><trkpt lat="41.0062317" lon="14.2619965"><ele>17.5</ele><time>2026-04-22T10:33:27.448Z</time></trkpt><trkpt lat="41.0061528" lon="14.261959"><ele>17.666666666666668</ele><time>2026-04-22T10:33:28.508Z</time></trkpt><trkpt lat="41.0060718" lon="14.2619219"><ele>17.833333333333332</ele><time>2026-04-22T10:33:29.585Z</time></trkpt><trkpt lat="41.0060093" lon="14.2618928"><ele>18.0</ele><time>2026-04-22T10:33:30.561Z</time></trkpt><trkpt lat="41.0059493" lon="14.2618634"><ele>18.0</ele><time>2026-04-22T10:33:31.58Z</time></trkpt><trkpt lat="41.0058884" lon="14.2618368"><ele>18.0</ele><time>2026-04-22T10:33:32.542Z</time></trkpt><trkpt lat="41.0058279" lon="14.2618128"><ele>18.0</ele><time>2026-04-22T10:33:33.542Z</time></trkpt><trkpt lat="41.0057677" lon="14.2617873"><ele>18.0</ele><time>2026-04-22T10:33:34.575Z</time></trkpt><trkpt lat="41.0056688" lon="14.2617386"><ele>18.0</ele><time>2026-04-22T10:33:36.457Z</time></trkpt><trkpt lat="41.0055976" lon="14.2617038"><ele>18.0</ele><time>2026-04-22T10:33:38.546Z</time></trkpt><trkpt lat="41.005522" lon="14.2616608"><ele>18.0</ele><time>2026-04-22T10:33:40.453Z</time></trkpt><trkpt lat="41.0054198" lon="14.2616"><ele>18.0</ele><time>2026-04-22T10:33:42.495Z</time></trkpt><trkpt lat="41.0053187" lon="14.2615397"><ele>18.0</ele><time>2026-04-22T10:33:44.425Z</time></trkpt><trkpt lat="41.0052107" lon="14.2614812"><ele>18.0</ele><time>2026-04-22T10:33:46.444Z</time></trkpt><trkpt lat="41.0051486" lon="14.2614501"><ele>18.0</ele><time>2026-04-22T10:33:47.459Z</time></trkpt><trkpt lat="41.0050803" lon="14.2614141"><ele>18.0</ele><time>2026-04-22T10:33:48.681Z</time></trkpt><trkpt lat="41.0049871" lon="14.26137"><ele>18.0</ele><time>2026-04-22T10:33:50.573Z</time></trkpt><trkpt lat="41.0048651" lon="14.2613149"><ele>18.0</ele><time>2026-04-22T10:33:52.584Z</time></trkpt><trkpt lat="41.0047572" lon="14.261281"><ele>18.0</ele><time>2026-04-22T10:33:54.601Z</time></trkpt><trkpt lat="41.0046648" lon="14.2612581"><ele>18.0</ele><time>2026-04-22T10:33:56.461Z</time></trkpt><trkpt lat="41.0045797" lon="14.2612351"><ele>18.0</ele><time>2026-04-22T10:33:58.667Z</time></trkpt><trkpt lat="41.0045001" lon="14.2612119"><ele>18.0</ele><time>2026-04-22T10:34:00.442Z</time></trkpt><trkpt lat="41.0043875" lon="14.2611943"><ele>18.0</ele><time>2026-04-22T10:34:02.484Z</time></trkpt><trkpt lat="41.0043224" lon="14.2611878"><ele>18.0</ele><time>2026-04-22T10:34:03.499Z</time></trkpt><trkpt lat="41.0042514" lon="14.2611829"><ele>18.0</ele><time>2026-04-22T10:34:04.553Z</time></trkpt><trkpt lat="41.0041883" lon="14.2611783"><ele>18.0</ele><time>2026-04-22T10:34:05.464Z</time></trkpt><trkpt lat="41.0041059" lon="14.2611765"><ele>18.4</ele><time>2026-04-22T10:34:06.636Z</time></trkpt><trkpt lat="41.0040308" lon="14.261177"><ele>18.8</ele><time>2026-04-22T10:34:07.708Z</time></trkpt><trkpt lat="41.0039002" lon="14.2611767"><ele>19.2</ele><time>2026-04-22T10:34:09.435Z</time></trkpt><trkpt lat="41.003809" lon="14.2611781"><ele>19.6</ele><time>2026-04-22T10:34:10.599Z</time></trkpt><trkpt lat="41.0037297" lon="14.2611778"><ele>20.0</ele><time>2026-04-22T10:34:11.568Z</time></trkpt><trkpt lat="41.0036558" lon="14.261177"><ele>20.0</ele><time>2026-04-22T10:34:12.506Z</time></trkpt><trkpt lat="41.0035714" lon="14.2611732"><ele>20.0</ele><time>2026-04-22T10:34:13.596Z</time></trkpt><trkpt lat="41.0034947" lon="14.2611712"><ele>20.0</ele><time>2026-04-22T10:34:14.537Z</time></trkpt><trkpt lat="41.0034187" lon="14.2611725"><ele>20.0</ele><time>2026-04-22T10:34:15.475Z</time></trkpt><trkpt lat="41.0033243" lon="14.2611742"><ele>20.0</ele><time>2026-04-22T10:34:16.515Z</time></trkpt><trkpt lat="41.0032394" lon="14.2611715"><ele>20.0</ele><time>2026-04-22T10:34:17.524Z</time></trkpt><trkpt lat="41.0031626" lon="14.2611703"><ele>19.57142857142857</ele><time>2026-04-22T10:34:18.436Z</time></trkpt><trkpt lat="41.0030818" lon="14.261169"><ele>19.142857142857142</ele><time>2026-04-22T10:34:19.454Z</time></trkpt><trkpt lat="41.0030033" lon="14.2611691"><ele>18.714285714285715</ele><time>2026-04-22T10:34:20.488Z</time></trkpt><trkpt lat="41.0029357" lon="14.2611692"><ele>18.285714285714285</ele><time>2026-04-22T10:34:21.463Z</time></trkpt><trkpt lat="41.0028684" lon="14.2611679"><ele>17.857142857142858</ele><time>2026-04-22T10:34:22.461Z</time></trkpt><trkpt lat="41.0027975" lon="14.2611695"><ele>17.428571428571427</ele><time>2026-04-22T10:34:23.563Z</time></trkpt><trkpt lat="41.002733" lon="14.2611709"><ele>17.0</ele><time>2026-04-22T10:34:24.504Z</time></trkpt><trkpt lat="41.0026654" lon="14.2611709"><ele>17.0</ele><time>2026-04-22T10:34:25.459Z</time></trkpt><trkpt lat="41.0025932" lon="14.2611672"><ele>17.0</ele><time>2026-04-22T10:34:26.471Z</time></trkpt><trkpt lat="41.0025114" lon="14.2611643"><ele>17.0</ele><time>2026-04-22T10:34:27.568Z</time></trkpt><trkpt lat="41.0024389" lon="14.2611692"><ele>17.0</ele><time>2026-04-22T10:34:28.48Z</time></trkpt><trkpt lat="41.0023512" lon="14.2611713"><ele>17.0</ele><time>2026-04-22T10:34:29.566Z</time></trkpt><trkpt lat="41.0022816" lon="14.2611712"><ele>17.0</ele><time>2026-04-22T10:34:30.523Z</time></trkpt><trkpt lat="41.0022047" lon="14.2611758"><ele>17.0</ele><time>2026-04-22T10:34:31.478Z</time></trkpt><trkpt lat="41.0021374" lon="14.2611802"><ele>17.0</ele><time>2026-04-22T10:34:32.424Z</time></trkpt><trkpt lat="41.00205" lon="14.2611887"><ele>17.0</ele><time>2026-04-22T10:34:33.506Z</time></trkpt><trkpt lat="41.0019584" lon="14.2612001"><ele>17.0</ele><time>2026-04-22T10:34:34.472Z</time></trkpt><trkpt lat="41.0018595" lon="14.26121"><ele>17.0</ele><time>2026-04-22T10:34:35.526Z</time></trkpt><trkpt lat="41.0017567" lon="14.2612219"><ele>17.0</ele><time>2026-04-22T10:34:36.521Z</time></trkpt><trkpt lat="41.001669" lon="14.2612347"><ele>17.0</ele><time>2026-04-22T10:34:37.476Z</time></trkpt><trkpt lat="41.001576" lon="14.2612452"><ele>17.0</ele><time>2026-04-22T10:34:38.574Z</time></trkpt><trkpt lat="41.001493" lon="14.2612596"><ele>17.0</ele><time>2026-04-22T10:34:39.496Z</time></trkpt><trkpt lat="41.0014076" lon="14.2612715"><ele>17.0</ele><time>2026-04-22T10:34:40.476Z</time></trkpt><trkpt lat="41.0013147" lon="14.2612827"><ele>17.0</ele><time>2026-04-22T10:34:41.514Z</time></trkpt><trkpt lat="41.0012222" lon="14.2612945"><ele>17.0</ele><time>2026-04-22T10:34:42.56Z</time></trkpt><trkpt lat="41.0011367" lon="14.2613061"><ele>17.0</ele><time>2026-04-22T10:34:43.533Z</time></trkpt><trkpt lat="41.0010557" lon="14.2613173"><ele>17.0</ele><time>2026-04-22T10:34:44.466Z</time></trkpt><trkpt lat="41.0009636" lon="14.2613286"><ele>17.0</ele><time>2026-04-22T10:34:45.524Z</time></trkpt><trkpt lat="41.0008759" lon="14.2613394"><ele>17.0</ele><time>2026-04-22T10:34:46.557Z</time></trkpt><trkpt lat="41.0007852" lon="14.2613525"><ele>17.0</ele><time>2026-04-22T10:34:47.65Z</time></trkpt><trkpt lat="41.0006502" lon="14.26139"><ele>17.6</ele><time>2026-04-22T10:34:49.537Z</time></trkpt><trkpt lat="41.0005465" lon="14.2614237"><ele>18.2</ele><time>2026-04-22T10:34:51.504Z</time></trkpt><trkpt lat="41.0004762" lon="14.2614377"><ele>18.8</ele><time>2026-04-22T10:34:53.569Z</time></trkpt><trkpt lat="41.0004053" lon="14.2613177"><ele>19.4</ele><time>2026-04-22T10:34:57.455Z</time></trkpt><trkpt lat="41.0004025" lon="14.2611939"><ele>20.0</ele><time>2026-04-22T10:34:59.519Z</time></trkpt><trkpt lat="41.0002843" lon="14.2611294"><ele>20.0</ele><time>2026-04-22T10:35:03.475Z</time></trkpt><trkpt lat="41.0002026" lon="14.2611602"><ele>20.0</ele><time>2026-04-22T10:35:04.541Z</time></trkpt><trkpt lat="41.00008" lon="14.2611944"><ele>20.0</ele><time>2026-04-22T10:35:05.723Z</time></trkpt><trkpt lat="40.9999846" lon="14.2612144"><ele>20.0</ele><time>2026-04-22T10:35:06.504Z</time></trkpt><trkpt lat="40.9998504" lon="14.261248"><ele>20.0</ele><time>2026-04-22T10:35:07.514Z</time></trkpt><trkpt lat="40.999696" lon="14.2612838"><ele>20.0</ele><time>2026-04-22T10:35:08.526Z</time></trkpt><trkpt lat="40.9995429" lon="14.2613181"><ele>20.0</ele><time>2026-04-22T10:35:09.507Z</time></trkpt><trkpt lat="40.9993807" lon="14.2613526"><ele>20.0</ele><time>2026-04-22T10:35:10.502Z</time></trkpt><trkpt lat="40.9992209" lon="14.2613911"><ele>19.0</ele><time>2026-04-22T10:35:11.493Z</time></trkpt><trkpt lat="40.9990496" lon="14.2614352"><ele>18.0</ele><time>2026-04-22T10:35:12.666Z</time></trkpt><trkpt lat="40.9987661" lon="14.2614797"><ele>18.0</ele><time>2026-04-22T10:35:14.522Z</time></trkpt><trkpt lat="40.9986069" lon="14.2614688"><ele>18.0</ele><time>2026-04-22T10:35:15.546Z</time></trkpt><trkpt lat="40.9984328" lon="14.2614315"><ele>18.0</ele><time>2026-04-22T10:35:16.57Z</time></trkpt><trkpt lat="40.9982345" lon="14.2613888"><ele>17.5</ele><time>2026-04-22T10:35:17.608Z</time></trkpt><trkpt lat="40.9978662" lon="14.2613093"><ele>17.0</ele><time>2026-04-22T10:35:19.483Z</time></trkpt><trkpt lat="40.997685" lon="14.2612683"><ele>17.0</ele><time>2026-04-22T10:35:20.499Z</time></trkpt><trkpt lat="40.9974833" lon="14.2612349"><ele>17.0</ele><time>2026-04-22T10:35:21.626Z</time></trkpt><trkpt lat="40.9972954" lon="14.2612188"><ele>17.0</ele><time>2026-04-22T10:35:22.602Z</time></trkpt><trkpt lat="40.997123" lon="14.2612104"><ele>17.0</ele><time>2026-04-22T10:35:23.483Z</time></trkpt><trkpt lat="40.9969182" lon="14.2612036"><ele>17.0</ele><time>2026-04-22T10:35:24.538Z</time></trkpt><trkpt lat="40.9967397" lon="14.2611963"><ele>17.0</ele><time>2026-04-22T10:35:25.489Z</time></trkpt><trkpt lat="40.9965596" lon="14.2611895"><ele>17.0</ele><time>2026-04-22T10:35:26.486Z</time></trkpt><trkpt lat="40.9963668" lon="14.2611805"><ele>17.0</ele><time>2026-04-22T10:35:27.608Z</time></trkpt><trkpt lat="40.9962198" lon="14.2611785"><ele>17.0</ele><time>2026-04-22T10:35:28.545Z</time></trkpt><trkpt lat="40.9960699" lon="14.261172"><ele>17.0</ele><time>2026-04-22T10:35:29.541Z</time></trkpt><trkpt lat="40.995927" lon="14.261142"><ele>17.0</ele><time>2026-04-22T10:35:30.484Z</time></trkpt><trkpt lat="40.9957531" lon="14.2610931"><ele>17.0</ele><time>2026-04-22T10:35:31.555Z</time></trkpt><trkpt lat="40.9955902" lon="14.2610438"><ele>17.666666666666668</ele><time>2026-04-22T10:35:32.519Z</time></trkpt><trkpt lat="40.9954248" lon="14.260997"><ele>18.333333333333332</ele><time>2026-04-22T10:35:33.552Z</time></trkpt><trkpt lat="40.9952914" lon="14.2609534"><ele>19.0</ele><time>2026-04-22T10:35:34.456Z</time></trkpt><trkpt lat="40.9951447" lon="14.2609011"><ele>19.0</ele><time>2026-04-22T10:35:35.495Z</time></trkpt><trkpt lat="40.9950038" lon="14.2608528"><ele>19.0</ele><time>2026-04-22T10:35:36.5Z</time></trkpt><trkpt lat="40.9948541" lon="14.2608031"><ele>19.0</ele><time>2026-04-22T10:35:37.51Z</time></trkpt><trkpt lat="40.9947033" lon="14.2607554"><ele>19.0</ele><time>2026-04-22T10:35:38.514Z</time></trkpt><trkpt lat="40.9945602" lon="14.2607106"><ele>19.0</ele><time>2026-04-22T10:35:39.464Z</time></trkpt><trkpt lat="40.9943768" lon="14.2606717"><ele>19.0</ele><time>2026-04-22T10:35:40.653Z</time></trkpt><trkpt lat="40.9940812" lon="14.2606456"><ele>19.0</ele><time>2026-04-22T10:35:42.458Z</time></trkpt><trkpt lat="40.9939063" lon="14.2606428"><ele>19.0</ele><time>2026-04-22T10:35:43.48Z</time></trkpt><trkpt lat="40.9937343" lon="14.2606374"><ele>19.0</ele><time>2026-04-22T10:35:44.499Z</time></trkpt><trkpt lat="40.9935672" lon="14.2606314"><ele>19.0</ele><time>2026-04-22T10:35:45.465Z</time></trkpt><trkpt lat="40.9933754" lon="14.260625"><ele>19.0</ele><time>2026-04-22T10:35:46.554Z</time></trkpt><trkpt lat="40.9931925" lon="14.2606175"><ele>19.0</ele><time>2026-04-22T10:35:47.579Z</time></trkpt><trkpt lat="40.9930059" lon="14.2606099"><ele>19.0</ele><time>2026-04-22T10:35:48.623Z</time></trkpt><trkpt lat="40.9928469" lon="14.2606039"><ele>19.0</ele><time>2026-04-22T10:35:49.531Z</time></trkpt><trkpt lat="40.9926994" lon="14.2605943"><ele>19.0</ele><time>2026-04-22T10:35:50.484Z</time></trkpt><trkpt lat="40.9925654" lon="14.2605843"><ele>19.0</ele><time>2026-04-22T10:35:51.498Z</time></trkpt><trkpt lat="40.9924423" lon="14.2605729"><ele>18.833333333333332</ele><time>2026-04-22T10:35:52.625Z</time></trkpt><trkpt lat="40.9923515" lon="14.2605608"><ele>18.666666666666664</ele><time>2026-04-22T10:35:53.555Z</time></trkpt><trkpt lat="40.9922684" lon="14.2605424"><ele>18.5</ele><time>2026-04-22T10:35:54.502Z</time></trkpt><trkpt lat="40.9921827" lon="14.260515"><ele>18.333333333333332</ele><time>2026-04-22T10:35:55.606Z</time></trkpt><trkpt lat="40.9921138" lon="14.2604967"><ele>18.166666666666668</ele><time>2026-04-22T10:35:56.566Z</time></trkpt><trkpt lat="40.9920513" lon="14.2604856"><ele>18.0</ele><time>2026-04-22T10:35:57.511Z</time></trkpt><trkpt lat="40.9919494" lon="14.2604916"><ele>18.0</ele><time>2026-04-22T10:35:59.464Z</time></trkpt><trkpt lat="40.9918941" lon="14.2605863"><ele>18.0</ele><time>2026-04-22T10:36:01.558Z</time></trkpt><trkpt lat="40.9918805" lon="14.2606965"><ele>18.0</ele><time>2026-04-22T10:36:03.45Z</time></trkpt><trkpt lat="40.991845" lon="14.2607821"><ele>18.0</ele><time>2026-04-22T10:36:05.482Z</time></trkpt><trkpt lat="40.9917433" lon="14.2607905"><ele>18.0</ele><time>2026-04-22T10:36:07.709Z</time></trkpt><trkpt lat="40.9916248" lon="14.2607427"><ele>17.833333333333332</ele><time>2026-04-22T10:36:09.488Z</time></trkpt><trkpt lat="40.9915431" lon="14.2607012"><ele>17.666666666666668</ele><time>2026-04-22T10:36:10.548Z</time></trkpt><trkpt lat="40.9914683" lon="14.2606598"><ele>17.5</ele><time>2026-04-22T10:36:11.509Z</time></trkpt><trkpt lat="40.9914019" lon="14.2606208"><ele>17.333333333333336</ele><time>2026-04-22T10:36:12.491Z</time></trkpt><trkpt lat="40.991334" lon="14.2605825"><ele>17.166666666666668</ele><time>2026-04-22T10:36:13.531Z</time></trkpt><trkpt lat="40.9912728" lon="14.2605464"><ele>17.0</ele><time>2026-04-22T10:36:14.466Z</time></trkpt><trkpt lat="40.9912123" lon="14.2604997"><ele>17.333333333333336</ele><time>2026-04-22T10:36:15.493Z</time></trkpt><trkpt lat="40.991157" lon="14.2604486"><ele>17.666666666666668</ele><time>2026-04-22T10:36:16.499Z</time></trkpt><trkpt lat="40.9911057" lon="14.2603972"><ele>18.0</ele><time>2026-04-22T10:36:17.522Z</time></trkpt><trkpt lat="40.991022" lon="14.2602907"><ele>18.333333333333332</ele><time>2026-04-22T10:36:19.593Z</time></trkpt><trkpt lat="40.9909727" lon="14.2602255"><ele>18.666666666666664</ele><time>2026-04-22T10:36:22.511Z</time></trkpt><trkpt lat="40.9909042" lon="14.2602563"><ele>19.0</ele><time>2026-04-22T10:36:25.497Z</time></trkpt><trkpt lat="40.9908263" lon="14.2602454"><ele>19.0</ele><time>2026-04-22T10:36:27.476Z</time></trkpt><trkpt lat="40.9907373" lon="14.2602209"><ele>19.0</ele><time>2026-04-22T10:36:29.495Z</time></trkpt><trkpt lat="40.9906249" lon="14.2601926"><ele>19.0</ele><time>2026-04-22T10:36:31.51Z</time></trkpt><trkpt lat="40.9905093" lon="14.2601609"><ele>19.0</ele><time>2026-04-22T10:36:33.501Z</time></trkpt><trkpt lat="40.9903746" lon="14.2601184"><ele>19.0</ele><time>2026-04-22T10:36:35.564Z</time></trkpt><trkpt lat="40.9902577" lon="14.2600803"><ele>19.0</ele><time>2026-04-22T10:36:37.471Z</time></trkpt><trkpt lat="40.9901897" lon="14.2600545"><ele>19.0</ele><time>2026-04-22T10:36:38.557Z</time></trkpt><trkpt lat="40.9901257" lon="14.2600324"><ele>19.0</ele><time>2026-04-22T10:36:39.474Z</time></trkpt><trkpt lat="40.9900558" lon="14.2600107"><ele>19.0</ele><time>2026-04-22T10:36:40.436Z</time></trkpt><trkpt lat="40.989982" lon="14.2599898"><ele>19.0</ele><time>2026-04-22T10:36:41.498Z</time></trkpt><trkpt lat="40.9899074" lon="14.2599657"><ele>18.833333333333332</ele><time>2026-04-22T10:36:42.497Z</time></trkpt><trkpt lat="40.9898304" lon="14.2599388"><ele>18.666666666666664</ele><time>2026-04-22T10:36:43.486Z</time></trkpt><trkpt lat="40.9897524" lon="14.2599114"><ele>18.5</ele><time>2026-04-22T10:36:44.457Z</time></trkpt><trkpt lat="40.9896757" lon="14.2598867"><ele>18.333333333333332</ele><time>2026-04-22T10:36:45.495Z</time></trkpt><trkpt lat="40.9896094" lon="14.2598684"><ele>18.166666666666668</ele><time>2026-04-22T10:36:46.556Z</time></trkpt><trkpt lat="40.989541" lon="14.259847"><ele>18.0</ele><time>2026-04-22T10:36:47.557Z</time></trkpt><trkpt lat="40.9894622" lon="14.2598225"><ele>18.0</ele><time>2026-04-22T10:36:48.605Z</time></trkpt><trkpt lat="40.9893949" lon="14.2597994"><ele>18.0</ele><time>2026-04-22T10:36:49.513Z</time></trkpt><trkpt lat="40.9892805" lon="14.2597661"><ele>18.0</ele><time>2026-04-22T10:36:51.487Z</time></trkpt><trkpt lat="40.9891978" lon="14.259739"><ele>18.0</ele><time>2026-04-22T10:36:53.49Z</time></trkpt><trkpt lat="40.9891213" lon="14.2597179"><ele>18.0</ele><time>2026-04-22T10:36:56.649Z</time></trkpt><trkpt lat="40.989045" lon="14.2596888"><ele>18.0</ele><time>2026-04-22T10:36:59.617Z</time></trkpt><trkpt lat="40.9889834" lon="14.2597097"><ele>18.0</ele><time>2026-04-22T10:37:04.675Z</time></trkpt><trkpt lat="40.9890991" lon="14.2597177"><ele>18.0</ele><time>2026-04-22T10:37:19.672Z</time></trkpt><trkpt lat="40.9892165" lon="14.2597487"><ele>18.0</ele><time>2026-04-22T10:37:21.607Z</time></trkpt><trkpt lat="40.9893048" lon="14.2597736"><ele>18.0</ele><time>2026-04-22T10:37:22.952Z</time></trkpt><trkpt lat="40.9894412" lon="14.2598051"><ele>18.0</ele><time>2026-04-22T10:37:24.786Z</time></trkpt><trkpt lat="40.9895793" lon="14.2598496"><ele>18.0</ele><time>2026-04-22T10:37:26.584Z</time></trkpt><trkpt lat="40.9896523" lon="14.2598725"><ele>18.0</ele><time>2026-04-22T10:37:27.586Z</time></trkpt><trkpt lat="40.9897244" lon="14.2598935"><ele>18.0</ele><time>2026-04-22T10:37:28.573Z</time></trkpt><trkpt lat="40.9898007" lon="14.2599226"><ele>18.0</ele><time>2026-04-22T10:37:29.564Z</time></trkpt><trkpt lat="40.9898854" lon="14.2599553"><ele>18.0</ele><time>2026-04-22T10:37:30.554Z</time></trkpt><trkpt lat="40.9899829" lon="14.2599879"><ele>18.0</ele><time>2026-04-22T10:37:31.699Z</time></trkpt><trkpt lat="40.9900499" lon="14.2600125"><ele>18.0</ele><time>2026-04-22T10:37:32.603Z</time></trkpt><trkpt lat="40.9901218" lon="14.260037"><ele>18.0</ele><time>2026-04-22T10:37:33.555Z</time></trkpt><trkpt lat="40.9902062" lon="14.2600634"><ele>18.0</ele><time>2026-04-22T10:37:34.577Z</time></trkpt><trkpt lat="40.9902898" lon="14.2600929"><ele>18.0</ele><time>2026-04-22T10:37:35.658Z</time></trkpt><trkpt lat="40.9903574" lon="14.2601132"><ele>18.166666666666668</ele><time>2026-04-22T10:37:36.543Z</time></trkpt><trkpt lat="40.9904301" lon="14.2601414"><ele>18.333333333333332</ele><time>2026-04-22T10:37:37.546Z</time></trkpt><trkpt lat="40.9904979" lon="14.2601637"><ele>18.5</ele><time>2026-04-22T10:37:38.548Z</time></trkpt><trkpt lat="40.9905686" lon="14.2601836"><ele>18.666666666666664</ele><time>2026-04-22T10:37:39.59Z</time></trkpt><trkpt lat="40.9906942" lon="14.2602159"><ele>18.833333333333332</ele><time>2026-04-22T10:37:41.455Z</time></trkpt><trkpt lat="40.9907656" lon="14.2602337"><ele>19.0</ele><time>2026-04-22T10:37:42.502Z</time></trkpt><trkpt lat="40.99083" lon="14.2602515"><ele>19.0</ele><time>2026-04-22T10:37:43.491Z</time></trkpt><trkpt lat="40.9909112" lon="14.2602669"><ele>19.0</ele><time>2026-04-22T10:37:45.458Z</time></trkpt><trkpt lat="40.9909717" lon="14.2602128"><ele>19.0</ele><time>2026-04-22T10:37:49.487Z</time></trkpt><trkpt lat="40.9909355" lon="14.2600902"><ele>19.0</ele><time>2026-04-22T10:37:51.483Z</time></trkpt><trkpt lat="40.9908781" lon="14.2599822"><ele>19.0</ele><time>2026-04-22T10:37:52.47Z</time></trkpt><trkpt lat="40.9908005" lon="14.2598214"><ele>19.0</ele><time>2026-04-22T10:37:53.546Z</time></trkpt><trkpt lat="40.9907165" lon="14.2596439"><ele>19.0</ele><time>2026-04-22T10:37:54.504Z</time></trkpt><trkpt lat="40.9906175" lon="14.259439"><ele>19.0</ele><time>2026-04-22T10:37:55.479Z</time></trkpt><trkpt lat="40.990512" lon="14.2592177"><ele>19.0</ele><time>2026-04-22T10:37:56.49Z</time></trkpt><trkpt lat="40.9904075" lon="14.2589934"><ele>19.0</ele><time>2026-04-22T10:37:57.46Z</time></trkpt><trkpt lat="40.9902863" lon="14.2587304"><ele>19.0</ele><time>2026-04-22T10:37:58.63Z</time></trkpt><trkpt lat="40.9901176" lon="14.2583683"><ele>19.5</ele><time>2026-04-22T10:38:00.481Z</time></trkpt><trkpt lat="40.9900221" lon="14.2581467"><ele>20.0</ele><time>2026-04-22T10:38:01.681Z</time></trkpt><trkpt lat="40.9898756" lon="14.2578384"><ele>20.25</ele><time>2026-04-22T10:38:03.478Z</time></trkpt><trkpt lat="40.9898" lon="14.257676"><ele>20.5</ele><time>2026-04-22T10:38:04.441Z</time></trkpt><trkpt lat="40.9897181" lon="14.2575029"><ele>20.75</ele><time>2026-04-22T10:38:05.534Z</time></trkpt><trkpt lat="40.9896499" lon="14.2573691"><ele>21.0</ele><time>2026-04-22T10:38:06.486Z</time></trkpt><trkpt lat="40.9895892" lon="14.2572544"><ele>21.0</ele><time>2026-04-22T10:38:07.467Z</time></trkpt><trkpt lat="40.9895403" lon="14.2571623"><ele>21.0</ele><time>2026-04-22T10:38:08.452Z</time></trkpt><trkpt lat="40.9894983" lon="14.2570741"><ele>21.0</ele><time>2026-04-22T10:38:09.43Z</time></trkpt><trkpt lat="40.989455" lon="14.2569851"><ele>21.0</ele><time>2026-04-22T10:38:10.545Z</time></trkpt><trkpt lat="40.9894338" lon="14.2568096"><ele>21.0</ele><time>2026-04-22T10:38:12.427Z</time></trkpt><trkpt lat="40.9894597" lon="14.2566861"><ele>21.0</ele><time>2026-04-22T10:38:13.515Z</time></trkpt><trkpt lat="40.9894938" lon="14.2565768"><ele>21.0</ele><time>2026-04-22T10:38:14.542Z</time></trkpt><trkpt lat="40.9895178" lon="14.2564734"><ele>21.0</ele><time>2026-04-22T10:38:15.526Z</time></trkpt><trkpt lat="40.9895304" lon="14.2563847"><ele>21.0</ele><time>2026-04-22T10:38:16.589Z</time></trkpt><trkpt lat="40.989503" lon="14.2562549"><ele>21.0</ele><time>2026-04-22T10:38:19.614Z</time></trkpt><trkpt lat="40.9894375" lon="14.2562076"><ele>21.0</ele><time>2026-04-22T10:38:20.552Z</time></trkpt><trkpt lat="40.9893355" lon="14.2561867"><ele>21.0</ele><time>2026-04-22T10:38:21.521Z</time></trkpt><trkpt lat="40.9891937" lon="14.2561914"><ele>21.0</ele><time>2026-04-22T10:38:22.508Z</time></trkpt><trkpt lat="40.9890168" lon="14.2562001"><ele>21.0</ele><time>2026-04-22T10:38:23.558Z</time></trkpt><trkpt lat="40.988834" lon="14.2562061"><ele>21.0</ele><time>2026-04-22T10:38:24.52Z</time></trkpt><trkpt lat="40.9886595" lon="14.2561996"><ele>21.0</ele><time>2026-04-22T10:38:25.487Z</time></trkpt><trkpt lat="40.9884688" lon="14.2561972"><ele>21.0</ele><time>2026-04-22T10:38:26.472Z</time></trkpt><trkpt lat="40.9881942" lon="14.2561982"><ele>21.5</ele><time>2026-04-22T10:38:27.816Z</time></trkpt><trkpt lat="40.9878276" lon="14.2562002"><ele>22.0</ele><time>2026-04-22T10:38:29.556Z</time></trkpt><trkpt lat="40.9876321" lon="14.2561969"><ele>21.666666666666664</ele><time>2026-04-22T10:38:30.495Z</time></trkpt><trkpt lat="40.9874068" lon="14.2561932"><ele>21.333333333333332</ele><time>2026-04-22T10:38:31.562Z</time></trkpt><trkpt lat="40.9871947" lon="14.256191"><ele>21.0</ele><time>2026-04-22T10:38:32.531Z</time></trkpt><trkpt lat="40.9869883" lon="14.2561878"><ele>21.0</ele><time>2026-04-22T10:38:33.482Z</time></trkpt><trkpt lat="40.9867545" lon="14.2561872"><ele>21.0</ele><time>2026-04-22T10:38:34.589Z</time></trkpt><trkpt lat="40.9863619" lon="14.2561866"><ele>22.5</ele><time>2026-04-22T10:38:36.477Z</time></trkpt><trkpt lat="40.9859797" lon="14.2561984"><ele>24.0</ele><time>2026-04-22T10:38:38.364Z</time></trkpt><trkpt lat="40.9857675" lon="14.2562145"><ele>24.0</ele><time>2026-04-22T10:38:39.388Z</time></trkpt><trkpt lat="40.9855569" lon="14.2562329"><ele>24.0</ele><time>2026-04-22T10:38:40.378Z</time></trkpt><trkpt lat="40.9853397" lon="14.2562496"><ele>24.0</ele><time>2026-04-22T10:38:41.42Z</time></trkpt><trkpt lat="40.9851204" lon="14.2562641"><ele>24.333333333333336</ele><time>2026-04-22T10:38:42.507Z</time></trkpt><trkpt lat="40.9849325" lon="14.2562725"><ele>24.666666666666668</ele><time>2026-04-22T10:38:43.506Z</time></trkpt><trkpt lat="40.9847452" lon="14.2562713"><ele>25.0</ele><time>2026-04-22T10:38:44.524Z</time></trkpt><trkpt lat="40.9845798" lon="14.2562572"><ele>25.0</ele><time>2026-04-22T10:38:45.463Z</time></trkpt><trkpt lat="40.9844175" lon="14.2562448"><ele>25.0</ele><time>2026-04-22T10:38:46.445Z</time></trkpt><trkpt lat="40.9842704" lon="14.2562317"><ele>25.0</ele><time>2026-04-22T10:38:47.438Z</time></trkpt><trkpt lat="40.9841222" lon="14.256217"><ele>24.666666666666668</ele><time>2026-04-22T10:38:48.546Z</time></trkpt><trkpt lat="40.9838948" lon="14.256168"><ele>24.333333333333336</ele><time>2026-04-22T10:38:50.406Z</time></trkpt><trkpt lat="40.9837769" lon="14.2561071"><ele>24.0</ele><time>2026-04-22T10:38:51.394Z</time></trkpt><trkpt lat="40.9836461" lon="14.2560155"><ele>24.0</ele><time>2026-04-22T10:38:52.44Z</time></trkpt><trkpt lat="40.9835159" lon="14.2559256"><ele>24.0</ele><time>2026-04-22T10:38:53.471Z</time></trkpt><trkpt lat="40.9834053" lon="14.2558518"><ele>24.0</ele><time>2026-04-22T10:38:54.446Z</time></trkpt><trkpt lat="40.983312" lon="14.2557906"><ele>24.0</ele><time>2026-04-22T10:38:55.406Z</time></trkpt><trkpt lat="40.9832173" lon="14.255734"><ele>24.2</ele><time>2026-04-22T10:38:56.449Z</time></trkpt><trkpt lat="40.9831353" lon="14.2557145"><ele>24.4</ele><time>2026-04-22T10:38:57.422Z</time></trkpt><trkpt lat="40.9830279" lon="14.2557333"><ele>24.6</ele><time>2026-04-22T10:38:58.586Z</time></trkpt><trkpt lat="40.9829468" lon="14.2558043"><ele>24.8</ele><time>2026-04-22T10:38:59.502Z</time></trkpt><trkpt lat="40.9828374" lon="14.2559235"><ele>25.0</ele><time>2026-04-22T10:39:00.519Z</time></trkpt><trkpt lat="40.9826259" lon="14.2561061"><ele>25.0</ele><time>2026-04-22T10:39:02.433Z</time></trkpt><trkpt lat="40.9825171" lon="14.2561778"><ele>25.0</ele><time>2026-04-22T10:39:03.4Z</time></trkpt><trkpt lat="40.9823681" lon="14.2562402"><ele>25.0</ele><time>2026-04-22T10:39:04.691Z</time></trkpt><trkpt lat="40.9821029" lon="14.2562333"><ele>24.5</ele><time>2026-04-22T10:39:06.504Z</time></trkpt><trkpt lat="40.9819357" lon="14.2562356"><ele>24.0</ele><time>2026-04-22T10:39:07.515Z</time></trkpt><trkpt lat="40.981573" lon="14.2562399"><ele>23.666666666666668</ele><time>2026-04-22T10:39:09.425Z</time></trkpt><trkpt lat="40.9813667" lon="14.2562428"><ele>23.333333333333336</ele><time>2026-04-22T10:39:10.477Z</time></trkpt><trkpt lat="40.9811767" lon="14.2562464"><ele>23.0</ele><time>2026-04-22T10:39:11.452Z</time></trkpt><trkpt lat="40.9809994" lon="14.25625"><ele>23.0</ele><time>2026-04-22T10:39:12.41Z</time></trkpt><trkpt lat="40.9808115" lon="14.2562522"><ele>23.0</ele><time>2026-04-22T10:39:13.474Z</time></trkpt><trkpt lat="40.9806477" lon="14.2562564"><ele>23.0</ele><time>2026-04-22T10:39:14.464Z</time></trkpt><trkpt lat="40.9804814" lon="14.2562614"><ele>23.0</ele><time>2026-04-22T10:39:15.556Z</time></trkpt><trkpt lat="40.9803269" lon="14.256264"><ele>23.0</ele><time>2026-04-22T10:39:16.604Z</time></trkpt><trkpt lat="40.9800394" lon="14.2562678"><ele>23.0</ele><time>2026-04-22T10:39:18.526Z</time></trkpt><trkpt lat="40.9799046" lon="14.2562655"><ele>23.666666666666668</ele><time>2026-04-22T10:39:19.44Z</time></trkpt><trkpt lat="40.9797375" lon="14.2562656"><ele>24.333333333333336</ele><time>2026-04-22T10:39:20.465Z</time></trkpt><trkpt lat="40.9795606" lon="14.2562636"><ele>25.0</ele><time>2026-04-22T10:39:21.497Z</time></trkpt><trkpt lat="40.9793671" lon="14.2562635"><ele>24.333333333333336</ele><time>2026-04-22T10:39:22.545Z</time></trkpt><trkpt lat="40.9791672" lon="14.2562644"><ele>23.666666666666668</ele><time>2026-04-22T10:39:23.528Z</time></trkpt><trkpt lat="40.9789687" lon="14.2562652"><ele>23.0</ele><time>2026-04-22T10:39:24.441Z</time></trkpt><trkpt lat="40.9787528" lon="14.2562679"><ele>23.0</ele><time>2026-04-22T10:39:25.401Z</time></trkpt><trkpt lat="40.9785002" lon="14.2562689"><ele>23.0</ele><time>2026-04-22T10:39:26.525Z</time></trkpt><trkpt lat="40.9780566" lon="14.2562713"><ele>23.333333333333336</ele><time>2026-04-22T10:39:28.487Z</time></trkpt><trkpt lat="40.9778426" lon="14.2562721"><ele>23.666666666666668</ele><time>2026-04-22T10:39:29.436Z</time></trkpt><trkpt lat="40.9776221" lon="14.2562751"><ele>24.0</ele><time>2026-04-22T10:39:30.468Z</time></trkpt><trkpt lat="40.9774114" lon="14.2562803"><ele>24.666666666666664</ele><time>2026-04-22T10:39:31.471Z</time></trkpt><trkpt lat="40.9772023" lon="14.256286"><ele>25.333333333333332</ele><time>2026-04-22T10:39:32.454Z</time></trkpt><trkpt lat="40.9769865" lon="14.2562882"><ele>26.0</ele><time>2026-04-22T10:39:33.431Z</time></trkpt><trkpt lat="40.9767465" lon="14.2562952"><ele>26.0</ele><time>2026-04-22T10:39:34.466Z</time></trkpt><trkpt lat="40.976497" lon="14.2563029"><ele>26.0</ele><time>2026-04-22T10:39:35.51Z</time></trkpt><trkpt lat="40.9762797" lon="14.2563068"><ele>26.0</ele><time>2026-04-22T10:39:36.429Z</time></trkpt><trkpt lat="40.976036" lon="14.2563095"><ele>26.0</ele><time>2026-04-22T10:39:37.5Z</time></trkpt><trkpt lat="40.9758271" lon="14.2563104"><ele>26.0</ele><time>2026-04-22T10:39:38.448Z</time></trkpt><trkpt lat="40.9755982" lon="14.2563082"><ele>26.0</ele><time>2026-04-22T10:39:39.517Z</time></trkpt><trkpt lat="40.9752038" lon="14.2563056"><ele>26.0</ele><time>2026-04-22T10:39:41.472Z</time></trkpt><trkpt lat="40.9750262" lon="14.2563031"><ele>26.0</ele><time>2026-04-22T10:39:42.405Z</time></trkpt><trkpt lat="40.9748492" lon="14.2562995"><ele>26.0</ele><time>2026-04-22T10:39:43.427Z</time></trkpt><trkpt lat="40.9746989" lon="14.2562951"><ele>26.666666666666664</ele><time>2026-04-22T10:39:44.395Z</time></trkpt><trkpt lat="40.974545" lon="14.2562927"><ele>27.333333333333336</ele><time>2026-04-22T10:39:45.452Z</time></trkpt><trkpt lat="40.9743882" lon="14.2562896"><ele>28.0</ele><time>2026-04-22T10:39:46.586Z</time></trkpt><trkpt lat="40.9741428" lon="14.2562815"><ele>28.4</ele><time>2026-04-22T10:39:48.445Z</time></trkpt><trkpt lat="40.9740243" lon="14.2562735"><ele>28.799999999999997</ele><time>2026-04-22T10:39:49.441Z</time></trkpt><trkpt lat="40.9739125" lon="14.256267"><ele>29.2</ele><time>2026-04-22T10:39:50.424Z</time></trkpt><trkpt lat="40.9738032" lon="14.2562632"><ele>29.6</ele><time>2026-04-22T10:39:51.461Z</time></trkpt><trkpt lat="40.9737116" lon="14.2562559"><ele>30.0</ele><time>2026-04-22T10:39:52.452Z</time></trkpt><trkpt lat="40.9736382" lon="14.2562424"><ele>30.0</ele><time>2026-04-22T10:39:53.479Z</time></trkpt><trkpt lat="40.9735321" lon="14.2562071"><ele>30.0</ele><time>2026-04-22T10:39:55.692Z</time></trkpt><trkpt lat="40.9734463" lon="14.2560731"><ele>30.0</ele><time>2026-04-22T10:39:57.553Z</time></trkpt><trkpt lat="40.9734231" lon="14.2559157"><ele>30.0</ele><time>2026-04-22T10:39:58.54Z</time></trkpt><trkpt lat="40.9733961" lon="14.2557322"><ele>30.0</ele><time>2026-04-22T10:39:59.515Z</time></trkpt><trkpt lat="40.9733613" lon="14.2555051"><ele>30.0</ele><time>2026-04-22T10:40:00.611Z</time></trkpt><trkpt lat="40.9732976" lon="14.2550057"><ele>30.0</ele><time>2026-04-22T10:40:02.478Z</time></trkpt><trkpt lat="40.9732714" lon="14.2547158"><ele>30.0</ele><time>2026-04-22T10:40:03.505Z</time></trkpt><trkpt lat="40.9732555" lon="14.2544716"><ele>30.0</ele><time>2026-04-22T10:40:04.504Z</time></trkpt><trkpt lat="40.9732475" lon="14.2542484"><ele>30.0</ele><time>2026-04-22T10:40:05.541Z</time></trkpt><trkpt lat="40.9732372" lon="14.2540569"><ele>30.0</ele><time>2026-04-22T10:40:06.492Z</time></trkpt><trkpt lat="40.9732342" lon="14.2539007"><ele>30.0</ele><time>2026-04-22T10:40:07.48Z</time></trkpt><trkpt lat="40.9732332" lon="14.2537443"><ele>30.0</ele><time>2026-04-22T10:40:08.556Z</time></trkpt><trkpt lat="40.9732519" lon="14.2533637"><ele>29.666666666666664</ele><time>2026-04-22T10:40:10.384Z</time></trkpt><trkpt lat="40.9732854" lon="14.2530899"><ele>29.333333333333332</ele><time>2026-04-22T10:40:11.433Z</time></trkpt><trkpt lat="40.9733304" lon="14.2527934"><ele>29.0</ele><time>2026-04-22T10:40:12.497Z</time></trkpt><trkpt lat="40.973373" lon="14.2525557"><ele>28.333333333333332</ele><time>2026-04-22T10:40:13.448Z</time></trkpt><trkpt lat="40.9734081" lon="14.2523166"><ele>27.666666666666664</ele><time>2026-04-22T10:40:14.454Z</time></trkpt><trkpt lat="40.9734378" lon="14.252099"><ele>27.0</ele><time>2026-04-22T10:40:15.407Z</time></trkpt><trkpt lat="40.9734712" lon="14.2518643"><ele>27.0</ele><time>2026-04-22T10:40:16.468Z</time></trkpt><trkpt lat="40.9735024" lon="14.251651"><ele>27.0</ele><time>2026-04-22T10:40:17.482Z</time></trkpt><trkpt lat="40.9735322" lon="14.2514447"><ele>27.0</ele><time>2026-04-22T10:40:18.498Z</time></trkpt><trkpt lat="40.9735612" lon="14.2512626"><ele>27.25</ele><time>2026-04-22T10:40:19.421Z</time></trkpt><trkpt lat="40.9735954" lon="14.25107"><ele>27.5</ele><time>2026-04-22T10:40:20.419Z</time></trkpt><trkpt lat="40.973626" lon="14.2508908"><ele>27.75</ele><time>2026-04-22T10:40:21.428Z</time></trkpt><trkpt lat="40.9736574" lon="14.250722"><ele>28.0</ele><time>2026-04-22T10:40:22.498Z</time></trkpt><trkpt lat="40.9736836" lon="14.250592"><ele>28.2</ele><time>2026-04-22T10:40:23.417Z</time></trkpt><trkpt lat="40.9737074" lon="14.2504615"><ele>28.4</ele><time>2026-04-22T10:40:24.418Z</time></trkpt><trkpt lat="40.9737242" lon="14.2503394"><ele>28.599999999999998</ele><time>2026-04-22T10:40:25.455Z</time></trkpt><trkpt lat="40.9737417" lon="14.250237"><ele>28.799999999999997</ele><time>2026-04-22T10:40:26.437Z</time></trkpt><trkpt lat="40.9737629" lon="14.2501337"><ele>29.0</ele><time>2026-04-22T10:40:27.577Z</time></trkpt><trkpt lat="40.9737974" lon="14.2499878"><ele>28.999999999999996</ele><time>2026-04-22T10:40:29.463Z</time></trkpt><trkpt lat="40.9738276" lon="14.249904"><ele>29.0</ele><time>2026-04-22T10:40:30.542Z</time></trkpt><trkpt lat="40.9738335" lon="14.249782"><ele>29.0</ele><time>2026-04-22T10:40:32.497Z</time></trkpt><trkpt lat="40.9737778" lon="14.2496876"><ele>29.0</ele><time>2026-04-22T10:40:34.54Z</time></trkpt><trkpt lat="40.9736765" lon="14.2496962"><ele>28.999999999999996</ele><time>2026-04-22T10:40:36.452Z</time></trkpt><trkpt lat="40.9735987" lon="14.2497237"><ele>29.0</ele><time>2026-04-22T10:40:37.475Z</time></trkpt><trkpt lat="40.9735028" lon="14.249736"><ele>29.0</ele><time>2026-04-22T10:40:38.43Z</time></trkpt><trkpt lat="40.9734039" lon="14.2497309"><ele>29.0</ele><time>2026-04-22T10:40:39.473Z</time></trkpt><trkpt lat="40.9732983" lon="14.2497278"><ele>29.0</ele><time>2026-04-22T10:40:40.554Z</time></trkpt><trkpt lat="40.9731929" lon="14.2497317"><ele>29.0</ele><time>2026-04-22T10:40:41.567Z</time></trkpt><trkpt lat="40.9730831" lon="14.2497351"><ele>29.0</ele><time>2026-04-22T10:40:42.508Z</time></trkpt><trkpt lat="40.972972" lon="14.2497347"><ele>29.0</ele><time>2026-04-22T10:40:43.465Z</time></trkpt><trkpt lat="40.9728677" lon="14.249736"><ele>29.0</ele><time>2026-04-22T10:40:44.4Z</time></trkpt><trkpt lat="40.9727471" lon="14.2497379"><ele>29.0</ele><time>2026-04-22T10:40:45.432Z</time></trkpt><trkpt lat="40.9726336" lon="14.249736"><ele>29.0</ele><time>2026-04-22T10:40:46.416Z</time></trkpt><trkpt lat="40.9725103" lon="14.2497331"><ele>29.0</ele><time>2026-04-22T10:40:47.475Z</time></trkpt><trkpt lat="40.9723922" lon="14.2497305"><ele>29.0</ele><time>2026-04-22T10:40:48.444Z</time></trkpt><trkpt lat="40.9722716" lon="14.2497306"><ele>29.0</ele><time>2026-04-22T10:40:49.436Z</time></trkpt><trkpt lat="40.9721532" lon="14.2497357"><ele>29.0</ele><time>2026-04-22T10:40:50.403Z</time></trkpt><trkpt lat="40.9720266" lon="14.2497392"><ele>29.0</ele><time>2026-04-22T10:40:51.437Z</time></trkpt><trkpt lat="40.9718935" lon="14.2497398"><ele>29.0</ele><time>2026-04-22T10:40:52.552Z</time></trkpt><trkpt lat="40.9717116" lon="14.2497438"><ele>29.0</ele><time>2026-04-22T10:40:54.385Z</time></trkpt><trkpt lat="40.9716202" lon="14.2497457"><ele>29.0</ele><time>2026-04-22T10:40:55.418Z</time></trkpt><trkpt lat="40.971537" lon="14.2497434"><ele>29.2</ele><time>2026-04-22T10:40:56.454Z</time></trkpt><trkpt lat="40.9714636" lon="14.2497421"><ele>29.4</ele><time>2026-04-22T10:40:57.472Z</time></trkpt><trkpt lat="40.971395" lon="14.2497434"><ele>29.6</ele><time>2026-04-22T10:40:58.508Z</time></trkpt><trkpt lat="40.9712808" lon="14.2497565"><ele>29.8</ele><time>2026-04-22T10:41:00.468Z</time></trkpt><trkpt lat="40.9712165" lon="14.2497521"><ele>30.0</ele><time>2026-04-22T10:41:01.441Z</time></trkpt><trkpt lat="40.9710724" lon="14.2497538"><ele>30.0</ele><time>2026-04-22T10:41:04.448Z</time></trkpt><trkpt lat="40.9709793" lon="14.2497927"><ele>30.0</ele><time>2026-04-22T10:41:06.428Z</time></trkpt><trkpt lat="40.9708614" lon="14.2498203"><ele>30.0</ele><time>2026-04-22T10:41:08.448Z</time></trkpt><trkpt lat="40.9707897" lon="14.2498273"><ele>30.0</ele><time>2026-04-22T10:41:09.463Z</time></trkpt><trkpt lat="40.9707054" lon="14.2498211"><ele>30.0</ele><time>2026-04-22T10:41:11.383Z</time></trkpt><trkpt lat="40.9706203" lon="14.2498026"><ele>30.2</ele><time>2026-04-22T10:41:21.393Z</time></trkpt><trkpt lat="40.9704924" lon="14.2498009"><ele>30.4</ele><time>2026-04-22T10:41:24.424Z</time></trkpt><trkpt lat="40.9703858" lon="14.2498021"><ele>30.6</ele><time>2026-04-22T10:41:26.439Z</time></trkpt><trkpt lat="40.9703077" lon="14.2498019"><ele>30.8</ele><time>2026-04-22T10:41:27.529Z</time></trkpt><trkpt lat="40.9701784" lon="14.2498024"><ele>31.0</ele><time>2026-04-22T10:41:29.503Z</time></trkpt><trkpt lat="40.9701114" lon="14.2497992"><ele>31.0</ele><time>2026-04-22T10:41:30.414Z</time></trkpt><trkpt lat="40.9700256" lon="14.249792"><ele>31.0</ele><time>2026-04-22T10:41:31.433Z</time></trkpt><trkpt lat="40.9699313" lon="14.2497884"><ele>31.0</ele><time>2026-04-22T10:41:32.4Z</time></trkpt><trkpt lat="40.9698378" lon="14.2497853"><ele>31.0</ele><time>2026-04-22T10:41:33.438Z</time></trkpt><trkpt lat="40.9697447" lon="14.2497832"><ele>31.0</ele><time>2026-04-22T10:41:34.461Z</time></trkpt><trkpt lat="40.969652" lon="14.2497818"><ele>31.000000000000004</ele><time>2026-04-22T10:41:35.412Z</time></trkpt><trkpt lat="40.9695705" lon="14.2497745"><ele>31.0</ele><time>2026-04-22T10:41:36.4Z</time></trkpt><trkpt lat="40.9694912" lon="14.2497777"><ele>31.0</ele><time>2026-04-22T10:41:37.373Z</time></trkpt><trkpt lat="40.9694026" lon="14.2497836"><ele>31.0</ele><time>2026-04-22T10:41:38.453Z</time></trkpt><trkpt lat="40.9693222" lon="14.2497758"><ele>31.000000000000004</ele><time>2026-04-22T10:41:39.467Z</time></trkpt><trkpt lat="40.9692399" lon="14.2497808"><ele>31.0</ele><time>2026-04-22T10:41:40.487Z</time></trkpt><trkpt lat="40.9691576" lon="14.2497942"><ele>31.6</ele><time>2026-04-22T10:41:41.474Z</time></trkpt><trkpt lat="40.969073" lon="14.2498103"><ele>32.2</ele><time>2026-04-22T10:41:42.394Z</time></trkpt><trkpt lat="40.9689838" lon="14.2498288"><ele>32.8</ele><time>2026-04-22T10:41:43.391Z</time></trkpt><trkpt lat="40.9688769" lon="14.2498573"><ele>33.4</ele><time>2026-04-22T10:41:44.532Z</time></trkpt><trkpt lat="40.9687943" lon="14.2498679"><ele>34.0</ele><time>2026-04-22T10:41:45.433Z</time></trkpt><trkpt lat="40.9686936" lon="14.2498752"><ele>34.0</ele><time>2026-04-22T10:41:46.494Z</time></trkpt><trkpt lat="40.9685914" lon="14.2498909"><ele>34.0</ele><time>2026-04-22T10:41:47.516Z</time></trkpt><trkpt lat="40.968499" lon="14.2498923"><ele>34.0</ele><time>2026-04-22T10:41:48.443Z</time></trkpt><trkpt lat="40.9683962" lon="14.2498894"><ele>34.0</ele><time>2026-04-22T10:41:49.414Z</time></trkpt><trkpt lat="40.9682753" lon="14.2498878"><ele>34.0</ele><time>2026-04-22T10:41:50.475Z</time></trkpt><trkpt lat="40.9681664" lon="14.2498876"><ele>33.4</ele><time>2026-04-22T10:41:51.458Z</time></trkpt><trkpt lat="40.9680651" lon="14.2498843"><ele>32.8</ele><time>2026-04-22T10:41:52.444Z</time></trkpt><trkpt lat="40.9679575" lon="14.2498823"><ele>32.2</ele><time>2026-04-22T10:41:53.492Z</time></trkpt><trkpt lat="40.967863" lon="14.2498814"><ele>31.6</ele><time>2026-04-22T10:41:54.45Z</time></trkpt><trkpt lat="40.9677817" lon="14.2498719"><ele>31.0</ele><time>2026-04-22T10:41:55.44Z</time></trkpt><trkpt lat="40.9677145" lon="14.2498627"><ele>31.000000000000004</ele><time>2026-04-22T10:41:56.602Z</time></trkpt><trkpt lat="40.9676444" lon="14.2498389"><ele>31.0</ele><time>2026-04-22T10:41:58.455Z</time></trkpt><trkpt lat="40.9675719" lon="14.2498325"><ele>31.0</ele><time>2026-04-22T10:41:59.521Z</time></trkpt><trkpt lat="40.9675068" lon="14.2498326"><ele>31.0</ele><time>2026-04-22T10:42:00.555Z</time></trkpt><trkpt lat="40.9673811" lon="14.2498268"><ele>31.000000000000004</ele><time>2026-04-22T10:42:02.52Z</time></trkpt><trkpt lat="40.9673065" lon="14.2498277"><ele>31.0</ele><time>2026-04-22T10:42:03.518Z</time></trkpt><trkpt lat="40.967232" lon="14.2498267"><ele>31.500000000000004</ele><time>2026-04-22T10:42:04.565Z</time></trkpt><trkpt lat="40.9671552" lon="14.2498261"><ele>32.0</ele><time>2026-04-22T10:42:05.557Z</time></trkpt><trkpt lat="40.9670821" lon="14.249824"><ele>32.5</ele><time>2026-04-22T10:42:06.467Z</time></trkpt><trkpt lat="40.9669997" lon="14.249822"><ele>33.0</ele><time>2026-04-22T10:42:07.509Z</time></trkpt><trkpt lat="40.9669173" lon="14.2498253"><ele>33.5</ele><time>2026-04-22T10:42:08.554Z</time></trkpt><trkpt lat="40.9668482" lon="14.2498227"><ele>34.0</ele><time>2026-04-22T10:42:09.558Z</time></trkpt><trkpt lat="40.9667313" lon="14.2498248"><ele>34.4</ele><time>2026-04-22T10:42:11.536Z</time></trkpt><trkpt lat="40.9666642" lon="14.2498336"><ele>34.8</ele><time>2026-04-22T10:42:12.456Z</time></trkpt><trkpt lat="40.9665952" lon="14.2498514"><ele>35.2</ele><time>2026-04-22T10:42:13.503Z</time></trkpt><trkpt lat="40.966494" lon="14.2498643"><ele>35.6</ele><time>2026-04-22T10:42:15.546Z</time></trkpt><trkpt lat="40.9664151" lon="14.2497921"><ele>36.0</ele><time>2026-04-22T10:42:18.461Z</time></trkpt><trkpt lat="40.9664323" lon="14.2496145"><ele>36.0</ele><time>2026-04-22T10:42:20.454Z</time></trkpt><trkpt lat="40.9664355" lon="14.2494986"><ele>36.0</ele><time>2026-04-22T10:42:21.518Z</time></trkpt><trkpt lat="40.9664229" lon="14.2493852"><ele>36.0</ele><time>2026-04-22T10:42:22.525Z</time></trkpt><trkpt lat="40.9664285" lon="14.249172"><ele>36.0</ele><time>2026-04-22T10:42:24.437Z</time></trkpt><trkpt lat="40.9664392" lon="14.2490689"><ele>36.0</ele><time>2026-04-22T10:42:25.43Z</time></trkpt><trkpt lat="40.9664353" lon="14.2489628"><ele>36.0</ele><time>2026-04-22T10:42:26.44Z</time></trkpt><trkpt lat="40.9664393" lon="14.2488694"><ele>36.0</ele><time>2026-04-22T10:42:27.482Z</time></trkpt><trkpt lat="40.9664335" lon="14.2487431"><ele>36.0</ele><time>2026-04-22T10:42:29.452Z</time></trkpt><trkpt lat="40.9664237" lon="14.248635"><ele>36.0</ele><time>2026-04-22T10:42:33.484Z</time></trkpt><trkpt lat="40.9663628" lon="14.2486023"><ele>36.0</ele><time>2026-04-22T10:42:35.508Z</time></trkpt><trkpt lat="40.9662918" lon="14.2486116"><ele>36.0</ele><time>2026-04-22T10:42:38.477Z</time></trkpt><trkpt lat="40.9662021" lon="14.2486278"><ele>36.0</ele><time>2026-04-22T10:42:40.464Z</time></trkpt><trkpt lat="40.9661134" lon="14.2486304"><ele>36.0</ele><time>2026-04-22T10:42:42.481Z</time></trkpt><trkpt lat="40.9660058" lon="14.2486493"><ele>36.0</ele><time>2026-04-22T10:42:44.591Z</time></trkpt><trkpt lat="40.9659376" lon="14.2486404"><ele>36.0</ele><time>2026-04-22T10:42:46.434Z</time></trkpt><trkpt lat="40.9658505" lon="14.2486388"><ele>36.0</ele><time>2026-04-22T10:42:48.468Z</time></trkpt><trkpt lat="40.9657653" lon="14.2486535"><ele>36.0</ele><time>2026-04-22T10:42:50.489Z</time></trkpt><trkpt lat="40.9656982" lon="14.2486512"><ele>38.0</ele><time>2026-04-22T10:42:52.484Z</time></trkpt><trkpt lat="40.9656341" lon="14.2486419"><ele>38.0</ele><time>2026-04-22T10:42:56.542Z</time></trkpt><trkpt lat="40.9655625" lon="14.2486187"><ele>38.0</ele><time>2026-04-22T10:43:04.484Z</time></trkpt><trkpt lat="40.9655058" lon="14.2485724"><ele>38.0</ele><time>2026-04-22T10:44:10.426Z</time></trkpt></trkseg></trk></gpx>